<?xml version="1.0" encoding="UTF-8" standalone="no" ?>
<gpx xmlns="http://www.topografix.com/GPX/1/1" xmlns:xsi="http://www.w3.org/2001/XMLSchema-instance" xsi:schemaLocation="http://www.topografix.com/GPX/1/1 http://www.topografix.com/GPX/1/1/gpx.xsd" version="1.1" creator="VisuGPX - https://www.visugpx.com">
  <metadata>
    <name>RANDONNEE VTT RONDE DES TERRILS OIGNIE</name>
    <desc><![CDATA[Beau circuit VTT]]></desc>
  </metadata>
  <wpt lat="50.46478" lon="2.99503">
    <ele>-47</ele>
  </wpt>
  <wpt lat="50.46501" lon="2.99586">
    <ele>25</ele>
  </wpt>
  <trk>
    <name><![CDATA[RANDONNEE VTT RONDE DES TERRILS OIGNIE_1]]></name>
    <trkseg>
      <trkpt lat="50.46478" lon="2.99503">
        <ele>-47</ele>
        <time>2012-02-05T07:20:23Z</time>
      </trkpt>
      <trkpt lat="50.46488" lon="2.99503">
        <ele>-47</ele>
        <time>2012-02-05T07:20:24Z</time>
      </trkpt>
      <trkpt lat="50.46492" lon="2.99473">
        <ele>-47</ele>
        <time>2012-02-05T07:20:28Z</time>
      </trkpt>
      <trkpt lat="50.46482" lon="2.99489">
        <ele>-47</ele>
        <time>2012-02-05T07:20:29Z</time>
      </trkpt>
      <trkpt lat="50.46517" lon="2.99457">
        <ele>22</ele>
        <time>2012-02-05T07:20:33Z</time>
      </trkpt>
      <trkpt lat="50.46512" lon="2.99444">
        <ele>28</ele>
        <time>2012-02-05T07:20:42Z</time>
      </trkpt>
      <trkpt lat="50.46504" lon="2.99429">
        <ele>28</ele>
        <time>2012-02-05T07:20:46Z</time>
      </trkpt>
      <trkpt lat="50.46496" lon="2.99418">
        <ele>28</ele>
        <time>2012-02-05T07:20:49Z</time>
      </trkpt>
      <trkpt lat="50.46486" lon="2.99404">
        <ele>28</ele>
        <time>2012-02-05T07:20:52Z</time>
      </trkpt>
      <trkpt lat="50.46478" lon="2.99392">
        <ele>28</ele>
        <time>2012-02-05T07:20:55Z</time>
      </trkpt>
      <trkpt lat="50.46471" lon="2.99381">
        <ele>28</ele>
        <time>2012-02-05T07:20:58Z</time>
      </trkpt>
      <trkpt lat="50.46464" lon="2.9937">
        <ele>28</ele>
        <time>2012-02-05T07:21:01Z</time>
      </trkpt>
      <trkpt lat="50.46456" lon="2.9936">
        <ele>28</ele>
        <time>2012-02-05T07:21:04Z</time>
      </trkpt>
      <trkpt lat="50.46447" lon="2.99352">
        <ele>28</ele>
        <time>2012-02-05T07:21:07Z</time>
      </trkpt>
      <trkpt lat="50.46438" lon="2.99347">
        <ele>28</ele>
        <time>2012-02-05T07:21:10Z</time>
      </trkpt>
      <trkpt lat="50.46427" lon="2.99342">
        <ele>28</ele>
        <time>2012-02-05T07:21:13Z</time>
      </trkpt>
      <trkpt lat="50.46416" lon="2.99339">
        <ele>28</ele>
        <time>2012-02-05T07:21:16Z</time>
      </trkpt>
      <trkpt lat="50.46404" lon="2.99334">
        <ele>28</ele>
        <time>2012-02-05T07:21:19Z</time>
      </trkpt>
      <trkpt lat="50.46395" lon="2.99324">
        <ele>28</ele>
        <time>2012-02-05T07:21:22Z</time>
      </trkpt>
      <trkpt lat="50.46386" lon="2.99315">
        <ele>28</ele>
        <time>2012-02-05T07:21:25Z</time>
      </trkpt>
      <trkpt lat="50.46376" lon="2.99312">
        <ele>28</ele>
        <time>2012-02-05T07:21:28Z</time>
      </trkpt>
      <trkpt lat="50.46366" lon="2.99303">
        <ele>28</ele>
        <time>2012-02-05T07:21:32Z</time>
      </trkpt>
      <trkpt lat="50.4636" lon="2.99287">
        <ele>28</ele>
        <time>2012-02-05T07:21:35Z</time>
      </trkpt>
      <trkpt lat="50.46355" lon="2.99272">
        <ele>28</ele>
        <time>2012-02-05T07:21:38Z</time>
      </trkpt>
      <trkpt lat="50.46349" lon="2.9926">
        <ele>28</ele>
        <time>2012-02-05T07:21:40Z</time>
      </trkpt>
      <trkpt lat="50.46343" lon="2.99248">
        <ele>28</ele>
        <time>2012-02-05T07:21:42Z</time>
      </trkpt>
      <trkpt lat="50.46337" lon="2.99235">
        <ele>28</ele>
        <time>2012-02-05T07:21:44Z</time>
      </trkpt>
      <trkpt lat="50.46331" lon="2.99223">
        <ele>28</ele>
        <time>2012-02-05T07:21:46Z</time>
      </trkpt>
      <trkpt lat="50.46325" lon="2.99211">
        <ele>28</ele>
        <time>2012-02-05T07:21:48Z</time>
      </trkpt>
      <trkpt lat="50.4632" lon="2.99199">
        <ele>28</ele>
        <time>2012-02-05T07:21:50Z</time>
      </trkpt>
      <trkpt lat="50.46313" lon="2.99187">
        <ele>28</ele>
        <time>2012-02-05T07:21:52Z</time>
      </trkpt>
      <trkpt lat="50.46307" lon="2.99173">
        <ele>28</ele>
        <time>2012-02-05T07:21:54Z</time>
      </trkpt>
      <trkpt lat="50.46302" lon="2.99161">
        <ele>28</ele>
        <time>2012-02-05T07:21:56Z</time>
      </trkpt>
      <trkpt lat="50.46296" lon="2.99149">
        <ele>28</ele>
        <time>2012-02-05T07:21:58Z</time>
      </trkpt>
      <trkpt lat="50.4629" lon="2.99135">
        <ele>28</ele>
        <time>2012-02-05T07:22:00Z</time>
      </trkpt>
      <trkpt lat="50.46282" lon="2.99122">
        <ele>28</ele>
        <time>2012-02-05T07:22:02Z</time>
      </trkpt>
      <trkpt lat="50.46275" lon="2.99108">
        <ele>28</ele>
        <time>2012-02-05T07:22:04Z</time>
      </trkpt>
      <trkpt lat="50.46268" lon="2.99096">
        <ele>28</ele>
        <time>2012-02-05T07:22:06Z</time>
      </trkpt>
      <trkpt lat="50.46262" lon="2.99084">
        <ele>28</ele>
        <time>2012-02-05T07:22:08Z</time>
      </trkpt>
      <trkpt lat="50.46255" lon="2.99073">
        <ele>28</ele>
        <time>2012-02-05T07:22:10Z</time>
      </trkpt>
      <trkpt lat="50.46248" lon="2.99061">
        <ele>28</ele>
        <time>2012-02-05T07:22:12Z</time>
      </trkpt>
      <trkpt lat="50.4624" lon="2.99049">
        <ele>28</ele>
        <time>2012-02-05T07:22:14Z</time>
      </trkpt>
      <trkpt lat="50.46232" lon="2.99038">
        <ele>28</ele>
        <time>2012-02-05T07:22:16Z</time>
      </trkpt>
      <trkpt lat="50.46225" lon="2.99025">
        <ele>28</ele>
        <time>2012-02-05T07:22:18Z</time>
      </trkpt>
      <trkpt lat="50.46217" lon="2.99013">
        <ele>28</ele>
        <time>2012-02-05T07:22:20Z</time>
      </trkpt>
      <trkpt lat="50.46209" lon="2.99002">
        <ele>28</ele>
        <time>2012-02-05T07:22:22Z</time>
      </trkpt>
      <trkpt lat="50.46202" lon="2.98991">
        <ele>28</ele>
        <time>2012-02-05T07:22:24Z</time>
      </trkpt>
      <trkpt lat="50.46195" lon="2.98979">
        <ele>28</ele>
        <time>2012-02-05T07:22:26Z</time>
      </trkpt>
      <trkpt lat="50.46187" lon="2.98967">
        <ele>28</ele>
        <time>2012-02-05T07:22:28Z</time>
      </trkpt>
      <trkpt lat="50.46179" lon="2.98956">
        <ele>28</ele>
        <time>2012-02-05T07:22:30Z</time>
      </trkpt>
      <trkpt lat="50.46172" lon="2.98944">
        <ele>28</ele>
        <time>2012-02-05T07:22:32Z</time>
      </trkpt>
      <trkpt lat="50.46164" lon="2.98932">
        <ele>28</ele>
        <time>2012-02-05T07:22:34Z</time>
      </trkpt>
      <trkpt lat="50.46155" lon="2.98922">
        <ele>28</ele>
        <time>2012-02-05T07:22:36Z</time>
      </trkpt>
      <trkpt lat="50.46146" lon="2.98914">
        <ele>28</ele>
        <time>2012-02-05T07:22:38Z</time>
      </trkpt>
      <trkpt lat="50.46137" lon="2.98909">
        <ele>28</ele>
        <time>2012-02-05T07:22:40Z</time>
      </trkpt>
      <trkpt lat="50.46128" lon="2.98905">
        <ele>28</ele>
        <time>2012-02-05T07:22:42Z</time>
      </trkpt>
      <trkpt lat="50.46117" lon="2.98896">
        <ele>28</ele>
        <time>2012-02-05T07:22:45Z</time>
      </trkpt>
      <trkpt lat="50.46113" lon="2.98881">
        <ele>28</ele>
        <time>2012-02-05T07:22:49Z</time>
      </trkpt>
      <trkpt lat="50.46117" lon="2.98864">
        <ele>28</ele>
        <time>2012-02-05T07:22:52Z</time>
      </trkpt>
      <trkpt lat="50.4612" lon="2.98851">
        <ele>28</ele>
        <time>2012-02-05T07:22:54Z</time>
      </trkpt>
      <trkpt lat="50.46123" lon="2.98836">
        <ele>28</ele>
        <time>2012-02-05T07:22:56Z</time>
      </trkpt>
      <trkpt lat="50.46126" lon="2.98822">
        <ele>28</ele>
        <time>2012-02-05T07:22:58Z</time>
      </trkpt>
      <trkpt lat="50.4613" lon="2.98808">
        <ele>28</ele>
        <time>2012-02-05T07:23:00Z</time>
      </trkpt>
      <trkpt lat="50.46133" lon="2.98793">
        <ele>28</ele>
        <time>2012-02-05T07:23:02Z</time>
      </trkpt>
      <trkpt lat="50.46136" lon="2.98779">
        <ele>28</ele>
        <time>2012-02-05T07:23:04Z</time>
      </trkpt>
      <trkpt lat="50.46138" lon="2.98763">
        <ele>28</ele>
        <time>2012-02-05T07:23:06Z</time>
      </trkpt>
      <trkpt lat="50.46142" lon="2.98746">
        <ele>23</ele>
        <time>2012-02-05T07:23:08Z</time>
      </trkpt>
      <trkpt lat="50.46145" lon="2.9873">
        <ele>23</ele>
        <time>2012-02-05T07:23:10Z</time>
      </trkpt>
      <trkpt lat="50.46148" lon="2.98714">
        <ele>23</ele>
        <time>2012-02-05T07:23:12Z</time>
      </trkpt>
      <trkpt lat="50.46151" lon="2.98699">
        <ele>23</ele>
        <time>2012-02-05T07:23:14Z</time>
      </trkpt>
      <trkpt lat="50.46154" lon="2.98684">
        <ele>23</ele>
        <time>2012-02-05T07:23:16Z</time>
      </trkpt>
      <trkpt lat="50.46158" lon="2.98668">
        <ele>23</ele>
        <time>2012-02-05T07:23:18Z</time>
      </trkpt>
      <trkpt lat="50.46161" lon="2.98653">
        <ele>23</ele>
        <time>2012-02-05T07:23:20Z</time>
      </trkpt>
      <trkpt lat="50.46165" lon="2.98638">
        <ele>23</ele>
        <time>2012-02-05T07:23:22Z</time>
      </trkpt>
      <trkpt lat="50.46169" lon="2.98623">
        <ele>23</ele>
        <time>2012-02-05T07:23:24Z</time>
      </trkpt>
      <trkpt lat="50.46172" lon="2.9861">
        <ele>23</ele>
        <time>2012-02-05T07:23:26Z</time>
      </trkpt>
      <trkpt lat="50.46175" lon="2.98591">
        <ele>23</ele>
        <time>2012-02-05T07:23:29Z</time>
      </trkpt>
      <trkpt lat="50.46172" lon="2.98577">
        <ele>23</ele>
        <time>2012-02-05T07:23:32Z</time>
      </trkpt>
      <trkpt lat="50.4616" lon="2.98567">
        <ele>23</ele>
        <time>2012-02-05T07:23:35Z</time>
      </trkpt>
      <trkpt lat="50.46151" lon="2.98562">
        <ele>23</ele>
        <time>2012-02-05T07:23:37Z</time>
      </trkpt>
      <trkpt lat="50.46141" lon="2.98558">
        <ele>23</ele>
        <time>2012-02-05T07:23:39Z</time>
      </trkpt>
      <trkpt lat="50.46131" lon="2.98555">
        <ele>23</ele>
        <time>2012-02-05T07:23:41Z</time>
      </trkpt>
      <trkpt lat="50.4612" lon="2.98555">
        <ele>23</ele>
        <time>2012-02-05T07:23:43Z</time>
      </trkpt>
      <trkpt lat="50.46109" lon="2.98556">
        <ele>23</ele>
        <time>2012-02-05T07:23:45Z</time>
      </trkpt>
      <trkpt lat="50.46098" lon="2.98561">
        <ele>23</ele>
        <time>2012-02-05T07:23:47Z</time>
      </trkpt>
      <trkpt lat="50.46087" lon="2.98565">
        <ele>23</ele>
        <time>2012-02-05T07:23:49Z</time>
      </trkpt>
      <trkpt lat="50.46076" lon="2.98571">
        <ele>23</ele>
        <time>2012-02-05T07:23:51Z</time>
      </trkpt>
      <trkpt lat="50.46066" lon="2.98577">
        <ele>23</ele>
        <time>2012-02-05T07:23:53Z</time>
      </trkpt>
      <trkpt lat="50.46055" lon="2.98582">
        <ele>23</ele>
        <time>2012-02-05T07:23:55Z</time>
      </trkpt>
      <trkpt lat="50.46044" lon="2.98587">
        <ele>28</ele>
        <time>2012-02-05T07:23:57Z</time>
      </trkpt>
      <trkpt lat="50.46033" lon="2.98589">
        <ele>28</ele>
        <time>2012-02-05T07:23:59Z</time>
      </trkpt>
      <trkpt lat="50.46022" lon="2.98593">
        <ele>28</ele>
        <time>2012-02-05T07:24:01Z</time>
      </trkpt>
      <trkpt lat="50.46011" lon="2.98595">
        <ele>28</ele>
        <time>2012-02-05T07:24:03Z</time>
      </trkpt>
      <trkpt lat="50.46" lon="2.98595">
        <ele>28</ele>
        <time>2012-02-05T07:24:05Z</time>
      </trkpt>
      <trkpt lat="50.45989" lon="2.98594">
        <ele>28</ele>
        <time>2012-02-05T07:24:07Z</time>
      </trkpt>
      <trkpt lat="50.45978" lon="2.98593">
        <ele>28</ele>
        <time>2012-02-05T07:24:09Z</time>
      </trkpt>
      <trkpt lat="50.45968" lon="2.9859">
        <ele>28</ele>
        <time>2012-02-05T07:24:11Z</time>
      </trkpt>
      <trkpt lat="50.45956" lon="2.98587">
        <ele>28</ele>
        <time>2012-02-05T07:24:13Z</time>
      </trkpt>
      <trkpt lat="50.45945" lon="2.98583">
        <ele>28</ele>
        <time>2012-02-05T07:24:15Z</time>
      </trkpt>
      <trkpt lat="50.45934" lon="2.98578">
        <ele>28</ele>
        <time>2012-02-05T07:24:17Z</time>
      </trkpt>
      <trkpt lat="50.45923" lon="2.98572">
        <ele>28</ele>
        <time>2012-02-05T07:24:19Z</time>
      </trkpt>
      <trkpt lat="50.45912" lon="2.98567">
        <ele>28</ele>
        <time>2012-02-05T07:24:21Z</time>
      </trkpt>
      <trkpt lat="50.45903" lon="2.98561">
        <ele>28</ele>
        <time>2012-02-05T07:24:23Z</time>
      </trkpt>
      <trkpt lat="50.459" lon="2.98546">
        <ele>28</ele>
        <time>2012-02-05T07:24:32Z</time>
      </trkpt>
      <trkpt lat="50.45909" lon="2.98538">
        <ele>28</ele>
        <time>2012-02-05T07:24:36Z</time>
      </trkpt>
      <trkpt lat="50.45919" lon="2.98535">
        <ele>28</ele>
        <time>2012-02-05T07:24:39Z</time>
      </trkpt>
      <trkpt lat="50.45929" lon="2.98525">
        <ele>28</ele>
        <time>2012-02-05T07:24:43Z</time>
      </trkpt>
      <trkpt lat="50.45935" lon="2.98511">
        <ele>28</ele>
        <time>2012-02-05T07:24:48Z</time>
      </trkpt>
      <trkpt lat="50.45933" lon="2.98498">
        <ele>28</ele>
        <time>2012-02-05T07:24:52Z</time>
      </trkpt>
      <trkpt lat="50.45922" lon="2.98494">
        <ele>33</ele>
        <time>2012-02-05T07:24:56Z</time>
      </trkpt>
      <trkpt lat="50.45912" lon="2.98499">
        <ele>33</ele>
        <time>2012-02-05T07:25:00Z</time>
      </trkpt>
      <trkpt lat="50.45912" lon="2.98485">
        <ele>33</ele>
        <time>2012-02-05T07:25:07Z</time>
      </trkpt>
      <trkpt lat="50.45918" lon="2.98471">
        <ele>33</ele>
        <time>2012-02-05T07:25:12Z</time>
      </trkpt>
      <trkpt lat="50.45919" lon="2.98456">
        <ele>33</ele>
        <time>2012-02-05T07:25:15Z</time>
      </trkpt>
      <trkpt lat="50.4592" lon="2.98442">
        <ele>33</ele>
        <time>2012-02-05T07:25:18Z</time>
      </trkpt>
      <trkpt lat="50.45921" lon="2.98428">
        <ele>33</ele>
        <time>2012-02-05T07:25:25Z</time>
      </trkpt>
      <trkpt lat="50.45923" lon="2.98412">
        <ele>33</ele>
        <time>2012-02-05T07:25:29Z</time>
      </trkpt>
      <trkpt lat="50.45926" lon="2.98395">
        <ele>33</ele>
        <time>2012-02-05T07:25:33Z</time>
      </trkpt>
      <trkpt lat="50.45932" lon="2.98382">
        <ele>33</ele>
        <time>2012-02-05T07:26:00Z</time>
      </trkpt>
      <trkpt lat="50.45937" lon="2.98366">
        <ele>33</ele>
        <time>2012-02-05T07:26:03Z</time>
      </trkpt>
      <trkpt lat="50.45943" lon="2.9835">
        <ele>33</ele>
        <time>2012-02-05T07:26:06Z</time>
      </trkpt>
      <trkpt lat="50.4595" lon="2.9833">
        <ele>33</ele>
        <time>2012-02-05T07:26:09Z</time>
      </trkpt>
      <trkpt lat="50.45958" lon="2.98313">
        <ele>33</ele>
        <time>2012-02-05T07:26:12Z</time>
      </trkpt>
      <trkpt lat="50.45965" lon="2.98304">
        <ele>33</ele>
        <time>2012-02-05T07:26:14Z</time>
      </trkpt>
      <trkpt lat="50.45975" lon="2.98297">
        <ele>33</ele>
        <time>2012-02-05T07:26:16Z</time>
      </trkpt>
      <trkpt lat="50.45985" lon="2.98292">
        <ele>33</ele>
        <time>2012-02-05T07:26:18Z</time>
      </trkpt>
      <trkpt lat="50.45997" lon="2.98287">
        <ele>33</ele>
        <time>2012-02-05T07:26:20Z</time>
      </trkpt>
      <trkpt lat="50.46009" lon="2.98286">
        <ele>33</ele>
        <time>2012-02-05T07:26:22Z</time>
      </trkpt>
      <trkpt lat="50.46022" lon="2.9829">
        <ele>33</ele>
        <time>2012-02-05T07:26:24Z</time>
      </trkpt>
      <trkpt lat="50.46034" lon="2.98297">
        <ele>33</ele>
        <time>2012-02-05T07:26:26Z</time>
      </trkpt>
      <trkpt lat="50.46045" lon="2.98308">
        <ele>33</ele>
        <time>2012-02-05T07:26:28Z</time>
      </trkpt>
      <trkpt lat="50.46056" lon="2.98323">
        <ele>33</ele>
        <time>2012-02-05T07:26:30Z</time>
      </trkpt>
      <trkpt lat="50.46062" lon="2.98339">
        <ele>33</ele>
        <time>2012-02-05T07:26:32Z</time>
      </trkpt>
      <trkpt lat="50.46067" lon="2.98351">
        <ele>33</ele>
        <time>2012-02-05T07:26:34Z</time>
      </trkpt>
      <trkpt lat="50.46079" lon="2.98346">
        <ele>33</ele>
        <time>2012-02-05T07:26:38Z</time>
      </trkpt>
      <trkpt lat="50.46085" lon="2.98332">
        <ele>33</ele>
        <time>2012-02-05T07:26:40Z</time>
      </trkpt>
      <trkpt lat="50.4609" lon="2.98317">
        <ele>33</ele>
        <time>2012-02-05T07:26:43Z</time>
      </trkpt>
      <trkpt lat="50.46097" lon="2.98304">
        <ele>33</ele>
        <time>2012-02-05T07:26:47Z</time>
      </trkpt>
      <trkpt lat="50.46106" lon="2.98303">
        <ele>28</ele>
        <time>2012-02-05T07:26:51Z</time>
      </trkpt>
      <trkpt lat="50.46111" lon="2.98314">
        <ele>28</ele>
        <time>2012-02-05T07:26:53Z</time>
      </trkpt>
      <trkpt lat="50.46118" lon="2.98326">
        <ele>28</ele>
        <time>2012-02-05T07:26:55Z</time>
      </trkpt>
      <trkpt lat="50.46121" lon="2.98344">
        <ele>20</ele>
        <time>2012-02-05T07:26:58Z</time>
      </trkpt>
      <trkpt lat="50.46121" lon="2.98359">
        <ele>20</ele>
        <time>2012-02-05T07:27:00Z</time>
      </trkpt>
      <trkpt lat="50.4612" lon="2.98375">
        <ele>20</ele>
        <time>2012-02-05T07:27:02Z</time>
      </trkpt>
      <trkpt lat="50.46119" lon="2.9839">
        <ele>20</ele>
        <time>2012-02-05T07:27:04Z</time>
      </trkpt>
      <trkpt lat="50.46121" lon="2.98406">
        <ele>20</ele>
        <time>2012-02-05T07:27:06Z</time>
      </trkpt>
      <trkpt lat="50.46126" lon="2.98424">
        <ele>20</ele>
        <time>2012-02-05T07:27:09Z</time>
      </trkpt>
      <trkpt lat="50.46133" lon="2.98435">
        <ele>20</ele>
        <time>2012-02-05T07:27:11Z</time>
      </trkpt>
      <trkpt lat="50.4614" lon="2.98446">
        <ele>20</ele>
        <time>2012-02-05T07:27:13Z</time>
      </trkpt>
      <trkpt lat="50.46144" lon="2.98461">
        <ele>20</ele>
        <time>2012-02-05T07:27:15Z</time>
      </trkpt>
      <trkpt lat="50.46147" lon="2.98475">
        <ele>20</ele>
        <time>2012-02-05T07:27:17Z</time>
      </trkpt>
      <trkpt lat="50.46153" lon="2.9849">
        <ele>20</ele>
        <time>2012-02-05T07:27:19Z</time>
      </trkpt>
      <trkpt lat="50.46159" lon="2.98505">
        <ele>20</ele>
        <time>2012-02-05T07:27:21Z</time>
      </trkpt>
      <trkpt lat="50.46166" lon="2.98518">
        <ele>20</ele>
        <time>2012-02-05T07:27:23Z</time>
      </trkpt>
      <trkpt lat="50.46173" lon="2.9853">
        <ele>20</ele>
        <time>2012-02-05T07:27:25Z</time>
      </trkpt>
      <trkpt lat="50.46183" lon="2.9854">
        <ele>20</ele>
        <time>2012-02-05T07:27:27Z</time>
      </trkpt>
      <trkpt lat="50.46192" lon="2.9855">
        <ele>20</ele>
        <time>2012-02-05T07:27:29Z</time>
      </trkpt>
      <trkpt lat="50.462" lon="2.98561">
        <ele>20</ele>
        <time>2012-02-05T07:27:31Z</time>
      </trkpt>
      <trkpt lat="50.46209" lon="2.98573">
        <ele>20</ele>
        <time>2012-02-05T07:27:33Z</time>
      </trkpt>
      <trkpt lat="50.46216" lon="2.98584">
        <ele>20</ele>
        <time>2012-02-05T07:27:35Z</time>
      </trkpt>
      <trkpt lat="50.46226" lon="2.98594">
        <ele>20</ele>
        <time>2012-02-05T07:27:37Z</time>
      </trkpt>
      <trkpt lat="50.46234" lon="2.98604">
        <ele>20</ele>
        <time>2012-02-05T07:27:39Z</time>
      </trkpt>
      <trkpt lat="50.46243" lon="2.98615">
        <ele>20</ele>
        <time>2012-02-05T07:27:41Z</time>
      </trkpt>
      <trkpt lat="50.4625" lon="2.98627">
        <ele>20</ele>
        <time>2012-02-05T07:27:43Z</time>
      </trkpt>
      <trkpt lat="50.46257" lon="2.9864">
        <ele>20</ele>
        <time>2012-02-05T07:27:45Z</time>
      </trkpt>
      <trkpt lat="50.46265" lon="2.98651">
        <ele>20</ele>
        <time>2012-02-05T07:27:47Z</time>
      </trkpt>
      <trkpt lat="50.46273" lon="2.98661">
        <ele>20</ele>
        <time>2012-02-05T07:27:49Z</time>
      </trkpt>
      <trkpt lat="50.46282" lon="2.98669">
        <ele>20</ele>
        <time>2012-02-05T07:27:51Z</time>
      </trkpt>
      <trkpt lat="50.46293" lon="2.98676">
        <ele>20</ele>
        <time>2012-02-05T07:27:53Z</time>
      </trkpt>
      <trkpt lat="50.46302" lon="2.98684">
        <ele>20</ele>
        <time>2012-02-05T07:27:55Z</time>
      </trkpt>
      <trkpt lat="50.46311" lon="2.98693">
        <ele>20</ele>
        <time>2012-02-05T07:27:57Z</time>
      </trkpt>
      <trkpt lat="50.4632" lon="2.98702">
        <ele>20</ele>
        <time>2012-02-05T07:27:59Z</time>
      </trkpt>
      <trkpt lat="50.46329" lon="2.98712">
        <ele>20</ele>
        <time>2012-02-05T07:28:01Z</time>
      </trkpt>
      <trkpt lat="50.46337" lon="2.98721">
        <ele>20</ele>
        <time>2012-02-05T07:28:03Z</time>
      </trkpt>
      <trkpt lat="50.46345" lon="2.98729">
        <ele>20</ele>
        <time>2012-02-05T07:28:05Z</time>
      </trkpt>
      <trkpt lat="50.46353" lon="2.98738">
        <ele>20</ele>
        <time>2012-02-05T07:28:07Z</time>
      </trkpt>
      <trkpt lat="50.46364" lon="2.98736">
        <ele>20</ele>
        <time>2012-02-05T07:28:10Z</time>
      </trkpt>
      <trkpt lat="50.46369" lon="2.98723">
        <ele>20</ele>
        <time>2012-02-05T07:28:12Z</time>
      </trkpt>
      <trkpt lat="50.46376" lon="2.98711">
        <ele>20</ele>
        <time>2012-02-05T07:28:14Z</time>
      </trkpt>
      <trkpt lat="50.46386" lon="2.98699">
        <ele>20</ele>
        <time>2012-02-05T07:28:16Z</time>
      </trkpt>
      <trkpt lat="50.46395" lon="2.98688">
        <ele>20</ele>
        <time>2012-02-05T07:28:18Z</time>
      </trkpt>
      <trkpt lat="50.46404" lon="2.98676">
        <ele>20</ele>
        <time>2012-02-05T07:28:20Z</time>
      </trkpt>
      <trkpt lat="50.46414" lon="2.98663">
        <ele>20</ele>
        <time>2012-02-05T07:28:22Z</time>
      </trkpt>
      <trkpt lat="50.46422" lon="2.98648">
        <ele>20</ele>
        <time>2012-02-05T07:28:24Z</time>
      </trkpt>
      <trkpt lat="50.4643" lon="2.98631">
        <ele>20</ele>
        <time>2012-02-05T07:28:26Z</time>
      </trkpt>
      <trkpt lat="50.46439" lon="2.98614">
        <ele>20</ele>
        <time>2012-02-05T07:28:28Z</time>
      </trkpt>
      <trkpt lat="50.46448" lon="2.98598">
        <ele>20</ele>
        <time>2012-02-05T07:28:30Z</time>
      </trkpt>
      <trkpt lat="50.46458" lon="2.98586">
        <ele>20</ele>
        <time>2012-02-05T07:28:32Z</time>
      </trkpt>
      <trkpt lat="50.46468" lon="2.98579">
        <ele>27</ele>
        <time>2012-02-05T07:28:34Z</time>
      </trkpt>
      <trkpt lat="50.46478" lon="2.98574">
        <ele>27</ele>
        <time>2012-02-05T07:28:36Z</time>
      </trkpt>
      <trkpt lat="50.46485" lon="2.98563">
        <ele>27</ele>
        <time>2012-02-05T07:28:38Z</time>
      </trkpt>
      <trkpt lat="50.46485" lon="2.98543">
        <ele>27</ele>
        <time>2012-02-05T07:28:41Z</time>
      </trkpt>
      <trkpt lat="50.46487" lon="2.98528">
        <ele>27</ele>
        <time>2012-02-05T07:28:43Z</time>
      </trkpt>
      <trkpt lat="50.46493" lon="2.98517">
        <ele>27</ele>
        <time>2012-02-05T07:28:45Z</time>
      </trkpt>
      <trkpt lat="50.465" lon="2.98509">
        <ele>27</ele>
        <time>2012-02-05T07:28:47Z</time>
      </trkpt>
      <trkpt lat="50.46507" lon="2.98498">
        <ele>27</ele>
        <time>2012-02-05T07:28:49Z</time>
      </trkpt>
      <trkpt lat="50.46512" lon="2.98484">
        <ele>27</ele>
        <time>2012-02-05T07:28:51Z</time>
      </trkpt>
      <trkpt lat="50.46518" lon="2.9847">
        <ele>27</ele>
        <time>2012-02-05T07:28:53Z</time>
      </trkpt>
      <trkpt lat="50.46524" lon="2.98455">
        <ele>27</ele>
        <time>2012-02-05T07:28:55Z</time>
      </trkpt>
      <trkpt lat="50.46529" lon="2.98439">
        <ele>27</ele>
        <time>2012-02-05T07:28:57Z</time>
      </trkpt>
      <trkpt lat="50.46533" lon="2.98422">
        <ele>27</ele>
        <time>2012-02-05T07:28:59Z</time>
      </trkpt>
      <trkpt lat="50.46539" lon="2.98406">
        <ele>27</ele>
        <time>2012-02-05T07:29:01Z</time>
      </trkpt>
      <trkpt lat="50.46547" lon="2.98391">
        <ele>27</ele>
        <time>2012-02-05T07:29:03Z</time>
      </trkpt>
      <trkpt lat="50.46554" lon="2.98376">
        <ele>27</ele>
        <time>2012-02-05T07:29:05Z</time>
      </trkpt>
      <trkpt lat="50.46559" lon="2.98359">
        <ele>27</ele>
        <time>2012-02-05T07:29:07Z</time>
      </trkpt>
      <trkpt lat="50.46564" lon="2.98341">
        <ele>27</ele>
        <time>2012-02-05T07:29:09Z</time>
      </trkpt>
      <trkpt lat="50.46571" lon="2.98326">
        <ele>27</ele>
        <time>2012-02-05T07:29:11Z</time>
      </trkpt>
      <trkpt lat="50.46578" lon="2.98313">
        <ele>27</ele>
        <time>2012-02-05T07:29:13Z</time>
      </trkpt>
      <trkpt lat="50.46588" lon="2.98304">
        <ele>27</ele>
        <time>2012-02-05T07:29:15Z</time>
      </trkpt>
      <trkpt lat="50.46597" lon="2.98298">
        <ele>27</ele>
        <time>2012-02-05T07:29:17Z</time>
      </trkpt>
      <trkpt lat="50.46606" lon="2.98309">
        <ele>27</ele>
        <time>2012-02-05T07:29:20Z</time>
      </trkpt>
      <trkpt lat="50.46613" lon="2.98325">
        <ele>27</ele>
        <time>2012-02-05T07:29:23Z</time>
      </trkpt>
      <trkpt lat="50.46619" lon="2.98344">
        <ele>27</ele>
        <time>2012-02-05T07:29:26Z</time>
      </trkpt>
      <trkpt lat="50.46625" lon="2.98358">
        <ele>27</ele>
        <time>2012-02-05T07:29:28Z</time>
      </trkpt>
      <trkpt lat="50.46632" lon="2.98369">
        <ele>27</ele>
        <time>2012-02-05T07:29:30Z</time>
      </trkpt>
      <trkpt lat="50.46638" lon="2.98381">
        <ele>27</ele>
        <time>2012-02-05T07:29:32Z</time>
      </trkpt>
      <trkpt lat="50.46646" lon="2.98392">
        <ele>27</ele>
        <time>2012-02-05T07:29:34Z</time>
      </trkpt>
      <trkpt lat="50.46655" lon="2.98406">
        <ele>27</ele>
        <time>2012-02-05T07:29:36Z</time>
      </trkpt>
      <trkpt lat="50.46661" lon="2.98419">
        <ele>20</ele>
        <time>2012-02-05T07:29:38Z</time>
      </trkpt>
      <trkpt lat="50.46668" lon="2.98434">
        <ele>20</ele>
        <time>2012-02-05T07:29:40Z</time>
      </trkpt>
      <trkpt lat="50.46673" lon="2.98448">
        <ele>20</ele>
        <time>2012-02-05T07:29:42Z</time>
      </trkpt>
      <trkpt lat="50.4668" lon="2.98462">
        <ele>20</ele>
        <time>2012-02-05T07:29:44Z</time>
      </trkpt>
      <trkpt lat="50.46687" lon="2.98476">
        <ele>20</ele>
        <time>2012-02-05T07:29:46Z</time>
      </trkpt>
      <trkpt lat="50.46692" lon="2.98489">
        <ele>20</ele>
        <time>2012-02-05T07:29:48Z</time>
      </trkpt>
      <trkpt lat="50.46701" lon="2.98501">
        <ele>20</ele>
        <time>2012-02-05T07:29:51Z</time>
      </trkpt>
      <trkpt lat="50.46708" lon="2.9851">
        <ele>20</ele>
        <time>2012-02-05T07:29:59Z</time>
      </trkpt>
      <trkpt lat="50.46718" lon="2.98518">
        <ele>20</ele>
        <time>2012-02-05T07:30:15Z</time>
      </trkpt>
      <trkpt lat="50.46727" lon="2.98521">
        <ele>20</ele>
        <time>2012-02-05T07:30:19Z</time>
      </trkpt>
      <trkpt lat="50.46736" lon="2.98524">
        <ele>20</ele>
        <time>2012-02-05T07:30:22Z</time>
      </trkpt>
      <trkpt lat="50.46747" lon="2.98523">
        <ele>20</ele>
        <time>2012-02-05T07:30:26Z</time>
      </trkpt>
      <trkpt lat="50.46754" lon="2.98513">
        <ele>20</ele>
        <time>2012-02-05T07:30:29Z</time>
      </trkpt>
      <trkpt lat="50.46757" lon="2.98494">
        <ele>20</ele>
        <time>2012-02-05T07:30:32Z</time>
      </trkpt>
      <trkpt lat="50.46759" lon="2.98479">
        <ele>20</ele>
        <time>2012-02-05T07:30:34Z</time>
      </trkpt>
      <trkpt lat="50.46761" lon="2.98463">
        <ele>20</ele>
        <time>2012-02-05T07:30:36Z</time>
      </trkpt>
      <trkpt lat="50.46762" lon="2.98446">
        <ele>20</ele>
        <time>2012-02-05T07:30:38Z</time>
      </trkpt>
      <trkpt lat="50.46764" lon="2.98429">
        <ele>20</ele>
        <time>2012-02-05T07:30:40Z</time>
      </trkpt>
      <trkpt lat="50.46767" lon="2.98412">
        <ele>20</ele>
        <time>2012-02-05T07:30:42Z</time>
      </trkpt>
      <trkpt lat="50.4677" lon="2.98394">
        <ele>20</ele>
        <time>2012-02-05T07:30:44Z</time>
      </trkpt>
      <trkpt lat="50.46774" lon="2.98377">
        <ele>20</ele>
        <time>2012-02-05T07:30:46Z</time>
      </trkpt>
      <trkpt lat="50.46775" lon="2.9836">
        <ele>20</ele>
        <time>2012-02-05T07:30:48Z</time>
      </trkpt>
      <trkpt lat="50.46774" lon="2.98341">
        <ele>20</ele>
        <time>2012-02-05T07:30:50Z</time>
      </trkpt>
      <trkpt lat="50.46774" lon="2.98321">
        <ele>20</ele>
        <time>2012-02-05T07:30:52Z</time>
      </trkpt>
      <trkpt lat="50.46774" lon="2.983">
        <ele>20</ele>
        <time>2012-02-05T07:30:54Z</time>
      </trkpt>
      <trkpt lat="50.46773" lon="2.98279">
        <ele>20</ele>
        <time>2012-02-05T07:30:56Z</time>
      </trkpt>
      <trkpt lat="50.46773" lon="2.98258">
        <ele>20</ele>
        <time>2012-02-05T07:30:58Z</time>
      </trkpt>
      <trkpt lat="50.46773" lon="2.98237">
        <ele>20</ele>
        <time>2012-02-05T07:31:00Z</time>
      </trkpt>
      <trkpt lat="50.46772" lon="2.98216">
        <ele>20</ele>
        <time>2012-02-05T07:31:02Z</time>
      </trkpt>
      <trkpt lat="50.46771" lon="2.98196">
        <ele>20</ele>
        <time>2012-02-05T07:31:04Z</time>
      </trkpt>
      <trkpt lat="50.46772" lon="2.9818">
        <ele>20</ele>
        <time>2012-02-05T07:31:06Z</time>
      </trkpt>
      <trkpt lat="50.46772" lon="2.98161">
        <ele>20</ele>
        <time>2012-02-05T07:31:09Z</time>
      </trkpt>
      <trkpt lat="50.46769" lon="2.98145">
        <ele>20</ele>
        <time>2012-02-05T07:31:13Z</time>
      </trkpt>
      <trkpt lat="50.46766" lon="2.9813">
        <ele>20</ele>
        <time>2012-02-05T07:31:16Z</time>
      </trkpt>
      <trkpt lat="50.46766" lon="2.98111">
        <ele>20</ele>
        <time>2012-02-05T07:31:19Z</time>
      </trkpt>
      <trkpt lat="50.46765" lon="2.98092">
        <ele>20</ele>
        <time>2012-02-05T07:31:22Z</time>
      </trkpt>
      <trkpt lat="50.46765" lon="2.98077">
        <ele>20</ele>
        <time>2012-02-05T07:31:24Z</time>
      </trkpt>
      <trkpt lat="50.46764" lon="2.98057">
        <ele>20</ele>
        <time>2012-02-05T07:31:27Z</time>
      </trkpt>
      <trkpt lat="50.46763" lon="2.98037">
        <ele>20</ele>
        <time>2012-02-05T07:31:30Z</time>
      </trkpt>
      <trkpt lat="50.46762" lon="2.98016">
        <ele>20</ele>
        <time>2012-02-05T07:31:33Z</time>
      </trkpt>
      <trkpt lat="50.46759" lon="2.97995">
        <ele>20</ele>
        <time>2012-02-05T07:31:36Z</time>
      </trkpt>
      <trkpt lat="50.46757" lon="2.97981">
        <ele>20</ele>
        <time>2012-02-05T07:31:38Z</time>
      </trkpt>
      <trkpt lat="50.46754" lon="2.9796">
        <ele>20</ele>
        <time>2012-02-05T07:31:41Z</time>
      </trkpt>
      <trkpt lat="50.46752" lon="2.97945">
        <ele>20</ele>
        <time>2012-02-05T07:31:43Z</time>
      </trkpt>
      <trkpt lat="50.4675" lon="2.9793">
        <ele>20</ele>
        <time>2012-02-05T07:31:45Z</time>
      </trkpt>
      <trkpt lat="50.46747" lon="2.97915">
        <ele>20</ele>
        <time>2012-02-05T07:31:47Z</time>
      </trkpt>
      <trkpt lat="50.46744" lon="2.979">
        <ele>20</ele>
        <time>2012-02-05T07:31:49Z</time>
      </trkpt>
      <trkpt lat="50.46741" lon="2.97885">
        <ele>20</ele>
        <time>2012-02-05T07:31:51Z</time>
      </trkpt>
      <trkpt lat="50.46739" lon="2.9787">
        <ele>20</ele>
        <time>2012-02-05T07:31:53Z</time>
      </trkpt>
      <trkpt lat="50.46736" lon="2.97855">
        <ele>26</ele>
        <time>2012-02-05T07:31:55Z</time>
      </trkpt>
      <trkpt lat="50.46733" lon="2.9784">
        <ele>26</ele>
        <time>2012-02-05T07:31:57Z</time>
      </trkpt>
      <trkpt lat="50.4673" lon="2.97825">
        <ele>26</ele>
        <time>2012-02-05T07:31:59Z</time>
      </trkpt>
      <trkpt lat="50.46727" lon="2.97809">
        <ele>26</ele>
        <time>2012-02-05T07:32:01Z</time>
      </trkpt>
      <trkpt lat="50.46724" lon="2.97793">
        <ele>26</ele>
        <time>2012-02-05T07:32:03Z</time>
      </trkpt>
      <trkpt lat="50.46722" lon="2.97777">
        <ele>26</ele>
        <time>2012-02-05T07:32:05Z</time>
      </trkpt>
      <trkpt lat="50.46719" lon="2.97762">
        <ele>26</ele>
        <time>2012-02-05T07:32:07Z</time>
      </trkpt>
      <trkpt lat="50.46716" lon="2.97747">
        <ele>26</ele>
        <time>2012-02-05T07:32:09Z</time>
      </trkpt>
      <trkpt lat="50.46713" lon="2.97732">
        <ele>26</ele>
        <time>2012-02-05T07:32:11Z</time>
      </trkpt>
      <trkpt lat="50.4671" lon="2.97717">
        <ele>26</ele>
        <time>2012-02-05T07:32:13Z</time>
      </trkpt>
      <trkpt lat="50.46707" lon="2.97703">
        <ele>26</ele>
        <time>2012-02-05T07:32:15Z</time>
      </trkpt>
      <trkpt lat="50.46704" lon="2.97688">
        <ele>26</ele>
        <time>2012-02-05T07:32:17Z</time>
      </trkpt>
      <trkpt lat="50.46701" lon="2.97674">
        <ele>26</ele>
        <time>2012-02-05T07:32:19Z</time>
      </trkpt>
      <trkpt lat="50.46699" lon="2.97659">
        <ele>26</ele>
        <time>2012-02-05T07:32:21Z</time>
      </trkpt>
      <trkpt lat="50.46696" lon="2.97644">
        <ele>26</ele>
        <time>2012-02-05T07:32:23Z</time>
      </trkpt>
      <trkpt lat="50.46693" lon="2.97629">
        <ele>26</ele>
        <time>2012-02-05T07:32:25Z</time>
      </trkpt>
      <trkpt lat="50.4669" lon="2.97614">
        <ele>26</ele>
        <time>2012-02-05T07:32:27Z</time>
      </trkpt>
      <trkpt lat="50.46687" lon="2.97598">
        <ele>26</ele>
        <time>2012-02-05T07:32:29Z</time>
      </trkpt>
      <trkpt lat="50.46683" lon="2.97581">
        <ele>26</ele>
        <time>2012-02-05T07:32:31Z</time>
      </trkpt>
      <trkpt lat="50.4668" lon="2.97565">
        <ele>26</ele>
        <time>2012-02-05T07:32:33Z</time>
      </trkpt>
      <trkpt lat="50.46677" lon="2.9755">
        <ele>26</ele>
        <time>2012-02-05T07:32:35Z</time>
      </trkpt>
      <trkpt lat="50.46675" lon="2.97536">
        <ele>26</ele>
        <time>2012-02-05T07:32:37Z</time>
      </trkpt>
      <trkpt lat="50.46672" lon="2.97517">
        <ele>26</ele>
        <time>2012-02-05T07:32:40Z</time>
      </trkpt>
      <trkpt lat="50.4667" lon="2.97502">
        <ele>26</ele>
        <time>2012-02-05T07:32:42Z</time>
      </trkpt>
      <trkpt lat="50.46669" lon="2.97487">
        <ele>26</ele>
        <time>2012-02-05T07:32:44Z</time>
      </trkpt>
      <trkpt lat="50.46668" lon="2.97472">
        <ele>26</ele>
        <time>2012-02-05T07:32:46Z</time>
      </trkpt>
      <trkpt lat="50.46666" lon="2.97457">
        <ele>26</ele>
        <time>2012-02-05T07:32:48Z</time>
      </trkpt>
      <trkpt lat="50.46664" lon="2.97442">
        <ele>26</ele>
        <time>2012-02-05T07:32:50Z</time>
      </trkpt>
      <trkpt lat="50.46662" lon="2.97428">
        <ele>26</ele>
        <time>2012-02-05T07:32:52Z</time>
      </trkpt>
      <trkpt lat="50.4666" lon="2.97412">
        <ele>26</ele>
        <time>2012-02-05T07:32:54Z</time>
      </trkpt>
      <trkpt lat="50.46658" lon="2.97398">
        <ele>26</ele>
        <time>2012-02-05T07:32:56Z</time>
      </trkpt>
      <trkpt lat="50.46657" lon="2.97383">
        <ele>26</ele>
        <time>2012-02-05T07:32:58Z</time>
      </trkpt>
      <trkpt lat="50.46654" lon="2.97368">
        <ele>26</ele>
        <time>2012-02-05T07:33:00Z</time>
      </trkpt>
      <trkpt lat="50.46652" lon="2.97352">
        <ele>26</ele>
        <time>2012-02-05T07:33:02Z</time>
      </trkpt>
      <trkpt lat="50.46649" lon="2.97337">
        <ele>26</ele>
        <time>2012-02-05T07:33:04Z</time>
      </trkpt>
      <trkpt lat="50.46646" lon="2.97322">
        <ele>26</ele>
        <time>2012-02-05T07:33:06Z</time>
      </trkpt>
      <trkpt lat="50.46642" lon="2.97306">
        <ele>26</ele>
        <time>2012-02-05T07:33:08Z</time>
      </trkpt>
      <trkpt lat="50.46638" lon="2.97292">
        <ele>26</ele>
        <time>2012-02-05T07:33:10Z</time>
      </trkpt>
      <trkpt lat="50.46634" lon="2.97277">
        <ele>26</ele>
        <time>2012-02-05T07:33:12Z</time>
      </trkpt>
      <trkpt lat="50.46629" lon="2.97261">
        <ele>26</ele>
        <time>2012-02-05T07:33:14Z</time>
      </trkpt>
      <trkpt lat="50.46623" lon="2.97244">
        <ele>26</ele>
        <time>2012-02-05T07:33:16Z</time>
      </trkpt>
      <trkpt lat="50.46618" lon="2.97227">
        <ele>26</ele>
        <time>2012-02-05T07:33:18Z</time>
      </trkpt>
      <trkpt lat="50.46613" lon="2.97211">
        <ele>26</ele>
        <time>2012-02-05T07:33:20Z</time>
      </trkpt>
      <trkpt lat="50.46607" lon="2.97196">
        <ele>26</ele>
        <time>2012-02-05T07:33:22Z</time>
      </trkpt>
      <trkpt lat="50.46602" lon="2.97181">
        <ele>26</ele>
        <time>2012-02-05T07:33:24Z</time>
      </trkpt>
      <trkpt lat="50.46598" lon="2.97167">
        <ele>26</ele>
        <time>2012-02-05T07:33:26Z</time>
      </trkpt>
      <trkpt lat="50.46594" lon="2.97148">
        <ele>26</ele>
        <time>2012-02-05T07:33:29Z</time>
      </trkpt>
      <trkpt lat="50.46595" lon="2.9713">
        <ele>26</ele>
        <time>2012-02-05T07:33:32Z</time>
      </trkpt>
      <trkpt lat="50.46605" lon="2.97119">
        <ele>26</ele>
        <time>2012-02-05T07:33:35Z</time>
      </trkpt>
      <trkpt lat="50.46613" lon="2.9711">
        <ele>26</ele>
        <time>2012-02-05T07:33:37Z</time>
      </trkpt>
      <trkpt lat="50.46621" lon="2.97097">
        <ele>26</ele>
        <time>2012-02-05T07:33:39Z</time>
      </trkpt>
      <trkpt lat="50.46629" lon="2.97085">
        <ele>26</ele>
        <time>2012-02-05T07:33:41Z</time>
      </trkpt>
      <trkpt lat="50.46636" lon="2.97071">
        <ele>26</ele>
        <time>2012-02-05T07:33:43Z</time>
      </trkpt>
      <trkpt lat="50.46644" lon="2.97059">
        <ele>26</ele>
        <time>2012-02-05T07:33:45Z</time>
      </trkpt>
      <trkpt lat="50.46651" lon="2.97047">
        <ele>26</ele>
        <time>2012-02-05T07:33:47Z</time>
      </trkpt>
      <trkpt lat="50.46659" lon="2.97033">
        <ele>26</ele>
        <time>2012-02-05T07:33:49Z</time>
      </trkpt>
      <trkpt lat="50.46667" lon="2.97021">
        <ele>26</ele>
        <time>2012-02-05T07:33:51Z</time>
      </trkpt>
      <trkpt lat="50.46675" lon="2.97008">
        <ele>26</ele>
        <time>2012-02-05T07:33:53Z</time>
      </trkpt>
      <trkpt lat="50.46683" lon="2.96996">
        <ele>26</ele>
        <time>2012-02-05T07:33:55Z</time>
      </trkpt>
      <trkpt lat="50.46691" lon="2.96982">
        <ele>26</ele>
        <time>2012-02-05T07:33:57Z</time>
      </trkpt>
      <trkpt lat="50.467" lon="2.9697">
        <ele>26</ele>
        <time>2012-02-05T07:33:59Z</time>
      </trkpt>
      <trkpt lat="50.46708" lon="2.96956">
        <ele>26</ele>
        <time>2012-02-05T07:34:01Z</time>
      </trkpt>
      <trkpt lat="50.46717" lon="2.96943">
        <ele>26</ele>
        <time>2012-02-05T07:34:03Z</time>
      </trkpt>
      <trkpt lat="50.46725" lon="2.96927">
        <ele>26</ele>
        <time>2012-02-05T07:34:05Z</time>
      </trkpt>
      <trkpt lat="50.46731" lon="2.96912">
        <ele>26</ele>
        <time>2012-02-05T07:34:07Z</time>
      </trkpt>
      <trkpt lat="50.46738" lon="2.96895">
        <ele>26</ele>
        <time>2012-02-05T07:34:09Z</time>
      </trkpt>
      <trkpt lat="50.46747" lon="2.96879">
        <ele>26</ele>
        <time>2012-02-05T07:34:11Z</time>
      </trkpt>
      <trkpt lat="50.46756" lon="2.96865">
        <ele>26</ele>
        <time>2012-02-05T07:34:13Z</time>
      </trkpt>
      <trkpt lat="50.46765" lon="2.96849">
        <ele>26</ele>
        <time>2012-02-05T07:34:15Z</time>
      </trkpt>
      <trkpt lat="50.46774" lon="2.96835">
        <ele>26</ele>
        <time>2012-02-05T07:34:17Z</time>
      </trkpt>
      <trkpt lat="50.46783" lon="2.9682">
        <ele>26</ele>
        <time>2012-02-05T07:34:19Z</time>
      </trkpt>
      <trkpt lat="50.46793" lon="2.96804">
        <ele>26</ele>
        <time>2012-02-05T07:34:21Z</time>
      </trkpt>
      <trkpt lat="50.46801" lon="2.9679">
        <ele>26</ele>
        <time>2012-02-05T07:34:23Z</time>
      </trkpt>
      <trkpt lat="50.4681" lon="2.96775">
        <ele>26</ele>
        <time>2012-02-05T07:34:25Z</time>
      </trkpt>
      <trkpt lat="50.4682" lon="2.96759">
        <ele>26</ele>
        <time>2012-02-05T07:34:27Z</time>
      </trkpt>
      <trkpt lat="50.46828" lon="2.96743">
        <ele>26</ele>
        <time>2012-02-05T07:34:29Z</time>
      </trkpt>
      <trkpt lat="50.46837" lon="2.96727">
        <ele>26</ele>
        <time>2012-02-05T07:34:31Z</time>
      </trkpt>
      <trkpt lat="50.46847" lon="2.96711">
        <ele>26</ele>
        <time>2012-02-05T07:34:33Z</time>
      </trkpt>
      <trkpt lat="50.46855" lon="2.96697">
        <ele>26</ele>
        <time>2012-02-05T07:34:35Z</time>
      </trkpt>
      <trkpt lat="50.46865" lon="2.96683">
        <ele>26</ele>
        <time>2012-02-05T07:34:37Z</time>
      </trkpt>
      <trkpt lat="50.46873" lon="2.9667">
        <ele>26</ele>
        <time>2012-02-05T07:34:39Z</time>
      </trkpt>
      <trkpt lat="50.46882" lon="2.96655">
        <ele>26</ele>
        <time>2012-02-05T07:34:41Z</time>
      </trkpt>
      <trkpt lat="50.46891" lon="2.96641">
        <ele>26</ele>
        <time>2012-02-05T07:34:43Z</time>
      </trkpt>
      <trkpt lat="50.469" lon="2.96626">
        <ele>26</ele>
        <time>2012-02-05T07:34:45Z</time>
      </trkpt>
      <trkpt lat="50.46909" lon="2.96612">
        <ele>26</ele>
        <time>2012-02-05T07:34:47Z</time>
      </trkpt>
      <trkpt lat="50.46918" lon="2.96597">
        <ele>26</ele>
        <time>2012-02-05T07:34:49Z</time>
      </trkpt>
      <trkpt lat="50.46927" lon="2.96582">
        <ele>26</ele>
        <time>2012-02-05T07:34:51Z</time>
      </trkpt>
      <trkpt lat="50.46937" lon="2.96566">
        <ele>26</ele>
        <time>2012-02-05T07:34:53Z</time>
      </trkpt>
      <trkpt lat="50.46946" lon="2.96552">
        <ele>26</ele>
        <time>2012-02-05T07:34:55Z</time>
      </trkpt>
      <trkpt lat="50.46954" lon="2.96538">
        <ele>26</ele>
        <time>2012-02-05T07:34:57Z</time>
      </trkpt>
      <trkpt lat="50.46962" lon="2.96525">
        <ele>26</ele>
        <time>2012-02-05T07:34:59Z</time>
      </trkpt>
      <trkpt lat="50.4697" lon="2.96511">
        <ele>26</ele>
        <time>2012-02-05T07:35:01Z</time>
      </trkpt>
      <trkpt lat="50.46977" lon="2.96497">
        <ele>26</ele>
        <time>2012-02-05T07:35:03Z</time>
      </trkpt>
      <trkpt lat="50.46985" lon="2.96482">
        <ele>26</ele>
        <time>2012-02-05T07:35:05Z</time>
      </trkpt>
      <trkpt lat="50.46994" lon="2.96466">
        <ele>26</ele>
        <time>2012-02-05T07:35:07Z</time>
      </trkpt>
      <trkpt lat="50.47003" lon="2.96449">
        <ele>26</ele>
        <time>2012-02-05T07:35:09Z</time>
      </trkpt>
      <trkpt lat="50.47011" lon="2.96434">
        <ele>26</ele>
        <time>2012-02-05T07:35:11Z</time>
      </trkpt>
      <trkpt lat="50.47014" lon="2.9642">
        <ele>26</ele>
        <time>2012-02-05T07:35:13Z</time>
      </trkpt>
      <trkpt lat="50.47014" lon="2.96405">
        <ele>26</ele>
        <time>2012-02-05T07:35:15Z</time>
      </trkpt>
      <trkpt lat="50.47014" lon="2.96389">
        <ele>26</ele>
        <time>2012-02-05T07:35:17Z</time>
      </trkpt>
      <trkpt lat="50.47014" lon="2.96373">
        <ele>26</ele>
        <time>2012-02-05T07:35:19Z</time>
      </trkpt>
      <trkpt lat="50.47013" lon="2.96355">
        <ele>26</ele>
        <time>2012-02-05T07:35:21Z</time>
      </trkpt>
      <trkpt lat="50.47013" lon="2.96335">
        <ele>26</ele>
        <time>2012-02-05T07:35:23Z</time>
      </trkpt>
      <trkpt lat="50.47013" lon="2.96317">
        <ele>26</ele>
        <time>2012-02-05T07:35:25Z</time>
      </trkpt>
      <trkpt lat="50.47013" lon="2.96296">
        <ele>26</ele>
        <time>2012-02-05T07:35:27Z</time>
      </trkpt>
      <trkpt lat="50.47013" lon="2.96276">
        <ele>26</ele>
        <time>2012-02-05T07:35:29Z</time>
      </trkpt>
      <trkpt lat="50.47013" lon="2.96255">
        <ele>26</ele>
        <time>2012-02-05T07:35:31Z</time>
      </trkpt>
      <trkpt lat="50.47013" lon="2.96236">
        <ele>20</ele>
        <time>2012-02-05T07:35:33Z</time>
      </trkpt>
      <trkpt lat="50.47013" lon="2.96215">
        <ele>20</ele>
        <time>2012-02-05T07:35:35Z</time>
      </trkpt>
      <trkpt lat="50.47013" lon="2.96195">
        <ele>20</ele>
        <time>2012-02-05T07:35:37Z</time>
      </trkpt>
      <trkpt lat="50.47013" lon="2.96176">
        <ele>20</ele>
        <time>2012-02-05T07:35:39Z</time>
      </trkpt>
      <trkpt lat="50.47013" lon="2.96158">
        <ele>20</ele>
        <time>2012-02-05T07:35:41Z</time>
      </trkpt>
      <trkpt lat="50.47013" lon="2.96141">
        <ele>20</ele>
        <time>2012-02-05T07:35:43Z</time>
      </trkpt>
      <trkpt lat="50.47012" lon="2.96124">
        <ele>20</ele>
        <time>2012-02-05T07:35:45Z</time>
      </trkpt>
      <trkpt lat="50.47012" lon="2.96105">
        <ele>20</ele>
        <time>2012-02-05T07:35:47Z</time>
      </trkpt>
      <trkpt lat="50.47012" lon="2.96086">
        <ele>20</ele>
        <time>2012-02-05T07:35:49Z</time>
      </trkpt>
      <trkpt lat="50.4701" lon="2.96067">
        <ele>20</ele>
        <time>2012-02-05T07:35:51Z</time>
      </trkpt>
      <trkpt lat="50.47012" lon="2.9605">
        <ele>20</ele>
        <time>2012-02-05T07:35:53Z</time>
      </trkpt>
      <trkpt lat="50.47013" lon="2.96033">
        <ele>20</ele>
        <time>2012-02-05T07:35:55Z</time>
      </trkpt>
      <trkpt lat="50.47013" lon="2.96016">
        <ele>20</ele>
        <time>2012-02-05T07:35:57Z</time>
      </trkpt>
      <trkpt lat="50.47012" lon="2.96">
        <ele>20</ele>
        <time>2012-02-05T07:36:00Z</time>
      </trkpt>
      <trkpt lat="50.47012" lon="2.95983">
        <ele>20</ele>
        <time>2012-02-05T07:36:03Z</time>
      </trkpt>
      <trkpt lat="50.47012" lon="2.95963">
        <ele>20</ele>
        <time>2012-02-05T07:36:06Z</time>
      </trkpt>
      <trkpt lat="50.47012" lon="2.95948">
        <ele>20</ele>
        <time>2012-02-05T07:36:08Z</time>
      </trkpt>
      <trkpt lat="50.47012" lon="2.95932">
        <ele>20</ele>
        <time>2012-02-05T07:36:10Z</time>
      </trkpt>
      <trkpt lat="50.47012" lon="2.95916">
        <ele>20</ele>
        <time>2012-02-05T07:36:12Z</time>
      </trkpt>
      <trkpt lat="50.47012" lon="2.959">
        <ele>20</ele>
        <time>2012-02-05T07:36:14Z</time>
      </trkpt>
      <trkpt lat="50.4701" lon="2.95885">
        <ele>20</ele>
        <time>2012-02-05T07:36:16Z</time>
      </trkpt>
      <trkpt lat="50.4701" lon="2.95865">
        <ele>20</ele>
        <time>2012-02-05T07:36:19Z</time>
      </trkpt>
      <trkpt lat="50.4701" lon="2.9585">
        <ele>20</ele>
        <time>2012-02-05T07:36:21Z</time>
      </trkpt>
      <trkpt lat="50.4701" lon="2.95835">
        <ele>20</ele>
        <time>2012-02-05T07:36:23Z</time>
      </trkpt>
      <trkpt lat="50.47009" lon="2.9582">
        <ele>20</ele>
        <time>2012-02-05T07:36:25Z</time>
      </trkpt>
      <trkpt lat="50.47007" lon="2.95804">
        <ele>20</ele>
        <time>2012-02-05T07:36:27Z</time>
      </trkpt>
      <trkpt lat="50.47006" lon="2.95789">
        <ele>20</ele>
        <time>2012-02-05T07:36:29Z</time>
      </trkpt>
      <trkpt lat="50.47006" lon="2.95774">
        <ele>20</ele>
        <time>2012-02-05T07:36:31Z</time>
      </trkpt>
      <trkpt lat="50.47009" lon="2.9576">
        <ele>20</ele>
        <time>2012-02-05T07:36:33Z</time>
      </trkpt>
      <trkpt lat="50.4701" lon="2.95746">
        <ele>20</ele>
        <time>2012-02-05T07:36:35Z</time>
      </trkpt>
      <trkpt lat="50.47016" lon="2.95731">
        <ele>20</ele>
        <time>2012-02-05T07:36:38Z</time>
      </trkpt>
      <trkpt lat="50.47019" lon="2.95712">
        <ele>20</ele>
        <time>2012-02-05T07:36:41Z</time>
      </trkpt>
      <trkpt lat="50.4702" lon="2.95691">
        <ele>20</ele>
        <time>2012-02-05T07:36:44Z</time>
      </trkpt>
      <trkpt lat="50.47021" lon="2.95677">
        <ele>20</ele>
        <time>2012-02-05T07:36:46Z</time>
      </trkpt>
      <trkpt lat="50.47022" lon="2.95663">
        <ele>20</ele>
        <time>2012-02-05T07:36:48Z</time>
      </trkpt>
      <trkpt lat="50.47031" lon="2.9565">
        <ele>20</ele>
        <time>2012-02-05T07:36:51Z</time>
      </trkpt>
      <trkpt lat="50.47041" lon="2.95647">
        <ele>20</ele>
        <time>2012-02-05T07:36:53Z</time>
      </trkpt>
      <trkpt lat="50.47051" lon="2.95645">
        <ele>20</ele>
        <time>2012-02-05T07:36:55Z</time>
      </trkpt>
      <trkpt lat="50.47061" lon="2.95644">
        <ele>20</ele>
        <time>2012-02-05T07:36:57Z</time>
      </trkpt>
      <trkpt lat="50.4707" lon="2.95643">
        <ele>20</ele>
        <time>2012-02-05T07:36:59Z</time>
      </trkpt>
      <trkpt lat="50.47082" lon="2.95642">
        <ele>20</ele>
        <time>2012-02-05T07:37:02Z</time>
      </trkpt>
      <trkpt lat="50.47095" lon="2.95642">
        <ele>20</ele>
        <time>2012-02-05T07:37:05Z</time>
      </trkpt>
      <trkpt lat="50.47105" lon="2.95643">
        <ele>20</ele>
        <time>2012-02-05T07:37:07Z</time>
      </trkpt>
      <trkpt lat="50.47114" lon="2.95642">
        <ele>20</ele>
        <time>2012-02-05T07:37:09Z</time>
      </trkpt>
      <trkpt lat="50.47123" lon="2.95643">
        <ele>20</ele>
        <time>2012-02-05T07:37:11Z</time>
      </trkpt>
      <trkpt lat="50.47133" lon="2.95642">
        <ele>20</ele>
        <time>2012-02-05T07:37:13Z</time>
      </trkpt>
      <trkpt lat="50.47142" lon="2.95633">
        <ele>20</ele>
        <time>2012-02-05T07:37:16Z</time>
      </trkpt>
      <trkpt lat="50.47144" lon="2.95616">
        <ele>20</ele>
        <time>2012-02-05T07:37:19Z</time>
      </trkpt>
      <trkpt lat="50.47143" lon="2.95596">
        <ele>20</ele>
        <time>2012-02-05T07:37:22Z</time>
      </trkpt>
      <trkpt lat="50.47144" lon="2.95575">
        <ele>20</ele>
        <time>2012-02-05T07:37:25Z</time>
      </trkpt>
      <trkpt lat="50.47143" lon="2.95557">
        <ele>20</ele>
        <time>2012-02-05T07:37:28Z</time>
      </trkpt>
      <trkpt lat="50.47143" lon="2.95538">
        <ele>20</ele>
        <time>2012-02-05T07:37:31Z</time>
      </trkpt>
      <trkpt lat="50.47142" lon="2.95519">
        <ele>20</ele>
        <time>2012-02-05T07:37:34Z</time>
      </trkpt>
      <trkpt lat="50.47142" lon="2.95498">
        <ele>20</ele>
        <time>2012-02-05T07:37:37Z</time>
      </trkpt>
      <trkpt lat="50.47142" lon="2.95478">
        <ele>20</ele>
        <time>2012-02-05T07:37:40Z</time>
      </trkpt>
      <trkpt lat="50.47142" lon="2.95462">
        <ele>20</ele>
        <time>2012-02-05T07:37:42Z</time>
      </trkpt>
      <trkpt lat="50.47142" lon="2.95447">
        <ele>20</ele>
        <time>2012-02-05T07:37:44Z</time>
      </trkpt>
      <trkpt lat="50.47141" lon="2.9543">
        <ele>20</ele>
        <time>2012-02-05T07:37:46Z</time>
      </trkpt>
      <trkpt lat="50.47141" lon="2.95413">
        <ele>20</ele>
        <time>2012-02-05T07:37:48Z</time>
      </trkpt>
      <trkpt lat="50.47141" lon="2.95396">
        <ele>20</ele>
        <time>2012-02-05T07:37:50Z</time>
      </trkpt>
      <trkpt lat="50.47141" lon="2.95378">
        <ele>20</ele>
        <time>2012-02-05T07:37:52Z</time>
      </trkpt>
      <trkpt lat="50.47141" lon="2.95359">
        <ele>20</ele>
        <time>2012-02-05T07:37:54Z</time>
      </trkpt>
      <trkpt lat="50.47141" lon="2.9534">
        <ele>20</ele>
        <time>2012-02-05T07:37:56Z</time>
      </trkpt>
      <trkpt lat="50.47141" lon="2.9532">
        <ele>20</ele>
        <time>2012-02-05T07:37:58Z</time>
      </trkpt>
      <trkpt lat="50.47141" lon="2.95301">
        <ele>20</ele>
        <time>2012-02-05T07:38:00Z</time>
      </trkpt>
      <trkpt lat="50.47141" lon="2.95282">
        <ele>20</ele>
        <time>2012-02-05T07:38:02Z</time>
      </trkpt>
      <trkpt lat="50.47142" lon="2.95265">
        <ele>20</ele>
        <time>2012-02-05T07:38:04Z</time>
      </trkpt>
      <trkpt lat="50.47142" lon="2.95248">
        <ele>20</ele>
        <time>2012-02-05T07:38:06Z</time>
      </trkpt>
      <trkpt lat="50.47139" lon="2.95234">
        <ele>20</ele>
        <time>2012-02-05T07:38:08Z</time>
      </trkpt>
      <trkpt lat="50.4713" lon="2.95226">
        <ele>20</ele>
        <time>2012-02-05T07:38:11Z</time>
      </trkpt>
      <trkpt lat="50.47119" lon="2.95226">
        <ele>20</ele>
        <time>2012-02-05T07:38:14Z</time>
      </trkpt>
      <trkpt lat="50.47107" lon="2.95227">
        <ele>20</ele>
        <time>2012-02-05T07:38:17Z</time>
      </trkpt>
      <trkpt lat="50.47094" lon="2.95228">
        <ele>20</ele>
        <time>2012-02-05T07:38:20Z</time>
      </trkpt>
      <trkpt lat="50.47082" lon="2.9523">
        <ele>20</ele>
        <time>2012-02-05T07:38:23Z</time>
      </trkpt>
      <trkpt lat="50.47071" lon="2.95222">
        <ele>20</ele>
        <time>2012-02-05T07:38:26Z</time>
      </trkpt>
      <trkpt lat="50.4707" lon="2.95205">
        <ele>20</ele>
        <time>2012-02-05T07:38:29Z</time>
      </trkpt>
      <trkpt lat="50.47069" lon="2.9519">
        <ele>20</ele>
        <time>2012-02-05T07:38:31Z</time>
      </trkpt>
      <trkpt lat="50.47069" lon="2.95174">
        <ele>20</ele>
        <time>2012-02-05T07:38:33Z</time>
      </trkpt>
      <trkpt lat="50.47068" lon="2.95158">
        <ele>20</ele>
        <time>2012-02-05T07:38:35Z</time>
      </trkpt>
      <trkpt lat="50.47067" lon="2.95142">
        <ele>20</ele>
        <time>2012-02-05T07:38:37Z</time>
      </trkpt>
      <trkpt lat="50.47066" lon="2.95125">
        <ele>20</ele>
        <time>2012-02-05T07:38:39Z</time>
      </trkpt>
      <trkpt lat="50.47064" lon="2.95108">
        <ele>20</ele>
        <time>2012-02-05T07:38:41Z</time>
      </trkpt>
      <trkpt lat="50.47063" lon="2.9509">
        <ele>20</ele>
        <time>2012-02-05T07:38:43Z</time>
      </trkpt>
      <trkpt lat="50.47061" lon="2.95072">
        <ele>20</ele>
        <time>2012-02-05T07:38:45Z</time>
      </trkpt>
      <trkpt lat="50.47059" lon="2.95054">
        <ele>20</ele>
        <time>2012-02-05T07:38:47Z</time>
      </trkpt>
      <trkpt lat="50.47056" lon="2.95036">
        <ele>20</ele>
        <time>2012-02-05T07:38:49Z</time>
      </trkpt>
      <trkpt lat="50.47053" lon="2.95019">
        <ele>20</ele>
        <time>2012-02-05T07:38:51Z</time>
      </trkpt>
      <trkpt lat="50.47051" lon="2.95005">
        <ele>20</ele>
        <time>2012-02-05T07:38:53Z</time>
      </trkpt>
      <trkpt lat="50.47048" lon="2.94991">
        <ele>20</ele>
        <time>2012-02-05T07:38:55Z</time>
      </trkpt>
      <trkpt lat="50.47045" lon="2.94975">
        <ele>20</ele>
        <time>2012-02-05T07:38:57Z</time>
      </trkpt>
      <trkpt lat="50.47043" lon="2.9496">
        <ele>20</ele>
        <time>2012-02-05T07:38:59Z</time>
      </trkpt>
      <trkpt lat="50.47041" lon="2.94944">
        <ele>20</ele>
        <time>2012-02-05T07:39:01Z</time>
      </trkpt>
      <trkpt lat="50.47039" lon="2.94928">
        <ele>20</ele>
        <time>2012-02-05T07:39:03Z</time>
      </trkpt>
      <trkpt lat="50.47036" lon="2.94911">
        <ele>20</ele>
        <time>2012-02-05T07:39:05Z</time>
      </trkpt>
      <trkpt lat="50.47034" lon="2.94894">
        <ele>20</ele>
        <time>2012-02-05T07:39:07Z</time>
      </trkpt>
      <trkpt lat="50.47031" lon="2.94877">
        <ele>20</ele>
        <time>2012-02-05T07:39:09Z</time>
      </trkpt>
      <trkpt lat="50.47029" lon="2.94859">
        <ele>20</ele>
        <time>2012-02-05T07:39:11Z</time>
      </trkpt>
      <trkpt lat="50.47029" lon="2.94842">
        <ele>20</ele>
        <time>2012-02-05T07:39:13Z</time>
      </trkpt>
      <trkpt lat="50.47032" lon="2.94827">
        <ele>20</ele>
        <time>2012-02-05T07:39:15Z</time>
      </trkpt>
      <trkpt lat="50.47036" lon="2.94812">
        <ele>20</ele>
        <time>2012-02-05T07:39:17Z</time>
      </trkpt>
      <trkpt lat="50.47041" lon="2.94797">
        <ele>20</ele>
        <time>2012-02-05T07:39:19Z</time>
      </trkpt>
      <trkpt lat="50.47047" lon="2.94783">
        <ele>20</ele>
        <time>2012-02-05T07:39:21Z</time>
      </trkpt>
      <trkpt lat="50.47051" lon="2.94771">
        <ele>20</ele>
        <time>2012-02-05T07:39:23Z</time>
      </trkpt>
      <trkpt lat="50.47055" lon="2.94758">
        <ele>20</ele>
        <time>2012-02-05T07:39:25Z</time>
      </trkpt>
      <trkpt lat="50.47059" lon="2.9474">
        <ele>20</ele>
        <time>2012-02-05T07:39:28Z</time>
      </trkpt>
      <trkpt lat="50.47061" lon="2.94721">
        <ele>20</ele>
        <time>2012-02-05T07:39:31Z</time>
      </trkpt>
      <trkpt lat="50.47062" lon="2.94704">
        <ele>20</ele>
        <time>2012-02-05T07:39:34Z</time>
      </trkpt>
      <trkpt lat="50.47071" lon="2.94695">
        <ele>20</ele>
        <time>2012-02-05T07:39:38Z</time>
      </trkpt>
      <trkpt lat="50.47081" lon="2.94704">
        <ele>20</ele>
        <time>2012-02-05T07:39:41Z</time>
      </trkpt>
      <trkpt lat="50.47092" lon="2.94714">
        <ele>20</ele>
        <time>2012-02-05T07:39:44Z</time>
      </trkpt>
      <trkpt lat="50.471" lon="2.94722">
        <ele>20</ele>
        <time>2012-02-05T07:39:46Z</time>
      </trkpt>
      <trkpt lat="50.47108" lon="2.94731">
        <ele>20</ele>
        <time>2012-02-05T07:39:48Z</time>
      </trkpt>
      <trkpt lat="50.47117" lon="2.94739">
        <ele>20</ele>
        <time>2012-02-05T07:39:50Z</time>
      </trkpt>
      <trkpt lat="50.47125" lon="2.94747">
        <ele>20</ele>
        <time>2012-02-05T07:39:52Z</time>
      </trkpt>
      <trkpt lat="50.47133" lon="2.94756">
        <ele>20</ele>
        <time>2012-02-05T07:39:54Z</time>
      </trkpt>
      <trkpt lat="50.47141" lon="2.94765">
        <ele>20</ele>
        <time>2012-02-05T07:39:56Z</time>
      </trkpt>
      <trkpt lat="50.47149" lon="2.94774">
        <ele>20</ele>
        <time>2012-02-05T07:39:58Z</time>
      </trkpt>
      <trkpt lat="50.47157" lon="2.94782">
        <ele>20</ele>
        <time>2012-02-05T07:40:00Z</time>
      </trkpt>
      <trkpt lat="50.47164" lon="2.94792">
        <ele>20</ele>
        <time>2012-02-05T07:40:02Z</time>
      </trkpt>
      <trkpt lat="50.47172" lon="2.94802">
        <ele>20</ele>
        <time>2012-02-05T07:40:04Z</time>
      </trkpt>
      <trkpt lat="50.47181" lon="2.94813">
        <ele>20</ele>
        <time>2012-02-05T07:40:06Z</time>
      </trkpt>
      <trkpt lat="50.47189" lon="2.94824">
        <ele>20</ele>
        <time>2012-02-05T07:40:08Z</time>
      </trkpt>
      <trkpt lat="50.47197" lon="2.94834">
        <ele>26</ele>
        <time>2012-02-05T07:40:10Z</time>
      </trkpt>
      <trkpt lat="50.47206" lon="2.94844">
        <ele>26</ele>
        <time>2012-02-05T07:40:12Z</time>
      </trkpt>
      <trkpt lat="50.47215" lon="2.94855">
        <ele>26</ele>
        <time>2012-02-05T07:40:14Z</time>
      </trkpt>
      <trkpt lat="50.47224" lon="2.94866">
        <ele>26</ele>
        <time>2012-02-05T07:40:16Z</time>
      </trkpt>
      <trkpt lat="50.47233" lon="2.94877">
        <ele>26</ele>
        <time>2012-02-05T07:40:18Z</time>
      </trkpt>
      <trkpt lat="50.47242" lon="2.94888">
        <ele>26</ele>
        <time>2012-02-05T07:40:20Z</time>
      </trkpt>
      <trkpt lat="50.47251" lon="2.94899">
        <ele>26</ele>
        <time>2012-02-05T07:40:22Z</time>
      </trkpt>
      <trkpt lat="50.4726" lon="2.94911">
        <ele>26</ele>
        <time>2012-02-05T07:40:24Z</time>
      </trkpt>
      <trkpt lat="50.4727" lon="2.94922">
        <ele>26</ele>
        <time>2012-02-05T07:40:26Z</time>
      </trkpt>
      <trkpt lat="50.47279" lon="2.94934">
        <ele>26</ele>
        <time>2012-02-05T07:40:28Z</time>
      </trkpt>
      <trkpt lat="50.47289" lon="2.94945">
        <ele>26</ele>
        <time>2012-02-05T07:40:30Z</time>
      </trkpt>
      <trkpt lat="50.47298" lon="2.94956">
        <ele>26</ele>
        <time>2012-02-05T07:40:32Z</time>
      </trkpt>
      <trkpt lat="50.47307" lon="2.94968">
        <ele>26</ele>
        <time>2012-02-05T07:40:34Z</time>
      </trkpt>
      <trkpt lat="50.47317" lon="2.9498">
        <ele>26</ele>
        <time>2012-02-05T07:40:36Z</time>
      </trkpt>
      <trkpt lat="50.47328" lon="2.94992">
        <ele>26</ele>
        <time>2012-02-05T07:40:38Z</time>
      </trkpt>
      <trkpt lat="50.47338" lon="2.95005">
        <ele>26</ele>
        <time>2012-02-05T07:40:40Z</time>
      </trkpt>
      <trkpt lat="50.47348" lon="2.95018">
        <ele>26</ele>
        <time>2012-02-05T07:40:42Z</time>
      </trkpt>
      <trkpt lat="50.47359" lon="2.95031">
        <ele>26</ele>
        <time>2012-02-05T07:40:44Z</time>
      </trkpt>
      <trkpt lat="50.4737" lon="2.95045">
        <ele>26</ele>
        <time>2012-02-05T07:40:46Z</time>
      </trkpt>
      <trkpt lat="50.47381" lon="2.95058">
        <ele>26</ele>
        <time>2012-02-05T07:40:48Z</time>
      </trkpt>
      <trkpt lat="50.47392" lon="2.95071">
        <ele>26</ele>
        <time>2012-02-05T07:40:50Z</time>
      </trkpt>
      <trkpt lat="50.47403" lon="2.95084">
        <ele>26</ele>
        <time>2012-02-05T07:40:52Z</time>
      </trkpt>
      <trkpt lat="50.47413" lon="2.95097">
        <ele>26</ele>
        <time>2012-02-05T07:40:54Z</time>
      </trkpt>
      <trkpt lat="50.47423" lon="2.95108">
        <ele>26</ele>
        <time>2012-02-05T07:40:56Z</time>
      </trkpt>
      <trkpt lat="50.47434" lon="2.95121">
        <ele>26</ele>
        <time>2012-02-05T07:40:58Z</time>
      </trkpt>
      <trkpt lat="50.47444" lon="2.95133">
        <ele>26</ele>
        <time>2012-02-05T07:41:00Z</time>
      </trkpt>
      <trkpt lat="50.47454" lon="2.95147">
        <ele>26</ele>
        <time>2012-02-05T07:41:02Z</time>
      </trkpt>
      <trkpt lat="50.47464" lon="2.9516">
        <ele>26</ele>
        <time>2012-02-05T07:41:04Z</time>
      </trkpt>
      <trkpt lat="50.47474" lon="2.95171">
        <ele>26</ele>
        <time>2012-02-05T07:41:06Z</time>
      </trkpt>
      <trkpt lat="50.47485" lon="2.95184">
        <ele>26</ele>
        <time>2012-02-05T07:41:08Z</time>
      </trkpt>
      <trkpt lat="50.47495" lon="2.95195">
        <ele>26</ele>
        <time>2012-02-05T07:41:10Z</time>
      </trkpt>
      <trkpt lat="50.47505" lon="2.95208">
        <ele>26</ele>
        <time>2012-02-05T07:41:12Z</time>
      </trkpt>
      <trkpt lat="50.47515" lon="2.95221">
        <ele>26</ele>
        <time>2012-02-05T07:41:14Z</time>
      </trkpt>
      <trkpt lat="50.47524" lon="2.95233">
        <ele>26</ele>
        <time>2012-02-05T07:41:16Z</time>
      </trkpt>
      <trkpt lat="50.47534" lon="2.95244">
        <ele>26</ele>
        <time>2012-02-05T07:41:18Z</time>
      </trkpt>
      <trkpt lat="50.47544" lon="2.95257">
        <ele>26</ele>
        <time>2012-02-05T07:41:20Z</time>
      </trkpt>
      <trkpt lat="50.47555" lon="2.95269">
        <ele>26</ele>
        <time>2012-02-05T07:41:22Z</time>
      </trkpt>
      <trkpt lat="50.47564" lon="2.95282">
        <ele>26</ele>
        <time>2012-02-05T07:41:24Z</time>
      </trkpt>
      <trkpt lat="50.47575" lon="2.95294">
        <ele>26</ele>
        <time>2012-02-05T07:41:26Z</time>
      </trkpt>
      <trkpt lat="50.47585" lon="2.95307">
        <ele>26</ele>
        <time>2012-02-05T07:41:28Z</time>
      </trkpt>
      <trkpt lat="50.47596" lon="2.95319">
        <ele>26</ele>
        <time>2012-02-05T07:41:30Z</time>
      </trkpt>
      <trkpt lat="50.47606" lon="2.95333">
        <ele>26</ele>
        <time>2012-02-05T07:41:32Z</time>
      </trkpt>
      <trkpt lat="50.47616" lon="2.95345">
        <ele>26</ele>
        <time>2012-02-05T07:41:34Z</time>
      </trkpt>
      <trkpt lat="50.47627" lon="2.95358">
        <ele>26</ele>
        <time>2012-02-05T07:41:36Z</time>
      </trkpt>
      <trkpt lat="50.47638" lon="2.95371">
        <ele>26</ele>
        <time>2012-02-05T07:41:38Z</time>
      </trkpt>
      <trkpt lat="50.47649" lon="2.95384">
        <ele>26</ele>
        <time>2012-02-05T07:41:40Z</time>
      </trkpt>
      <trkpt lat="50.47661" lon="2.95398">
        <ele>26</ele>
        <time>2012-02-05T07:41:42Z</time>
      </trkpt>
      <trkpt lat="50.47671" lon="2.95411">
        <ele>26</ele>
        <time>2012-02-05T07:41:44Z</time>
      </trkpt>
      <trkpt lat="50.47682" lon="2.95425">
        <ele>26</ele>
        <time>2012-02-05T07:41:46Z</time>
      </trkpt>
      <trkpt lat="50.47694" lon="2.95439">
        <ele>26</ele>
        <time>2012-02-05T07:41:48Z</time>
      </trkpt>
      <trkpt lat="50.47705" lon="2.95452">
        <ele>26</ele>
        <time>2012-02-05T07:41:50Z</time>
      </trkpt>
      <trkpt lat="50.47716" lon="2.95466">
        <ele>26</ele>
        <time>2012-02-05T07:41:52Z</time>
      </trkpt>
      <trkpt lat="50.47727" lon="2.95479">
        <ele>26</ele>
        <time>2012-02-05T07:41:54Z</time>
      </trkpt>
      <trkpt lat="50.47737" lon="2.95492">
        <ele>26</ele>
        <time>2012-02-05T07:41:56Z</time>
      </trkpt>
      <trkpt lat="50.47747" lon="2.95504">
        <ele>26</ele>
        <time>2012-02-05T07:41:58Z</time>
      </trkpt>
      <trkpt lat="50.47757" lon="2.95515">
        <ele>26</ele>
        <time>2012-02-05T07:42:00Z</time>
      </trkpt>
      <trkpt lat="50.47766" lon="2.95525">
        <ele>26</ele>
        <time>2012-02-05T07:42:02Z</time>
      </trkpt>
      <trkpt lat="50.47775" lon="2.95529">
        <ele>26</ele>
        <time>2012-02-05T07:42:04Z</time>
      </trkpt>
      <trkpt lat="50.47787" lon="2.95524">
        <ele>26</ele>
        <time>2012-02-05T07:42:07Z</time>
      </trkpt>
      <trkpt lat="50.47796" lon="2.95509">
        <ele>26</ele>
        <time>2012-02-05T07:42:10Z</time>
      </trkpt>
      <trkpt lat="50.47803" lon="2.95497">
        <ele>26</ele>
        <time>2012-02-05T07:42:12Z</time>
      </trkpt>
      <trkpt lat="50.4781" lon="2.95484">
        <ele>26</ele>
        <time>2012-02-05T07:42:14Z</time>
      </trkpt>
      <trkpt lat="50.47819" lon="2.9547">
        <ele>26</ele>
        <time>2012-02-05T07:42:16Z</time>
      </trkpt>
      <trkpt lat="50.47828" lon="2.95455">
        <ele>26</ele>
        <time>2012-02-05T07:42:18Z</time>
      </trkpt>
      <trkpt lat="50.47837" lon="2.95441">
        <ele>26</ele>
        <time>2012-02-05T07:42:20Z</time>
      </trkpt>
      <trkpt lat="50.47847" lon="2.95425">
        <ele>20</ele>
        <time>2012-02-05T07:42:22Z</time>
      </trkpt>
      <trkpt lat="50.47857" lon="2.9541">
        <ele>20</ele>
        <time>2012-02-05T07:42:24Z</time>
      </trkpt>
      <trkpt lat="50.47867" lon="2.95394">
        <ele>20</ele>
        <time>2012-02-05T07:42:26Z</time>
      </trkpt>
      <trkpt lat="50.47877" lon="2.95379">
        <ele>20</ele>
        <time>2012-02-05T07:42:28Z</time>
      </trkpt>
      <trkpt lat="50.47886" lon="2.95363">
        <ele>20</ele>
        <time>2012-02-05T07:42:30Z</time>
      </trkpt>
      <trkpt lat="50.47897" lon="2.95346">
        <ele>20</ele>
        <time>2012-02-05T07:42:32Z</time>
      </trkpt>
      <trkpt lat="50.47907" lon="2.95329">
        <ele>20</ele>
        <time>2012-02-05T07:42:34Z</time>
      </trkpt>
      <trkpt lat="50.47917" lon="2.95313">
        <ele>20</ele>
        <time>2012-02-05T07:42:36Z</time>
      </trkpt>
      <trkpt lat="50.47928" lon="2.95296">
        <ele>20</ele>
        <time>2012-02-05T07:42:38Z</time>
      </trkpt>
      <trkpt lat="50.47938" lon="2.95279">
        <ele>20</ele>
        <time>2012-02-05T07:42:40Z</time>
      </trkpt>
      <trkpt lat="50.47948" lon="2.95263">
        <ele>20</ele>
        <time>2012-02-05T07:42:42Z</time>
      </trkpt>
      <trkpt lat="50.47959" lon="2.95248">
        <ele>20</ele>
        <time>2012-02-05T07:42:44Z</time>
      </trkpt>
      <trkpt lat="50.47968" lon="2.95231">
        <ele>20</ele>
        <time>2012-02-05T07:42:46Z</time>
      </trkpt>
      <trkpt lat="50.47977" lon="2.95217">
        <ele>20</ele>
        <time>2012-02-05T07:42:48Z</time>
      </trkpt>
      <trkpt lat="50.47985" lon="2.95207">
        <ele>20</ele>
        <time>2012-02-05T07:42:50Z</time>
      </trkpt>
      <trkpt lat="50.47995" lon="2.95195">
        <ele>20</ele>
        <time>2012-02-05T07:42:53Z</time>
      </trkpt>
      <trkpt lat="50.48002" lon="2.95186">
        <ele>20</ele>
        <time>2012-02-05T07:42:56Z</time>
      </trkpt>
      <trkpt lat="50.48011" lon="2.95195">
        <ele>20</ele>
        <time>2012-02-05T07:43:03Z</time>
      </trkpt>
      <trkpt lat="50.4801" lon="2.9521">
        <ele>20</ele>
        <time>2012-02-05T07:43:05Z</time>
      </trkpt>
      <trkpt lat="50.4801" lon="2.95227">
        <ele>20</ele>
        <time>2012-02-05T07:43:07Z</time>
      </trkpt>
      <trkpt lat="50.4801" lon="2.95244">
        <ele>20</ele>
        <time>2012-02-05T07:43:09Z</time>
      </trkpt>
      <trkpt lat="50.4801" lon="2.95261">
        <ele>20</ele>
        <time>2012-02-05T07:43:11Z</time>
      </trkpt>
      <trkpt lat="50.4801" lon="2.95278">
        <ele>20</ele>
        <time>2012-02-05T07:43:13Z</time>
      </trkpt>
      <trkpt lat="50.48009" lon="2.95295">
        <ele>20</ele>
        <time>2012-02-05T07:43:15Z</time>
      </trkpt>
      <trkpt lat="50.4801" lon="2.95312">
        <ele>20</ele>
        <time>2012-02-05T07:43:17Z</time>
      </trkpt>
      <trkpt lat="50.4801" lon="2.95329">
        <ele>20</ele>
        <time>2012-02-05T07:43:19Z</time>
      </trkpt>
      <trkpt lat="50.48009" lon="2.95346">
        <ele>20</ele>
        <time>2012-02-05T07:43:21Z</time>
      </trkpt>
      <trkpt lat="50.48009" lon="2.95363">
        <ele>20</ele>
        <time>2012-02-05T07:43:23Z</time>
      </trkpt>
      <trkpt lat="50.4801" lon="2.9538">
        <ele>20</ele>
        <time>2012-02-05T07:43:25Z</time>
      </trkpt>
      <trkpt lat="50.4801" lon="2.95397">
        <ele>20</ele>
        <time>2012-02-05T07:43:27Z</time>
      </trkpt>
      <trkpt lat="50.48009" lon="2.95413">
        <ele>20</ele>
        <time>2012-02-05T07:43:29Z</time>
      </trkpt>
      <trkpt lat="50.48009" lon="2.95429">
        <ele>20</ele>
        <time>2012-02-05T07:43:31Z</time>
      </trkpt>
      <trkpt lat="50.4801" lon="2.95445">
        <ele>20</ele>
        <time>2012-02-05T07:43:33Z</time>
      </trkpt>
      <trkpt lat="50.4801" lon="2.95461">
        <ele>20</ele>
        <time>2012-02-05T07:43:35Z</time>
      </trkpt>
      <trkpt lat="50.4801" lon="2.95478">
        <ele>20</ele>
        <time>2012-02-05T07:43:37Z</time>
      </trkpt>
      <trkpt lat="50.48009" lon="2.95496">
        <ele>20</ele>
        <time>2012-02-05T07:43:39Z</time>
      </trkpt>
      <trkpt lat="50.4801" lon="2.95514">
        <ele>20</ele>
        <time>2012-02-05T07:43:41Z</time>
      </trkpt>
      <trkpt lat="50.4801" lon="2.95532">
        <ele>20</ele>
        <time>2012-02-05T07:43:43Z</time>
      </trkpt>
      <trkpt lat="50.48011" lon="2.9555">
        <ele>20</ele>
        <time>2012-02-05T07:43:45Z</time>
      </trkpt>
      <trkpt lat="50.48011" lon="2.95568">
        <ele>20</ele>
        <time>2012-02-05T07:43:47Z</time>
      </trkpt>
      <trkpt lat="50.48011" lon="2.95585">
        <ele>20</ele>
        <time>2012-02-05T07:43:49Z</time>
      </trkpt>
      <trkpt lat="50.48011" lon="2.95601">
        <ele>20</ele>
        <time>2012-02-05T07:43:51Z</time>
      </trkpt>
      <trkpt lat="50.48011" lon="2.95618">
        <ele>20</ele>
        <time>2012-02-05T07:43:53Z</time>
      </trkpt>
      <trkpt lat="50.48011" lon="2.95636">
        <ele>20</ele>
        <time>2012-02-05T07:43:55Z</time>
      </trkpt>
      <trkpt lat="50.48012" lon="2.95653">
        <ele>20</ele>
        <time>2012-02-05T07:43:57Z</time>
      </trkpt>
      <trkpt lat="50.48012" lon="2.9567">
        <ele>20</ele>
        <time>2012-02-05T07:43:59Z</time>
      </trkpt>
      <trkpt lat="50.48012" lon="2.95688">
        <ele>20</ele>
        <time>2012-02-05T07:44:01Z</time>
      </trkpt>
      <trkpt lat="50.48012" lon="2.95705">
        <ele>20</ele>
        <time>2012-02-05T07:44:03Z</time>
      </trkpt>
      <trkpt lat="50.48013" lon="2.95722">
        <ele>20</ele>
        <time>2012-02-05T07:44:05Z</time>
      </trkpt>
      <trkpt lat="50.48013" lon="2.95739">
        <ele>20</ele>
        <time>2012-02-05T07:44:07Z</time>
      </trkpt>
      <trkpt lat="50.48013" lon="2.95756">
        <ele>20</ele>
        <time>2012-02-05T07:44:09Z</time>
      </trkpt>
      <trkpt lat="50.48013" lon="2.95772">
        <ele>20</ele>
        <time>2012-02-05T07:44:11Z</time>
      </trkpt>
      <trkpt lat="50.48013" lon="2.95788">
        <ele>20</ele>
        <time>2012-02-05T07:44:13Z</time>
      </trkpt>
      <trkpt lat="50.48013" lon="2.95804">
        <ele>20</ele>
        <time>2012-02-05T07:44:15Z</time>
      </trkpt>
      <trkpt lat="50.48014" lon="2.9582">
        <ele>20</ele>
        <time>2012-02-05T07:44:17Z</time>
      </trkpt>
      <trkpt lat="50.48017" lon="2.95833">
        <ele>20</ele>
        <time>2012-02-05T07:44:19Z</time>
      </trkpt>
      <trkpt lat="50.48025" lon="2.95848">
        <ele>20</ele>
        <time>2012-02-05T07:44:22Z</time>
      </trkpt>
      <trkpt lat="50.48032" lon="2.95857">
        <ele>20</ele>
        <time>2012-02-05T07:44:24Z</time>
      </trkpt>
      <trkpt lat="50.48039" lon="2.95866">
        <ele>20</ele>
        <time>2012-02-05T07:44:26Z</time>
      </trkpt>
      <trkpt lat="50.48046" lon="2.95875">
        <ele>20</ele>
        <time>2012-02-05T07:44:28Z</time>
      </trkpt>
      <trkpt lat="50.48053" lon="2.95884">
        <ele>20</ele>
        <time>2012-02-05T07:44:30Z</time>
      </trkpt>
      <trkpt lat="50.4806" lon="2.95893">
        <ele>20</ele>
        <time>2012-02-05T07:44:32Z</time>
      </trkpt>
      <trkpt lat="50.48067" lon="2.95902">
        <ele>20</ele>
        <time>2012-02-05T07:44:34Z</time>
      </trkpt>
      <trkpt lat="50.48074" lon="2.9591">
        <ele>20</ele>
        <time>2012-02-05T07:44:36Z</time>
      </trkpt>
      <trkpt lat="50.48082" lon="2.95919">
        <ele>20</ele>
        <time>2012-02-05T07:44:38Z</time>
      </trkpt>
      <trkpt lat="50.48091" lon="2.95929">
        <ele>20</ele>
        <time>2012-02-05T07:44:40Z</time>
      </trkpt>
      <trkpt lat="50.48098" lon="2.95938">
        <ele>20</ele>
        <time>2012-02-05T07:44:42Z</time>
      </trkpt>
      <trkpt lat="50.48105" lon="2.95948">
        <ele>20</ele>
        <time>2012-02-05T07:44:44Z</time>
      </trkpt>
      <trkpt lat="50.48113" lon="2.95957">
        <ele>20</ele>
        <time>2012-02-05T07:44:46Z</time>
      </trkpt>
      <trkpt lat="50.4812" lon="2.95966">
        <ele>20</ele>
        <time>2012-02-05T07:44:48Z</time>
      </trkpt>
      <trkpt lat="50.48127" lon="2.95975">
        <ele>20</ele>
        <time>2012-02-05T07:44:50Z</time>
      </trkpt>
      <trkpt lat="50.48135" lon="2.95983">
        <ele>20</ele>
        <time>2012-02-05T07:44:52Z</time>
      </trkpt>
      <trkpt lat="50.48143" lon="2.95992">
        <ele>20</ele>
        <time>2012-02-05T07:44:54Z</time>
      </trkpt>
      <trkpt lat="50.48151" lon="2.96002">
        <ele>20</ele>
        <time>2012-02-05T07:44:56Z</time>
      </trkpt>
      <trkpt lat="50.4816" lon="2.96012">
        <ele>20</ele>
        <time>2012-02-05T07:44:58Z</time>
      </trkpt>
      <trkpt lat="50.48168" lon="2.96022">
        <ele>20</ele>
        <time>2012-02-05T07:45:00Z</time>
      </trkpt>
      <trkpt lat="50.48178" lon="2.96033">
        <ele>20</ele>
        <time>2012-02-05T07:45:02Z</time>
      </trkpt>
      <trkpt lat="50.48187" lon="2.96043">
        <ele>20</ele>
        <time>2012-02-05T07:45:04Z</time>
      </trkpt>
      <trkpt lat="50.48196" lon="2.96053">
        <ele>20</ele>
        <time>2012-02-05T07:45:06Z</time>
      </trkpt>
      <trkpt lat="50.48205" lon="2.96063">
        <ele>20</ele>
        <time>2012-02-05T07:45:08Z</time>
      </trkpt>
      <trkpt lat="50.48213" lon="2.96073">
        <ele>20</ele>
        <time>2012-02-05T07:45:10Z</time>
      </trkpt>
      <trkpt lat="50.48222" lon="2.96083">
        <ele>20</ele>
        <time>2012-02-05T07:45:12Z</time>
      </trkpt>
      <trkpt lat="50.4823" lon="2.96093">
        <ele>20</ele>
        <time>2012-02-05T07:45:14Z</time>
      </trkpt>
      <trkpt lat="50.48238" lon="2.96103">
        <ele>20</ele>
        <time>2012-02-05T07:45:16Z</time>
      </trkpt>
      <trkpt lat="50.48247" lon="2.96114">
        <ele>20</ele>
        <time>2012-02-05T07:45:18Z</time>
      </trkpt>
      <trkpt lat="50.48256" lon="2.96124">
        <ele>20</ele>
        <time>2012-02-05T07:45:20Z</time>
      </trkpt>
      <trkpt lat="50.48264" lon="2.96133">
        <ele>25</ele>
        <time>2012-02-05T07:45:22Z</time>
      </trkpt>
      <trkpt lat="50.48271" lon="2.96143">
        <ele>25</ele>
        <time>2012-02-05T07:45:24Z</time>
      </trkpt>
      <trkpt lat="50.48281" lon="2.96156">
        <ele>25</ele>
        <time>2012-02-05T07:45:27Z</time>
      </trkpt>
      <trkpt lat="50.48292" lon="2.96168">
        <ele>25</ele>
        <time>2012-02-05T07:45:30Z</time>
      </trkpt>
      <trkpt lat="50.48301" lon="2.96181">
        <ele>25</ele>
        <time>2012-02-05T07:45:33Z</time>
      </trkpt>
      <trkpt lat="50.48311" lon="2.96192">
        <ele>25</ele>
        <time>2012-02-05T07:45:36Z</time>
      </trkpt>
      <trkpt lat="50.48319" lon="2.96202">
        <ele>25</ele>
        <time>2012-02-05T07:45:39Z</time>
      </trkpt>
      <trkpt lat="50.48326" lon="2.96213">
        <ele>25</ele>
        <time>2012-02-05T07:45:42Z</time>
      </trkpt>
      <trkpt lat="50.48324" lon="2.9623">
        <ele>25</ele>
        <time>2012-02-05T07:45:57Z</time>
      </trkpt>
      <trkpt lat="50.48318" lon="2.96241">
        <ele>25</ele>
        <time>2012-02-05T07:46:00Z</time>
      </trkpt>
      <trkpt lat="50.48323" lon="2.96256">
        <ele>25</ele>
        <time>2012-02-05T07:46:04Z</time>
      </trkpt>
      <trkpt lat="50.48334" lon="2.96264">
        <ele>25</ele>
        <time>2012-02-05T07:46:07Z</time>
      </trkpt>
      <trkpt lat="50.48342" lon="2.96267">
        <ele>25</ele>
        <time>2012-02-05T07:46:09Z</time>
      </trkpt>
      <trkpt lat="50.48351" lon="2.96273">
        <ele>25</ele>
        <time>2012-02-05T07:46:11Z</time>
      </trkpt>
      <trkpt lat="50.4836" lon="2.96281">
        <ele>25</ele>
        <time>2012-02-05T07:46:13Z</time>
      </trkpt>
      <trkpt lat="50.4837" lon="2.96289">
        <ele>25</ele>
        <time>2012-02-05T07:46:15Z</time>
      </trkpt>
      <trkpt lat="50.48378" lon="2.96299">
        <ele>25</ele>
        <time>2012-02-05T07:46:17Z</time>
      </trkpt>
      <trkpt lat="50.48387" lon="2.96308">
        <ele>25</ele>
        <time>2012-02-05T07:46:19Z</time>
      </trkpt>
      <trkpt lat="50.48395" lon="2.96318">
        <ele>25</ele>
        <time>2012-02-05T07:46:21Z</time>
      </trkpt>
      <trkpt lat="50.48403" lon="2.96327">
        <ele>25</ele>
        <time>2012-02-05T07:46:23Z</time>
      </trkpt>
      <trkpt lat="50.48412" lon="2.96338">
        <ele>25</ele>
        <time>2012-02-05T07:46:25Z</time>
      </trkpt>
      <trkpt lat="50.48421" lon="2.96348">
        <ele>25</ele>
        <time>2012-02-05T07:46:27Z</time>
      </trkpt>
      <trkpt lat="50.48429" lon="2.96359">
        <ele>25</ele>
        <time>2012-02-05T07:46:29Z</time>
      </trkpt>
      <trkpt lat="50.48438" lon="2.9637">
        <ele>25</ele>
        <time>2012-02-05T07:46:31Z</time>
      </trkpt>
      <trkpt lat="50.48446" lon="2.9638">
        <ele>25</ele>
        <time>2012-02-05T07:46:33Z</time>
      </trkpt>
      <trkpt lat="50.48454" lon="2.9639">
        <ele>25</ele>
        <time>2012-02-05T07:46:35Z</time>
      </trkpt>
      <trkpt lat="50.48462" lon="2.96399">
        <ele>25</ele>
        <time>2012-02-05T07:46:37Z</time>
      </trkpt>
      <trkpt lat="50.48471" lon="2.96406">
        <ele>25</ele>
        <time>2012-02-05T07:46:39Z</time>
      </trkpt>
      <trkpt lat="50.4848" lon="2.96414">
        <ele>25</ele>
        <time>2012-02-05T07:46:41Z</time>
      </trkpt>
      <trkpt lat="50.48489" lon="2.96423">
        <ele>25</ele>
        <time>2012-02-05T07:46:43Z</time>
      </trkpt>
      <trkpt lat="50.48498" lon="2.96431">
        <ele>25</ele>
        <time>2012-02-05T07:46:45Z</time>
      </trkpt>
      <trkpt lat="50.48508" lon="2.96439">
        <ele>25</ele>
        <time>2012-02-05T07:46:47Z</time>
      </trkpt>
      <trkpt lat="50.48518" lon="2.96447">
        <ele>25</ele>
        <time>2012-02-05T07:46:49Z</time>
      </trkpt>
      <trkpt lat="50.48528" lon="2.96454">
        <ele>25</ele>
        <time>2012-02-05T07:46:51Z</time>
      </trkpt>
      <trkpt lat="50.48539" lon="2.96461">
        <ele>25</ele>
        <time>2012-02-05T07:46:53Z</time>
      </trkpt>
      <trkpt lat="50.4855" lon="2.96467">
        <ele>25</ele>
        <time>2012-02-05T07:46:55Z</time>
      </trkpt>
      <trkpt lat="50.48561" lon="2.96472">
        <ele>25</ele>
        <time>2012-02-05T07:46:57Z</time>
      </trkpt>
      <trkpt lat="50.48573" lon="2.96477">
        <ele>25</ele>
        <time>2012-02-05T07:46:59Z</time>
      </trkpt>
      <trkpt lat="50.48584" lon="2.96481">
        <ele>25</ele>
        <time>2012-02-05T07:47:01Z</time>
      </trkpt>
      <trkpt lat="50.48596" lon="2.96484">
        <ele>25</ele>
        <time>2012-02-05T07:47:03Z</time>
      </trkpt>
      <trkpt lat="50.48609" lon="2.96487">
        <ele>25</ele>
        <time>2012-02-05T07:47:05Z</time>
      </trkpt>
      <trkpt lat="50.48621" lon="2.9649">
        <ele>25</ele>
        <time>2012-02-05T07:47:07Z</time>
      </trkpt>
      <trkpt lat="50.48633" lon="2.96492">
        <ele>25</ele>
        <time>2012-02-05T07:47:09Z</time>
      </trkpt>
      <trkpt lat="50.48645" lon="2.96493">
        <ele>25</ele>
        <time>2012-02-05T07:47:11Z</time>
      </trkpt>
      <trkpt lat="50.48657" lon="2.96493">
        <ele>25</ele>
        <time>2012-02-05T07:47:13Z</time>
      </trkpt>
      <trkpt lat="50.4867" lon="2.96493">
        <ele>25</ele>
        <time>2012-02-05T07:47:15Z</time>
      </trkpt>
      <trkpt lat="50.48683" lon="2.96492">
        <ele>25</ele>
        <time>2012-02-05T07:47:17Z</time>
      </trkpt>
      <trkpt lat="50.48696" lon="2.96491">
        <ele>25</ele>
        <time>2012-02-05T07:47:19Z</time>
      </trkpt>
      <trkpt lat="50.48708" lon="2.96489">
        <ele>25</ele>
        <time>2012-02-05T07:47:21Z</time>
      </trkpt>
      <trkpt lat="50.4872" lon="2.96486">
        <ele>25</ele>
        <time>2012-02-05T07:47:23Z</time>
      </trkpt>
      <trkpt lat="50.48732" lon="2.96483">
        <ele>25</ele>
        <time>2012-02-05T07:47:25Z</time>
      </trkpt>
      <trkpt lat="50.48742" lon="2.9648">
        <ele>25</ele>
        <time>2012-02-05T07:47:27Z</time>
      </trkpt>
      <trkpt lat="50.48752" lon="2.96479">
        <ele>25</ele>
        <time>2012-02-05T07:47:29Z</time>
      </trkpt>
      <trkpt lat="50.48758" lon="2.96492">
        <ele>25</ele>
        <time>2012-02-05T07:47:32Z</time>
      </trkpt>
      <trkpt lat="50.48758" lon="2.9651">
        <ele>25</ele>
        <time>2012-02-05T07:47:35Z</time>
      </trkpt>
      <trkpt lat="50.48759" lon="2.96525">
        <ele>25</ele>
        <time>2012-02-05T07:47:37Z</time>
      </trkpt>
      <trkpt lat="50.4876" lon="2.9654">
        <ele>25</ele>
        <time>2012-02-05T07:47:39Z</time>
      </trkpt>
      <trkpt lat="50.48761" lon="2.96557">
        <ele>25</ele>
        <time>2012-02-05T07:47:41Z</time>
      </trkpt>
      <trkpt lat="50.48761" lon="2.96573">
        <ele>25</ele>
        <time>2012-02-05T07:47:43Z</time>
      </trkpt>
      <trkpt lat="50.48762" lon="2.9659">
        <ele>25</ele>
        <time>2012-02-05T07:47:45Z</time>
      </trkpt>
      <trkpt lat="50.48762" lon="2.96606">
        <ele>25</ele>
        <time>2012-02-05T07:47:47Z</time>
      </trkpt>
      <trkpt lat="50.48763" lon="2.96621">
        <ele>25</ele>
        <time>2012-02-05T07:47:49Z</time>
      </trkpt>
      <trkpt lat="50.48764" lon="2.96635">
        <ele>25</ele>
        <time>2012-02-05T07:47:51Z</time>
      </trkpt>
      <trkpt lat="50.48765" lon="2.96651">
        <ele>25</ele>
        <time>2012-02-05T07:47:53Z</time>
      </trkpt>
      <trkpt lat="50.48766" lon="2.96667">
        <ele>25</ele>
        <time>2012-02-05T07:47:55Z</time>
      </trkpt>
      <trkpt lat="50.48767" lon="2.96683">
        <ele>25</ele>
        <time>2012-02-05T07:47:57Z</time>
      </trkpt>
      <trkpt lat="50.48767" lon="2.96699">
        <ele>25</ele>
        <time>2012-02-05T07:47:59Z</time>
      </trkpt>
      <trkpt lat="50.48768" lon="2.96714">
        <ele>25</ele>
        <time>2012-02-05T07:48:01Z</time>
      </trkpt>
      <trkpt lat="50.48769" lon="2.96731">
        <ele>25</ele>
        <time>2012-02-05T07:48:03Z</time>
      </trkpt>
      <trkpt lat="50.4877" lon="2.96748">
        <ele>25</ele>
        <time>2012-02-05T07:48:05Z</time>
      </trkpt>
      <trkpt lat="50.48771" lon="2.96764">
        <ele>25</ele>
        <time>2012-02-05T07:48:07Z</time>
      </trkpt>
      <trkpt lat="50.48772" lon="2.96781">
        <ele>25</ele>
        <time>2012-02-05T07:48:09Z</time>
      </trkpt>
      <trkpt lat="50.48773" lon="2.96798">
        <ele>25</ele>
        <time>2012-02-05T07:48:11Z</time>
      </trkpt>
      <trkpt lat="50.48774" lon="2.96815">
        <ele>25</ele>
        <time>2012-02-05T07:48:13Z</time>
      </trkpt>
      <trkpt lat="50.48775" lon="2.96831">
        <ele>25</ele>
        <time>2012-02-05T07:48:15Z</time>
      </trkpt>
      <trkpt lat="50.48775" lon="2.96847">
        <ele>25</ele>
        <time>2012-02-05T07:48:17Z</time>
      </trkpt>
      <trkpt lat="50.48776" lon="2.96863">
        <ele>25</ele>
        <time>2012-02-05T07:48:19Z</time>
      </trkpt>
      <trkpt lat="50.48777" lon="2.96877">
        <ele>25</ele>
        <time>2012-02-05T07:48:21Z</time>
      </trkpt>
      <trkpt lat="50.48778" lon="2.96891">
        <ele>25</ele>
        <time>2012-02-05T07:48:23Z</time>
      </trkpt>
      <trkpt lat="50.48779" lon="2.96907">
        <ele>25</ele>
        <time>2012-02-05T07:48:25Z</time>
      </trkpt>
      <trkpt lat="50.4878" lon="2.96926">
        <ele>25</ele>
        <time>2012-02-05T07:48:28Z</time>
      </trkpt>
      <trkpt lat="50.48781" lon="2.96941">
        <ele>25</ele>
        <time>2012-02-05T07:48:30Z</time>
      </trkpt>
      <trkpt lat="50.48771" lon="2.96942">
        <ele>25</ele>
        <time>2012-02-05T07:48:36Z</time>
      </trkpt>
      <trkpt lat="50.48763" lon="2.96938">
        <ele>25</ele>
        <time>2012-02-05T07:48:39Z</time>
      </trkpt>
      <trkpt lat="50.48751" lon="2.9694">
        <ele>25</ele>
        <time>2012-02-05T07:48:42Z</time>
      </trkpt>
      <trkpt lat="50.48739" lon="2.96941">
        <ele>25</ele>
        <time>2012-02-05T07:48:45Z</time>
      </trkpt>
      <trkpt lat="50.48727" lon="2.96943">
        <ele>25</ele>
        <time>2012-02-05T07:48:48Z</time>
      </trkpt>
      <trkpt lat="50.48714" lon="2.96944">
        <ele>25</ele>
        <time>2012-02-05T07:48:51Z</time>
      </trkpt>
      <trkpt lat="50.48704" lon="2.96944">
        <ele>25</ele>
        <time>2012-02-05T07:48:53Z</time>
      </trkpt>
      <trkpt lat="50.48695" lon="2.96945">
        <ele>25</ele>
        <time>2012-02-05T07:48:55Z</time>
      </trkpt>
      <trkpt lat="50.48684" lon="2.96946">
        <ele>25</ele>
        <time>2012-02-05T07:48:57Z</time>
      </trkpt>
      <trkpt lat="50.48675" lon="2.96948">
        <ele>25</ele>
        <time>2012-02-05T07:48:59Z</time>
      </trkpt>
      <trkpt lat="50.48665" lon="2.9695">
        <ele>25</ele>
        <time>2012-02-05T07:49:01Z</time>
      </trkpt>
      <trkpt lat="50.48654" lon="2.96951">
        <ele>25</ele>
        <time>2012-02-05T07:49:03Z</time>
      </trkpt>
      <trkpt lat="50.48644" lon="2.96953">
        <ele>25</ele>
        <time>2012-02-05T07:49:05Z</time>
      </trkpt>
      <trkpt lat="50.48634" lon="2.96953">
        <ele>25</ele>
        <time>2012-02-05T07:49:07Z</time>
      </trkpt>
      <trkpt lat="50.48624" lon="2.96955">
        <ele>25</ele>
        <time>2012-02-05T07:49:09Z</time>
      </trkpt>
      <trkpt lat="50.48614" lon="2.96956">
        <ele>25</ele>
        <time>2012-02-05T07:49:11Z</time>
      </trkpt>
      <trkpt lat="50.48603" lon="2.96958">
        <ele>25</ele>
        <time>2012-02-05T07:49:13Z</time>
      </trkpt>
      <trkpt lat="50.48594" lon="2.96959">
        <ele>25</ele>
        <time>2012-02-05T07:49:15Z</time>
      </trkpt>
      <trkpt lat="50.48583" lon="2.9696">
        <ele>25</ele>
        <time>2012-02-05T07:49:17Z</time>
      </trkpt>
      <trkpt lat="50.48573" lon="2.96962">
        <ele>25</ele>
        <time>2012-02-05T07:49:19Z</time>
      </trkpt>
      <trkpt lat="50.48563" lon="2.96963">
        <ele>25</ele>
        <time>2012-02-05T07:49:21Z</time>
      </trkpt>
      <trkpt lat="50.48552" lon="2.96964">
        <ele>25</ele>
        <time>2012-02-05T07:49:23Z</time>
      </trkpt>
      <trkpt lat="50.48542" lon="2.96966">
        <ele>25</ele>
        <time>2012-02-05T07:49:25Z</time>
      </trkpt>
      <trkpt lat="50.48531" lon="2.96967">
        <ele>25</ele>
        <time>2012-02-05T07:49:27Z</time>
      </trkpt>
      <trkpt lat="50.48522" lon="2.96969">
        <ele>25</ele>
        <time>2012-02-05T07:49:29Z</time>
      </trkpt>
      <trkpt lat="50.48508" lon="2.96971">
        <ele>25</ele>
        <time>2012-02-05T07:49:32Z</time>
      </trkpt>
      <trkpt lat="50.48499" lon="2.96971">
        <ele>25</ele>
        <time>2012-02-05T07:49:34Z</time>
      </trkpt>
      <trkpt lat="50.4849" lon="2.96973">
        <ele>25</ele>
        <time>2012-02-05T07:49:36Z</time>
      </trkpt>
      <trkpt lat="50.48481" lon="2.96974">
        <ele>25</ele>
        <time>2012-02-05T07:49:38Z</time>
      </trkpt>
      <trkpt lat="50.48471" lon="2.96978">
        <ele>25</ele>
        <time>2012-02-05T07:49:41Z</time>
      </trkpt>
      <trkpt lat="50.48468" lon="2.96995">
        <ele>25</ele>
        <time>2012-02-05T07:49:45Z</time>
      </trkpt>
      <trkpt lat="50.48459" lon="2.97005">
        <ele>25</ele>
        <time>2012-02-05T07:49:48Z</time>
      </trkpt>
      <trkpt lat="50.48449" lon="2.97005">
        <ele>25</ele>
        <time>2012-02-05T07:49:50Z</time>
      </trkpt>
      <trkpt lat="50.48438" lon="2.97004">
        <ele>25</ele>
        <time>2012-02-05T07:49:52Z</time>
      </trkpt>
      <trkpt lat="50.48428" lon="2.97006">
        <ele>25</ele>
        <time>2012-02-05T07:49:54Z</time>
      </trkpt>
      <trkpt lat="50.48418" lon="2.97008">
        <ele>25</ele>
        <time>2012-02-05T07:49:56Z</time>
      </trkpt>
      <trkpt lat="50.48405" lon="2.97011">
        <ele>25</ele>
        <time>2012-02-05T07:49:59Z</time>
      </trkpt>
      <trkpt lat="50.48394" lon="2.9702">
        <ele>25</ele>
        <time>2012-02-05T07:50:02Z</time>
      </trkpt>
      <trkpt lat="50.48391" lon="2.97041">
        <ele>25</ele>
        <time>2012-02-05T07:50:05Z</time>
      </trkpt>
      <trkpt lat="50.48394" lon="2.97058">
        <ele>25</ele>
        <time>2012-02-05T07:50:07Z</time>
      </trkpt>
      <trkpt lat="50.48395" lon="2.97077">
        <ele>25</ele>
        <time>2012-02-05T07:50:09Z</time>
      </trkpt>
      <trkpt lat="50.48394" lon="2.97094">
        <ele>20</ele>
        <time>2012-02-05T07:50:11Z</time>
      </trkpt>
      <trkpt lat="50.48393" lon="2.97112">
        <ele>20</ele>
        <time>2012-02-05T07:50:13Z</time>
      </trkpt>
      <trkpt lat="50.48393" lon="2.9713">
        <ele>20</ele>
        <time>2012-02-05T07:50:15Z</time>
      </trkpt>
      <trkpt lat="50.48395" lon="2.97147">
        <ele>20</ele>
        <time>2012-02-05T07:50:17Z</time>
      </trkpt>
      <trkpt lat="50.48398" lon="2.97165">
        <ele>20</ele>
        <time>2012-02-05T07:50:19Z</time>
      </trkpt>
      <trkpt lat="50.48401" lon="2.97182">
        <ele>20</ele>
        <time>2012-02-05T07:50:21Z</time>
      </trkpt>
      <trkpt lat="50.48402" lon="2.972">
        <ele>20</ele>
        <time>2012-02-05T07:50:23Z</time>
      </trkpt>
      <trkpt lat="50.48403" lon="2.97218">
        <ele>20</ele>
        <time>2012-02-05T07:50:25Z</time>
      </trkpt>
      <trkpt lat="50.48404" lon="2.97237">
        <ele>20</ele>
        <time>2012-02-05T07:50:27Z</time>
      </trkpt>
      <trkpt lat="50.48405" lon="2.97254">
        <ele>20</ele>
        <time>2012-02-05T07:50:29Z</time>
      </trkpt>
      <trkpt lat="50.48408" lon="2.97271">
        <ele>20</ele>
        <time>2012-02-05T07:50:31Z</time>
      </trkpt>
      <trkpt lat="50.48412" lon="2.97287">
        <ele>20</ele>
        <time>2012-02-05T07:50:33Z</time>
      </trkpt>
      <trkpt lat="50.48417" lon="2.97304">
        <ele>20</ele>
        <time>2012-02-05T07:50:35Z</time>
      </trkpt>
      <trkpt lat="50.48419" lon="2.97321">
        <ele>20</ele>
        <time>2012-02-05T07:50:37Z</time>
      </trkpt>
      <trkpt lat="50.48421" lon="2.97338">
        <ele>20</ele>
        <time>2012-02-05T07:50:39Z</time>
      </trkpt>
      <trkpt lat="50.48422" lon="2.97355">
        <ele>20</ele>
        <time>2012-02-05T07:50:41Z</time>
      </trkpt>
      <trkpt lat="50.48423" lon="2.97373">
        <ele>20</ele>
        <time>2012-02-05T07:50:43Z</time>
      </trkpt>
      <trkpt lat="50.48425" lon="2.97389">
        <ele>20</ele>
        <time>2012-02-05T07:50:45Z</time>
      </trkpt>
      <trkpt lat="50.48432" lon="2.97399">
        <ele>20</ele>
        <time>2012-02-05T07:50:47Z</time>
      </trkpt>
      <trkpt lat="50.48444" lon="2.97395">
        <ele>20</ele>
        <time>2012-02-05T07:50:50Z</time>
      </trkpt>
      <trkpt lat="50.48453" lon="2.97388">
        <ele>20</ele>
        <time>2012-02-05T07:50:52Z</time>
      </trkpt>
      <trkpt lat="50.48463" lon="2.97388">
        <ele>20</ele>
        <time>2012-02-05T07:50:54Z</time>
      </trkpt>
      <trkpt lat="50.48475" lon="2.97388">
        <ele>20</ele>
        <time>2012-02-05T07:50:56Z</time>
      </trkpt>
      <trkpt lat="50.48488" lon="2.97386">
        <ele>20</ele>
        <time>2012-02-05T07:50:58Z</time>
      </trkpt>
      <trkpt lat="50.485" lon="2.97386">
        <ele>20</ele>
        <time>2012-02-05T07:51:00Z</time>
      </trkpt>
      <trkpt lat="50.48511" lon="2.97387">
        <ele>20</ele>
        <time>2012-02-05T07:51:02Z</time>
      </trkpt>
      <trkpt lat="50.48521" lon="2.97386">
        <ele>20</ele>
        <time>2012-02-05T07:51:05Z</time>
      </trkpt>
      <trkpt lat="50.4853" lon="2.97379">
        <ele>20</ele>
        <time>2012-02-05T07:51:12Z</time>
      </trkpt>
      <trkpt lat="50.48539" lon="2.97379">
        <ele>20</ele>
        <time>2012-02-05T07:51:15Z</time>
      </trkpt>
      <trkpt lat="50.48548" lon="2.97378">
        <ele>20</ele>
        <time>2012-02-05T07:51:17Z</time>
      </trkpt>
      <trkpt lat="50.48559" lon="2.97377">
        <ele>20</ele>
        <time>2012-02-05T07:51:19Z</time>
      </trkpt>
      <trkpt lat="50.4857" lon="2.97377">
        <ele>20</ele>
        <time>2012-02-05T07:51:21Z</time>
      </trkpt>
      <trkpt lat="50.48581" lon="2.97376">
        <ele>20</ele>
        <time>2012-02-05T07:51:23Z</time>
      </trkpt>
      <trkpt lat="50.48593" lon="2.97374">
        <ele>20</ele>
        <time>2012-02-05T07:51:25Z</time>
      </trkpt>
      <trkpt lat="50.48605" lon="2.97372">
        <ele>20</ele>
        <time>2012-02-05T07:51:27Z</time>
      </trkpt>
      <trkpt lat="50.48616" lon="2.9737">
        <ele>20</ele>
        <time>2012-02-05T07:51:29Z</time>
      </trkpt>
      <trkpt lat="50.48628" lon="2.97369">
        <ele>20</ele>
        <time>2012-02-05T07:51:31Z</time>
      </trkpt>
      <trkpt lat="50.48641" lon="2.97368">
        <ele>20</ele>
        <time>2012-02-05T07:51:33Z</time>
      </trkpt>
      <trkpt lat="50.48653" lon="2.97366">
        <ele>20</ele>
        <time>2012-02-05T07:51:35Z</time>
      </trkpt>
      <trkpt lat="50.48665" lon="2.97364">
        <ele>20</ele>
        <time>2012-02-05T07:51:37Z</time>
      </trkpt>
      <trkpt lat="50.48678" lon="2.97362">
        <ele>20</ele>
        <time>2012-02-05T07:51:39Z</time>
      </trkpt>
      <trkpt lat="50.48691" lon="2.97359">
        <ele>20</ele>
        <time>2012-02-05T07:51:41Z</time>
      </trkpt>
      <trkpt lat="50.48704" lon="2.97358">
        <ele>20</ele>
        <time>2012-02-05T07:51:43Z</time>
      </trkpt>
      <trkpt lat="50.48716" lon="2.97356">
        <ele>20</ele>
        <time>2012-02-05T07:51:45Z</time>
      </trkpt>
      <trkpt lat="50.48728" lon="2.97354">
        <ele>20</ele>
        <time>2012-02-05T07:51:47Z</time>
      </trkpt>
      <trkpt lat="50.4874" lon="2.97352">
        <ele>20</ele>
        <time>2012-02-05T07:51:49Z</time>
      </trkpt>
      <trkpt lat="50.48753" lon="2.9735">
        <ele>20</ele>
        <time>2012-02-05T07:51:51Z</time>
      </trkpt>
      <trkpt lat="50.48765" lon="2.9735">
        <ele>20</ele>
        <time>2012-02-05T07:51:53Z</time>
      </trkpt>
      <trkpt lat="50.48776" lon="2.97348">
        <ele>20</ele>
        <time>2012-02-05T07:51:55Z</time>
      </trkpt>
      <trkpt lat="50.48787" lon="2.97346">
        <ele>20</ele>
        <time>2012-02-05T07:51:57Z</time>
      </trkpt>
      <trkpt lat="50.48797" lon="2.97343">
        <ele>20</ele>
        <time>2012-02-05T07:51:59Z</time>
      </trkpt>
      <trkpt lat="50.48808" lon="2.97342">
        <ele>20</ele>
        <time>2012-02-05T07:52:01Z</time>
      </trkpt>
      <trkpt lat="50.48817" lon="2.97341">
        <ele>20</ele>
        <time>2012-02-05T07:52:03Z</time>
      </trkpt>
      <trkpt lat="50.48826" lon="2.9734">
        <ele>20</ele>
        <time>2012-02-05T07:52:05Z</time>
      </trkpt>
      <trkpt lat="50.48836" lon="2.97339">
        <ele>20</ele>
        <time>2012-02-05T07:52:07Z</time>
      </trkpt>
      <trkpt lat="50.48845" lon="2.97338">
        <ele>20</ele>
        <time>2012-02-05T07:52:09Z</time>
      </trkpt>
      <trkpt lat="50.48857" lon="2.97337">
        <ele>20</ele>
        <time>2012-02-05T07:52:12Z</time>
      </trkpt>
      <trkpt lat="50.48871" lon="2.97336">
        <ele>26</ele>
        <time>2012-02-05T07:52:15Z</time>
      </trkpt>
      <trkpt lat="50.48884" lon="2.97334">
        <ele>26</ele>
        <time>2012-02-05T07:52:18Z</time>
      </trkpt>
      <trkpt lat="50.48895" lon="2.97333">
        <ele>26</ele>
        <time>2012-02-05T07:52:21Z</time>
      </trkpt>
      <trkpt lat="50.48901" lon="2.97347">
        <ele>26</ele>
        <time>2012-02-05T07:52:25Z</time>
      </trkpt>
      <trkpt lat="50.48903" lon="2.97364">
        <ele>26</ele>
        <time>2012-02-05T07:52:28Z</time>
      </trkpt>
      <trkpt lat="50.48904" lon="2.97383">
        <ele>26</ele>
        <time>2012-02-05T07:52:31Z</time>
      </trkpt>
      <trkpt lat="50.48905" lon="2.97403">
        <ele>26</ele>
        <time>2012-02-05T07:52:34Z</time>
      </trkpt>
      <trkpt lat="50.48906" lon="2.97422">
        <ele>26</ele>
        <time>2012-02-05T07:52:37Z</time>
      </trkpt>
      <trkpt lat="50.48906" lon="2.97442">
        <ele>26</ele>
        <time>2012-02-05T07:52:40Z</time>
      </trkpt>
      <trkpt lat="50.48904" lon="2.97462">
        <ele>26</ele>
        <time>2012-02-05T07:52:43Z</time>
      </trkpt>
      <trkpt lat="50.48897" lon="2.97476">
        <ele>26</ele>
        <time>2012-02-05T07:52:46Z</time>
      </trkpt>
      <trkpt lat="50.48894" lon="2.97492">
        <ele>26</ele>
        <time>2012-02-05T07:52:49Z</time>
      </trkpt>
      <trkpt lat="50.48895" lon="2.97512">
        <ele>26</ele>
        <time>2012-02-05T07:52:52Z</time>
      </trkpt>
      <trkpt lat="50.48896" lon="2.97533">
        <ele>26</ele>
        <time>2012-02-05T07:52:55Z</time>
      </trkpt>
      <trkpt lat="50.48897" lon="2.97548">
        <ele>26</ele>
        <time>2012-02-05T07:52:57Z</time>
      </trkpt>
      <trkpt lat="50.48899" lon="2.97569">
        <ele>26</ele>
        <time>2012-02-05T07:53:00Z</time>
      </trkpt>
      <trkpt lat="50.489" lon="2.97583">
        <ele>26</ele>
        <time>2012-02-05T07:53:02Z</time>
      </trkpt>
      <trkpt lat="50.48899" lon="2.97598">
        <ele>26</ele>
        <time>2012-02-05T07:53:06Z</time>
      </trkpt>
      <trkpt lat="50.48891" lon="2.97589">
        <ele>26</ele>
        <time>2012-02-05T07:53:15Z</time>
      </trkpt>
      <trkpt lat="50.48881" lon="2.97584">
        <ele>26</ele>
        <time>2012-02-05T07:53:20Z</time>
      </trkpt>
      <trkpt lat="50.48876" lon="2.97595">
        <ele>26</ele>
        <time>2012-02-05T07:53:34Z</time>
      </trkpt>
      <trkpt lat="50.48868" lon="2.97604">
        <ele>26</ele>
        <time>2012-02-05T07:53:47Z</time>
      </trkpt>
      <trkpt lat="50.48859" lon="2.9761">
        <ele>26</ele>
        <time>2012-02-05T07:53:52Z</time>
      </trkpt>
      <trkpt lat="50.48853" lon="2.97621">
        <ele>31</ele>
        <time>2012-02-05T07:53:56Z</time>
      </trkpt>
      <trkpt lat="50.48852" lon="2.97635">
        <ele>31</ele>
        <time>2012-02-05T07:54:00Z</time>
      </trkpt>
      <trkpt lat="50.48843" lon="2.9764">
        <ele>31</ele>
        <time>2012-02-05T07:54:04Z</time>
      </trkpt>
      <trkpt lat="50.48831" lon="2.97637">
        <ele>31</ele>
        <time>2012-02-05T07:54:08Z</time>
      </trkpt>
      <trkpt lat="50.48822" lon="2.97633">
        <ele>31</ele>
        <time>2012-02-05T07:54:11Z</time>
      </trkpt>
      <trkpt lat="50.48812" lon="2.97633">
        <ele>31</ele>
        <time>2012-02-05T07:54:14Z</time>
      </trkpt>
      <trkpt lat="50.48802" lon="2.97635">
        <ele>31</ele>
        <time>2012-02-05T07:54:17Z</time>
      </trkpt>
      <trkpt lat="50.48791" lon="2.97631">
        <ele>31</ele>
        <time>2012-02-05T07:54:21Z</time>
      </trkpt>
      <trkpt lat="50.48783" lon="2.97623">
        <ele>31</ele>
        <time>2012-02-05T07:54:25Z</time>
      </trkpt>
      <trkpt lat="50.48772" lon="2.97619">
        <ele>31</ele>
        <time>2012-02-05T07:54:29Z</time>
      </trkpt>
      <trkpt lat="50.48763" lon="2.97622">
        <ele>31</ele>
        <time>2012-02-05T07:54:32Z</time>
      </trkpt>
      <trkpt lat="50.48751" lon="2.97628">
        <ele>31</ele>
        <time>2012-02-05T07:54:35Z</time>
      </trkpt>
      <trkpt lat="50.48738" lon="2.97635">
        <ele>31</ele>
        <time>2012-02-05T07:54:38Z</time>
      </trkpt>
      <trkpt lat="50.48729" lon="2.97641">
        <ele>31</ele>
        <time>2012-02-05T07:54:40Z</time>
      </trkpt>
      <trkpt lat="50.48718" lon="2.97648">
        <ele>31</ele>
        <time>2012-02-05T07:54:43Z</time>
      </trkpt>
      <trkpt lat="50.48708" lon="2.97655">
        <ele>31</ele>
        <time>2012-02-05T07:54:46Z</time>
      </trkpt>
      <trkpt lat="50.48699" lon="2.97666">
        <ele>31</ele>
        <time>2012-02-05T07:54:49Z</time>
      </trkpt>
      <trkpt lat="50.48692" lon="2.97677">
        <ele>31</ele>
        <time>2012-02-05T07:54:52Z</time>
      </trkpt>
      <trkpt lat="50.48687" lon="2.97692">
        <ele>31</ele>
        <time>2012-02-05T07:54:57Z</time>
      </trkpt>
      <trkpt lat="50.48683" lon="2.97708">
        <ele>31</ele>
        <time>2012-02-05T07:55:03Z</time>
      </trkpt>
      <trkpt lat="50.48684" lon="2.97723">
        <ele>31</ele>
        <time>2012-02-05T07:55:10Z</time>
      </trkpt>
      <trkpt lat="50.48683" lon="2.97739">
        <ele>31</ele>
        <time>2012-02-05T07:55:16Z</time>
      </trkpt>
      <trkpt lat="50.48681" lon="2.97753">
        <ele>31</ele>
        <time>2012-02-05T07:55:21Z</time>
      </trkpt>
      <trkpt lat="50.48678" lon="2.97766">
        <ele>31</ele>
        <time>2012-02-05T07:55:26Z</time>
      </trkpt>
      <trkpt lat="50.48676" lon="2.97781">
        <ele>37</ele>
        <time>2012-02-05T07:55:31Z</time>
      </trkpt>
      <trkpt lat="50.48675" lon="2.97797">
        <ele>37</ele>
        <time>2012-02-05T07:55:37Z</time>
      </trkpt>
      <trkpt lat="50.48672" lon="2.97813">
        <ele>37</ele>
        <time>2012-02-05T07:55:42Z</time>
      </trkpt>
      <trkpt lat="50.48671" lon="2.97829">
        <ele>37</ele>
        <time>2012-02-05T07:55:48Z</time>
      </trkpt>
      <trkpt lat="50.48671" lon="2.97844">
        <ele>43</ele>
        <time>2012-02-05T07:55:54Z</time>
      </trkpt>
      <trkpt lat="50.48673" lon="2.97859">
        <ele>43</ele>
        <time>2012-02-05T07:56:00Z</time>
      </trkpt>
      <trkpt lat="50.48677" lon="2.97874">
        <ele>43</ele>
        <time>2012-02-05T07:56:07Z</time>
      </trkpt>
      <trkpt lat="50.48679" lon="2.9789">
        <ele>50</ele>
        <time>2012-02-05T07:56:15Z</time>
      </trkpt>
      <trkpt lat="50.48681" lon="2.97904">
        <ele>50</ele>
        <time>2012-02-05T07:56:21Z</time>
      </trkpt>
      <trkpt lat="50.48684" lon="2.97918">
        <ele>56</ele>
        <time>2012-02-05T07:56:27Z</time>
      </trkpt>
      <trkpt lat="50.48689" lon="2.97937">
        <ele>56</ele>
        <time>2012-02-05T07:56:31Z</time>
      </trkpt>
      <trkpt lat="50.48697" lon="2.97947">
        <ele>56</ele>
        <time>2012-02-05T07:56:34Z</time>
      </trkpt>
      <trkpt lat="50.48707" lon="2.97952">
        <ele>56</ele>
        <time>2012-02-05T07:56:37Z</time>
      </trkpt>
      <trkpt lat="50.48713" lon="2.97964">
        <ele>56</ele>
        <time>2012-02-05T07:56:40Z</time>
      </trkpt>
      <trkpt lat="50.48716" lon="2.97978">
        <ele>51</ele>
        <time>2012-02-05T07:56:44Z</time>
      </trkpt>
      <trkpt lat="50.4871" lon="2.97994">
        <ele>45</ele>
        <time>2012-02-05T07:56:50Z</time>
      </trkpt>
      <trkpt lat="50.48701" lon="2.98004">
        <ele>45</ele>
        <time>2012-02-05T07:56:53Z</time>
      </trkpt>
      <trkpt lat="50.48691" lon="2.98009">
        <ele>38</ele>
        <time>2012-02-05T07:56:56Z</time>
      </trkpt>
      <trkpt lat="50.48682" lon="2.98009">
        <ele>38</ele>
        <time>2012-02-05T07:56:58Z</time>
      </trkpt>
      <trkpt lat="50.48672" lon="2.98002">
        <ele>38</ele>
        <time>2012-02-05T07:57:00Z</time>
      </trkpt>
      <trkpt lat="50.48662" lon="2.97997">
        <ele>31</ele>
        <time>2012-02-05T07:57:02Z</time>
      </trkpt>
      <trkpt lat="50.48651" lon="2.98004">
        <ele>31</ele>
        <time>2012-02-05T07:57:05Z</time>
      </trkpt>
      <trkpt lat="50.48645" lon="2.98015">
        <ele>31</ele>
        <time>2012-02-05T07:57:08Z</time>
      </trkpt>
      <trkpt lat="50.48639" lon="2.98027">
        <ele>31</ele>
        <time>2012-02-05T07:57:11Z</time>
      </trkpt>
      <trkpt lat="50.4864" lon="2.98044">
        <ele>31</ele>
        <time>2012-02-05T07:57:14Z</time>
      </trkpt>
      <trkpt lat="50.48642" lon="2.98065">
        <ele>31</ele>
        <time>2012-02-05T07:57:17Z</time>
      </trkpt>
      <trkpt lat="50.48645" lon="2.98083">
        <ele>26</ele>
        <time>2012-02-05T07:57:20Z</time>
      </trkpt>
      <trkpt lat="50.48649" lon="2.98095">
        <ele>26</ele>
        <time>2012-02-05T07:57:23Z</time>
      </trkpt>
      <trkpt lat="50.48645" lon="2.98109">
        <ele>26</ele>
        <time>2012-02-05T07:57:30Z</time>
      </trkpt>
      <trkpt lat="50.48636" lon="2.981">
        <ele>26</ele>
        <time>2012-02-05T07:57:35Z</time>
      </trkpt>
      <trkpt lat="50.48626" lon="2.98099">
        <ele>26</ele>
        <time>2012-02-05T07:57:39Z</time>
      </trkpt>
      <trkpt lat="50.48614" lon="2.98103">
        <ele>26</ele>
        <time>2012-02-05T07:57:42Z</time>
      </trkpt>
      <trkpt lat="50.48616" lon="2.98119">
        <ele>26</ele>
        <time>2012-02-05T07:57:46Z</time>
      </trkpt>
      <trkpt lat="50.48625" lon="2.98127">
        <ele>26</ele>
        <time>2012-02-05T07:57:50Z</time>
      </trkpt>
      <trkpt lat="50.48633" lon="2.98138">
        <ele>26</ele>
        <time>2012-02-05T07:57:54Z</time>
      </trkpt>
      <trkpt lat="50.48632" lon="2.98156">
        <ele>26</ele>
        <time>2012-02-05T07:57:58Z</time>
      </trkpt>
      <trkpt lat="50.48626" lon="2.98171">
        <ele>26</ele>
        <time>2012-02-05T07:58:01Z</time>
      </trkpt>
      <trkpt lat="50.48622" lon="2.98188">
        <ele>26</ele>
        <time>2012-02-05T07:58:04Z</time>
      </trkpt>
      <trkpt lat="50.48618" lon="2.98205">
        <ele>26</ele>
        <time>2012-02-05T07:58:07Z</time>
      </trkpt>
      <trkpt lat="50.48614" lon="2.9822">
        <ele>26</ele>
        <time>2012-02-05T07:58:10Z</time>
      </trkpt>
      <trkpt lat="50.48612" lon="2.98234">
        <ele>26</ele>
        <time>2012-02-05T07:58:16Z</time>
      </trkpt>
      <trkpt lat="50.48613" lon="2.98251">
        <ele>26</ele>
        <time>2012-02-05T07:58:20Z</time>
      </trkpt>
      <trkpt lat="50.48616" lon="2.98266">
        <ele>26</ele>
        <time>2012-02-05T07:58:23Z</time>
      </trkpt>
      <trkpt lat="50.48621" lon="2.98282">
        <ele>26</ele>
        <time>2012-02-05T07:58:26Z</time>
      </trkpt>
      <trkpt lat="50.48628" lon="2.98299">
        <ele>26</ele>
        <time>2012-02-05T07:58:29Z</time>
      </trkpt>
      <trkpt lat="50.48634" lon="2.98316">
        <ele>26</ele>
        <time>2012-02-05T07:58:32Z</time>
      </trkpt>
      <trkpt lat="50.48637" lon="2.9833">
        <ele>26</ele>
        <time>2012-02-05T07:58:34Z</time>
      </trkpt>
      <trkpt lat="50.4864" lon="2.98351">
        <ele>20</ele>
        <time>2012-02-05T07:58:37Z</time>
      </trkpt>
      <trkpt lat="50.48641" lon="2.98366">
        <ele>20</ele>
        <time>2012-02-05T07:58:39Z</time>
      </trkpt>
      <trkpt lat="50.48646" lon="2.98382">
        <ele>20</ele>
        <time>2012-02-05T07:58:42Z</time>
      </trkpt>
      <trkpt lat="50.48655" lon="2.98391">
        <ele>20</ele>
        <time>2012-02-05T07:58:44Z</time>
      </trkpt>
      <trkpt lat="50.48664" lon="2.98401">
        <ele>20</ele>
        <time>2012-02-05T07:58:46Z</time>
      </trkpt>
      <trkpt lat="50.48672" lon="2.98411">
        <ele>20</ele>
        <time>2012-02-05T07:58:48Z</time>
      </trkpt>
      <trkpt lat="50.4868" lon="2.98422">
        <ele>20</ele>
        <time>2012-02-05T07:58:50Z</time>
      </trkpt>
      <trkpt lat="50.48688" lon="2.98432">
        <ele>20</ele>
        <time>2012-02-05T07:58:52Z</time>
      </trkpt>
      <trkpt lat="50.48699" lon="2.98438">
        <ele>20</ele>
        <time>2012-02-05T07:58:55Z</time>
      </trkpt>
      <trkpt lat="50.48704" lon="2.98425">
        <ele>20</ele>
        <time>2012-02-05T07:58:59Z</time>
      </trkpt>
      <trkpt lat="50.48707" lon="2.98411">
        <ele>20</ele>
        <time>2012-02-05T07:59:02Z</time>
      </trkpt>
      <trkpt lat="50.48712" lon="2.98398">
        <ele>20</ele>
        <time>2012-02-05T07:59:05Z</time>
      </trkpt>
      <trkpt lat="50.48722" lon="2.98393">
        <ele>26</ele>
        <time>2012-02-05T07:59:09Z</time>
      </trkpt>
      <trkpt lat="50.48732" lon="2.98399">
        <ele>26</ele>
        <time>2012-02-05T07:59:13Z</time>
      </trkpt>
      <trkpt lat="50.48742" lon="2.98402">
        <ele>26</ele>
        <time>2012-02-05T07:59:17Z</time>
      </trkpt>
      <trkpt lat="50.48752" lon="2.98404">
        <ele>26</ele>
        <time>2012-02-05T07:59:21Z</time>
      </trkpt>
      <trkpt lat="50.48764" lon="2.9841">
        <ele>26</ele>
        <time>2012-02-05T07:59:25Z</time>
      </trkpt>
      <trkpt lat="50.48772" lon="2.9842">
        <ele>26</ele>
        <time>2012-02-05T07:59:28Z</time>
      </trkpt>
      <trkpt lat="50.48783" lon="2.98422">
        <ele>26</ele>
        <time>2012-02-05T07:59:32Z</time>
      </trkpt>
      <trkpt lat="50.48793" lon="2.98419">
        <ele>26</ele>
        <time>2012-02-05T07:59:36Z</time>
      </trkpt>
      <trkpt lat="50.48805" lon="2.98418">
        <ele>26</ele>
        <time>2012-02-05T07:59:40Z</time>
      </trkpt>
      <trkpt lat="50.48814" lon="2.98417">
        <ele>26</ele>
        <time>2012-02-05T07:59:43Z</time>
      </trkpt>
      <trkpt lat="50.48825" lon="2.98415">
        <ele>32</ele>
        <time>2012-02-05T07:59:47Z</time>
      </trkpt>
      <trkpt lat="50.48831" lon="2.98404">
        <ele>32</ele>
        <time>2012-02-05T07:59:50Z</time>
      </trkpt>
      <trkpt lat="50.48838" lon="2.98393">
        <ele>32</ele>
        <time>2012-02-05T07:59:54Z</time>
      </trkpt>
      <trkpt lat="50.48848" lon="2.98391">
        <ele>32</ele>
        <time>2012-02-05T07:59:59Z</time>
      </trkpt>
      <trkpt lat="50.48853" lon="2.98377">
        <ele>32</ele>
        <time>2012-02-05T08:00:03Z</time>
      </trkpt>
      <trkpt lat="50.48864" lon="2.98371">
        <ele>32</ele>
        <time>2012-02-05T08:00:07Z</time>
      </trkpt>
      <trkpt lat="50.48874" lon="2.98366">
        <ele>32</ele>
        <time>2012-02-05T08:00:10Z</time>
      </trkpt>
      <trkpt lat="50.48885" lon="2.98368">
        <ele>32</ele>
        <time>2012-02-05T08:00:13Z</time>
      </trkpt>
      <trkpt lat="50.48897" lon="2.98368">
        <ele>39</ele>
        <time>2012-02-05T08:00:16Z</time>
      </trkpt>
      <trkpt lat="50.48909" lon="2.9837">
        <ele>39</ele>
        <time>2012-02-05T08:00:20Z</time>
      </trkpt>
      <trkpt lat="50.48919" lon="2.98366">
        <ele>39</ele>
        <time>2012-02-05T08:00:23Z</time>
      </trkpt>
      <trkpt lat="50.48929" lon="2.98362">
        <ele>39</ele>
        <time>2012-02-05T08:00:26Z</time>
      </trkpt>
      <trkpt lat="50.48939" lon="2.98355">
        <ele>39</ele>
        <time>2012-02-05T08:00:29Z</time>
      </trkpt>
      <trkpt lat="50.4895" lon="2.98347">
        <ele>39</ele>
        <time>2012-02-05T08:00:32Z</time>
      </trkpt>
      <trkpt lat="50.48961" lon="2.9834">
        <ele>39</ele>
        <time>2012-02-05T08:00:35Z</time>
      </trkpt>
      <trkpt lat="50.4897" lon="2.98339">
        <ele>39</ele>
        <time>2012-02-05T08:00:37Z</time>
      </trkpt>
      <trkpt lat="50.48983" lon="2.98339">
        <ele>39</ele>
        <time>2012-02-05T08:00:40Z</time>
      </trkpt>
      <trkpt lat="50.48995" lon="2.9834">
        <ele>33</ele>
        <time>2012-02-05T08:00:43Z</time>
      </trkpt>
      <trkpt lat="50.49005" lon="2.98348">
        <ele>33</ele>
        <time>2012-02-05T08:00:46Z</time>
      </trkpt>
      <trkpt lat="50.49011" lon="2.98358">
        <ele>33</ele>
        <time>2012-02-05T08:00:48Z</time>
      </trkpt>
      <trkpt lat="50.49013" lon="2.98372">
        <ele>33</ele>
        <time>2012-02-05T08:00:50Z</time>
      </trkpt>
      <trkpt lat="50.49014" lon="2.98387">
        <ele>33</ele>
        <time>2012-02-05T08:00:52Z</time>
      </trkpt>
      <trkpt lat="50.49012" lon="2.98402">
        <ele>33</ele>
        <time>2012-02-05T08:00:54Z</time>
      </trkpt>
      <trkpt lat="50.49011" lon="2.98417">
        <ele>27</ele>
        <time>2012-02-05T08:00:56Z</time>
      </trkpt>
      <trkpt lat="50.4901" lon="2.98433">
        <ele>27</ele>
        <time>2012-02-05T08:00:58Z</time>
      </trkpt>
      <trkpt lat="50.49008" lon="2.98449">
        <ele>27</ele>
        <time>2012-02-05T08:01:00Z</time>
      </trkpt>
      <trkpt lat="50.49008" lon="2.98466">
        <ele>27</ele>
        <time>2012-02-05T08:01:02Z</time>
      </trkpt>
      <trkpt lat="50.4901" lon="2.98483">
        <ele>27</ele>
        <time>2012-02-05T08:01:04Z</time>
      </trkpt>
      <trkpt lat="50.49013" lon="2.985">
        <ele>27</ele>
        <time>2012-02-05T08:01:06Z</time>
      </trkpt>
      <trkpt lat="50.49018" lon="2.98517">
        <ele>27</ele>
        <time>2012-02-05T08:01:08Z</time>
      </trkpt>
      <trkpt lat="50.49024" lon="2.98533">
        <ele>27</ele>
        <time>2012-02-05T08:01:10Z</time>
      </trkpt>
      <trkpt lat="50.49032" lon="2.98548">
        <ele>27</ele>
        <time>2012-02-05T08:01:12Z</time>
      </trkpt>
      <trkpt lat="50.4904" lon="2.98562">
        <ele>27</ele>
        <time>2012-02-05T08:01:14Z</time>
      </trkpt>
      <trkpt lat="50.49049" lon="2.98577">
        <ele>27</ele>
        <time>2012-02-05T08:01:16Z</time>
      </trkpt>
      <trkpt lat="50.49058" lon="2.98591">
        <ele>22</ele>
        <time>2012-02-05T08:01:18Z</time>
      </trkpt>
      <trkpt lat="50.49067" lon="2.98605">
        <ele>22</ele>
        <time>2012-02-05T08:01:20Z</time>
      </trkpt>
      <trkpt lat="50.49076" lon="2.98616">
        <ele>22</ele>
        <time>2012-02-05T08:01:22Z</time>
      </trkpt>
      <trkpt lat="50.49084" lon="2.98627">
        <ele>22</ele>
        <time>2012-02-05T08:01:24Z</time>
      </trkpt>
      <trkpt lat="50.49092" lon="2.98637">
        <ele>22</ele>
        <time>2012-02-05T08:01:26Z</time>
      </trkpt>
      <trkpt lat="50.49099" lon="2.98647">
        <ele>22</ele>
        <time>2012-02-05T08:01:28Z</time>
      </trkpt>
      <trkpt lat="50.49106" lon="2.98656">
        <ele>22</ele>
        <time>2012-02-05T08:01:30Z</time>
      </trkpt>
      <trkpt lat="50.49112" lon="2.98665">
        <ele>22</ele>
        <time>2012-02-05T08:01:32Z</time>
      </trkpt>
      <trkpt lat="50.49122" lon="2.98678">
        <ele>22</ele>
        <time>2012-02-05T08:01:35Z</time>
      </trkpt>
      <trkpt lat="50.49132" lon="2.98688">
        <ele>22</ele>
        <time>2012-02-05T08:01:38Z</time>
      </trkpt>
      <trkpt lat="50.49144" lon="2.98689">
        <ele>27</ele>
        <time>2012-02-05T08:01:41Z</time>
      </trkpt>
      <trkpt lat="50.49156" lon="2.9868">
        <ele>27</ele>
        <time>2012-02-05T08:01:44Z</time>
      </trkpt>
      <trkpt lat="50.49164" lon="2.98669">
        <ele>27</ele>
        <time>2012-02-05T08:01:46Z</time>
      </trkpt>
      <trkpt lat="50.49172" lon="2.98656">
        <ele>27</ele>
        <time>2012-02-05T08:01:48Z</time>
      </trkpt>
      <trkpt lat="50.49181" lon="2.98642">
        <ele>27</ele>
        <time>2012-02-05T08:01:50Z</time>
      </trkpt>
      <trkpt lat="50.49191" lon="2.98628">
        <ele>27</ele>
        <time>2012-02-05T08:01:52Z</time>
      </trkpt>
      <trkpt lat="50.49202" lon="2.98614">
        <ele>27</ele>
        <time>2012-02-05T08:01:54Z</time>
      </trkpt>
      <trkpt lat="50.49212" lon="2.986">
        <ele>27</ele>
        <time>2012-02-05T08:01:56Z</time>
      </trkpt>
      <trkpt lat="50.49223" lon="2.98587">
        <ele>27</ele>
        <time>2012-02-05T08:01:58Z</time>
      </trkpt>
      <trkpt lat="50.49234" lon="2.98575">
        <ele>27</ele>
        <time>2012-02-05T08:02:00Z</time>
      </trkpt>
      <trkpt lat="50.49244" lon="2.98564">
        <ele>27</ele>
        <time>2012-02-05T08:02:02Z</time>
      </trkpt>
      <trkpt lat="50.49254" lon="2.98554">
        <ele>27</ele>
        <time>2012-02-05T08:02:04Z</time>
      </trkpt>
      <trkpt lat="50.49263" lon="2.98544">
        <ele>27</ele>
        <time>2012-02-05T08:02:06Z</time>
      </trkpt>
      <trkpt lat="50.49273" lon="2.98535">
        <ele>27</ele>
        <time>2012-02-05T08:02:08Z</time>
      </trkpt>
      <trkpt lat="50.49282" lon="2.98528">
        <ele>27</ele>
        <time>2012-02-05T08:02:10Z</time>
      </trkpt>
      <trkpt lat="50.49292" lon="2.98521">
        <ele>27</ele>
        <time>2012-02-05T08:02:12Z</time>
      </trkpt>
      <trkpt lat="50.49301" lon="2.98517">
        <ele>27</ele>
        <time>2012-02-05T08:02:14Z</time>
      </trkpt>
      <trkpt lat="50.49312" lon="2.98516">
        <ele>27</ele>
        <time>2012-02-05T08:02:16Z</time>
      </trkpt>
      <trkpt lat="50.4932" lon="2.98522">
        <ele>27</ele>
        <time>2012-02-05T08:02:18Z</time>
      </trkpt>
      <trkpt lat="50.49326" lon="2.98539">
        <ele>27</ele>
        <time>2012-02-05T08:02:21Z</time>
      </trkpt>
      <trkpt lat="50.49323" lon="2.98557">
        <ele>27</ele>
        <time>2012-02-05T08:02:24Z</time>
      </trkpt>
      <trkpt lat="50.49312" lon="2.98568">
        <ele>27</ele>
        <time>2012-02-05T08:02:27Z</time>
      </trkpt>
      <trkpt lat="50.49303" lon="2.98573">
        <ele>27</ele>
        <time>2012-02-05T08:02:29Z</time>
      </trkpt>
      <trkpt lat="50.49293" lon="2.9858">
        <ele>27</ele>
        <time>2012-02-05T08:02:31Z</time>
      </trkpt>
      <trkpt lat="50.49283" lon="2.98587">
        <ele>27</ele>
        <time>2012-02-05T08:02:33Z</time>
      </trkpt>
      <trkpt lat="50.49274" lon="2.98596">
        <ele>27</ele>
        <time>2012-02-05T08:02:35Z</time>
      </trkpt>
      <trkpt lat="50.49265" lon="2.98605">
        <ele>27</ele>
        <time>2012-02-05T08:02:37Z</time>
      </trkpt>
      <trkpt lat="50.49257" lon="2.98619">
        <ele>27</ele>
        <time>2012-02-05T08:02:40Z</time>
      </trkpt>
      <trkpt lat="50.49255" lon="2.98635">
        <ele>27</ele>
        <time>2012-02-05T08:02:44Z</time>
      </trkpt>
      <trkpt lat="50.4926" lon="2.98652">
        <ele>27</ele>
        <time>2012-02-05T08:02:47Z</time>
      </trkpt>
      <trkpt lat="50.49262" lon="2.98666">
        <ele>27</ele>
        <time>2012-02-05T08:02:49Z</time>
      </trkpt>
      <trkpt lat="50.49267" lon="2.98678">
        <ele>27</ele>
        <time>2012-02-05T08:02:51Z</time>
      </trkpt>
      <trkpt lat="50.49275" lon="2.9869">
        <ele>27</ele>
        <time>2012-02-05T08:02:53Z</time>
      </trkpt>
      <trkpt lat="50.49282" lon="2.98701">
        <ele>27</ele>
        <time>2012-02-05T08:02:55Z</time>
      </trkpt>
      <trkpt lat="50.49289" lon="2.98713">
        <ele>27</ele>
        <time>2012-02-05T08:02:57Z</time>
      </trkpt>
      <trkpt lat="50.49295" lon="2.98727">
        <ele>27</ele>
        <time>2012-02-05T08:02:59Z</time>
      </trkpt>
      <trkpt lat="50.49301" lon="2.9874">
        <ele>27</ele>
        <time>2012-02-05T08:03:01Z</time>
      </trkpt>
      <trkpt lat="50.49308" lon="2.98754">
        <ele>27</ele>
        <time>2012-02-05T08:03:03Z</time>
      </trkpt>
      <trkpt lat="50.49316" lon="2.98765">
        <ele>27</ele>
        <time>2012-02-05T08:03:05Z</time>
      </trkpt>
      <trkpt lat="50.49324" lon="2.98778">
        <ele>27</ele>
        <time>2012-02-05T08:03:07Z</time>
      </trkpt>
      <trkpt lat="50.49332" lon="2.9879">
        <ele>27</ele>
        <time>2012-02-05T08:03:09Z</time>
      </trkpt>
      <trkpt lat="50.49339" lon="2.98804">
        <ele>27</ele>
        <time>2012-02-05T08:03:11Z</time>
      </trkpt>
      <trkpt lat="50.49347" lon="2.98817">
        <ele>27</ele>
        <time>2012-02-05T08:03:13Z</time>
      </trkpt>
      <trkpt lat="50.49355" lon="2.98829">
        <ele>27</ele>
        <time>2012-02-05T08:03:15Z</time>
      </trkpt>
      <trkpt lat="50.49363" lon="2.98842">
        <ele>27</ele>
        <time>2012-02-05T08:03:17Z</time>
      </trkpt>
      <trkpt lat="50.4937" lon="2.98853">
        <ele>27</ele>
        <time>2012-02-05T08:03:19Z</time>
      </trkpt>
      <trkpt lat="50.49378" lon="2.98866">
        <ele>27</ele>
        <time>2012-02-05T08:03:21Z</time>
      </trkpt>
      <trkpt lat="50.49386" lon="2.98879">
        <ele>27</ele>
        <time>2012-02-05T08:03:23Z</time>
      </trkpt>
      <trkpt lat="50.49393" lon="2.98891">
        <ele>27</ele>
        <time>2012-02-05T08:03:25Z</time>
      </trkpt>
      <trkpt lat="50.494" lon="2.98904">
        <ele>27</ele>
        <time>2012-02-05T08:03:27Z</time>
      </trkpt>
      <trkpt lat="50.49408" lon="2.98917">
        <ele>27</ele>
        <time>2012-02-05T08:03:29Z</time>
      </trkpt>
      <trkpt lat="50.49415" lon="2.98931">
        <ele>27</ele>
        <time>2012-02-05T08:03:31Z</time>
      </trkpt>
      <trkpt lat="50.49422" lon="2.98943">
        <ele>27</ele>
        <time>2012-02-05T08:03:33Z</time>
      </trkpt>
      <trkpt lat="50.49429" lon="2.98956">
        <ele>27</ele>
        <time>2012-02-05T08:03:35Z</time>
      </trkpt>
      <trkpt lat="50.49435" lon="2.98968">
        <ele>27</ele>
        <time>2012-02-05T08:03:37Z</time>
      </trkpt>
      <trkpt lat="50.49441" lon="2.98981">
        <ele>27</ele>
        <time>2012-02-05T08:03:39Z</time>
      </trkpt>
      <trkpt lat="50.49448" lon="2.98994">
        <ele>27</ele>
        <time>2012-02-05T08:03:41Z</time>
      </trkpt>
      <trkpt lat="50.49454" lon="2.99004">
        <ele>27</ele>
        <time>2012-02-05T08:03:43Z</time>
      </trkpt>
      <trkpt lat="50.49464" lon="2.99012">
        <ele>27</ele>
        <time>2012-02-05T08:03:45Z</time>
      </trkpt>
      <trkpt lat="50.49473" lon="2.99019">
        <ele>27</ele>
        <time>2012-02-05T08:03:47Z</time>
      </trkpt>
      <trkpt lat="50.49484" lon="2.99025">
        <ele>27</ele>
        <time>2012-02-05T08:03:49Z</time>
      </trkpt>
      <trkpt lat="50.49495" lon="2.9903">
        <ele>27</ele>
        <time>2012-02-05T08:03:51Z</time>
      </trkpt>
      <trkpt lat="50.49506" lon="2.99037">
        <ele>27</ele>
        <time>2012-02-05T08:03:53Z</time>
      </trkpt>
      <trkpt lat="50.49518" lon="2.99043">
        <ele>27</ele>
        <time>2012-02-05T08:03:55Z</time>
      </trkpt>
      <trkpt lat="50.49529" lon="2.99049">
        <ele>27</ele>
        <time>2012-02-05T08:03:57Z</time>
      </trkpt>
      <trkpt lat="50.4954" lon="2.99055">
        <ele>27</ele>
        <time>2012-02-05T08:03:59Z</time>
      </trkpt>
      <trkpt lat="50.49552" lon="2.99061">
        <ele>27</ele>
        <time>2012-02-05T08:04:01Z</time>
      </trkpt>
      <trkpt lat="50.49563" lon="2.99067">
        <ele>27</ele>
        <time>2012-02-05T08:04:03Z</time>
      </trkpt>
      <trkpt lat="50.49574" lon="2.99073">
        <ele>27</ele>
        <time>2012-02-05T08:04:05Z</time>
      </trkpt>
      <trkpt lat="50.49585" lon="2.99078">
        <ele>27</ele>
        <time>2012-02-05T08:04:07Z</time>
      </trkpt>
      <trkpt lat="50.49595" lon="2.99083">
        <ele>27</ele>
        <time>2012-02-05T08:04:09Z</time>
      </trkpt>
      <trkpt lat="50.49606" lon="2.99089">
        <ele>27</ele>
        <time>2012-02-05T08:04:11Z</time>
      </trkpt>
      <trkpt lat="50.49618" lon="2.99094">
        <ele>27</ele>
        <time>2012-02-05T08:04:13Z</time>
      </trkpt>
      <trkpt lat="50.4963" lon="2.991">
        <ele>27</ele>
        <time>2012-02-05T08:04:15Z</time>
      </trkpt>
      <trkpt lat="50.49641" lon="2.99106">
        <ele>27</ele>
        <time>2012-02-05T08:04:17Z</time>
      </trkpt>
      <trkpt lat="50.49653" lon="2.99111">
        <ele>27</ele>
        <time>2012-02-05T08:04:19Z</time>
      </trkpt>
      <trkpt lat="50.49665" lon="2.99117">
        <ele>27</ele>
        <time>2012-02-05T08:04:21Z</time>
      </trkpt>
      <trkpt lat="50.49677" lon="2.99122">
        <ele>27</ele>
        <time>2012-02-05T08:04:23Z</time>
      </trkpt>
      <trkpt lat="50.49688" lon="2.99127">
        <ele>27</ele>
        <time>2012-02-05T08:04:25Z</time>
      </trkpt>
      <trkpt lat="50.497" lon="2.99133">
        <ele>27</ele>
        <time>2012-02-05T08:04:27Z</time>
      </trkpt>
      <trkpt lat="50.49711" lon="2.99137">
        <ele>27</ele>
        <time>2012-02-05T08:04:29Z</time>
      </trkpt>
      <trkpt lat="50.49723" lon="2.99141">
        <ele>27</ele>
        <time>2012-02-05T08:04:31Z</time>
      </trkpt>
      <trkpt lat="50.49734" lon="2.99145">
        <ele>27</ele>
        <time>2012-02-05T08:04:33Z</time>
      </trkpt>
      <trkpt lat="50.49744" lon="2.99147">
        <ele>27</ele>
        <time>2012-02-05T08:04:35Z</time>
      </trkpt>
      <trkpt lat="50.49755" lon="2.99144">
        <ele>27</ele>
        <time>2012-02-05T08:04:37Z</time>
      </trkpt>
      <trkpt lat="50.49766" lon="2.99135">
        <ele>27</ele>
        <time>2012-02-05T08:04:39Z</time>
      </trkpt>
      <trkpt lat="50.49775" lon="2.99124">
        <ele>27</ele>
        <time>2012-02-05T08:04:41Z</time>
      </trkpt>
      <trkpt lat="50.49783" lon="2.99109">
        <ele>27</ele>
        <time>2012-02-05T08:04:43Z</time>
      </trkpt>
      <trkpt lat="50.49792" lon="2.99096">
        <ele>27</ele>
        <time>2012-02-05T08:04:45Z</time>
      </trkpt>
      <trkpt lat="50.49801" lon="2.99082">
        <ele>27</ele>
        <time>2012-02-05T08:04:47Z</time>
      </trkpt>
      <trkpt lat="50.4981" lon="2.99069">
        <ele>27</ele>
        <time>2012-02-05T08:04:49Z</time>
      </trkpt>
      <trkpt lat="50.49819" lon="2.99055">
        <ele>27</ele>
        <time>2012-02-05T08:04:51Z</time>
      </trkpt>
      <trkpt lat="50.49828" lon="2.99042">
        <ele>27</ele>
        <time>2012-02-05T08:04:53Z</time>
      </trkpt>
      <trkpt lat="50.49836" lon="2.99029">
        <ele>27</ele>
        <time>2012-02-05T08:04:55Z</time>
      </trkpt>
      <trkpt lat="50.49844" lon="2.99017">
        <ele>27</ele>
        <time>2012-02-05T08:04:57Z</time>
      </trkpt>
      <trkpt lat="50.49853" lon="2.99009">
        <ele>27</ele>
        <time>2012-02-05T08:04:59Z</time>
      </trkpt>
      <trkpt lat="50.49861" lon="2.9902">
        <ele>27</ele>
        <time>2012-02-05T08:05:02Z</time>
      </trkpt>
      <trkpt lat="50.49857" lon="2.99032">
        <ele>27</ele>
        <time>2012-02-05T08:05:04Z</time>
      </trkpt>
      <trkpt lat="50.4985" lon="2.99041">
        <ele>27</ele>
        <time>2012-02-05T08:05:06Z</time>
      </trkpt>
      <trkpt lat="50.49842" lon="2.9905">
        <ele>27</ele>
        <time>2012-02-05T08:05:08Z</time>
      </trkpt>
      <trkpt lat="50.49835" lon="2.99059">
        <ele>27</ele>
        <time>2012-02-05T08:05:10Z</time>
      </trkpt>
      <trkpt lat="50.49825" lon="2.99073">
        <ele>27</ele>
        <time>2012-02-05T08:05:13Z</time>
      </trkpt>
      <trkpt lat="50.49817" lon="2.99088">
        <ele>27</ele>
        <time>2012-02-05T08:05:16Z</time>
      </trkpt>
      <trkpt lat="50.49808" lon="2.99102">
        <ele>27</ele>
        <time>2012-02-05T08:05:19Z</time>
      </trkpt>
      <trkpt lat="50.49802" lon="2.99113">
        <ele>27</ele>
        <time>2012-02-05T08:05:21Z</time>
      </trkpt>
      <trkpt lat="50.49794" lon="2.99127">
        <ele>27</ele>
        <time>2012-02-05T08:05:24Z</time>
      </trkpt>
      <trkpt lat="50.49787" lon="2.99144">
        <ele>27</ele>
        <time>2012-02-05T08:05:27Z</time>
      </trkpt>
      <trkpt lat="50.49779" lon="2.99159">
        <ele>27</ele>
        <time>2012-02-05T08:05:30Z</time>
      </trkpt>
      <trkpt lat="50.49771" lon="2.99175">
        <ele>27</ele>
        <time>2012-02-05T08:05:33Z</time>
      </trkpt>
      <trkpt lat="50.49763" lon="2.99188">
        <ele>32</ele>
        <time>2012-02-05T08:05:36Z</time>
      </trkpt>
      <trkpt lat="50.49755" lon="2.99204">
        <ele>32</ele>
        <time>2012-02-05T08:05:39Z</time>
      </trkpt>
      <trkpt lat="50.49749" lon="2.99214">
        <ele>32</ele>
        <time>2012-02-05T08:05:41Z</time>
      </trkpt>
      <trkpt lat="50.49743" lon="2.99226">
        <ele>32</ele>
        <time>2012-02-05T08:05:43Z</time>
      </trkpt>
      <trkpt lat="50.49736" lon="2.99238">
        <ele>32</ele>
        <time>2012-02-05T08:05:45Z</time>
      </trkpt>
      <trkpt lat="50.4973" lon="2.99251">
        <ele>32</ele>
        <time>2012-02-05T08:05:47Z</time>
      </trkpt>
      <trkpt lat="50.49722" lon="2.99267">
        <ele>32</ele>
        <time>2012-02-05T08:05:49Z</time>
      </trkpt>
      <trkpt lat="50.49715" lon="2.99285">
        <ele>32</ele>
        <time>2012-02-05T08:05:51Z</time>
      </trkpt>
      <trkpt lat="50.49707" lon="2.99303">
        <ele>32</ele>
        <time>2012-02-05T08:05:53Z</time>
      </trkpt>
      <trkpt lat="50.49699" lon="2.99322">
        <ele>32</ele>
        <time>2012-02-05T08:05:55Z</time>
      </trkpt>
      <trkpt lat="50.49691" lon="2.99342">
        <ele>27</ele>
        <time>2012-02-05T08:05:57Z</time>
      </trkpt>
      <trkpt lat="50.49684" lon="2.99359">
        <ele>27</ele>
        <time>2012-02-05T08:05:59Z</time>
      </trkpt>
      <trkpt lat="50.49678" lon="2.99375">
        <ele>27</ele>
        <time>2012-02-05T08:06:01Z</time>
      </trkpt>
      <trkpt lat="50.49673" lon="2.99391">
        <ele>27</ele>
        <time>2012-02-05T08:06:03Z</time>
      </trkpt>
      <trkpt lat="50.49668" lon="2.99405">
        <ele>27</ele>
        <time>2012-02-05T08:06:05Z</time>
      </trkpt>
      <trkpt lat="50.49667" lon="2.9942">
        <ele>27</ele>
        <time>2012-02-05T08:06:07Z</time>
      </trkpt>
      <trkpt lat="50.4967" lon="2.9944">
        <ele>27</ele>
        <time>2012-02-05T08:06:10Z</time>
      </trkpt>
      <trkpt lat="50.49674" lon="2.99457">
        <ele>27</ele>
        <time>2012-02-05T08:06:13Z</time>
      </trkpt>
      <trkpt lat="50.49672" lon="2.99475">
        <ele>27</ele>
        <time>2012-02-05T08:06:16Z</time>
      </trkpt>
      <trkpt lat="50.49667" lon="2.99487">
        <ele>27</ele>
        <time>2012-02-05T08:06:18Z</time>
      </trkpt>
      <trkpt lat="50.49661" lon="2.99497">
        <ele>27</ele>
        <time>2012-02-05T08:06:20Z</time>
      </trkpt>
      <trkpt lat="50.49654" lon="2.99507">
        <ele>27</ele>
        <time>2012-02-05T08:06:22Z</time>
      </trkpt>
      <trkpt lat="50.49646" lon="2.99518">
        <ele>27</ele>
        <time>2012-02-05T08:06:24Z</time>
      </trkpt>
      <trkpt lat="50.49638" lon="2.99529">
        <ele>27</ele>
        <time>2012-02-05T08:06:26Z</time>
      </trkpt>
      <trkpt lat="50.4963" lon="2.9954">
        <ele>27</ele>
        <time>2012-02-05T08:06:28Z</time>
      </trkpt>
      <trkpt lat="50.49622" lon="2.9955">
        <ele>27</ele>
        <time>2012-02-05T08:06:30Z</time>
      </trkpt>
      <trkpt lat="50.49614" lon="2.99561">
        <ele>27</ele>
        <time>2012-02-05T08:06:32Z</time>
      </trkpt>
      <trkpt lat="50.49606" lon="2.99572">
        <ele>27</ele>
        <time>2012-02-05T08:06:34Z</time>
      </trkpt>
      <trkpt lat="50.49599" lon="2.99584">
        <ele>27</ele>
        <time>2012-02-05T08:06:36Z</time>
      </trkpt>
      <trkpt lat="50.49592" lon="2.99595">
        <ele>27</ele>
        <time>2012-02-05T08:06:38Z</time>
      </trkpt>
      <trkpt lat="50.49585" lon="2.99607">
        <ele>27</ele>
        <time>2012-02-05T08:06:40Z</time>
      </trkpt>
      <trkpt lat="50.49578" lon="2.99619">
        <ele>27</ele>
        <time>2012-02-05T08:06:42Z</time>
      </trkpt>
      <trkpt lat="50.49573" lon="2.9963">
        <ele>27</ele>
        <time>2012-02-05T08:06:44Z</time>
      </trkpt>
      <trkpt lat="50.49564" lon="2.99645">
        <ele>27</ele>
        <time>2012-02-05T08:06:47Z</time>
      </trkpt>
      <trkpt lat="50.49561" lon="2.99658">
        <ele>27</ele>
        <time>2012-02-05T08:06:49Z</time>
      </trkpt>
      <trkpt lat="50.49566" lon="2.99676">
        <ele>27</ele>
        <time>2012-02-05T08:06:52Z</time>
      </trkpt>
      <trkpt lat="50.49572" lon="2.99686">
        <ele>27</ele>
        <time>2012-02-05T08:06:54Z</time>
      </trkpt>
      <trkpt lat="50.49579" lon="2.99696">
        <ele>27</ele>
        <time>2012-02-05T08:06:56Z</time>
      </trkpt>
      <trkpt lat="50.49587" lon="2.99705">
        <ele>27</ele>
        <time>2012-02-05T08:06:58Z</time>
      </trkpt>
      <trkpt lat="50.49595" lon="2.99714">
        <ele>27</ele>
        <time>2012-02-05T08:07:00Z</time>
      </trkpt>
      <trkpt lat="50.49603" lon="2.99723">
        <ele>27</ele>
        <time>2012-02-05T08:07:02Z</time>
      </trkpt>
      <trkpt lat="50.49611" lon="2.99731">
        <ele>27</ele>
        <time>2012-02-05T08:07:04Z</time>
      </trkpt>
      <trkpt lat="50.49619" lon="2.99741">
        <ele>27</ele>
        <time>2012-02-05T08:07:06Z</time>
      </trkpt>
      <trkpt lat="50.49626" lon="2.99751">
        <ele>27</ele>
        <time>2012-02-05T08:07:08Z</time>
      </trkpt>
      <trkpt lat="50.49633" lon="2.99761">
        <ele>27</ele>
        <time>2012-02-05T08:07:10Z</time>
      </trkpt>
      <trkpt lat="50.4964" lon="2.99771">
        <ele>27</ele>
        <time>2012-02-05T08:07:12Z</time>
      </trkpt>
      <trkpt lat="50.49646" lon="2.9978">
        <ele>27</ele>
        <time>2012-02-05T08:07:14Z</time>
      </trkpt>
      <trkpt lat="50.49653" lon="2.99791">
        <ele>27</ele>
        <time>2012-02-05T08:07:16Z</time>
      </trkpt>
      <trkpt lat="50.49663" lon="2.99806">
        <ele>27</ele>
        <time>2012-02-05T08:07:19Z</time>
      </trkpt>
      <trkpt lat="50.49669" lon="2.99816">
        <ele>27</ele>
        <time>2012-02-05T08:07:21Z</time>
      </trkpt>
      <trkpt lat="50.49675" lon="2.99827">
        <ele>27</ele>
        <time>2012-02-05T08:07:23Z</time>
      </trkpt>
      <trkpt lat="50.49681" lon="2.99837">
        <ele>27</ele>
        <time>2012-02-05T08:07:25Z</time>
      </trkpt>
      <trkpt lat="50.49687" lon="2.99847">
        <ele>27</ele>
        <time>2012-02-05T08:07:27Z</time>
      </trkpt>
      <trkpt lat="50.49693" lon="2.99858">
        <ele>27</ele>
        <time>2012-02-05T08:07:29Z</time>
      </trkpt>
      <trkpt lat="50.49699" lon="2.99868">
        <ele>27</ele>
        <time>2012-02-05T08:07:31Z</time>
      </trkpt>
      <trkpt lat="50.49705" lon="2.99879">
        <ele>27</ele>
        <time>2012-02-05T08:07:33Z</time>
      </trkpt>
      <trkpt lat="50.49712" lon="2.99891">
        <ele>27</ele>
        <time>2012-02-05T08:07:35Z</time>
      </trkpt>
      <trkpt lat="50.49719" lon="2.99903">
        <ele>27</ele>
        <time>2012-02-05T08:07:37Z</time>
      </trkpt>
      <trkpt lat="50.49724" lon="2.99914">
        <ele>27</ele>
        <time>2012-02-05T08:07:39Z</time>
      </trkpt>
      <trkpt lat="50.49731" lon="2.99926">
        <ele>27</ele>
        <time>2012-02-05T08:07:41Z</time>
      </trkpt>
      <trkpt lat="50.49737" lon="2.99937">
        <ele>27</ele>
        <time>2012-02-05T08:07:43Z</time>
      </trkpt>
      <trkpt lat="50.49743" lon="2.99948">
        <ele>27</ele>
        <time>2012-02-05T08:07:45Z</time>
      </trkpt>
      <trkpt lat="50.4975" lon="2.99958">
        <ele>27</ele>
        <time>2012-02-05T08:07:47Z</time>
      </trkpt>
      <trkpt lat="50.49758" lon="2.99974">
        <ele>27</ele>
        <time>2012-02-05T08:07:50Z</time>
      </trkpt>
      <trkpt lat="50.49764" lon="2.99984">
        <ele>27</ele>
        <time>2012-02-05T08:07:52Z</time>
      </trkpt>
      <trkpt lat="50.49773" lon="3">
        <ele>27</ele>
        <time>2012-02-05T08:07:55Z</time>
      </trkpt>
      <trkpt lat="50.49782" lon="3.00014">
        <ele>27</ele>
        <time>2012-02-05T08:07:58Z</time>
      </trkpt>
      <trkpt lat="50.49788" lon="3.00024">
        <ele>27</ele>
        <time>2012-02-05T08:08:00Z</time>
      </trkpt>
      <trkpt lat="50.49796" lon="3.00038">
        <ele>27</ele>
        <time>2012-02-05T08:08:03Z</time>
      </trkpt>
      <trkpt lat="50.49805" lon="3.00054">
        <ele>27</ele>
        <time>2012-02-05T08:08:06Z</time>
      </trkpt>
      <trkpt lat="50.49811" lon="3.00066">
        <ele>32</ele>
        <time>2012-02-05T08:08:09Z</time>
      </trkpt>
      <trkpt lat="50.49811" lon="3.0008">
        <ele>32</ele>
        <time>2012-02-05T08:08:13Z</time>
      </trkpt>
      <trkpt lat="50.49804" lon="3.0009">
        <ele>32</ele>
        <time>2012-02-05T08:08:16Z</time>
      </trkpt>
      <trkpt lat="50.49795" lon="3.00101">
        <ele>32</ele>
        <time>2012-02-05T08:08:19Z</time>
      </trkpt>
      <trkpt lat="50.49786" lon="3.00114">
        <ele>32</ele>
        <time>2012-02-05T08:08:22Z</time>
      </trkpt>
      <trkpt lat="50.49779" lon="3.00127">
        <ele>32</ele>
        <time>2012-02-05T08:08:25Z</time>
      </trkpt>
      <trkpt lat="50.49773" lon="3.00142">
        <ele>32</ele>
        <time>2012-02-05T08:08:28Z</time>
      </trkpt>
      <trkpt lat="50.49766" lon="3.00155">
        <ele>32</ele>
        <time>2012-02-05T08:08:31Z</time>
      </trkpt>
      <trkpt lat="50.49759" lon="3.0017">
        <ele>32</ele>
        <time>2012-02-05T08:08:34Z</time>
      </trkpt>
      <trkpt lat="50.49754" lon="3.00185">
        <ele>32</ele>
        <time>2012-02-05T08:08:37Z</time>
      </trkpt>
      <trkpt lat="50.49747" lon="3.00199">
        <ele>32</ele>
        <time>2012-02-05T08:08:40Z</time>
      </trkpt>
      <trkpt lat="50.49741" lon="3.00215">
        <ele>32</ele>
        <time>2012-02-05T08:08:43Z</time>
      </trkpt>
      <trkpt lat="50.49734" lon="3.0023">
        <ele>32</ele>
        <time>2012-02-05T08:08:46Z</time>
      </trkpt>
      <trkpt lat="50.49728" lon="3.00246">
        <ele>32</ele>
        <time>2012-02-05T08:08:49Z</time>
      </trkpt>
      <trkpt lat="50.49722" lon="3.00262">
        <ele>32</ele>
        <time>2012-02-05T08:08:52Z</time>
      </trkpt>
      <trkpt lat="50.49715" lon="3.00278">
        <ele>32</ele>
        <time>2012-02-05T08:08:55Z</time>
      </trkpt>
      <trkpt lat="50.49708" lon="3.00295">
        <ele>32</ele>
        <time>2012-02-05T08:08:58Z</time>
      </trkpt>
      <trkpt lat="50.49703" lon="3.00308">
        <ele>32</ele>
        <time>2012-02-05T08:09:00Z</time>
      </trkpt>
      <trkpt lat="50.49699" lon="3.0032">
        <ele>32</ele>
        <time>2012-02-05T08:09:02Z</time>
      </trkpt>
      <trkpt lat="50.49695" lon="3.00333">
        <ele>32</ele>
        <time>2012-02-05T08:09:04Z</time>
      </trkpt>
      <trkpt lat="50.49692" lon="3.00346">
        <ele>32</ele>
        <time>2012-02-05T08:09:06Z</time>
      </trkpt>
      <trkpt lat="50.49689" lon="3.00362">
        <ele>32</ele>
        <time>2012-02-05T08:09:08Z</time>
      </trkpt>
      <trkpt lat="50.49686" lon="3.00378">
        <ele>32</ele>
        <time>2012-02-05T08:09:10Z</time>
      </trkpt>
      <trkpt lat="50.49684" lon="3.00395">
        <ele>32</ele>
        <time>2012-02-05T08:09:12Z</time>
      </trkpt>
      <trkpt lat="50.49682" lon="3.00413">
        <ele>32</ele>
        <time>2012-02-05T08:09:14Z</time>
      </trkpt>
      <trkpt lat="50.49681" lon="3.00431">
        <ele>32</ele>
        <time>2012-02-05T08:09:16Z</time>
      </trkpt>
      <trkpt lat="50.49681" lon="3.00449">
        <ele>32</ele>
        <time>2012-02-05T08:09:18Z</time>
      </trkpt>
      <trkpt lat="50.49682" lon="3.00468">
        <ele>32</ele>
        <time>2012-02-05T08:09:20Z</time>
      </trkpt>
      <trkpt lat="50.49683" lon="3.00487">
        <ele>32</ele>
        <time>2012-02-05T08:09:22Z</time>
      </trkpt>
      <trkpt lat="50.49685" lon="3.00505">
        <ele>32</ele>
        <time>2012-02-05T08:09:24Z</time>
      </trkpt>
      <trkpt lat="50.49686" lon="3.00526">
        <ele>32</ele>
        <time>2012-02-05T08:09:26Z</time>
      </trkpt>
      <trkpt lat="50.49688" lon="3.00546">
        <ele>32</ele>
        <time>2012-02-05T08:09:28Z</time>
      </trkpt>
      <trkpt lat="50.49688" lon="3.00566">
        <ele>32</ele>
        <time>2012-02-05T08:09:30Z</time>
      </trkpt>
      <trkpt lat="50.49688" lon="3.00587">
        <ele>32</ele>
        <time>2012-02-05T08:09:32Z</time>
      </trkpt>
      <trkpt lat="50.49687" lon="3.00607">
        <ele>32</ele>
        <time>2012-02-05T08:09:34Z</time>
      </trkpt>
      <trkpt lat="50.49685" lon="3.00626">
        <ele>32</ele>
        <time>2012-02-05T08:09:36Z</time>
      </trkpt>
      <trkpt lat="50.49682" lon="3.00643">
        <ele>32</ele>
        <time>2012-02-05T08:09:38Z</time>
      </trkpt>
      <trkpt lat="50.49677" lon="3.0066">
        <ele>32</ele>
        <time>2012-02-05T08:09:40Z</time>
      </trkpt>
      <trkpt lat="50.49673" lon="3.00675">
        <ele>32</ele>
        <time>2012-02-05T08:09:42Z</time>
      </trkpt>
      <trkpt lat="50.49667" lon="3.0069">
        <ele>32</ele>
        <time>2012-02-05T08:09:44Z</time>
      </trkpt>
      <trkpt lat="50.49661" lon="3.00704">
        <ele>32</ele>
        <time>2012-02-05T08:09:46Z</time>
      </trkpt>
      <trkpt lat="50.49655" lon="3.00717">
        <ele>32</ele>
        <time>2012-02-05T08:09:48Z</time>
      </trkpt>
      <trkpt lat="50.49649" lon="3.00731">
        <ele>32</ele>
        <time>2012-02-05T08:09:50Z</time>
      </trkpt>
      <trkpt lat="50.49642" lon="3.00744">
        <ele>32</ele>
        <time>2012-02-05T08:09:52Z</time>
      </trkpt>
      <trkpt lat="50.49636" lon="3.00757">
        <ele>32</ele>
        <time>2012-02-05T08:09:54Z</time>
      </trkpt>
      <trkpt lat="50.49629" lon="3.00771">
        <ele>32</ele>
        <time>2012-02-05T08:09:56Z</time>
      </trkpt>
      <trkpt lat="50.49621" lon="3.00785">
        <ele>32</ele>
        <time>2012-02-05T08:09:58Z</time>
      </trkpt>
      <trkpt lat="50.49614" lon="3.00798">
        <ele>32</ele>
        <time>2012-02-05T08:10:00Z</time>
      </trkpt>
      <trkpt lat="50.49606" lon="3.00812">
        <ele>32</ele>
        <time>2012-02-05T08:10:02Z</time>
      </trkpt>
      <trkpt lat="50.49598" lon="3.00824">
        <ele>32</ele>
        <time>2012-02-05T08:10:04Z</time>
      </trkpt>
      <trkpt lat="50.4959" lon="3.00837">
        <ele>32</ele>
        <time>2012-02-05T08:10:06Z</time>
      </trkpt>
      <trkpt lat="50.49583" lon="3.00849">
        <ele>32</ele>
        <time>2012-02-05T08:10:08Z</time>
      </trkpt>
      <trkpt lat="50.49575" lon="3.00862">
        <ele>32</ele>
        <time>2012-02-05T08:10:10Z</time>
      </trkpt>
      <trkpt lat="50.49568" lon="3.00875">
        <ele>32</ele>
        <time>2012-02-05T08:10:12Z</time>
      </trkpt>
      <trkpt lat="50.4956" lon="3.00887">
        <ele>32</ele>
        <time>2012-02-05T08:10:14Z</time>
      </trkpt>
      <trkpt lat="50.49553" lon="3.009">
        <ele>32</ele>
        <time>2012-02-05T08:10:16Z</time>
      </trkpt>
      <trkpt lat="50.49546" lon="3.00913">
        <ele>32</ele>
        <time>2012-02-05T08:10:18Z</time>
      </trkpt>
      <trkpt lat="50.4954" lon="3.00928">
        <ele>32</ele>
        <time>2012-02-05T08:10:20Z</time>
      </trkpt>
      <trkpt lat="50.49534" lon="3.0094">
        <ele>32</ele>
        <time>2012-02-05T08:10:22Z</time>
      </trkpt>
      <trkpt lat="50.49525" lon="3.00945">
        <ele>32</ele>
        <time>2012-02-05T08:10:24Z</time>
      </trkpt>
      <trkpt lat="50.49512" lon="3.0094">
        <ele>32</ele>
        <time>2012-02-05T08:10:27Z</time>
      </trkpt>
      <trkpt lat="50.49502" lon="3.00936">
        <ele>32</ele>
        <time>2012-02-05T08:10:29Z</time>
      </trkpt>
      <trkpt lat="50.49492" lon="3.00931">
        <ele>32</ele>
        <time>2012-02-05T08:10:31Z</time>
      </trkpt>
      <trkpt lat="50.49483" lon="3.00927">
        <ele>32</ele>
        <time>2012-02-05T08:10:33Z</time>
      </trkpt>
      <trkpt lat="50.49473" lon="3.00921">
        <ele>32</ele>
        <time>2012-02-05T08:10:35Z</time>
      </trkpt>
      <trkpt lat="50.49464" lon="3.00914">
        <ele>32</ele>
        <time>2012-02-05T08:10:37Z</time>
      </trkpt>
      <trkpt lat="50.49454" lon="3.00907">
        <ele>32</ele>
        <time>2012-02-05T08:10:39Z</time>
      </trkpt>
      <trkpt lat="50.49444" lon="3.00901">
        <ele>32</ele>
        <time>2012-02-05T08:10:41Z</time>
      </trkpt>
      <trkpt lat="50.49434" lon="3.00894">
        <ele>32</ele>
        <time>2012-02-05T08:10:43Z</time>
      </trkpt>
      <trkpt lat="50.49424" lon="3.00888">
        <ele>32</ele>
        <time>2012-02-05T08:10:45Z</time>
      </trkpt>
      <trkpt lat="50.49414" lon="3.00882">
        <ele>32</ele>
        <time>2012-02-05T08:10:47Z</time>
      </trkpt>
      <trkpt lat="50.49404" lon="3.00875">
        <ele>32</ele>
        <time>2012-02-05T08:10:49Z</time>
      </trkpt>
      <trkpt lat="50.49394" lon="3.00868">
        <ele>32</ele>
        <time>2012-02-05T08:10:51Z</time>
      </trkpt>
      <trkpt lat="50.49383" lon="3.00862">
        <ele>32</ele>
        <time>2012-02-05T08:10:53Z</time>
      </trkpt>
      <trkpt lat="50.49373" lon="3.00856">
        <ele>32</ele>
        <time>2012-02-05T08:10:55Z</time>
      </trkpt>
      <trkpt lat="50.49362" lon="3.00849">
        <ele>27</ele>
        <time>2012-02-05T08:10:57Z</time>
      </trkpt>
      <trkpt lat="50.4935" lon="3.00844">
        <ele>27</ele>
        <time>2012-02-05T08:10:59Z</time>
      </trkpt>
      <trkpt lat="50.49339" lon="3.00838">
        <ele>27</ele>
        <time>2012-02-05T08:11:01Z</time>
      </trkpt>
      <trkpt lat="50.49328" lon="3.00831">
        <ele>27</ele>
        <time>2012-02-05T08:11:03Z</time>
      </trkpt>
      <trkpt lat="50.49317" lon="3.00824">
        <ele>27</ele>
        <time>2012-02-05T08:11:05Z</time>
      </trkpt>
      <trkpt lat="50.49306" lon="3.00818">
        <ele>27</ele>
        <time>2012-02-05T08:11:07Z</time>
      </trkpt>
      <trkpt lat="50.49296" lon="3.00812">
        <ele>27</ele>
        <time>2012-02-05T08:11:09Z</time>
      </trkpt>
      <trkpt lat="50.49285" lon="3.00805">
        <ele>27</ele>
        <time>2012-02-05T08:11:11Z</time>
      </trkpt>
      <trkpt lat="50.49276" lon="3.00801">
        <ele>27</ele>
        <time>2012-02-05T08:11:13Z</time>
      </trkpt>
      <trkpt lat="50.49264" lon="3.00808">
        <ele>27</ele>
        <time>2012-02-05T08:11:16Z</time>
      </trkpt>
      <trkpt lat="50.49257" lon="3.0082">
        <ele>27</ele>
        <time>2012-02-05T08:11:18Z</time>
      </trkpt>
      <trkpt lat="50.49249" lon="3.00831">
        <ele>27</ele>
        <time>2012-02-05T08:11:20Z</time>
      </trkpt>
      <trkpt lat="50.49242" lon="3.00844">
        <ele>27</ele>
        <time>2012-02-05T08:11:22Z</time>
      </trkpt>
      <trkpt lat="50.49236" lon="3.00856">
        <ele>27</ele>
        <time>2012-02-05T08:11:24Z</time>
      </trkpt>
      <trkpt lat="50.49229" lon="3.00868">
        <ele>27</ele>
        <time>2012-02-05T08:11:26Z</time>
      </trkpt>
      <trkpt lat="50.49222" lon="3.00881">
        <ele>27</ele>
        <time>2012-02-05T08:11:28Z</time>
      </trkpt>
      <trkpt lat="50.49215" lon="3.00892">
        <ele>27</ele>
        <time>2012-02-05T08:11:30Z</time>
      </trkpt>
      <trkpt lat="50.49206" lon="3.00902">
        <ele>27</ele>
        <time>2012-02-05T08:11:32Z</time>
      </trkpt>
      <trkpt lat="50.49198" lon="3.0091">
        <ele>27</ele>
        <time>2012-02-05T08:11:34Z</time>
      </trkpt>
      <trkpt lat="50.4919" lon="3.00916">
        <ele>27</ele>
        <time>2012-02-05T08:11:36Z</time>
      </trkpt>
      <trkpt lat="50.49181" lon="3.00923">
        <ele>27</ele>
        <time>2012-02-05T08:11:38Z</time>
      </trkpt>
      <trkpt lat="50.4917" lon="3.00932">
        <ele>27</ele>
        <time>2012-02-05T08:11:41Z</time>
      </trkpt>
      <trkpt lat="50.4916" lon="3.0094">
        <ele>27</ele>
        <time>2012-02-05T08:11:44Z</time>
      </trkpt>
      <trkpt lat="50.4915" lon="3.0095">
        <ele>27</ele>
        <time>2012-02-05T08:11:48Z</time>
      </trkpt>
      <trkpt lat="50.49144" lon="3.00962">
        <ele>27</ele>
        <time>2012-02-05T08:16:01Z</time>
      </trkpt>
      <trkpt lat="50.49134" lon="3.00964">
        <ele>27</ele>
        <time>2012-02-05T08:18:01Z</time>
      </trkpt>
      <trkpt lat="50.49124" lon="3.00972">
        <ele>27</ele>
        <time>2012-02-05T08:18:04Z</time>
      </trkpt>
      <trkpt lat="50.49112" lon="3.00981">
        <ele>27</ele>
        <time>2012-02-05T08:18:07Z</time>
      </trkpt>
      <trkpt lat="50.49104" lon="3.0099">
        <ele>27</ele>
        <time>2012-02-05T08:18:09Z</time>
      </trkpt>
      <trkpt lat="50.49095" lon="3.00997">
        <ele>27</ele>
        <time>2012-02-05T08:18:11Z</time>
      </trkpt>
      <trkpt lat="50.49085" lon="3.01004">
        <ele>27</ele>
        <time>2012-02-05T08:18:13Z</time>
      </trkpt>
      <trkpt lat="50.49076" lon="3.01011">
        <ele>27</ele>
        <time>2012-02-05T08:18:15Z</time>
      </trkpt>
      <trkpt lat="50.49067" lon="3.0102">
        <ele>27</ele>
        <time>2012-02-05T08:18:17Z</time>
      </trkpt>
      <trkpt lat="50.49057" lon="3.01029">
        <ele>27</ele>
        <time>2012-02-05T08:18:19Z</time>
      </trkpt>
      <trkpt lat="50.49048" lon="3.01038">
        <ele>27</ele>
        <time>2012-02-05T08:18:21Z</time>
      </trkpt>
      <trkpt lat="50.4904" lon="3.01047">
        <ele>27</ele>
        <time>2012-02-05T08:18:23Z</time>
      </trkpt>
      <trkpt lat="50.49031" lon="3.01057">
        <ele>27</ele>
        <time>2012-02-05T08:18:25Z</time>
      </trkpt>
      <trkpt lat="50.49023" lon="3.01066">
        <ele>27</ele>
        <time>2012-02-05T08:18:27Z</time>
      </trkpt>
      <trkpt lat="50.49016" lon="3.01077">
        <ele>27</ele>
        <time>2012-02-05T08:18:29Z</time>
      </trkpt>
      <trkpt lat="50.49009" lon="3.01087">
        <ele>27</ele>
        <time>2012-02-05T08:18:31Z</time>
      </trkpt>
      <trkpt lat="50.49003" lon="3.01099">
        <ele>27</ele>
        <time>2012-02-05T08:18:33Z</time>
      </trkpt>
      <trkpt lat="50.48997" lon="3.0111">
        <ele>27</ele>
        <time>2012-02-05T08:18:35Z</time>
      </trkpt>
      <trkpt lat="50.48991" lon="3.01123">
        <ele>27</ele>
        <time>2012-02-05T08:18:37Z</time>
      </trkpt>
      <trkpt lat="50.48985" lon="3.0114">
        <ele>27</ele>
        <time>2012-02-05T08:18:40Z</time>
      </trkpt>
      <trkpt lat="50.48977" lon="3.01157">
        <ele>27</ele>
        <time>2012-02-05T08:18:43Z</time>
      </trkpt>
      <trkpt lat="50.48967" lon="3.01169">
        <ele>27</ele>
        <time>2012-02-05T08:18:46Z</time>
      </trkpt>
      <trkpt lat="50.48958" lon="3.01171">
        <ele>27</ele>
        <time>2012-02-05T08:18:48Z</time>
      </trkpt>
      <trkpt lat="50.48948" lon="3.01168">
        <ele>27</ele>
        <time>2012-02-05T08:18:50Z</time>
      </trkpt>
      <trkpt lat="50.48939" lon="3.01166">
        <ele>27</ele>
        <time>2012-02-05T08:18:52Z</time>
      </trkpt>
      <trkpt lat="50.4893" lon="3.01162">
        <ele>27</ele>
        <time>2012-02-05T08:18:54Z</time>
      </trkpt>
      <trkpt lat="50.4892" lon="3.01158">
        <ele>27</ele>
        <time>2012-02-05T08:18:56Z</time>
      </trkpt>
      <trkpt lat="50.4891" lon="3.01155">
        <ele>27</ele>
        <time>2012-02-05T08:18:58Z</time>
      </trkpt>
      <trkpt lat="50.48899" lon="3.01151">
        <ele>27</ele>
        <time>2012-02-05T08:19:00Z</time>
      </trkpt>
      <trkpt lat="50.48889" lon="3.01148">
        <ele>22</ele>
        <time>2012-02-05T08:19:02Z</time>
      </trkpt>
      <trkpt lat="50.48878" lon="3.01144">
        <ele>22</ele>
        <time>2012-02-05T08:19:04Z</time>
      </trkpt>
      <trkpt lat="50.48868" lon="3.0114">
        <ele>22</ele>
        <time>2012-02-05T08:19:06Z</time>
      </trkpt>
      <trkpt lat="50.48857" lon="3.01137">
        <ele>22</ele>
        <time>2012-02-05T08:19:08Z</time>
      </trkpt>
      <trkpt lat="50.48846" lon="3.01133">
        <ele>22</ele>
        <time>2012-02-05T08:19:10Z</time>
      </trkpt>
      <trkpt lat="50.48834" lon="3.01129">
        <ele>22</ele>
        <time>2012-02-05T08:19:12Z</time>
      </trkpt>
      <trkpt lat="50.48824" lon="3.01125">
        <ele>22</ele>
        <time>2012-02-05T08:19:14Z</time>
      </trkpt>
      <trkpt lat="50.48813" lon="3.01121">
        <ele>22</ele>
        <time>2012-02-05T08:19:16Z</time>
      </trkpt>
      <trkpt lat="50.48802" lon="3.01117">
        <ele>22</ele>
        <time>2012-02-05T08:19:18Z</time>
      </trkpt>
      <trkpt lat="50.48792" lon="3.01113">
        <ele>22</ele>
        <time>2012-02-05T08:19:20Z</time>
      </trkpt>
      <trkpt lat="50.48782" lon="3.01109">
        <ele>22</ele>
        <time>2012-02-05T08:19:22Z</time>
      </trkpt>
      <trkpt lat="50.48774" lon="3.01105">
        <ele>22</ele>
        <time>2012-02-05T08:19:24Z</time>
      </trkpt>
      <trkpt lat="50.48765" lon="3.01101">
        <ele>22</ele>
        <time>2012-02-05T08:19:26Z</time>
      </trkpt>
      <trkpt lat="50.48755" lon="3.011">
        <ele>22</ele>
        <time>2012-02-05T08:19:29Z</time>
      </trkpt>
      <trkpt lat="50.4875" lon="3.01112">
        <ele>22</ele>
        <time>2012-02-05T08:19:32Z</time>
      </trkpt>
      <trkpt lat="50.48747" lon="3.01128">
        <ele>22</ele>
        <time>2012-02-05T08:19:35Z</time>
      </trkpt>
      <trkpt lat="50.4874" lon="3.01146">
        <ele>22</ele>
        <time>2012-02-05T08:19:38Z</time>
      </trkpt>
      <trkpt lat="50.48734" lon="3.01158">
        <ele>22</ele>
        <time>2012-02-05T08:19:40Z</time>
      </trkpt>
      <trkpt lat="50.48726" lon="3.01169">
        <ele>22</ele>
        <time>2012-02-05T08:19:42Z</time>
      </trkpt>
      <trkpt lat="50.48718" lon="3.01181">
        <ele>22</ele>
        <time>2012-02-05T08:19:44Z</time>
      </trkpt>
      <trkpt lat="50.4871" lon="3.01192">
        <ele>22</ele>
        <time>2012-02-05T08:19:46Z</time>
      </trkpt>
      <trkpt lat="50.48702" lon="3.01203">
        <ele>22</ele>
        <time>2012-02-05T08:19:48Z</time>
      </trkpt>
      <trkpt lat="50.48694" lon="3.01214">
        <ele>22</ele>
        <time>2012-02-05T08:19:50Z</time>
      </trkpt>
      <trkpt lat="50.48687" lon="3.01224">
        <ele>22</ele>
        <time>2012-02-05T08:19:52Z</time>
      </trkpt>
      <trkpt lat="50.48679" lon="3.01235">
        <ele>22</ele>
        <time>2012-02-05T08:19:54Z</time>
      </trkpt>
      <trkpt lat="50.48672" lon="3.01246">
        <ele>22</ele>
        <time>2012-02-05T08:19:56Z</time>
      </trkpt>
      <trkpt lat="50.48664" lon="3.01255">
        <ele>22</ele>
        <time>2012-02-05T08:19:58Z</time>
      </trkpt>
      <trkpt lat="50.48657" lon="3.01265">
        <ele>22</ele>
        <time>2012-02-05T08:20:00Z</time>
      </trkpt>
      <trkpt lat="50.4865" lon="3.01275">
        <ele>22</ele>
        <time>2012-02-05T08:20:02Z</time>
      </trkpt>
      <trkpt lat="50.48643" lon="3.01286">
        <ele>22</ele>
        <time>2012-02-05T08:20:04Z</time>
      </trkpt>
      <trkpt lat="50.48636" lon="3.01297">
        <ele>22</ele>
        <time>2012-02-05T08:20:06Z</time>
      </trkpt>
      <trkpt lat="50.48629" lon="3.01308">
        <ele>22</ele>
        <time>2012-02-05T08:20:08Z</time>
      </trkpt>
      <trkpt lat="50.48622" lon="3.01317">
        <ele>22</ele>
        <time>2012-02-05T08:20:10Z</time>
      </trkpt>
      <trkpt lat="50.48616" lon="3.01327">
        <ele>22</ele>
        <time>2012-02-05T08:20:12Z</time>
      </trkpt>
      <trkpt lat="50.48609" lon="3.01338">
        <ele>22</ele>
        <time>2012-02-05T08:20:14Z</time>
      </trkpt>
      <trkpt lat="50.48603" lon="3.01349">
        <ele>22</ele>
        <time>2012-02-05T08:20:16Z</time>
      </trkpt>
      <trkpt lat="50.48598" lon="3.0136">
        <ele>22</ele>
        <time>2012-02-05T08:20:18Z</time>
      </trkpt>
      <trkpt lat="50.48591" lon="3.0137">
        <ele>22</ele>
        <time>2012-02-05T08:20:20Z</time>
      </trkpt>
      <trkpt lat="50.48583" lon="3.01388">
        <ele>22</ele>
        <time>2012-02-05T08:20:23Z</time>
      </trkpt>
      <trkpt lat="50.48575" lon="3.01404">
        <ele>22</ele>
        <time>2012-02-05T08:20:26Z</time>
      </trkpt>
      <trkpt lat="50.4857" lon="3.01415">
        <ele>22</ele>
        <time>2012-02-05T08:20:28Z</time>
      </trkpt>
      <trkpt lat="50.48564" lon="3.01426">
        <ele>22</ele>
        <time>2012-02-05T08:20:30Z</time>
      </trkpt>
      <trkpt lat="50.48558" lon="3.01437">
        <ele>22</ele>
        <time>2012-02-05T08:20:32Z</time>
      </trkpt>
      <trkpt lat="50.48552" lon="3.01449">
        <ele>22</ele>
        <time>2012-02-05T08:20:34Z</time>
      </trkpt>
      <trkpt lat="50.48544" lon="3.01465">
        <ele>22</ele>
        <time>2012-02-05T08:20:37Z</time>
      </trkpt>
      <trkpt lat="50.48539" lon="3.0148">
        <ele>22</ele>
        <time>2012-02-05T08:20:40Z</time>
      </trkpt>
      <trkpt lat="50.48543" lon="3.01494">
        <ele>22</ele>
        <time>2012-02-05T08:20:44Z</time>
      </trkpt>
      <trkpt lat="50.48552" lon="3.01507">
        <ele>22</ele>
        <time>2012-02-05T08:20:47Z</time>
      </trkpt>
      <trkpt lat="50.48559" lon="3.01516">
        <ele>22</ele>
        <time>2012-02-05T08:20:49Z</time>
      </trkpt>
      <trkpt lat="50.48567" lon="3.01524">
        <ele>22</ele>
        <time>2012-02-05T08:20:51Z</time>
      </trkpt>
      <trkpt lat="50.48575" lon="3.01532">
        <ele>22</ele>
        <time>2012-02-05T08:20:53Z</time>
      </trkpt>
      <trkpt lat="50.48583" lon="3.01539">
        <ele>22</ele>
        <time>2012-02-05T08:20:55Z</time>
      </trkpt>
      <trkpt lat="50.48592" lon="3.01545">
        <ele>22</ele>
        <time>2012-02-05T08:20:57Z</time>
      </trkpt>
      <trkpt lat="50.48602" lon="3.01547">
        <ele>22</ele>
        <time>2012-02-05T08:20:59Z</time>
      </trkpt>
      <trkpt lat="50.48611" lon="3.01547">
        <ele>22</ele>
        <time>2012-02-05T08:21:01Z</time>
      </trkpt>
      <trkpt lat="50.48614" lon="3.01562">
        <ele>22</ele>
        <time>2012-02-05T08:21:18Z</time>
      </trkpt>
      <trkpt lat="50.48611" lon="3.01578">
        <ele>22</ele>
        <time>2012-02-05T08:21:21Z</time>
      </trkpt>
      <trkpt lat="50.48606" lon="3.01591">
        <ele>22</ele>
        <time>2012-02-05T08:21:23Z</time>
      </trkpt>
      <trkpt lat="50.48602" lon="3.01606">
        <ele>22</ele>
        <time>2012-02-05T08:21:25Z</time>
      </trkpt>
      <trkpt lat="50.48598" lon="3.01622">
        <ele>22</ele>
        <time>2012-02-05T08:21:27Z</time>
      </trkpt>
      <trkpt lat="50.48595" lon="3.01638">
        <ele>22</ele>
        <time>2012-02-05T08:21:29Z</time>
      </trkpt>
      <trkpt lat="50.48591" lon="3.01653">
        <ele>22</ele>
        <time>2012-02-05T08:21:31Z</time>
      </trkpt>
      <trkpt lat="50.48587" lon="3.01668">
        <ele>22</ele>
        <time>2012-02-05T08:21:33Z</time>
      </trkpt>
      <trkpt lat="50.48585" lon="3.01682">
        <ele>22</ele>
        <time>2012-02-05T08:21:35Z</time>
      </trkpt>
      <trkpt lat="50.48581" lon="3.01696">
        <ele>22</ele>
        <time>2012-02-05T08:21:37Z</time>
      </trkpt>
      <trkpt lat="50.48578" lon="3.01709">
        <ele>22</ele>
        <time>2012-02-05T08:21:40Z</time>
      </trkpt>
      <trkpt lat="50.48568" lon="3.01713">
        <ele>22</ele>
        <time>2012-02-05T08:21:49Z</time>
      </trkpt>
      <trkpt lat="50.48556" lon="3.01706">
        <ele>22</ele>
        <time>2012-02-05T08:21:52Z</time>
      </trkpt>
      <trkpt lat="50.48547" lon="3.01701">
        <ele>22</ele>
        <time>2012-02-05T08:21:54Z</time>
      </trkpt>
      <trkpt lat="50.48535" lon="3.01698">
        <ele>22</ele>
        <time>2012-02-05T08:21:57Z</time>
      </trkpt>
      <trkpt lat="50.48525" lon="3.01704">
        <ele>22</ele>
        <time>2012-02-05T08:22:00Z</time>
      </trkpt>
      <trkpt lat="50.4852" lon="3.01719">
        <ele>22</ele>
        <time>2012-02-05T08:22:03Z</time>
      </trkpt>
      <trkpt lat="50.48516" lon="3.01737">
        <ele>22</ele>
        <time>2012-02-05T08:22:06Z</time>
      </trkpt>
      <trkpt lat="50.48519" lon="3.01753">
        <ele>22</ele>
        <time>2012-02-05T08:22:09Z</time>
      </trkpt>
      <trkpt lat="50.48527" lon="3.01767">
        <ele>22</ele>
        <time>2012-02-05T08:22:12Z</time>
      </trkpt>
      <trkpt lat="50.48538" lon="3.01778">
        <ele>22</ele>
        <time>2012-02-05T08:22:15Z</time>
      </trkpt>
      <trkpt lat="50.48545" lon="3.01787">
        <ele>22</ele>
        <time>2012-02-05T08:22:17Z</time>
      </trkpt>
      <trkpt lat="50.48552" lon="3.01796">
        <ele>22</ele>
        <time>2012-02-05T08:22:19Z</time>
      </trkpt>
      <trkpt lat="50.48559" lon="3.01806">
        <ele>22</ele>
        <time>2012-02-05T08:22:21Z</time>
      </trkpt>
      <trkpt lat="50.48565" lon="3.01817">
        <ele>22</ele>
        <time>2012-02-05T08:22:23Z</time>
      </trkpt>
      <trkpt lat="50.48568" lon="3.0183">
        <ele>22</ele>
        <time>2012-02-05T08:22:25Z</time>
      </trkpt>
      <trkpt lat="50.48569" lon="3.01845">
        <ele>22</ele>
        <time>2012-02-05T08:22:27Z</time>
      </trkpt>
      <trkpt lat="50.48566" lon="3.01858">
        <ele>22</ele>
        <time>2012-02-05T08:22:29Z</time>
      </trkpt>
      <trkpt lat="50.48562" lon="3.01872">
        <ele>22</ele>
        <time>2012-02-05T08:22:31Z</time>
      </trkpt>
      <trkpt lat="50.48556" lon="3.01884">
        <ele>22</ele>
        <time>2012-02-05T08:22:33Z</time>
      </trkpt>
      <trkpt lat="50.48552" lon="3.01899">
        <ele>22</ele>
        <time>2012-02-05T08:22:35Z</time>
      </trkpt>
      <trkpt lat="50.48547" lon="3.01913">
        <ele>22</ele>
        <time>2012-02-05T08:22:37Z</time>
      </trkpt>
      <trkpt lat="50.48542" lon="3.01927">
        <ele>22</ele>
        <time>2012-02-05T08:22:39Z</time>
      </trkpt>
      <trkpt lat="50.48538" lon="3.01942">
        <ele>22</ele>
        <time>2012-02-05T08:22:41Z</time>
      </trkpt>
      <trkpt lat="50.48534" lon="3.01956">
        <ele>22</ele>
        <time>2012-02-05T08:22:43Z</time>
      </trkpt>
      <trkpt lat="50.48529" lon="3.01971">
        <ele>22</ele>
        <time>2012-02-05T08:22:45Z</time>
      </trkpt>
      <trkpt lat="50.48524" lon="3.01984">
        <ele>22</ele>
        <time>2012-02-05T08:22:47Z</time>
      </trkpt>
      <trkpt lat="50.4852" lon="3.01998">
        <ele>22</ele>
        <time>2012-02-05T08:22:49Z</time>
      </trkpt>
      <trkpt lat="50.48516" lon="3.02013">
        <ele>22</ele>
        <time>2012-02-05T08:22:51Z</time>
      </trkpt>
      <trkpt lat="50.48511" lon="3.02027">
        <ele>22</ele>
        <time>2012-02-05T08:22:53Z</time>
      </trkpt>
      <trkpt lat="50.48507" lon="3.02042">
        <ele>22</ele>
        <time>2012-02-05T08:22:55Z</time>
      </trkpt>
      <trkpt lat="50.48504" lon="3.02057">
        <ele>22</ele>
        <time>2012-02-05T08:22:57Z</time>
      </trkpt>
      <trkpt lat="50.48501" lon="3.02072">
        <ele>22</ele>
        <time>2012-02-05T08:22:59Z</time>
      </trkpt>
      <trkpt lat="50.48499" lon="3.02086">
        <ele>27</ele>
        <time>2012-02-05T08:23:01Z</time>
      </trkpt>
      <trkpt lat="50.48498" lon="3.02101">
        <ele>27</ele>
        <time>2012-02-05T08:23:03Z</time>
      </trkpt>
      <trkpt lat="50.48498" lon="3.02115">
        <ele>27</ele>
        <time>2012-02-05T08:23:05Z</time>
      </trkpt>
      <trkpt lat="50.48499" lon="3.02135">
        <ele>27</ele>
        <time>2012-02-05T08:23:08Z</time>
      </trkpt>
      <trkpt lat="50.485" lon="3.02154">
        <ele>27</ele>
        <time>2012-02-05T08:23:11Z</time>
      </trkpt>
      <trkpt lat="50.48496" lon="3.02168">
        <ele>27</ele>
        <time>2012-02-05T08:23:15Z</time>
      </trkpt>
      <trkpt lat="50.48484" lon="3.02161">
        <ele>27</ele>
        <time>2012-02-05T08:23:18Z</time>
      </trkpt>
      <trkpt lat="50.48473" lon="3.02149">
        <ele>27</ele>
        <time>2012-02-05T08:23:21Z</time>
      </trkpt>
      <trkpt lat="50.48465" lon="3.02142">
        <ele>27</ele>
        <time>2012-02-05T08:23:23Z</time>
      </trkpt>
      <trkpt lat="50.48457" lon="3.02134">
        <ele>27</ele>
        <time>2012-02-05T08:23:25Z</time>
      </trkpt>
      <trkpt lat="50.48448" lon="3.02126">
        <ele>27</ele>
        <time>2012-02-05T08:23:27Z</time>
      </trkpt>
      <trkpt lat="50.48438" lon="3.02121">
        <ele>27</ele>
        <time>2012-02-05T08:23:31Z</time>
      </trkpt>
      <trkpt lat="50.48428" lon="3.02121">
        <ele>27</ele>
        <time>2012-02-05T08:23:37Z</time>
      </trkpt>
      <trkpt lat="50.48421" lon="3.02112">
        <ele>27</ele>
        <time>2012-02-05T08:23:40Z</time>
      </trkpt>
      <trkpt lat="50.48413" lon="3.021">
        <ele>27</ele>
        <time>2012-02-05T08:23:43Z</time>
      </trkpt>
      <trkpt lat="50.48402" lon="3.02089">
        <ele>27</ele>
        <time>2012-02-05T08:23:46Z</time>
      </trkpt>
      <trkpt lat="50.48394" lon="3.02083">
        <ele>27</ele>
        <time>2012-02-05T08:23:48Z</time>
      </trkpt>
      <trkpt lat="50.48385" lon="3.02078">
        <ele>27</ele>
        <time>2012-02-05T08:23:50Z</time>
      </trkpt>
      <trkpt lat="50.48376" lon="3.02076">
        <ele>27</ele>
        <time>2012-02-05T08:23:52Z</time>
      </trkpt>
      <trkpt lat="50.48363" lon="3.02072">
        <ele>27</ele>
        <time>2012-02-05T08:23:55Z</time>
      </trkpt>
      <trkpt lat="50.48352" lon="3.02072">
        <ele>27</ele>
        <time>2012-02-05T08:23:58Z</time>
      </trkpt>
      <trkpt lat="50.48348" lon="3.02086">
        <ele>27</ele>
        <time>2012-02-05T08:24:03Z</time>
      </trkpt>
      <trkpt lat="50.48354" lon="3.02101">
        <ele>27</ele>
        <time>2012-02-05T08:24:06Z</time>
      </trkpt>
      <trkpt lat="50.48357" lon="3.02118">
        <ele>27</ele>
        <time>2012-02-05T08:24:09Z</time>
      </trkpt>
      <trkpt lat="50.48353" lon="3.02138">
        <ele>27</ele>
        <time>2012-02-05T08:24:12Z</time>
      </trkpt>
      <trkpt lat="50.48348" lon="3.0215">
        <ele>27</ele>
        <time>2012-02-05T08:24:14Z</time>
      </trkpt>
      <trkpt lat="50.48344" lon="3.02163">
        <ele>27</ele>
        <time>2012-02-05T08:24:16Z</time>
      </trkpt>
      <trkpt lat="50.48339" lon="3.02174">
        <ele>27</ele>
        <time>2012-02-05T08:24:18Z</time>
      </trkpt>
      <trkpt lat="50.48332" lon="3.02185">
        <ele>27</ele>
        <time>2012-02-05T08:24:20Z</time>
      </trkpt>
      <trkpt lat="50.48325" lon="3.02195">
        <ele>27</ele>
        <time>2012-02-05T08:24:22Z</time>
      </trkpt>
      <trkpt lat="50.48318" lon="3.02205">
        <ele>27</ele>
        <time>2012-02-05T08:24:24Z</time>
      </trkpt>
      <trkpt lat="50.48311" lon="3.02216">
        <ele>27</ele>
        <time>2012-02-05T08:24:26Z</time>
      </trkpt>
      <trkpt lat="50.48304" lon="3.02227">
        <ele>27</ele>
        <time>2012-02-05T08:24:28Z</time>
      </trkpt>
      <trkpt lat="50.48296" lon="3.02235">
        <ele>27</ele>
        <time>2012-02-05T08:24:30Z</time>
      </trkpt>
      <trkpt lat="50.48288" lon="3.02239">
        <ele>27</ele>
        <time>2012-02-05T08:24:32Z</time>
      </trkpt>
      <trkpt lat="50.48279" lon="3.0224">
        <ele>27</ele>
        <time>2012-02-05T08:24:34Z</time>
      </trkpt>
      <trkpt lat="50.48266" lon="3.02239">
        <ele>27</ele>
        <time>2012-02-05T08:24:37Z</time>
      </trkpt>
      <trkpt lat="50.4826" lon="3.0225">
        <ele>27</ele>
        <time>2012-02-05T08:24:42Z</time>
      </trkpt>
      <trkpt lat="50.4826" lon="3.02266">
        <ele>27</ele>
        <time>2012-02-05T08:25:00Z</time>
      </trkpt>
      <trkpt lat="50.48249" lon="3.02264">
        <ele>27</ele>
        <time>2012-02-05T08:25:05Z</time>
      </trkpt>
      <trkpt lat="50.48242" lon="3.02253">
        <ele>27</ele>
        <time>2012-02-05T08:25:08Z</time>
      </trkpt>
      <trkpt lat="50.48238" lon="3.02236">
        <ele>27</ele>
        <time>2012-02-05T08:25:11Z</time>
      </trkpt>
      <trkpt lat="50.48236" lon="3.02216">
        <ele>27</ele>
        <time>2012-02-05T08:25:14Z</time>
      </trkpt>
      <trkpt lat="50.48227" lon="3.022">
        <ele>27</ele>
        <time>2012-02-05T08:25:17Z</time>
      </trkpt>
      <trkpt lat="50.48218" lon="3.0219">
        <ele>27</ele>
        <time>2012-02-05T08:25:20Z</time>
      </trkpt>
      <trkpt lat="50.4821" lon="3.02182">
        <ele>27</ele>
        <time>2012-02-05T08:25:24Z</time>
      </trkpt>
      <trkpt lat="50.48202" lon="3.02189">
        <ele>27</ele>
        <time>2012-02-05T08:25:51Z</time>
      </trkpt>
      <trkpt lat="50.48199" lon="3.02203">
        <ele>27</ele>
        <time>2012-02-05T08:25:56Z</time>
      </trkpt>
      <trkpt lat="50.48205" lon="3.0222">
        <ele>32</ele>
        <time>2012-02-05T08:26:00Z</time>
      </trkpt>
      <trkpt lat="50.4821" lon="3.0224">
        <ele>32</ele>
        <time>2012-02-05T08:26:03Z</time>
      </trkpt>
      <trkpt lat="50.48212" lon="3.02254">
        <ele>32</ele>
        <time>2012-02-05T08:26:05Z</time>
      </trkpt>
      <trkpt lat="50.48212" lon="3.02269">
        <ele>32</ele>
        <time>2012-02-05T08:26:07Z</time>
      </trkpt>
      <trkpt lat="50.48215" lon="3.02282">
        <ele>32</ele>
        <time>2012-02-05T08:26:09Z</time>
      </trkpt>
      <trkpt lat="50.48219" lon="3.02301">
        <ele>32</ele>
        <time>2012-02-05T08:26:12Z</time>
      </trkpt>
      <trkpt lat="50.48221" lon="3.02315">
        <ele>32</ele>
        <time>2012-02-05T08:26:14Z</time>
      </trkpt>
      <trkpt lat="50.48227" lon="3.02327">
        <ele>32</ele>
        <time>2012-02-05T08:26:17Z</time>
      </trkpt>
      <trkpt lat="50.48237" lon="3.02337">
        <ele>32</ele>
        <time>2012-02-05T08:26:21Z</time>
      </trkpt>
      <trkpt lat="50.48241" lon="3.02353">
        <ele>32</ele>
        <time>2012-02-05T08:26:24Z</time>
      </trkpt>
      <trkpt lat="50.48244" lon="3.02371">
        <ele>32</ele>
        <time>2012-02-05T08:26:27Z</time>
      </trkpt>
      <trkpt lat="50.48247" lon="3.02386">
        <ele>32</ele>
        <time>2012-02-05T08:26:29Z</time>
      </trkpt>
      <trkpt lat="50.4825" lon="3.02402">
        <ele>32</ele>
        <time>2012-02-05T08:26:31Z</time>
      </trkpt>
      <trkpt lat="50.48253" lon="3.02415">
        <ele>32</ele>
        <time>2012-02-05T08:26:33Z</time>
      </trkpt>
      <trkpt lat="50.48257" lon="3.02435">
        <ele>32</ele>
        <time>2012-02-05T08:26:36Z</time>
      </trkpt>
      <trkpt lat="50.4826" lon="3.02449">
        <ele>32</ele>
        <time>2012-02-05T08:26:39Z</time>
      </trkpt>
      <trkpt lat="50.48262" lon="3.02463">
        <ele>32</ele>
        <time>2012-02-05T08:26:42Z</time>
      </trkpt>
      <trkpt lat="50.48266" lon="3.02479">
        <ele>32</ele>
        <time>2012-02-05T08:26:45Z</time>
      </trkpt>
      <trkpt lat="50.48268" lon="3.02493">
        <ele>32</ele>
        <time>2012-02-05T08:26:47Z</time>
      </trkpt>
      <trkpt lat="50.48272" lon="3.02509">
        <ele>32</ele>
        <time>2012-02-05T08:26:49Z</time>
      </trkpt>
      <trkpt lat="50.48275" lon="3.02523">
        <ele>32</ele>
        <time>2012-02-05T08:26:51Z</time>
      </trkpt>
      <trkpt lat="50.48279" lon="3.02541">
        <ele>32</ele>
        <time>2012-02-05T08:26:54Z</time>
      </trkpt>
      <trkpt lat="50.4828" lon="3.0256">
        <ele>32</ele>
        <time>2012-02-05T08:26:57Z</time>
      </trkpt>
      <trkpt lat="50.48283" lon="3.02573">
        <ele>32</ele>
        <time>2012-02-05T08:26:59Z</time>
      </trkpt>
      <trkpt lat="50.48287" lon="3.02587">
        <ele>32</ele>
        <time>2012-02-05T08:27:01Z</time>
      </trkpt>
      <trkpt lat="50.48289" lon="3.02607">
        <ele>32</ele>
        <time>2012-02-05T08:27:04Z</time>
      </trkpt>
      <trkpt lat="50.48293" lon="3.02627">
        <ele>32</ele>
        <time>2012-02-05T08:27:07Z</time>
      </trkpt>
      <trkpt lat="50.48295" lon="3.02642">
        <ele>32</ele>
        <time>2012-02-05T08:27:09Z</time>
      </trkpt>
      <trkpt lat="50.48299" lon="3.02663">
        <ele>32</ele>
        <time>2012-02-05T08:27:12Z</time>
      </trkpt>
      <trkpt lat="50.48301" lon="3.02677">
        <ele>26</ele>
        <time>2012-02-05T08:27:14Z</time>
      </trkpt>
      <trkpt lat="50.48303" lon="3.02692">
        <ele>26</ele>
        <time>2012-02-05T08:27:16Z</time>
      </trkpt>
      <trkpt lat="50.48304" lon="3.02713">
        <ele>26</ele>
        <time>2012-02-05T08:27:19Z</time>
      </trkpt>
      <trkpt lat="50.48303" lon="3.02727">
        <ele>26</ele>
        <time>2012-02-05T08:27:21Z</time>
      </trkpt>
      <trkpt lat="50.48301" lon="3.02748">
        <ele>26</ele>
        <time>2012-02-05T08:27:24Z</time>
      </trkpt>
      <trkpt lat="50.48299" lon="3.02766">
        <ele>26</ele>
        <time>2012-02-05T08:27:27Z</time>
      </trkpt>
      <trkpt lat="50.48297" lon="3.02783">
        <ele>26</ele>
        <time>2012-02-05T08:27:30Z</time>
      </trkpt>
      <trkpt lat="50.48295" lon="3.028">
        <ele>26</ele>
        <time>2012-02-05T08:27:33Z</time>
      </trkpt>
      <trkpt lat="50.48293" lon="3.02818">
        <ele>26</ele>
        <time>2012-02-05T08:27:36Z</time>
      </trkpt>
      <trkpt lat="50.48291" lon="3.02833">
        <ele>26</ele>
        <time>2012-02-05T08:27:39Z</time>
      </trkpt>
      <trkpt lat="50.48287" lon="3.02847">
        <ele>26</ele>
        <time>2012-02-05T08:27:42Z</time>
      </trkpt>
      <trkpt lat="50.4828" lon="3.02862">
        <ele>26</ele>
        <time>2012-02-05T08:27:45Z</time>
      </trkpt>
      <trkpt lat="50.48279" lon="3.02877">
        <ele>26</ele>
        <time>2012-02-05T08:27:48Z</time>
      </trkpt>
      <trkpt lat="50.48279" lon="3.02896">
        <ele>31</ele>
        <time>2012-02-05T08:27:51Z</time>
      </trkpt>
      <trkpt lat="50.48268" lon="3.02901">
        <ele>31</ele>
        <time>2012-02-05T08:27:54Z</time>
      </trkpt>
      <trkpt lat="50.48258" lon="3.02911">
        <ele>31</ele>
        <time>2012-02-05T08:27:57Z</time>
      </trkpt>
      <trkpt lat="50.48249" lon="3.02916">
        <ele>31</ele>
        <time>2012-02-05T08:27:59Z</time>
      </trkpt>
      <trkpt lat="50.4824" lon="3.02921">
        <ele>31</ele>
        <time>2012-02-05T08:28:01Z</time>
      </trkpt>
      <trkpt lat="50.48229" lon="3.02927">
        <ele>25</ele>
        <time>2012-02-05T08:28:03Z</time>
      </trkpt>
      <trkpt lat="50.48221" lon="3.02934">
        <ele>25</ele>
        <time>2012-02-05T08:28:05Z</time>
      </trkpt>
      <trkpt lat="50.48211" lon="3.0294">
        <ele>25</ele>
        <time>2012-02-05T08:28:07Z</time>
      </trkpt>
      <trkpt lat="50.48202" lon="3.02947">
        <ele>25</ele>
        <time>2012-02-05T08:28:09Z</time>
      </trkpt>
      <trkpt lat="50.48193" lon="3.02954">
        <ele>25</ele>
        <time>2012-02-05T08:28:11Z</time>
      </trkpt>
      <trkpt lat="50.48184" lon="3.0296">
        <ele>25</ele>
        <time>2012-02-05T08:28:13Z</time>
      </trkpt>
      <trkpt lat="50.48174" lon="3.02968">
        <ele>25</ele>
        <time>2012-02-05T08:28:15Z</time>
      </trkpt>
      <trkpt lat="50.48166" lon="3.02975">
        <ele>25</ele>
        <time>2012-02-05T08:28:17Z</time>
      </trkpt>
      <trkpt lat="50.48156" lon="3.02981">
        <ele>25</ele>
        <time>2012-02-05T08:28:19Z</time>
      </trkpt>
      <trkpt lat="50.48147" lon="3.02989">
        <ele>25</ele>
        <time>2012-02-05T08:28:21Z</time>
      </trkpt>
      <trkpt lat="50.48138" lon="3.02996">
        <ele>25</ele>
        <time>2012-02-05T08:28:23Z</time>
      </trkpt>
      <trkpt lat="50.48128" lon="3.03003">
        <ele>25</ele>
        <time>2012-02-05T08:28:25Z</time>
      </trkpt>
      <trkpt lat="50.4812" lon="3.03011">
        <ele>25</ele>
        <time>2012-02-05T08:28:27Z</time>
      </trkpt>
      <trkpt lat="50.48111" lon="3.03015">
        <ele>25</ele>
        <time>2012-02-05T08:28:29Z</time>
      </trkpt>
      <trkpt lat="50.48101" lon="3.03021">
        <ele>25</ele>
        <time>2012-02-05T08:28:31Z</time>
      </trkpt>
      <trkpt lat="50.48092" lon="3.03027">
        <ele>25</ele>
        <time>2012-02-05T08:28:33Z</time>
      </trkpt>
      <trkpt lat="50.48081" lon="3.03036">
        <ele>25</ele>
        <time>2012-02-05T08:28:35Z</time>
      </trkpt>
      <trkpt lat="50.4807" lon="3.03043">
        <ele>25</ele>
        <time>2012-02-05T08:28:37Z</time>
      </trkpt>
      <trkpt lat="50.4806" lon="3.0305">
        <ele>25</ele>
        <time>2012-02-05T08:28:39Z</time>
      </trkpt>
      <trkpt lat="50.4805" lon="3.03057">
        <ele>25</ele>
        <time>2012-02-05T08:28:41Z</time>
      </trkpt>
      <trkpt lat="50.48041" lon="3.03062">
        <ele>25</ele>
        <time>2012-02-05T08:28:43Z</time>
      </trkpt>
      <trkpt lat="50.4803" lon="3.03066">
        <ele>25</ele>
        <time>2012-02-05T08:28:45Z</time>
      </trkpt>
      <trkpt lat="50.48019" lon="3.03062">
        <ele>25</ele>
        <time>2012-02-05T08:28:47Z</time>
      </trkpt>
      <trkpt lat="50.48009" lon="3.0306">
        <ele>25</ele>
        <time>2012-02-05T08:28:49Z</time>
      </trkpt>
      <trkpt lat="50.47999" lon="3.03052">
        <ele>25</ele>
        <time>2012-02-05T08:28:51Z</time>
      </trkpt>
      <trkpt lat="50.47991" lon="3.0304">
        <ele>25</ele>
        <time>2012-02-05T08:28:53Z</time>
      </trkpt>
      <trkpt lat="50.47985" lon="3.03025">
        <ele>25</ele>
        <time>2012-02-05T08:28:55Z</time>
      </trkpt>
      <trkpt lat="50.47979" lon="3.03008">
        <ele>25</ele>
        <time>2012-02-05T08:28:57Z</time>
      </trkpt>
      <trkpt lat="50.47974" lon="3.0299">
        <ele>25</ele>
        <time>2012-02-05T08:28:59Z</time>
      </trkpt>
      <trkpt lat="50.47967" lon="3.02971">
        <ele>25</ele>
        <time>2012-02-05T08:29:01Z</time>
      </trkpt>
      <trkpt lat="50.47961" lon="3.02951">
        <ele>25</ele>
        <time>2012-02-05T08:29:03Z</time>
      </trkpt>
      <trkpt lat="50.47956" lon="3.02933">
        <ele>25</ele>
        <time>2012-02-05T08:29:05Z</time>
      </trkpt>
      <trkpt lat="50.47949" lon="3.02913">
        <ele>25</ele>
        <time>2012-02-05T08:29:07Z</time>
      </trkpt>
      <trkpt lat="50.47943" lon="3.02892">
        <ele>25</ele>
        <time>2012-02-05T08:29:09Z</time>
      </trkpt>
      <trkpt lat="50.47935" lon="3.02873">
        <ele>25</ele>
        <time>2012-02-05T08:29:11Z</time>
      </trkpt>
      <trkpt lat="50.47928" lon="3.02857">
        <ele>25</ele>
        <time>2012-02-05T08:29:13Z</time>
      </trkpt>
      <trkpt lat="50.47921" lon="3.02841">
        <ele>25</ele>
        <time>2012-02-05T08:29:15Z</time>
      </trkpt>
      <trkpt lat="50.47914" lon="3.02822">
        <ele>25</ele>
        <time>2012-02-05T08:29:17Z</time>
      </trkpt>
      <trkpt lat="50.47907" lon="3.02803">
        <ele>25</ele>
        <time>2012-02-05T08:29:19Z</time>
      </trkpt>
      <trkpt lat="50.479" lon="3.02785">
        <ele>25</ele>
        <time>2012-02-05T08:29:21Z</time>
      </trkpt>
      <trkpt lat="50.47896" lon="3.02767">
        <ele>25</ele>
        <time>2012-02-05T08:29:23Z</time>
      </trkpt>
      <trkpt lat="50.47892" lon="3.02752">
        <ele>25</ele>
        <time>2012-02-05T08:29:25Z</time>
      </trkpt>
      <trkpt lat="50.47885" lon="3.02739">
        <ele>25</ele>
        <time>2012-02-05T08:29:29Z</time>
      </trkpt>
      <trkpt lat="50.47874" lon="3.02744">
        <ele>25</ele>
        <time>2012-02-05T08:29:33Z</time>
      </trkpt>
      <trkpt lat="50.47863" lon="3.02754">
        <ele>25</ele>
        <time>2012-02-05T08:29:36Z</time>
      </trkpt>
      <trkpt lat="50.47853" lon="3.0276">
        <ele>25</ele>
        <time>2012-02-05T08:29:38Z</time>
      </trkpt>
      <trkpt lat="50.47843" lon="3.02766">
        <ele>19</ele>
        <time>2012-02-05T08:29:40Z</time>
      </trkpt>
      <trkpt lat="50.47833" lon="3.02774">
        <ele>19</ele>
        <time>2012-02-05T08:29:42Z</time>
      </trkpt>
      <trkpt lat="50.47824" lon="3.0278">
        <ele>19</ele>
        <time>2012-02-05T08:29:44Z</time>
      </trkpt>
      <trkpt lat="50.47815" lon="3.02787">
        <ele>19</ele>
        <time>2012-02-05T08:29:46Z</time>
      </trkpt>
      <trkpt lat="50.47807" lon="3.02792">
        <ele>19</ele>
        <time>2012-02-05T08:29:48Z</time>
      </trkpt>
      <trkpt lat="50.47797" lon="3.028">
        <ele>19</ele>
        <time>2012-02-05T08:29:50Z</time>
      </trkpt>
      <trkpt lat="50.47787" lon="3.02807">
        <ele>19</ele>
        <time>2012-02-05T08:29:52Z</time>
      </trkpt>
      <trkpt lat="50.47778" lon="3.02814">
        <ele>19</ele>
        <time>2012-02-05T08:29:54Z</time>
      </trkpt>
      <trkpt lat="50.47769" lon="3.0282">
        <ele>19</ele>
        <time>2012-02-05T08:29:56Z</time>
      </trkpt>
      <trkpt lat="50.4776" lon="3.02827">
        <ele>19</ele>
        <time>2012-02-05T08:29:58Z</time>
      </trkpt>
      <trkpt lat="50.47749" lon="3.02835">
        <ele>19</ele>
        <time>2012-02-05T08:30:00Z</time>
      </trkpt>
      <trkpt lat="50.4774" lon="3.02843">
        <ele>19</ele>
        <time>2012-02-05T08:30:02Z</time>
      </trkpt>
      <trkpt lat="50.47732" lon="3.0285">
        <ele>19</ele>
        <time>2012-02-05T08:30:04Z</time>
      </trkpt>
      <trkpt lat="50.47723" lon="3.02858">
        <ele>19</ele>
        <time>2012-02-05T08:30:06Z</time>
      </trkpt>
      <trkpt lat="50.47716" lon="3.02867">
        <ele>19</ele>
        <time>2012-02-05T08:30:08Z</time>
      </trkpt>
      <trkpt lat="50.47704" lon="3.02873">
        <ele>19</ele>
        <time>2012-02-05T08:30:11Z</time>
      </trkpt>
      <trkpt lat="50.47693" lon="3.02866">
        <ele>19</ele>
        <time>2012-02-05T08:30:14Z</time>
      </trkpt>
      <trkpt lat="50.47689" lon="3.02847">
        <ele>19</ele>
        <time>2012-02-05T08:30:17Z</time>
      </trkpt>
      <trkpt lat="50.47689" lon="3.02831">
        <ele>19</ele>
        <time>2012-02-05T08:30:19Z</time>
      </trkpt>
      <trkpt lat="50.47691" lon="3.02815">
        <ele>26</ele>
        <time>2012-02-05T08:30:21Z</time>
      </trkpt>
      <trkpt lat="50.47693" lon="3.02798">
        <ele>26</ele>
        <time>2012-02-05T08:30:23Z</time>
      </trkpt>
      <trkpt lat="50.47695" lon="3.02781">
        <ele>26</ele>
        <time>2012-02-05T08:30:25Z</time>
      </trkpt>
      <trkpt lat="50.47695" lon="3.02764">
        <ele>26</ele>
        <time>2012-02-05T08:30:27Z</time>
      </trkpt>
      <trkpt lat="50.47696" lon="3.02747">
        <ele>26</ele>
        <time>2012-02-05T08:30:29Z</time>
      </trkpt>
      <trkpt lat="50.47697" lon="3.02731">
        <ele>26</ele>
        <time>2012-02-05T08:30:31Z</time>
      </trkpt>
      <trkpt lat="50.47698" lon="3.02713">
        <ele>26</ele>
        <time>2012-02-05T08:30:33Z</time>
      </trkpt>
      <trkpt lat="50.477" lon="3.02696">
        <ele>26</ele>
        <time>2012-02-05T08:30:35Z</time>
      </trkpt>
      <trkpt lat="50.47701" lon="3.02679">
        <ele>26</ele>
        <time>2012-02-05T08:30:37Z</time>
      </trkpt>
      <trkpt lat="50.47701" lon="3.02662">
        <ele>26</ele>
        <time>2012-02-05T08:30:39Z</time>
      </trkpt>
      <trkpt lat="50.477" lon="3.02643">
        <ele>26</ele>
        <time>2012-02-05T08:30:41Z</time>
      </trkpt>
      <trkpt lat="50.47698" lon="3.02625">
        <ele>26</ele>
        <time>2012-02-05T08:30:43Z</time>
      </trkpt>
      <trkpt lat="50.47693" lon="3.02607">
        <ele>26</ele>
        <time>2012-02-05T08:30:45Z</time>
      </trkpt>
      <trkpt lat="50.47688" lon="3.02589">
        <ele>26</ele>
        <time>2012-02-05T08:30:47Z</time>
      </trkpt>
      <trkpt lat="50.47682" lon="3.02573">
        <ele>26</ele>
        <time>2012-02-05T08:30:49Z</time>
      </trkpt>
      <trkpt lat="50.47678" lon="3.02557">
        <ele>26</ele>
        <time>2012-02-05T08:30:51Z</time>
      </trkpt>
      <trkpt lat="50.47674" lon="3.02541">
        <ele>26</ele>
        <time>2012-02-05T08:30:53Z</time>
      </trkpt>
      <trkpt lat="50.47669" lon="3.02525">
        <ele>26</ele>
        <time>2012-02-05T08:30:55Z</time>
      </trkpt>
      <trkpt lat="50.47663" lon="3.02509">
        <ele>26</ele>
        <time>2012-02-05T08:30:57Z</time>
      </trkpt>
      <trkpt lat="50.47657" lon="3.02491">
        <ele>26</ele>
        <time>2012-02-05T08:30:59Z</time>
      </trkpt>
      <trkpt lat="50.4765" lon="3.02473">
        <ele>26</ele>
        <time>2012-02-05T08:31:01Z</time>
      </trkpt>
      <trkpt lat="50.47644" lon="3.02458">
        <ele>26</ele>
        <time>2012-02-05T08:31:03Z</time>
      </trkpt>
      <trkpt lat="50.47639" lon="3.02441">
        <ele>26</ele>
        <time>2012-02-05T08:31:05Z</time>
      </trkpt>
      <trkpt lat="50.47634" lon="3.02422">
        <ele>26</ele>
        <time>2012-02-05T08:31:07Z</time>
      </trkpt>
      <trkpt lat="50.47628" lon="3.02404">
        <ele>26</ele>
        <time>2012-02-05T08:31:09Z</time>
      </trkpt>
      <trkpt lat="50.47623" lon="3.02386">
        <ele>26</ele>
        <time>2012-02-05T08:31:11Z</time>
      </trkpt>
      <trkpt lat="50.47615" lon="3.02368">
        <ele>26</ele>
        <time>2012-02-05T08:31:13Z</time>
      </trkpt>
      <trkpt lat="50.47607" lon="3.02351">
        <ele>26</ele>
        <time>2012-02-05T08:31:15Z</time>
      </trkpt>
      <trkpt lat="50.47598" lon="3.02334">
        <ele>26</ele>
        <time>2012-02-05T08:31:17Z</time>
      </trkpt>
      <trkpt lat="50.47592" lon="3.02319">
        <ele>26</ele>
        <time>2012-02-05T08:31:19Z</time>
      </trkpt>
      <trkpt lat="50.47585" lon="3.02304">
        <ele>26</ele>
        <time>2012-02-05T08:31:21Z</time>
      </trkpt>
      <trkpt lat="50.47577" lon="3.02287">
        <ele>26</ele>
        <time>2012-02-05T08:31:23Z</time>
      </trkpt>
      <trkpt lat="50.47571" lon="3.02271">
        <ele>26</ele>
        <time>2012-02-05T08:31:25Z</time>
      </trkpt>
      <trkpt lat="50.47564" lon="3.02256">
        <ele>26</ele>
        <time>2012-02-05T08:31:27Z</time>
      </trkpt>
      <trkpt lat="50.47558" lon="3.02243">
        <ele>26</ele>
        <time>2012-02-05T08:31:29Z</time>
      </trkpt>
      <trkpt lat="50.47549" lon="3.02235">
        <ele>26</ele>
        <time>2012-02-05T08:31:31Z</time>
      </trkpt>
      <trkpt lat="50.47537" lon="3.02227">
        <ele>26</ele>
        <time>2012-02-05T08:31:34Z</time>
      </trkpt>
      <trkpt lat="50.47529" lon="3.02223">
        <ele>26</ele>
        <time>2012-02-05T08:31:36Z</time>
      </trkpt>
      <trkpt lat="50.4752" lon="3.02218">
        <ele>26</ele>
        <time>2012-02-05T08:31:38Z</time>
      </trkpt>
      <trkpt lat="50.47509" lon="3.02211">
        <ele>26</ele>
        <time>2012-02-05T08:31:41Z</time>
      </trkpt>
      <trkpt lat="50.47502" lon="3.02202">
        <ele>26</ele>
        <time>2012-02-05T08:31:44Z</time>
      </trkpt>
      <trkpt lat="50.475" lon="3.02188">
        <ele>26</ele>
        <time>2012-02-05T08:31:47Z</time>
      </trkpt>
      <trkpt lat="50.475" lon="3.02173">
        <ele>26</ele>
        <time>2012-02-05T08:31:50Z</time>
      </trkpt>
      <trkpt lat="50.47499" lon="3.02156">
        <ele>26</ele>
        <time>2012-02-05T08:32:10Z</time>
      </trkpt>
      <trkpt lat="50.47497" lon="3.02139">
        <ele>26</ele>
        <time>2012-02-05T08:32:12Z</time>
      </trkpt>
      <trkpt lat="50.47493" lon="3.02122">
        <ele>26</ele>
        <time>2012-02-05T08:32:14Z</time>
      </trkpt>
      <trkpt lat="50.47489" lon="3.02104">
        <ele>26</ele>
        <time>2012-02-05T08:32:16Z</time>
      </trkpt>
      <trkpt lat="50.47483" lon="3.02086">
        <ele>26</ele>
        <time>2012-02-05T08:32:18Z</time>
      </trkpt>
      <trkpt lat="50.47478" lon="3.02068">
        <ele>26</ele>
        <time>2012-02-05T08:32:20Z</time>
      </trkpt>
      <trkpt lat="50.47472" lon="3.0205">
        <ele>26</ele>
        <time>2012-02-05T08:32:22Z</time>
      </trkpt>
      <trkpt lat="50.47466" lon="3.02033">
        <ele>26</ele>
        <time>2012-02-05T08:32:24Z</time>
      </trkpt>
      <trkpt lat="50.47459" lon="3.02015">
        <ele>26</ele>
        <time>2012-02-05T08:32:26Z</time>
      </trkpt>
      <trkpt lat="50.47453" lon="3.01998">
        <ele>26</ele>
        <time>2012-02-05T08:32:28Z</time>
      </trkpt>
      <trkpt lat="50.47446" lon="3.01981">
        <ele>26</ele>
        <time>2012-02-05T08:32:30Z</time>
      </trkpt>
      <trkpt lat="50.47439" lon="3.01964">
        <ele>26</ele>
        <time>2012-02-05T08:32:32Z</time>
      </trkpt>
      <trkpt lat="50.47433" lon="3.01947">
        <ele>26</ele>
        <time>2012-02-05T08:32:34Z</time>
      </trkpt>
      <trkpt lat="50.47427" lon="3.01931">
        <ele>26</ele>
        <time>2012-02-05T08:32:36Z</time>
      </trkpt>
      <trkpt lat="50.4742" lon="3.01914">
        <ele>26</ele>
        <time>2012-02-05T08:32:38Z</time>
      </trkpt>
      <trkpt lat="50.47414" lon="3.01897">
        <ele>26</ele>
        <time>2012-02-05T08:32:40Z</time>
      </trkpt>
      <trkpt lat="50.47407" lon="3.01881">
        <ele>26</ele>
        <time>2012-02-05T08:32:42Z</time>
      </trkpt>
      <trkpt lat="50.474" lon="3.01866">
        <ele>26</ele>
        <time>2012-02-05T08:32:44Z</time>
      </trkpt>
      <trkpt lat="50.47392" lon="3.01851">
        <ele>26</ele>
        <time>2012-02-05T08:32:46Z</time>
      </trkpt>
      <trkpt lat="50.47384" lon="3.01838">
        <ele>26</ele>
        <time>2012-02-05T08:32:48Z</time>
      </trkpt>
      <trkpt lat="50.47375" lon="3.01825">
        <ele>26</ele>
        <time>2012-02-05T08:32:50Z</time>
      </trkpt>
      <trkpt lat="50.47366" lon="3.01814">
        <ele>26</ele>
        <time>2012-02-05T08:32:52Z</time>
      </trkpt>
      <trkpt lat="50.47357" lon="3.01804">
        <ele>26</ele>
        <time>2012-02-05T08:32:54Z</time>
      </trkpt>
      <trkpt lat="50.47348" lon="3.01794">
        <ele>26</ele>
        <time>2012-02-05T08:32:56Z</time>
      </trkpt>
      <trkpt lat="50.4734" lon="3.01784">
        <ele>26</ele>
        <time>2012-02-05T08:32:58Z</time>
      </trkpt>
      <trkpt lat="50.47332" lon="3.01774">
        <ele>26</ele>
        <time>2012-02-05T08:33:00Z</time>
      </trkpt>
      <trkpt lat="50.47324" lon="3.01763">
        <ele>26</ele>
        <time>2012-02-05T08:33:02Z</time>
      </trkpt>
      <trkpt lat="50.47315" lon="3.0175">
        <ele>26</ele>
        <time>2012-02-05T08:33:04Z</time>
      </trkpt>
      <trkpt lat="50.47306" lon="3.01739">
        <ele>26</ele>
        <time>2012-02-05T08:33:06Z</time>
      </trkpt>
      <trkpt lat="50.47299" lon="3.01725">
        <ele>26</ele>
        <time>2012-02-05T08:33:08Z</time>
      </trkpt>
      <trkpt lat="50.47292" lon="3.01711">
        <ele>26</ele>
        <time>2012-02-05T08:33:10Z</time>
      </trkpt>
      <trkpt lat="50.47286" lon="3.01696">
        <ele>26</ele>
        <time>2012-02-05T08:33:12Z</time>
      </trkpt>
      <trkpt lat="50.47281" lon="3.0168">
        <ele>26</ele>
        <time>2012-02-05T08:33:14Z</time>
      </trkpt>
      <trkpt lat="50.47276" lon="3.01667">
        <ele>26</ele>
        <time>2012-02-05T08:33:16Z</time>
      </trkpt>
      <trkpt lat="50.47271" lon="3.01654">
        <ele>26</ele>
        <time>2012-02-05T08:33:18Z</time>
      </trkpt>
      <trkpt lat="50.47265" lon="3.01636">
        <ele>26</ele>
        <time>2012-02-05T08:33:21Z</time>
      </trkpt>
      <trkpt lat="50.47259" lon="3.01624">
        <ele>26</ele>
        <time>2012-02-05T08:33:24Z</time>
      </trkpt>
      <trkpt lat="50.47249" lon="3.01628">
        <ele>26</ele>
        <time>2012-02-05T08:33:27Z</time>
      </trkpt>
      <trkpt lat="50.47242" lon="3.01637">
        <ele>26</ele>
        <time>2012-02-05T08:33:29Z</time>
      </trkpt>
      <trkpt lat="50.47234" lon="3.01647">
        <ele>26</ele>
        <time>2012-02-05T08:33:31Z</time>
      </trkpt>
      <trkpt lat="50.47226" lon="3.01659">
        <ele>26</ele>
        <time>2012-02-05T08:33:33Z</time>
      </trkpt>
      <trkpt lat="50.47218" lon="3.0167">
        <ele>26</ele>
        <time>2012-02-05T08:33:35Z</time>
      </trkpt>
      <trkpt lat="50.4721" lon="3.01682">
        <ele>26</ele>
        <time>2012-02-05T08:33:37Z</time>
      </trkpt>
      <trkpt lat="50.47202" lon="3.01694">
        <ele>26</ele>
        <time>2012-02-05T08:33:39Z</time>
      </trkpt>
      <trkpt lat="50.47194" lon="3.01706">
        <ele>26</ele>
        <time>2012-02-05T08:33:41Z</time>
      </trkpt>
      <trkpt lat="50.47185" lon="3.01719">
        <ele>26</ele>
        <time>2012-02-05T08:33:43Z</time>
      </trkpt>
      <trkpt lat="50.47177" lon="3.01732">
        <ele>26</ele>
        <time>2012-02-05T08:33:45Z</time>
      </trkpt>
      <trkpt lat="50.47169" lon="3.01746">
        <ele>26</ele>
        <time>2012-02-05T08:33:47Z</time>
      </trkpt>
      <trkpt lat="50.47161" lon="3.01759">
        <ele>26</ele>
        <time>2012-02-05T08:33:49Z</time>
      </trkpt>
      <trkpt lat="50.47153" lon="3.01773">
        <ele>26</ele>
        <time>2012-02-05T08:33:51Z</time>
      </trkpt>
      <trkpt lat="50.47144" lon="3.01785">
        <ele>26</ele>
        <time>2012-02-05T08:33:53Z</time>
      </trkpt>
      <trkpt lat="50.47135" lon="3.01799">
        <ele>26</ele>
        <time>2012-02-05T08:33:55Z</time>
      </trkpt>
      <trkpt lat="50.47127" lon="3.01813">
        <ele>26</ele>
        <time>2012-02-05T08:33:57Z</time>
      </trkpt>
      <trkpt lat="50.47118" lon="3.01827">
        <ele>26</ele>
        <time>2012-02-05T08:33:59Z</time>
      </trkpt>
      <trkpt lat="50.4711" lon="3.0184">
        <ele>26</ele>
        <time>2012-02-05T08:34:01Z</time>
      </trkpt>
      <trkpt lat="50.47101" lon="3.01853">
        <ele>26</ele>
        <time>2012-02-05T08:34:03Z</time>
      </trkpt>
      <trkpt lat="50.47092" lon="3.01864">
        <ele>26</ele>
        <time>2012-02-05T08:34:05Z</time>
      </trkpt>
      <trkpt lat="50.47084" lon="3.01876">
        <ele>26</ele>
        <time>2012-02-05T08:34:07Z</time>
      </trkpt>
      <trkpt lat="50.47076" lon="3.01888">
        <ele>26</ele>
        <time>2012-02-05T08:34:09Z</time>
      </trkpt>
      <trkpt lat="50.47068" lon="3.019">
        <ele>26</ele>
        <time>2012-02-05T08:34:11Z</time>
      </trkpt>
      <trkpt lat="50.4706" lon="3.01911">
        <ele>26</ele>
        <time>2012-02-05T08:34:13Z</time>
      </trkpt>
      <trkpt lat="50.47052" lon="3.01924">
        <ele>26</ele>
        <time>2012-02-05T08:34:15Z</time>
      </trkpt>
      <trkpt lat="50.47044" lon="3.01935">
        <ele>26</ele>
        <time>2012-02-05T08:34:17Z</time>
      </trkpt>
      <trkpt lat="50.47035" lon="3.01947">
        <ele>26</ele>
        <time>2012-02-05T08:34:19Z</time>
      </trkpt>
      <trkpt lat="50.47027" lon="3.01959">
        <ele>26</ele>
        <time>2012-02-05T08:34:21Z</time>
      </trkpt>
      <trkpt lat="50.47019" lon="3.01971">
        <ele>26</ele>
        <time>2012-02-05T08:34:23Z</time>
      </trkpt>
      <trkpt lat="50.47011" lon="3.01984">
        <ele>26</ele>
        <time>2012-02-05T08:34:25Z</time>
      </trkpt>
      <trkpt lat="50.47002" lon="3.01996">
        <ele>26</ele>
        <time>2012-02-05T08:34:27Z</time>
      </trkpt>
      <trkpt lat="50.46994" lon="3.02008">
        <ele>26</ele>
        <time>2012-02-05T08:34:29Z</time>
      </trkpt>
      <trkpt lat="50.46985" lon="3.02021">
        <ele>26</ele>
        <time>2012-02-05T08:34:31Z</time>
      </trkpt>
      <trkpt lat="50.46976" lon="3.02034">
        <ele>26</ele>
        <time>2012-02-05T08:34:33Z</time>
      </trkpt>
      <trkpt lat="50.46967" lon="3.02047">
        <ele>26</ele>
        <time>2012-02-05T08:34:35Z</time>
      </trkpt>
      <trkpt lat="50.46958" lon="3.02059">
        <ele>26</ele>
        <time>2012-02-05T08:34:37Z</time>
      </trkpt>
      <trkpt lat="50.4695" lon="3.02073">
        <ele>26</ele>
        <time>2012-02-05T08:34:39Z</time>
      </trkpt>
      <trkpt lat="50.46942" lon="3.02085">
        <ele>26</ele>
        <time>2012-02-05T08:34:41Z</time>
      </trkpt>
      <trkpt lat="50.46933" lon="3.02097">
        <ele>26</ele>
        <time>2012-02-05T08:34:43Z</time>
      </trkpt>
      <trkpt lat="50.46924" lon="3.0211">
        <ele>26</ele>
        <time>2012-02-05T08:34:45Z</time>
      </trkpt>
      <trkpt lat="50.46916" lon="3.02122">
        <ele>26</ele>
        <time>2012-02-05T08:34:47Z</time>
      </trkpt>
      <trkpt lat="50.46908" lon="3.02136">
        <ele>26</ele>
        <time>2012-02-05T08:34:49Z</time>
      </trkpt>
      <trkpt lat="50.469" lon="3.02148">
        <ele>26</ele>
        <time>2012-02-05T08:34:51Z</time>
      </trkpt>
      <trkpt lat="50.46892" lon="3.02162">
        <ele>26</ele>
        <time>2012-02-05T08:34:53Z</time>
      </trkpt>
      <trkpt lat="50.46884" lon="3.02174">
        <ele>26</ele>
        <time>2012-02-05T08:34:55Z</time>
      </trkpt>
      <trkpt lat="50.46877" lon="3.02188">
        <ele>26</ele>
        <time>2012-02-05T08:34:57Z</time>
      </trkpt>
      <trkpt lat="50.46869" lon="3.02201">
        <ele>26</ele>
        <time>2012-02-05T08:34:59Z</time>
      </trkpt>
      <trkpt lat="50.46863" lon="3.02215">
        <ele>26</ele>
        <time>2012-02-05T08:35:01Z</time>
      </trkpt>
      <trkpt lat="50.46856" lon="3.02228">
        <ele>26</ele>
        <time>2012-02-05T08:35:03Z</time>
      </trkpt>
      <trkpt lat="50.46849" lon="3.02242">
        <ele>26</ele>
        <time>2012-02-05T08:35:05Z</time>
      </trkpt>
      <trkpt lat="50.46843" lon="3.02255">
        <ele>26</ele>
        <time>2012-02-05T08:35:07Z</time>
      </trkpt>
      <trkpt lat="50.46836" lon="3.02269">
        <ele>26</ele>
        <time>2012-02-05T08:35:09Z</time>
      </trkpt>
      <trkpt lat="50.46829" lon="3.02282">
        <ele>26</ele>
        <time>2012-02-05T08:35:11Z</time>
      </trkpt>
      <trkpt lat="50.46824" lon="3.02297">
        <ele>26</ele>
        <time>2012-02-05T08:35:13Z</time>
      </trkpt>
      <trkpt lat="50.46817" lon="3.02311">
        <ele>26</ele>
        <time>2012-02-05T08:35:15Z</time>
      </trkpt>
      <trkpt lat="50.4681" lon="3.02324">
        <ele>26</ele>
        <time>2012-02-05T08:35:17Z</time>
      </trkpt>
      <trkpt lat="50.46804" lon="3.02339">
        <ele>26</ele>
        <time>2012-02-05T08:35:19Z</time>
      </trkpt>
      <trkpt lat="50.46798" lon="3.02354">
        <ele>26</ele>
        <time>2012-02-05T08:35:21Z</time>
      </trkpt>
      <trkpt lat="50.46791" lon="3.02368">
        <ele>26</ele>
        <time>2012-02-05T08:35:23Z</time>
      </trkpt>
      <trkpt lat="50.46784" lon="3.02384">
        <ele>26</ele>
        <time>2012-02-05T08:35:25Z</time>
      </trkpt>
      <trkpt lat="50.46778" lon="3.02398">
        <ele>26</ele>
        <time>2012-02-05T08:35:27Z</time>
      </trkpt>
      <trkpt lat="50.46771" lon="3.02413">
        <ele>26</ele>
        <time>2012-02-05T08:35:29Z</time>
      </trkpt>
      <trkpt lat="50.46764" lon="3.02427">
        <ele>26</ele>
        <time>2012-02-05T08:35:31Z</time>
      </trkpt>
      <trkpt lat="50.46758" lon="3.02441">
        <ele>26</ele>
        <time>2012-02-05T08:35:33Z</time>
      </trkpt>
      <trkpt lat="50.46752" lon="3.02456">
        <ele>26</ele>
        <time>2012-02-05T08:35:35Z</time>
      </trkpt>
      <trkpt lat="50.46746" lon="3.02469">
        <ele>26</ele>
        <time>2012-02-05T08:35:37Z</time>
      </trkpt>
      <trkpt lat="50.46741" lon="3.02482">
        <ele>26</ele>
        <time>2012-02-05T08:35:39Z</time>
      </trkpt>
      <trkpt lat="50.46735" lon="3.02499">
        <ele>26</ele>
        <time>2012-02-05T08:35:42Z</time>
      </trkpt>
      <trkpt lat="50.46735" lon="3.02515">
        <ele>26</ele>
        <time>2012-02-05T08:35:45Z</time>
      </trkpt>
      <trkpt lat="50.46744" lon="3.02517">
        <ele>26</ele>
        <time>2012-02-05T08:35:50Z</time>
      </trkpt>
      <trkpt lat="50.46754" lon="3.02525">
        <ele>26</ele>
        <time>2012-02-05T08:35:53Z</time>
      </trkpt>
      <trkpt lat="50.46763" lon="3.02534">
        <ele>26</ele>
        <time>2012-02-05T08:35:55Z</time>
      </trkpt>
      <trkpt lat="50.46771" lon="3.02541">
        <ele>26</ele>
        <time>2012-02-05T08:35:57Z</time>
      </trkpt>
      <trkpt lat="50.46781" lon="3.02551">
        <ele>26</ele>
        <time>2012-02-05T08:36:00Z</time>
      </trkpt>
      <trkpt lat="50.46789" lon="3.02564">
        <ele>26</ele>
        <time>2012-02-05T08:36:03Z</time>
      </trkpt>
      <trkpt lat="50.46794" lon="3.02581">
        <ele>26</ele>
        <time>2012-02-05T08:36:06Z</time>
      </trkpt>
      <trkpt lat="50.46802" lon="3.02597">
        <ele>26</ele>
        <time>2012-02-05T08:36:09Z</time>
      </trkpt>
      <trkpt lat="50.4681" lon="3.0261">
        <ele>26</ele>
        <time>2012-02-05T08:36:12Z</time>
      </trkpt>
      <trkpt lat="50.46818" lon="3.02621">
        <ele>26</ele>
        <time>2012-02-05T08:36:15Z</time>
      </trkpt>
      <trkpt lat="50.46827" lon="3.02621">
        <ele>26</ele>
        <time>2012-02-05T08:36:18Z</time>
      </trkpt>
      <trkpt lat="50.46837" lon="3.02629">
        <ele>26</ele>
        <time>2012-02-05T08:36:21Z</time>
      </trkpt>
      <trkpt lat="50.46844" lon="3.02644">
        <ele>26</ele>
        <time>2012-02-05T08:36:23Z</time>
      </trkpt>
      <trkpt lat="50.46849" lon="3.02658">
        <ele>26</ele>
        <time>2012-02-05T08:36:25Z</time>
      </trkpt>
      <trkpt lat="50.46855" lon="3.02669">
        <ele>26</ele>
        <time>2012-02-05T08:36:27Z</time>
      </trkpt>
      <trkpt lat="50.46863" lon="3.02684">
        <ele>26</ele>
        <time>2012-02-05T08:36:30Z</time>
      </trkpt>
      <trkpt lat="50.46869" lon="3.02695">
        <ele>26</ele>
        <time>2012-02-05T08:36:32Z</time>
      </trkpt>
      <trkpt lat="50.46875" lon="3.02705">
        <ele>26</ele>
        <time>2012-02-05T08:36:34Z</time>
      </trkpt>
      <trkpt lat="50.46881" lon="3.02717">
        <ele>26</ele>
        <time>2012-02-05T08:36:36Z</time>
      </trkpt>
      <trkpt lat="50.46887" lon="3.02729">
        <ele>26</ele>
        <time>2012-02-05T08:36:38Z</time>
      </trkpt>
      <trkpt lat="50.46893" lon="3.0274">
        <ele>26</ele>
        <time>2012-02-05T08:36:40Z</time>
      </trkpt>
      <trkpt lat="50.46899" lon="3.02753">
        <ele>26</ele>
        <time>2012-02-05T08:36:42Z</time>
      </trkpt>
      <trkpt lat="50.46906" lon="3.02766">
        <ele>26</ele>
        <time>2012-02-05T08:36:44Z</time>
      </trkpt>
      <trkpt lat="50.46912" lon="3.02776">
        <ele>26</ele>
        <time>2012-02-05T08:36:46Z</time>
      </trkpt>
      <trkpt lat="50.46918" lon="3.02787">
        <ele>26</ele>
        <time>2012-02-05T08:36:48Z</time>
      </trkpt>
      <trkpt lat="50.46925" lon="3.02799">
        <ele>26</ele>
        <time>2012-02-05T08:36:50Z</time>
      </trkpt>
      <trkpt lat="50.46931" lon="3.02811">
        <ele>26</ele>
        <time>2012-02-05T08:36:52Z</time>
      </trkpt>
      <trkpt lat="50.46937" lon="3.02824">
        <ele>26</ele>
        <time>2012-02-05T08:36:54Z</time>
      </trkpt>
      <trkpt lat="50.46946" lon="3.02835">
        <ele>26</ele>
        <time>2012-02-05T08:36:57Z</time>
      </trkpt>
      <trkpt lat="50.46955" lon="3.02845">
        <ele>26</ele>
        <time>2012-02-05T08:37:01Z</time>
      </trkpt>
      <trkpt lat="50.46959" lon="3.02858">
        <ele>26</ele>
        <time>2012-02-05T08:37:04Z</time>
      </trkpt>
      <trkpt lat="50.46963" lon="3.02873">
        <ele>26</ele>
        <time>2012-02-05T08:37:08Z</time>
      </trkpt>
      <trkpt lat="50.46968" lon="3.02889">
        <ele>26</ele>
        <time>2012-02-05T08:37:14Z</time>
      </trkpt>
      <trkpt lat="50.46965" lon="3.02907">
        <ele>26</ele>
        <time>2012-02-05T08:37:17Z</time>
      </trkpt>
      <trkpt lat="50.46969" lon="3.02922">
        <ele>26</ele>
        <time>2012-02-05T08:37:20Z</time>
      </trkpt>
      <trkpt lat="50.46976" lon="3.02933">
        <ele>26</ele>
        <time>2012-02-05T08:37:23Z</time>
      </trkpt>
      <trkpt lat="50.46984" lon="3.02946">
        <ele>26</ele>
        <time>2012-02-05T08:37:26Z</time>
      </trkpt>
      <trkpt lat="50.4699" lon="3.02959">
        <ele>26</ele>
        <time>2012-02-05T08:37:29Z</time>
      </trkpt>
      <trkpt lat="50.46997" lon="3.02971">
        <ele>26</ele>
        <time>2012-02-05T08:37:32Z</time>
      </trkpt>
      <trkpt lat="50.47002" lon="3.02982">
        <ele>26</ele>
        <time>2012-02-05T08:37:35Z</time>
      </trkpt>
      <trkpt lat="50.47009" lon="3.02994">
        <ele>26</ele>
        <time>2012-02-05T08:37:38Z</time>
      </trkpt>
      <trkpt lat="50.47015" lon="3.03005">
        <ele>26</ele>
        <time>2012-02-05T08:37:41Z</time>
      </trkpt>
      <trkpt lat="50.47023" lon="3.03017">
        <ele>26</ele>
        <time>2012-02-05T08:37:44Z</time>
      </trkpt>
      <trkpt lat="50.47031" lon="3.0303">
        <ele>26</ele>
        <time>2012-02-05T08:37:47Z</time>
      </trkpt>
      <trkpt lat="50.47037" lon="3.0304">
        <ele>26</ele>
        <time>2012-02-05T08:37:50Z</time>
      </trkpt>
      <trkpt lat="50.47044" lon="3.03051">
        <ele>26</ele>
        <time>2012-02-05T08:37:53Z</time>
      </trkpt>
      <trkpt lat="50.4705" lon="3.03061">
        <ele>26</ele>
        <time>2012-02-05T08:37:57Z</time>
      </trkpt>
      <trkpt lat="50.47057" lon="3.03074">
        <ele>26</ele>
        <time>2012-02-05T08:38:02Z</time>
      </trkpt>
      <trkpt lat="50.47062" lon="3.03086">
        <ele>26</ele>
        <time>2012-02-05T08:38:08Z</time>
      </trkpt>
      <trkpt lat="50.47065" lon="3.031">
        <ele>26</ele>
        <time>2012-02-05T08:38:15Z</time>
      </trkpt>
      <trkpt lat="50.47068" lon="3.03114">
        <ele>26</ele>
        <time>2012-02-05T08:38:21Z</time>
      </trkpt>
      <trkpt lat="50.47069" lon="3.03129">
        <ele>31</ele>
        <time>2012-02-05T08:38:27Z</time>
      </trkpt>
      <trkpt lat="50.47068" lon="3.03144">
        <ele>31</ele>
        <time>2012-02-05T08:38:34Z</time>
      </trkpt>
      <trkpt lat="50.47065" lon="3.03157">
        <ele>38</ele>
        <time>2012-02-05T08:38:59Z</time>
      </trkpt>
      <trkpt lat="50.47059" lon="3.03168">
        <ele>38</ele>
        <time>2012-02-05T08:39:09Z</time>
      </trkpt>
      <trkpt lat="50.47052" lon="3.03177">
        <ele>38</ele>
        <time>2012-02-05T08:39:21Z</time>
      </trkpt>
      <trkpt lat="50.47046" lon="3.0319">
        <ele>44</ele>
        <time>2012-02-05T08:39:27Z</time>
      </trkpt>
      <trkpt lat="50.47039" lon="3.03203">
        <ele>44</ele>
        <time>2012-02-05T08:39:33Z</time>
      </trkpt>
      <trkpt lat="50.47034" lon="3.03216">
        <ele>44</ele>
        <time>2012-02-05T08:39:38Z</time>
      </trkpt>
      <trkpt lat="50.47028" lon="3.03226">
        <ele>44</ele>
        <time>2012-02-05T08:39:43Z</time>
      </trkpt>
      <trkpt lat="50.4702" lon="3.03234">
        <ele>44</ele>
        <time>2012-02-05T08:39:47Z</time>
      </trkpt>
      <trkpt lat="50.47009" lon="3.03242">
        <ele>44</ele>
        <time>2012-02-05T08:39:50Z</time>
      </trkpt>
      <trkpt lat="50.46998" lon="3.0325">
        <ele>44</ele>
        <time>2012-02-05T08:39:53Z</time>
      </trkpt>
      <trkpt lat="50.46989" lon="3.0326">
        <ele>44</ele>
        <time>2012-02-05T08:39:55Z</time>
      </trkpt>
      <trkpt lat="50.46976" lon="3.03274">
        <ele>44</ele>
        <time>2012-02-05T08:39:57Z</time>
      </trkpt>
      <trkpt lat="50.46968" lon="3.03283">
        <ele>44</ele>
        <time>2012-02-05T08:39:58Z</time>
      </trkpt>
      <trkpt lat="50.4696" lon="3.0329">
        <ele>38</ele>
        <time>2012-02-05T08:39:59Z</time>
      </trkpt>
      <trkpt lat="50.46953" lon="3.03299">
        <ele>38</ele>
        <time>2012-02-05T08:40:00Z</time>
      </trkpt>
      <trkpt lat="50.46946" lon="3.03308">
        <ele>38</ele>
        <time>2012-02-05T08:40:01Z</time>
      </trkpt>
      <trkpt lat="50.46936" lon="3.03327">
        <ele>38</ele>
        <time>2012-02-05T08:40:03Z</time>
      </trkpt>
      <trkpt lat="50.46933" lon="3.03345">
        <ele>38</ele>
        <time>2012-02-05T08:40:05Z</time>
      </trkpt>
      <trkpt lat="50.46934" lon="3.03361">
        <ele>38</ele>
        <time>2012-02-05T08:40:07Z</time>
      </trkpt>
      <trkpt lat="50.46938" lon="3.03377">
        <ele>38</ele>
        <time>2012-02-05T08:40:09Z</time>
      </trkpt>
      <trkpt lat="50.46944" lon="3.03391">
        <ele>38</ele>
        <time>2012-02-05T08:40:11Z</time>
      </trkpt>
      <trkpt lat="50.4695" lon="3.03402">
        <ele>38</ele>
        <time>2012-02-05T08:40:13Z</time>
      </trkpt>
      <trkpt lat="50.46953" lon="3.03417">
        <ele>38</ele>
        <time>2012-02-05T08:40:15Z</time>
      </trkpt>
      <trkpt lat="50.46949" lon="3.03433">
        <ele>38</ele>
        <time>2012-02-05T08:40:17Z</time>
      </trkpt>
      <trkpt lat="50.46938" lon="3.03441">
        <ele>32</ele>
        <time>2012-02-05T08:40:20Z</time>
      </trkpt>
      <trkpt lat="50.4693" lon="3.03447">
        <ele>32</ele>
        <time>2012-02-05T08:40:22Z</time>
      </trkpt>
      <trkpt lat="50.46922" lon="3.03456">
        <ele>32</ele>
        <time>2012-02-05T08:40:24Z</time>
      </trkpt>
      <trkpt lat="50.46914" lon="3.03464">
        <ele>32</ele>
        <time>2012-02-05T08:40:26Z</time>
      </trkpt>
      <trkpt lat="50.46904" lon="3.03472">
        <ele>32</ele>
        <time>2012-02-05T08:40:28Z</time>
      </trkpt>
      <trkpt lat="50.46896" lon="3.03481">
        <ele>32</ele>
        <time>2012-02-05T08:40:30Z</time>
      </trkpt>
      <trkpt lat="50.46888" lon="3.0349">
        <ele>32</ele>
        <time>2012-02-05T08:40:32Z</time>
      </trkpt>
      <trkpt lat="50.46879" lon="3.03496">
        <ele>32</ele>
        <time>2012-02-05T08:40:34Z</time>
      </trkpt>
      <trkpt lat="50.46865" lon="3.03491">
        <ele>32</ele>
        <time>2012-02-05T08:40:37Z</time>
      </trkpt>
      <trkpt lat="50.46857" lon="3.03478">
        <ele>32</ele>
        <time>2012-02-05T08:40:39Z</time>
      </trkpt>
      <trkpt lat="50.46849" lon="3.03462">
        <ele>32</ele>
        <time>2012-02-05T08:40:41Z</time>
      </trkpt>
      <trkpt lat="50.46842" lon="3.03451">
        <ele>32</ele>
        <time>2012-02-05T08:40:43Z</time>
      </trkpt>
      <trkpt lat="50.46833" lon="3.03442">
        <ele>32</ele>
        <time>2012-02-05T08:40:46Z</time>
      </trkpt>
      <trkpt lat="50.46825" lon="3.03436">
        <ele>32</ele>
        <time>2012-02-05T08:40:48Z</time>
      </trkpt>
      <trkpt lat="50.46816" lon="3.03429">
        <ele>32</ele>
        <time>2012-02-05T08:40:50Z</time>
      </trkpt>
      <trkpt lat="50.46804" lon="3.03423">
        <ele>32</ele>
        <time>2012-02-05T08:40:53Z</time>
      </trkpt>
      <trkpt lat="50.46794" lon="3.03415">
        <ele>32</ele>
        <time>2012-02-05T08:40:55Z</time>
      </trkpt>
      <trkpt lat="50.46785" lon="3.03407">
        <ele>32</ele>
        <time>2012-02-05T08:40:57Z</time>
      </trkpt>
      <trkpt lat="50.46775" lon="3.03398">
        <ele>32</ele>
        <time>2012-02-05T08:40:59Z</time>
      </trkpt>
      <trkpt lat="50.46766" lon="3.03389">
        <ele>32</ele>
        <time>2012-02-05T08:41:01Z</time>
      </trkpt>
      <trkpt lat="50.46756" lon="3.0338">
        <ele>32</ele>
        <time>2012-02-05T08:41:03Z</time>
      </trkpt>
      <trkpt lat="50.46746" lon="3.03371">
        <ele>32</ele>
        <time>2012-02-05T08:41:05Z</time>
      </trkpt>
      <trkpt lat="50.46736" lon="3.03359">
        <ele>32</ele>
        <time>2012-02-05T08:41:07Z</time>
      </trkpt>
      <trkpt lat="50.46726" lon="3.03348">
        <ele>32</ele>
        <time>2012-02-05T08:41:09Z</time>
      </trkpt>
      <trkpt lat="50.46716" lon="3.03335">
        <ele>32</ele>
        <time>2012-02-05T08:41:11Z</time>
      </trkpt>
      <trkpt lat="50.46705" lon="3.03322">
        <ele>32</ele>
        <time>2012-02-05T08:41:13Z</time>
      </trkpt>
      <trkpt lat="50.46695" lon="3.03308">
        <ele>27</ele>
        <time>2012-02-05T08:41:15Z</time>
      </trkpt>
      <trkpt lat="50.46683" lon="3.03294">
        <ele>27</ele>
        <time>2012-02-05T08:41:17Z</time>
      </trkpt>
      <trkpt lat="50.4667" lon="3.03278">
        <ele>27</ele>
        <time>2012-02-05T08:41:19Z</time>
      </trkpt>
      <trkpt lat="50.4666" lon="3.03265">
        <ele>27</ele>
        <time>2012-02-05T08:41:21Z</time>
      </trkpt>
      <trkpt lat="50.46649" lon="3.03252">
        <ele>27</ele>
        <time>2012-02-05T08:41:23Z</time>
      </trkpt>
      <trkpt lat="50.46638" lon="3.0324">
        <ele>27</ele>
        <time>2012-02-05T08:41:25Z</time>
      </trkpt>
      <trkpt lat="50.46629" lon="3.03228">
        <ele>27</ele>
        <time>2012-02-05T08:41:27Z</time>
      </trkpt>
      <trkpt lat="50.4662" lon="3.03217">
        <ele>27</ele>
        <time>2012-02-05T08:41:29Z</time>
      </trkpt>
      <trkpt lat="50.46611" lon="3.03208">
        <ele>27</ele>
        <time>2012-02-05T08:41:31Z</time>
      </trkpt>
      <trkpt lat="50.46602" lon="3.03198">
        <ele>27</ele>
        <time>2012-02-05T08:41:33Z</time>
      </trkpt>
      <trkpt lat="50.46591" lon="3.03188">
        <ele>27</ele>
        <time>2012-02-05T08:41:35Z</time>
      </trkpt>
      <trkpt lat="50.46581" lon="3.03177">
        <ele>27</ele>
        <time>2012-02-05T08:41:37Z</time>
      </trkpt>
      <trkpt lat="50.46572" lon="3.03167">
        <ele>27</ele>
        <time>2012-02-05T08:41:39Z</time>
      </trkpt>
      <trkpt lat="50.46563" lon="3.03155">
        <ele>27</ele>
        <time>2012-02-05T08:41:42Z</time>
      </trkpt>
      <trkpt lat="50.46556" lon="3.03146">
        <ele>27</ele>
        <time>2012-02-05T08:41:50Z</time>
      </trkpt>
      <trkpt lat="50.46547" lon="3.0315">
        <ele>27</ele>
        <time>2012-02-05T08:41:57Z</time>
      </trkpt>
      <trkpt lat="50.46537" lon="3.03155">
        <ele>27</ele>
        <time>2012-02-05T08:42:00Z</time>
      </trkpt>
      <trkpt lat="50.46531" lon="3.03164">
        <ele>27</ele>
        <time>2012-02-05T08:42:05Z</time>
      </trkpt>
      <trkpt lat="50.46525" lon="3.03175">
        <ele>27</ele>
        <time>2012-02-05T08:42:16Z</time>
      </trkpt>
      <trkpt lat="50.4652" lon="3.03188">
        <ele>27</ele>
        <time>2012-02-05T08:42:39Z</time>
      </trkpt>
      <trkpt lat="50.46514" lon="3.03199">
        <ele>27</ele>
        <time>2012-02-05T08:42:43Z</time>
      </trkpt>
      <trkpt lat="50.46507" lon="3.0321">
        <ele>27</ele>
        <time>2012-02-05T08:42:47Z</time>
      </trkpt>
      <trkpt lat="50.46498" lon="3.03221">
        <ele>27</ele>
        <time>2012-02-05T08:42:51Z</time>
      </trkpt>
      <trkpt lat="50.46489" lon="3.03233">
        <ele>27</ele>
        <time>2012-02-05T08:42:54Z</time>
      </trkpt>
      <trkpt lat="50.46481" lon="3.03241">
        <ele>27</ele>
        <time>2012-02-05T08:42:56Z</time>
      </trkpt>
      <trkpt lat="50.46471" lon="3.03244">
        <ele>27</ele>
        <time>2012-02-05T08:42:58Z</time>
      </trkpt>
      <trkpt lat="50.46461" lon="3.03244">
        <ele>27</ele>
        <time>2012-02-05T08:43:00Z</time>
      </trkpt>
      <trkpt lat="50.46451" lon="3.03243">
        <ele>27</ele>
        <time>2012-02-05T08:43:02Z</time>
      </trkpt>
      <trkpt lat="50.46442" lon="3.03243">
        <ele>27</ele>
        <time>2012-02-05T08:43:04Z</time>
      </trkpt>
      <trkpt lat="50.46434" lon="3.03249">
        <ele>27</ele>
        <time>2012-02-05T08:43:06Z</time>
      </trkpt>
      <trkpt lat="50.46426" lon="3.03257">
        <ele>27</ele>
        <time>2012-02-05T08:43:08Z</time>
      </trkpt>
      <trkpt lat="50.46416" lon="3.03261">
        <ele>27</ele>
        <time>2012-02-05T08:43:10Z</time>
      </trkpt>
      <trkpt lat="50.46405" lon="3.03264">
        <ele>27</ele>
        <time>2012-02-05T08:43:12Z</time>
      </trkpt>
      <trkpt lat="50.46396" lon="3.03269">
        <ele>27</ele>
        <time>2012-02-05T08:43:14Z</time>
      </trkpt>
      <trkpt lat="50.46389" lon="3.03281">
        <ele>27</ele>
        <time>2012-02-05T08:43:16Z</time>
      </trkpt>
      <trkpt lat="50.46384" lon="3.03296">
        <ele>27</ele>
        <time>2012-02-05T08:43:18Z</time>
      </trkpt>
      <trkpt lat="50.4638" lon="3.03311">
        <ele>27</ele>
        <time>2012-02-05T08:43:20Z</time>
      </trkpt>
      <trkpt lat="50.46375" lon="3.03325">
        <ele>27</ele>
        <time>2012-02-05T08:43:22Z</time>
      </trkpt>
      <trkpt lat="50.4637" lon="3.03338">
        <ele>27</ele>
        <time>2012-02-05T08:43:24Z</time>
      </trkpt>
      <trkpt lat="50.46364" lon="3.0335">
        <ele>27</ele>
        <time>2012-02-05T08:43:26Z</time>
      </trkpt>
      <trkpt lat="50.46359" lon="3.03363">
        <ele>27</ele>
        <time>2012-02-05T08:43:28Z</time>
      </trkpt>
      <trkpt lat="50.46352" lon="3.03381">
        <ele>27</ele>
        <time>2012-02-05T08:43:31Z</time>
      </trkpt>
      <trkpt lat="50.46348" lon="3.03393">
        <ele>27</ele>
        <time>2012-02-05T08:43:33Z</time>
      </trkpt>
      <trkpt lat="50.46341" lon="3.03411">
        <ele>27</ele>
        <time>2012-02-05T08:43:36Z</time>
      </trkpt>
      <trkpt lat="50.46333" lon="3.03427">
        <ele>27</ele>
        <time>2012-02-05T08:43:39Z</time>
      </trkpt>
      <trkpt lat="50.46322" lon="3.03437">
        <ele>27</ele>
        <time>2012-02-05T08:43:42Z</time>
      </trkpt>
      <trkpt lat="50.46313" lon="3.03437">
        <ele>27</ele>
        <time>2012-02-05T08:43:45Z</time>
      </trkpt>
      <trkpt lat="50.46305" lon="3.03428">
        <ele>27</ele>
        <time>2012-02-05T08:43:48Z</time>
      </trkpt>
      <trkpt lat="50.46297" lon="3.03417">
        <ele>27</ele>
        <time>2012-02-05T08:43:51Z</time>
      </trkpt>
      <trkpt lat="50.46287" lon="3.03413">
        <ele>27</ele>
        <time>2012-02-05T08:43:54Z</time>
      </trkpt>
      <trkpt lat="50.46279" lon="3.03428">
        <ele>27</ele>
        <time>2012-02-05T08:43:57Z</time>
      </trkpt>
      <trkpt lat="50.46273" lon="3.0344">
        <ele>27</ele>
        <time>2012-02-05T08:43:59Z</time>
      </trkpt>
      <trkpt lat="50.46267" lon="3.03454">
        <ele>27</ele>
        <time>2012-02-05T08:44:01Z</time>
      </trkpt>
      <trkpt lat="50.46261" lon="3.03467">
        <ele>27</ele>
        <time>2012-02-05T08:44:03Z</time>
      </trkpt>
      <trkpt lat="50.46254" lon="3.03481">
        <ele>27</ele>
        <time>2012-02-05T08:44:05Z</time>
      </trkpt>
      <trkpt lat="50.46247" lon="3.03494">
        <ele>27</ele>
        <time>2012-02-05T08:44:07Z</time>
      </trkpt>
      <trkpt lat="50.46241" lon="3.03508">
        <ele>27</ele>
        <time>2012-02-05T08:44:09Z</time>
      </trkpt>
      <trkpt lat="50.46235" lon="3.03522">
        <ele>27</ele>
        <time>2012-02-05T08:44:11Z</time>
      </trkpt>
      <trkpt lat="50.46231" lon="3.03537">
        <ele>27</ele>
        <time>2012-02-05T08:44:13Z</time>
      </trkpt>
      <trkpt lat="50.46226" lon="3.03552">
        <ele>27</ele>
        <time>2012-02-05T08:44:15Z</time>
      </trkpt>
      <trkpt lat="50.46219" lon="3.03566">
        <ele>27</ele>
        <time>2012-02-05T08:44:17Z</time>
      </trkpt>
      <trkpt lat="50.46212" lon="3.03579">
        <ele>27</ele>
        <time>2012-02-05T08:44:19Z</time>
      </trkpt>
      <trkpt lat="50.46205" lon="3.03591">
        <ele>27</ele>
        <time>2012-02-05T08:44:21Z</time>
      </trkpt>
      <trkpt lat="50.46199" lon="3.03602">
        <ele>27</ele>
        <time>2012-02-05T08:44:23Z</time>
      </trkpt>
      <trkpt lat="50.46192" lon="3.03613">
        <ele>27</ele>
        <time>2012-02-05T08:44:25Z</time>
      </trkpt>
      <trkpt lat="50.46185" lon="3.03622">
        <ele>27</ele>
        <time>2012-02-05T08:44:27Z</time>
      </trkpt>
      <trkpt lat="50.46177" lon="3.03629">
        <ele>27</ele>
        <time>2012-02-05T08:44:29Z</time>
      </trkpt>
      <trkpt lat="50.46165" lon="3.03633">
        <ele>27</ele>
        <time>2012-02-05T08:44:32Z</time>
      </trkpt>
      <trkpt lat="50.46154" lon="3.03626">
        <ele>27</ele>
        <time>2012-02-05T08:44:35Z</time>
      </trkpt>
      <trkpt lat="50.46144" lon="3.03626">
        <ele>27</ele>
        <time>2012-02-05T08:44:38Z</time>
      </trkpt>
      <trkpt lat="50.46138" lon="3.03639">
        <ele>27</ele>
        <time>2012-02-05T08:44:41Z</time>
      </trkpt>
      <trkpt lat="50.46131" lon="3.03655">
        <ele>27</ele>
        <time>2012-02-05T08:44:44Z</time>
      </trkpt>
      <trkpt lat="50.46124" lon="3.0367">
        <ele>27</ele>
        <time>2012-02-05T08:44:47Z</time>
      </trkpt>
      <trkpt lat="50.46121" lon="3.03686">
        <ele>27</ele>
        <time>2012-02-05T08:44:50Z</time>
      </trkpt>
      <trkpt lat="50.46113" lon="3.03701">
        <ele>27</ele>
        <time>2012-02-05T08:44:54Z</time>
      </trkpt>
      <trkpt lat="50.46101" lon="3.0371">
        <ele>27</ele>
        <time>2012-02-05T08:44:57Z</time>
      </trkpt>
      <trkpt lat="50.46091" lon="3.0371">
        <ele>27</ele>
        <time>2012-02-05T08:44:59Z</time>
      </trkpt>
      <trkpt lat="50.46082" lon="3.03707">
        <ele>27</ele>
        <time>2012-02-05T08:45:01Z</time>
      </trkpt>
      <trkpt lat="50.4607" lon="3.03711">
        <ele>27</ele>
        <time>2012-02-05T08:45:04Z</time>
      </trkpt>
      <trkpt lat="50.46063" lon="3.03724">
        <ele>27</ele>
        <time>2012-02-05T08:45:07Z</time>
      </trkpt>
      <trkpt lat="50.46055" lon="3.03739">
        <ele>27</ele>
        <time>2012-02-05T08:45:10Z</time>
      </trkpt>
      <trkpt lat="50.46047" lon="3.03748">
        <ele>27</ele>
        <time>2012-02-05T08:45:12Z</time>
      </trkpt>
      <trkpt lat="50.46035" lon="3.03754">
        <ele>27</ele>
        <time>2012-02-05T08:45:15Z</time>
      </trkpt>
      <trkpt lat="50.46026" lon="3.03749">
        <ele>27</ele>
        <time>2012-02-05T08:45:17Z</time>
      </trkpt>
      <trkpt lat="50.46012" lon="3.03747">
        <ele>27</ele>
        <time>2012-02-05T08:45:20Z</time>
      </trkpt>
      <trkpt lat="50.46002" lon="3.03752">
        <ele>27</ele>
        <time>2012-02-05T08:45:22Z</time>
      </trkpt>
      <trkpt lat="50.45993" lon="3.03756">
        <ele>27</ele>
        <time>2012-02-05T08:45:24Z</time>
      </trkpt>
      <trkpt lat="50.45982" lon="3.03755">
        <ele>27</ele>
        <time>2012-02-05T08:45:26Z</time>
      </trkpt>
      <trkpt lat="50.45973" lon="3.03749">
        <ele>27</ele>
        <time>2012-02-05T08:45:28Z</time>
      </trkpt>
      <trkpt lat="50.45965" lon="3.03741">
        <ele>27</ele>
        <time>2012-02-05T08:45:30Z</time>
      </trkpt>
      <trkpt lat="50.45957" lon="3.03732">
        <ele>27</ele>
        <time>2012-02-05T08:45:32Z</time>
      </trkpt>
      <trkpt lat="50.45951" lon="3.0372">
        <ele>32</ele>
        <time>2012-02-05T08:45:34Z</time>
      </trkpt>
      <trkpt lat="50.45948" lon="3.03706">
        <ele>32</ele>
        <time>2012-02-05T08:45:36Z</time>
      </trkpt>
      <trkpt lat="50.45943" lon="3.03687">
        <ele>32</ele>
        <time>2012-02-05T08:45:39Z</time>
      </trkpt>
      <trkpt lat="50.4594" lon="3.03672">
        <ele>32</ele>
        <time>2012-02-05T08:45:41Z</time>
      </trkpt>
      <trkpt lat="50.45937" lon="3.03655">
        <ele>32</ele>
        <time>2012-02-05T08:45:43Z</time>
      </trkpt>
      <trkpt lat="50.45937" lon="3.03638">
        <ele>32</ele>
        <time>2012-02-05T08:45:45Z</time>
      </trkpt>
      <trkpt lat="50.45936" lon="3.03621">
        <ele>32</ele>
        <time>2012-02-05T08:45:47Z</time>
      </trkpt>
      <trkpt lat="50.45931" lon="3.03608">
        <ele>32</ele>
        <time>2012-02-05T08:45:49Z</time>
      </trkpt>
      <trkpt lat="50.45922" lon="3.03597">
        <ele>32</ele>
        <time>2012-02-05T08:45:51Z</time>
      </trkpt>
      <trkpt lat="50.45912" lon="3.03587">
        <ele>32</ele>
        <time>2012-02-05T08:45:53Z</time>
      </trkpt>
      <trkpt lat="50.45903" lon="3.03576">
        <ele>32</ele>
        <time>2012-02-05T08:45:55Z</time>
      </trkpt>
      <trkpt lat="50.45895" lon="3.03566">
        <ele>32</ele>
        <time>2012-02-05T08:45:57Z</time>
      </trkpt>
      <trkpt lat="50.45885" lon="3.03556">
        <ele>32</ele>
        <time>2012-02-05T08:45:59Z</time>
      </trkpt>
      <trkpt lat="50.45877" lon="3.03546">
        <ele>32</ele>
        <time>2012-02-05T08:46:01Z</time>
      </trkpt>
      <trkpt lat="50.45867" lon="3.03541">
        <ele>27</ele>
        <time>2012-02-05T08:46:03Z</time>
      </trkpt>
      <trkpt lat="50.45856" lon="3.03542">
        <ele>27</ele>
        <time>2012-02-05T08:46:05Z</time>
      </trkpt>
      <trkpt lat="50.45845" lon="3.03546">
        <ele>27</ele>
        <time>2012-02-05T08:46:07Z</time>
      </trkpt>
      <trkpt lat="50.45835" lon="3.03549">
        <ele>27</ele>
        <time>2012-02-05T08:46:09Z</time>
      </trkpt>
      <trkpt lat="50.45825" lon="3.03549">
        <ele>27</ele>
        <time>2012-02-05T08:46:11Z</time>
      </trkpt>
      <trkpt lat="50.45817" lon="3.03545">
        <ele>27</ele>
        <time>2012-02-05T08:46:13Z</time>
      </trkpt>
      <trkpt lat="50.45809" lon="3.03536">
        <ele>27</ele>
        <time>2012-02-05T08:46:15Z</time>
      </trkpt>
      <trkpt lat="50.45801" lon="3.0353">
        <ele>27</ele>
        <time>2012-02-05T08:46:17Z</time>
      </trkpt>
      <trkpt lat="50.45791" lon="3.03531">
        <ele>27</ele>
        <time>2012-02-05T08:46:19Z</time>
      </trkpt>
      <trkpt lat="50.45783" lon="3.03537">
        <ele>27</ele>
        <time>2012-02-05T08:46:21Z</time>
      </trkpt>
      <trkpt lat="50.45776" lon="3.03548">
        <ele>27</ele>
        <time>2012-02-05T08:46:23Z</time>
      </trkpt>
      <trkpt lat="50.45769" lon="3.0356">
        <ele>27</ele>
        <time>2012-02-05T08:46:25Z</time>
      </trkpt>
      <trkpt lat="50.45762" lon="3.0357">
        <ele>27</ele>
        <time>2012-02-05T08:46:27Z</time>
      </trkpt>
      <trkpt lat="50.45755" lon="3.03579">
        <ele>27</ele>
        <time>2012-02-05T08:46:29Z</time>
      </trkpt>
      <trkpt lat="50.45747" lon="3.03586">
        <ele>27</ele>
        <time>2012-02-05T08:46:31Z</time>
      </trkpt>
      <trkpt lat="50.45737" lon="3.03596">
        <ele>27</ele>
        <time>2012-02-05T08:46:34Z</time>
      </trkpt>
      <trkpt lat="50.45728" lon="3.03606">
        <ele>27</ele>
        <time>2012-02-05T08:46:37Z</time>
      </trkpt>
      <trkpt lat="50.45716" lon="3.03608">
        <ele>27</ele>
        <time>2012-02-05T08:46:41Z</time>
      </trkpt>
      <trkpt lat="50.45702" lon="3.03606">
        <ele>27</ele>
        <time>2012-02-05T08:46:43Z</time>
      </trkpt>
      <trkpt lat="50.45692" lon="3.03618">
        <ele>27</ele>
        <time>2012-02-05T08:46:45Z</time>
      </trkpt>
      <trkpt lat="50.45685" lon="3.03632">
        <ele>27</ele>
        <time>2012-02-05T08:46:47Z</time>
      </trkpt>
      <trkpt lat="50.45678" lon="3.03645">
        <ele>27</ele>
        <time>2012-02-05T08:46:49Z</time>
      </trkpt>
      <trkpt lat="50.45672" lon="3.03656">
        <ele>27</ele>
        <time>2012-02-05T08:46:51Z</time>
      </trkpt>
      <trkpt lat="50.45667" lon="3.03673">
        <ele>27</ele>
        <time>2012-02-05T08:46:54Z</time>
      </trkpt>
      <trkpt lat="50.4567" lon="3.0369">
        <ele>27</ele>
        <time>2012-02-05T08:46:57Z</time>
      </trkpt>
      <trkpt lat="50.45675" lon="3.03707">
        <ele>27</ele>
        <time>2012-02-05T08:47:00Z</time>
      </trkpt>
      <trkpt lat="50.45676" lon="3.03722">
        <ele>27</ele>
        <time>2012-02-05T08:47:02Z</time>
      </trkpt>
      <trkpt lat="50.45674" lon="3.03737">
        <ele>27</ele>
        <time>2012-02-05T08:47:04Z</time>
      </trkpt>
      <trkpt lat="50.45673" lon="3.03752">
        <ele>27</ele>
        <time>2012-02-05T08:47:06Z</time>
      </trkpt>
      <trkpt lat="50.45676" lon="3.03766">
        <ele>27</ele>
        <time>2012-02-05T08:47:08Z</time>
      </trkpt>
      <trkpt lat="50.45678" lon="3.03781">
        <ele>27</ele>
        <time>2012-02-05T08:47:10Z</time>
      </trkpt>
      <trkpt lat="50.45678" lon="3.03796">
        <ele>27</ele>
        <time>2012-02-05T08:47:12Z</time>
      </trkpt>
      <trkpt lat="50.45678" lon="3.0381">
        <ele>27</ele>
        <time>2012-02-05T08:47:14Z</time>
      </trkpt>
      <trkpt lat="50.4568" lon="3.03826">
        <ele>27</ele>
        <time>2012-02-05T08:47:16Z</time>
      </trkpt>
      <trkpt lat="50.45681" lon="3.03842">
        <ele>27</ele>
        <time>2012-02-05T08:47:18Z</time>
      </trkpt>
      <trkpt lat="50.45679" lon="3.03858">
        <ele>27</ele>
        <time>2012-02-05T08:47:20Z</time>
      </trkpt>
      <trkpt lat="50.45678" lon="3.03873">
        <ele>27</ele>
        <time>2012-02-05T08:47:22Z</time>
      </trkpt>
      <trkpt lat="50.45678" lon="3.03888">
        <ele>27</ele>
        <time>2012-02-05T08:47:24Z</time>
      </trkpt>
      <trkpt lat="50.45681" lon="3.03903">
        <ele>27</ele>
        <time>2012-02-05T08:47:26Z</time>
      </trkpt>
      <trkpt lat="50.45687" lon="3.03917">
        <ele>27</ele>
        <time>2012-02-05T08:47:28Z</time>
      </trkpt>
      <trkpt lat="50.45692" lon="3.03932">
        <ele>27</ele>
        <time>2012-02-05T08:47:30Z</time>
      </trkpt>
      <trkpt lat="50.45699" lon="3.03945">
        <ele>27</ele>
        <time>2012-02-05T08:47:32Z</time>
      </trkpt>
      <trkpt lat="50.45708" lon="3.03955">
        <ele>27</ele>
        <time>2012-02-05T08:47:34Z</time>
      </trkpt>
      <trkpt lat="50.45719" lon="3.03962">
        <ele>27</ele>
        <time>2012-02-05T08:47:36Z</time>
      </trkpt>
      <trkpt lat="50.45729" lon="3.03972">
        <ele>27</ele>
        <time>2012-02-05T08:47:38Z</time>
      </trkpt>
      <trkpt lat="50.45736" lon="3.03985">
        <ele>27</ele>
        <time>2012-02-05T08:47:40Z</time>
      </trkpt>
      <trkpt lat="50.4574" lon="3.04">
        <ele>27</ele>
        <time>2012-02-05T08:47:42Z</time>
      </trkpt>
      <trkpt lat="50.45743" lon="3.04015">
        <ele>27</ele>
        <time>2012-02-05T08:47:44Z</time>
      </trkpt>
      <trkpt lat="50.45738" lon="3.04036">
        <ele>27</ele>
        <time>2012-02-05T08:47:47Z</time>
      </trkpt>
      <trkpt lat="50.45731" lon="3.04048">
        <ele>27</ele>
        <time>2012-02-05T08:47:49Z</time>
      </trkpt>
      <trkpt lat="50.45723" lon="3.04062">
        <ele>27</ele>
        <time>2012-02-05T08:47:51Z</time>
      </trkpt>
      <trkpt lat="50.45715" lon="3.04075">
        <ele>27</ele>
        <time>2012-02-05T08:47:53Z</time>
      </trkpt>
      <trkpt lat="50.45708" lon="3.04088">
        <ele>33</ele>
        <time>2012-02-05T08:47:55Z</time>
      </trkpt>
      <trkpt lat="50.45702" lon="3.04101">
        <ele>33</ele>
        <time>2012-02-05T08:47:57Z</time>
      </trkpt>
      <trkpt lat="50.45699" lon="3.04117">
        <ele>33</ele>
        <time>2012-02-05T08:47:59Z</time>
      </trkpt>
      <trkpt lat="50.457" lon="3.04133">
        <ele>33</ele>
        <time>2012-02-05T08:48:01Z</time>
      </trkpt>
      <trkpt lat="50.457" lon="3.04151">
        <ele>33</ele>
        <time>2012-02-05T08:48:03Z</time>
      </trkpt>
      <trkpt lat="50.45695" lon="3.04164">
        <ele>33</ele>
        <time>2012-02-05T08:48:05Z</time>
      </trkpt>
      <trkpt lat="50.45689" lon="3.04176">
        <ele>33</ele>
        <time>2012-02-05T08:48:07Z</time>
      </trkpt>
      <trkpt lat="50.45685" lon="3.04189">
        <ele>33</ele>
        <time>2012-02-05T08:48:09Z</time>
      </trkpt>
      <trkpt lat="50.4568" lon="3.04204">
        <ele>33</ele>
        <time>2012-02-05T08:48:11Z</time>
      </trkpt>
      <trkpt lat="50.45674" lon="3.04217">
        <ele>33</ele>
        <time>2012-02-05T08:48:13Z</time>
      </trkpt>
      <trkpt lat="50.45672" lon="3.04232">
        <ele>38</ele>
        <time>2012-02-05T08:48:15Z</time>
      </trkpt>
      <trkpt lat="50.45668" lon="3.04245">
        <ele>38</ele>
        <time>2012-02-05T08:48:17Z</time>
      </trkpt>
      <trkpt lat="50.45665" lon="3.04259">
        <ele>38</ele>
        <time>2012-02-05T08:48:19Z</time>
      </trkpt>
      <trkpt lat="50.45659" lon="3.04275">
        <ele>38</ele>
        <time>2012-02-05T08:48:22Z</time>
      </trkpt>
      <trkpt lat="50.45656" lon="3.04288">
        <ele>38</ele>
        <time>2012-02-05T08:48:24Z</time>
      </trkpt>
      <trkpt lat="50.45655" lon="3.04304">
        <ele>38</ele>
        <time>2012-02-05T08:48:26Z</time>
      </trkpt>
      <trkpt lat="50.45653" lon="3.04321">
        <ele>38</ele>
        <time>2012-02-05T08:48:28Z</time>
      </trkpt>
      <trkpt lat="50.4565" lon="3.04338">
        <ele>38</ele>
        <time>2012-02-05T08:48:30Z</time>
      </trkpt>
      <trkpt lat="50.45647" lon="3.04355">
        <ele>38</ele>
        <time>2012-02-05T08:48:32Z</time>
      </trkpt>
      <trkpt lat="50.45643" lon="3.04371">
        <ele>38</ele>
        <time>2012-02-05T08:48:34Z</time>
      </trkpt>
      <trkpt lat="50.45639" lon="3.04386">
        <ele>38</ele>
        <time>2012-02-05T08:48:36Z</time>
      </trkpt>
      <trkpt lat="50.45637" lon="3.044">
        <ele>38</ele>
        <time>2012-02-05T08:48:38Z</time>
      </trkpt>
      <trkpt lat="50.45635" lon="3.04415">
        <ele>38</ele>
        <time>2012-02-05T08:48:40Z</time>
      </trkpt>
      <trkpt lat="50.45634" lon="3.04429">
        <ele>38</ele>
        <time>2012-02-05T08:48:42Z</time>
      </trkpt>
      <trkpt lat="50.45634" lon="3.04444">
        <ele>38</ele>
        <time>2012-02-05T08:48:44Z</time>
      </trkpt>
      <trkpt lat="50.45634" lon="3.0446">
        <ele>38</ele>
        <time>2012-02-05T08:48:46Z</time>
      </trkpt>
      <trkpt lat="50.45634" lon="3.04475">
        <ele>38</ele>
        <time>2012-02-05T08:48:48Z</time>
      </trkpt>
      <trkpt lat="50.45635" lon="3.0449">
        <ele>38</ele>
        <time>2012-02-05T08:48:50Z</time>
      </trkpt>
      <trkpt lat="50.45637" lon="3.04506">
        <ele>38</ele>
        <time>2012-02-05T08:48:52Z</time>
      </trkpt>
      <trkpt lat="50.45639" lon="3.04522">
        <ele>38</ele>
        <time>2012-02-05T08:48:54Z</time>
      </trkpt>
      <trkpt lat="50.4564" lon="3.04538">
        <ele>38</ele>
        <time>2012-02-05T08:48:56Z</time>
      </trkpt>
      <trkpt lat="50.45641" lon="3.04555">
        <ele>38</ele>
        <time>2012-02-05T08:48:58Z</time>
      </trkpt>
      <trkpt lat="50.45642" lon="3.04571">
        <ele>38</ele>
        <time>2012-02-05T08:49:00Z</time>
      </trkpt>
      <trkpt lat="50.45643" lon="3.04587">
        <ele>38</ele>
        <time>2012-02-05T08:49:02Z</time>
      </trkpt>
      <trkpt lat="50.45642" lon="3.04602">
        <ele>38</ele>
        <time>2012-02-05T08:49:04Z</time>
      </trkpt>
      <trkpt lat="50.45638" lon="3.04617">
        <ele>38</ele>
        <time>2012-02-05T08:49:07Z</time>
      </trkpt>
      <trkpt lat="50.45634" lon="3.04634">
        <ele>38</ele>
        <time>2012-02-05T08:49:10Z</time>
      </trkpt>
      <trkpt lat="50.4563" lon="3.04648">
        <ele>38</ele>
        <time>2012-02-05T08:49:12Z</time>
      </trkpt>
      <trkpt lat="50.45624" lon="3.04663">
        <ele>38</ele>
        <time>2012-02-05T08:49:14Z</time>
      </trkpt>
      <trkpt lat="50.45618" lon="3.04678">
        <ele>38</ele>
        <time>2012-02-05T08:49:16Z</time>
      </trkpt>
      <trkpt lat="50.45611" lon="3.04694">
        <ele>38</ele>
        <time>2012-02-05T08:49:18Z</time>
      </trkpt>
      <trkpt lat="50.45605" lon="3.04711">
        <ele>38</ele>
        <time>2012-02-05T08:49:20Z</time>
      </trkpt>
      <trkpt lat="50.45598" lon="3.0473">
        <ele>38</ele>
        <time>2012-02-05T08:49:22Z</time>
      </trkpt>
      <trkpt lat="50.45592" lon="3.04749">
        <ele>38</ele>
        <time>2012-02-05T08:49:24Z</time>
      </trkpt>
      <trkpt lat="50.45585" lon="3.04767">
        <ele>38</ele>
        <time>2012-02-05T08:49:26Z</time>
      </trkpt>
      <trkpt lat="50.45578" lon="3.04785">
        <ele>38</ele>
        <time>2012-02-05T08:49:28Z</time>
      </trkpt>
      <trkpt lat="50.45572" lon="3.04805">
        <ele>33</ele>
        <time>2012-02-05T08:49:30Z</time>
      </trkpt>
      <trkpt lat="50.45566" lon="3.04824">
        <ele>33</ele>
        <time>2012-02-05T08:49:32Z</time>
      </trkpt>
      <trkpt lat="50.45559" lon="3.04842">
        <ele>33</ele>
        <time>2012-02-05T08:49:34Z</time>
      </trkpt>
      <trkpt lat="50.45552" lon="3.04859">
        <ele>33</ele>
        <time>2012-02-05T08:49:36Z</time>
      </trkpt>
      <trkpt lat="50.45546" lon="3.04877">
        <ele>33</ele>
        <time>2012-02-05T08:49:38Z</time>
      </trkpt>
      <trkpt lat="50.4554" lon="3.04893">
        <ele>33</ele>
        <time>2012-02-05T08:49:40Z</time>
      </trkpt>
      <trkpt lat="50.45535" lon="3.0491">
        <ele>33</ele>
        <time>2012-02-05T08:49:42Z</time>
      </trkpt>
      <trkpt lat="50.4553" lon="3.04928">
        <ele>33</ele>
        <time>2012-02-05T08:49:44Z</time>
      </trkpt>
      <trkpt lat="50.45524" lon="3.04945">
        <ele>33</ele>
        <time>2012-02-05T08:49:46Z</time>
      </trkpt>
      <trkpt lat="50.45516" lon="3.04961">
        <ele>33</ele>
        <time>2012-02-05T08:49:48Z</time>
      </trkpt>
      <trkpt lat="50.45509" lon="3.04978">
        <ele>33</ele>
        <time>2012-02-05T08:49:50Z</time>
      </trkpt>
      <trkpt lat="50.45504" lon="3.04996">
        <ele>33</ele>
        <time>2012-02-05T08:49:52Z</time>
      </trkpt>
      <trkpt lat="50.455" lon="3.05015">
        <ele>33</ele>
        <time>2012-02-05T08:49:54Z</time>
      </trkpt>
      <trkpt lat="50.45494" lon="3.05033">
        <ele>33</ele>
        <time>2012-02-05T08:49:56Z</time>
      </trkpt>
      <trkpt lat="50.45489" lon="3.0505">
        <ele>33</ele>
        <time>2012-02-05T08:49:58Z</time>
      </trkpt>
      <trkpt lat="50.45482" lon="3.05066">
        <ele>33</ele>
        <time>2012-02-05T08:50:00Z</time>
      </trkpt>
      <trkpt lat="50.45476" lon="3.05083">
        <ele>39</ele>
        <time>2012-02-05T08:50:02Z</time>
      </trkpt>
      <trkpt lat="50.4547" lon="3.05101">
        <ele>39</ele>
        <time>2012-02-05T08:50:04Z</time>
      </trkpt>
      <trkpt lat="50.45463" lon="3.05117">
        <ele>39</ele>
        <time>2012-02-05T08:50:06Z</time>
      </trkpt>
      <trkpt lat="50.45456" lon="3.05134">
        <ele>39</ele>
        <time>2012-02-05T08:50:08Z</time>
      </trkpt>
      <trkpt lat="50.4545" lon="3.05151">
        <ele>39</ele>
        <time>2012-02-05T08:50:10Z</time>
      </trkpt>
      <trkpt lat="50.45445" lon="3.05167">
        <ele>39</ele>
        <time>2012-02-05T08:50:12Z</time>
      </trkpt>
      <trkpt lat="50.45439" lon="3.05185">
        <ele>39</ele>
        <time>2012-02-05T08:50:14Z</time>
      </trkpt>
      <trkpt lat="50.45433" lon="3.05202">
        <ele>39</ele>
        <time>2012-02-05T08:50:16Z</time>
      </trkpt>
      <trkpt lat="50.45427" lon="3.05218">
        <ele>39</ele>
        <time>2012-02-05T08:50:18Z</time>
      </trkpt>
      <trkpt lat="50.45422" lon="3.05235">
        <ele>39</ele>
        <time>2012-02-05T08:50:20Z</time>
      </trkpt>
      <trkpt lat="50.45416" lon="3.0525">
        <ele>39</ele>
        <time>2012-02-05T08:50:22Z</time>
      </trkpt>
      <trkpt lat="50.4541" lon="3.05266">
        <ele>39</ele>
        <time>2012-02-05T08:50:24Z</time>
      </trkpt>
      <trkpt lat="50.45404" lon="3.05282">
        <ele>39</ele>
        <time>2012-02-05T08:50:26Z</time>
      </trkpt>
      <trkpt lat="50.45399" lon="3.05299">
        <ele>39</ele>
        <time>2012-02-05T08:50:28Z</time>
      </trkpt>
      <trkpt lat="50.45393" lon="3.05315">
        <ele>39</ele>
        <time>2012-02-05T08:50:30Z</time>
      </trkpt>
      <trkpt lat="50.45388" lon="3.05329">
        <ele>39</ele>
        <time>2012-02-05T08:50:32Z</time>
      </trkpt>
      <trkpt lat="50.45383" lon="3.05343">
        <ele>34</ele>
        <time>2012-02-05T08:50:34Z</time>
      </trkpt>
      <trkpt lat="50.45376" lon="3.05354">
        <ele>34</ele>
        <time>2012-02-05T08:50:37Z</time>
      </trkpt>
      <trkpt lat="50.45369" lon="3.05363">
        <ele>34</ele>
        <time>2012-02-05T08:50:44Z</time>
      </trkpt>
      <trkpt lat="50.45361" lon="3.05375">
        <ele>34</ele>
        <time>2012-02-05T08:50:49Z</time>
      </trkpt>
      <trkpt lat="50.4535" lon="3.05384">
        <ele>34</ele>
        <time>2012-02-05T08:50:52Z</time>
      </trkpt>
      <trkpt lat="50.45341" lon="3.05389">
        <ele>39</ele>
        <time>2012-02-05T08:50:54Z</time>
      </trkpt>
      <trkpt lat="50.45331" lon="3.05398">
        <ele>39</ele>
        <time>2012-02-05T08:50:56Z</time>
      </trkpt>
      <trkpt lat="50.45322" lon="3.05405">
        <ele>39</ele>
        <time>2012-02-05T08:50:58Z</time>
      </trkpt>
      <trkpt lat="50.45313" lon="3.05414">
        <ele>39</ele>
        <time>2012-02-05T08:51:00Z</time>
      </trkpt>
      <trkpt lat="50.45303" lon="3.05424">
        <ele>39</ele>
        <time>2012-02-05T08:51:02Z</time>
      </trkpt>
      <trkpt lat="50.45293" lon="3.05435">
        <ele>39</ele>
        <time>2012-02-05T08:51:04Z</time>
      </trkpt>
      <trkpt lat="50.45283" lon="3.05445">
        <ele>39</ele>
        <time>2012-02-05T08:51:06Z</time>
      </trkpt>
      <trkpt lat="50.45272" lon="3.05456">
        <ele>39</ele>
        <time>2012-02-05T08:51:08Z</time>
      </trkpt>
      <trkpt lat="50.45262" lon="3.05466">
        <ele>39</ele>
        <time>2012-02-05T08:51:10Z</time>
      </trkpt>
      <trkpt lat="50.45252" lon="3.05477">
        <ele>39</ele>
        <time>2012-02-05T08:51:12Z</time>
      </trkpt>
      <trkpt lat="50.45243" lon="3.05488">
        <ele>39</ele>
        <time>2012-02-05T08:51:14Z</time>
      </trkpt>
      <trkpt lat="50.45232" lon="3.05498">
        <ele>39</ele>
        <time>2012-02-05T08:51:16Z</time>
      </trkpt>
      <trkpt lat="50.45223" lon="3.05509">
        <ele>39</ele>
        <time>2012-02-05T08:51:18Z</time>
      </trkpt>
      <trkpt lat="50.45212" lon="3.05518">
        <ele>39</ele>
        <time>2012-02-05T08:51:20Z</time>
      </trkpt>
      <trkpt lat="50.45202" lon="3.05528">
        <ele>39</ele>
        <time>2012-02-05T08:51:22Z</time>
      </trkpt>
      <trkpt lat="50.45192" lon="3.05536">
        <ele>39</ele>
        <time>2012-02-05T08:51:24Z</time>
      </trkpt>
      <trkpt lat="50.45182" lon="3.05546">
        <ele>39</ele>
        <time>2012-02-05T08:51:26Z</time>
      </trkpt>
      <trkpt lat="50.45171" lon="3.05555">
        <ele>39</ele>
        <time>2012-02-05T08:51:28Z</time>
      </trkpt>
      <trkpt lat="50.45162" lon="3.05563">
        <ele>39</ele>
        <time>2012-02-05T08:51:30Z</time>
      </trkpt>
      <trkpt lat="50.45153" lon="3.05572">
        <ele>39</ele>
        <time>2012-02-05T08:51:32Z</time>
      </trkpt>
      <trkpt lat="50.45144" lon="3.05582">
        <ele>39</ele>
        <time>2012-02-05T08:51:34Z</time>
      </trkpt>
      <trkpt lat="50.45134" lon="3.05591">
        <ele>39</ele>
        <time>2012-02-05T08:51:36Z</time>
      </trkpt>
      <trkpt lat="50.45124" lon="3.056">
        <ele>39</ele>
        <time>2012-02-05T08:51:38Z</time>
      </trkpt>
      <trkpt lat="50.45115" lon="3.0561">
        <ele>39</ele>
        <time>2012-02-05T08:51:40Z</time>
      </trkpt>
      <trkpt lat="50.45103" lon="3.05619">
        <ele>39</ele>
        <time>2012-02-05T08:51:42Z</time>
      </trkpt>
      <trkpt lat="50.45092" lon="3.05628">
        <ele>39</ele>
        <time>2012-02-05T08:51:44Z</time>
      </trkpt>
      <trkpt lat="50.45081" lon="3.05637">
        <ele>39</ele>
        <time>2012-02-05T08:51:46Z</time>
      </trkpt>
      <trkpt lat="50.4507" lon="3.05648">
        <ele>39</ele>
        <time>2012-02-05T08:51:48Z</time>
      </trkpt>
      <trkpt lat="50.45058" lon="3.05658">
        <ele>39</ele>
        <time>2012-02-05T08:51:50Z</time>
      </trkpt>
      <trkpt lat="50.45046" lon="3.05668">
        <ele>39</ele>
        <time>2012-02-05T08:51:52Z</time>
      </trkpt>
      <trkpt lat="50.45034" lon="3.05679">
        <ele>39</ele>
        <time>2012-02-05T08:51:54Z</time>
      </trkpt>
      <trkpt lat="50.45022" lon="3.0569">
        <ele>39</ele>
        <time>2012-02-05T08:51:56Z</time>
      </trkpt>
      <trkpt lat="50.45011" lon="3.05699">
        <ele>39</ele>
        <time>2012-02-05T08:51:58Z</time>
      </trkpt>
      <trkpt lat="50.44999" lon="3.0571">
        <ele>39</ele>
        <time>2012-02-05T08:52:00Z</time>
      </trkpt>
      <trkpt lat="50.44988" lon="3.05721">
        <ele>39</ele>
        <time>2012-02-05T08:52:02Z</time>
      </trkpt>
      <trkpt lat="50.44977" lon="3.05732">
        <ele>39</ele>
        <time>2012-02-05T08:52:04Z</time>
      </trkpt>
      <trkpt lat="50.44966" lon="3.05742">
        <ele>39</ele>
        <time>2012-02-05T08:52:06Z</time>
      </trkpt>
      <trkpt lat="50.44954" lon="3.05751">
        <ele>39</ele>
        <time>2012-02-05T08:52:08Z</time>
      </trkpt>
      <trkpt lat="50.44944" lon="3.05761">
        <ele>39</ele>
        <time>2012-02-05T08:52:10Z</time>
      </trkpt>
      <trkpt lat="50.44935" lon="3.0577">
        <ele>39</ele>
        <time>2012-02-05T08:52:12Z</time>
      </trkpt>
      <trkpt lat="50.44925" lon="3.05778">
        <ele>39</ele>
        <time>2012-02-05T08:52:14Z</time>
      </trkpt>
      <trkpt lat="50.44915" lon="3.05789">
        <ele>39</ele>
        <time>2012-02-05T08:52:16Z</time>
      </trkpt>
      <trkpt lat="50.44904" lon="3.05799">
        <ele>39</ele>
        <time>2012-02-05T08:52:18Z</time>
      </trkpt>
      <trkpt lat="50.44894" lon="3.05808">
        <ele>39</ele>
        <time>2012-02-05T08:52:20Z</time>
      </trkpt>
      <trkpt lat="50.44884" lon="3.05818">
        <ele>39</ele>
        <time>2012-02-05T08:52:22Z</time>
      </trkpt>
      <trkpt lat="50.44874" lon="3.05827">
        <ele>39</ele>
        <time>2012-02-05T08:52:24Z</time>
      </trkpt>
      <trkpt lat="50.44864" lon="3.05838">
        <ele>39</ele>
        <time>2012-02-05T08:52:26Z</time>
      </trkpt>
      <trkpt lat="50.44855" lon="3.05849">
        <ele>34</ele>
        <time>2012-02-05T08:52:28Z</time>
      </trkpt>
      <trkpt lat="50.44845" lon="3.05859">
        <ele>34</ele>
        <time>2012-02-05T08:52:30Z</time>
      </trkpt>
      <trkpt lat="50.44836" lon="3.05869">
        <ele>34</ele>
        <time>2012-02-05T08:52:32Z</time>
      </trkpt>
      <trkpt lat="50.44827" lon="3.05878">
        <ele>34</ele>
        <time>2012-02-05T08:52:34Z</time>
      </trkpt>
      <trkpt lat="50.44818" lon="3.05887">
        <ele>34</ele>
        <time>2012-02-05T08:52:36Z</time>
      </trkpt>
      <trkpt lat="50.4481" lon="3.05895">
        <ele>34</ele>
        <time>2012-02-05T08:52:38Z</time>
      </trkpt>
      <trkpt lat="50.44802" lon="3.05907">
        <ele>34</ele>
        <time>2012-02-05T08:52:40Z</time>
      </trkpt>
      <trkpt lat="50.44795" lon="3.05921">
        <ele>34</ele>
        <time>2012-02-05T08:52:42Z</time>
      </trkpt>
      <trkpt lat="50.44789" lon="3.05936">
        <ele>34</ele>
        <time>2012-02-05T08:52:44Z</time>
      </trkpt>
      <trkpt lat="50.44783" lon="3.05951">
        <ele>34</ele>
        <time>2012-02-05T08:52:46Z</time>
      </trkpt>
      <trkpt lat="50.44777" lon="3.05964">
        <ele>34</ele>
        <time>2012-02-05T08:52:48Z</time>
      </trkpt>
      <trkpt lat="50.44774" lon="3.05978">
        <ele>34</ele>
        <time>2012-02-05T08:52:50Z</time>
      </trkpt>
      <trkpt lat="50.44776" lon="3.05992">
        <ele>34</ele>
        <time>2012-02-05T08:52:54Z</time>
      </trkpt>
      <trkpt lat="50.44787" lon="3.06001">
        <ele>34</ele>
        <time>2012-02-05T08:52:58Z</time>
      </trkpt>
      <trkpt lat="50.44798" lon="3.0601">
        <ele>34</ele>
        <time>2012-02-05T08:53:01Z</time>
      </trkpt>
      <trkpt lat="50.44806" lon="3.06018">
        <ele>34</ele>
        <time>2012-02-05T08:53:03Z</time>
      </trkpt>
      <trkpt lat="50.44814" lon="3.06026">
        <ele>34</ele>
        <time>2012-02-05T08:53:05Z</time>
      </trkpt>
      <trkpt lat="50.44823" lon="3.06031">
        <ele>34</ele>
        <time>2012-02-05T08:53:07Z</time>
      </trkpt>
      <trkpt lat="50.44836" lon="3.0603">
        <ele>34</ele>
        <time>2012-02-05T08:53:10Z</time>
      </trkpt>
      <trkpt lat="50.44845" lon="3.06026">
        <ele>34</ele>
        <time>2012-02-05T08:53:12Z</time>
      </trkpt>
      <trkpt lat="50.44854" lon="3.06021">
        <ele>34</ele>
        <time>2012-02-05T08:53:14Z</time>
      </trkpt>
      <trkpt lat="50.44862" lon="3.06016">
        <ele>34</ele>
        <time>2012-02-05T08:53:16Z</time>
      </trkpt>
      <trkpt lat="50.44872" lon="3.06011">
        <ele>34</ele>
        <time>2012-02-05T08:53:18Z</time>
      </trkpt>
      <trkpt lat="50.44881" lon="3.06013">
        <ele>34</ele>
        <time>2012-02-05T08:53:20Z</time>
      </trkpt>
      <trkpt lat="50.44889" lon="3.06022">
        <ele>34</ele>
        <time>2012-02-05T08:53:22Z</time>
      </trkpt>
      <trkpt lat="50.44895" lon="3.06033">
        <ele>34</ele>
        <time>2012-02-05T08:53:24Z</time>
      </trkpt>
      <trkpt lat="50.449" lon="3.06044">
        <ele>34</ele>
        <time>2012-02-05T08:53:26Z</time>
      </trkpt>
      <trkpt lat="50.44906" lon="3.06057">
        <ele>34</ele>
        <time>2012-02-05T08:53:28Z</time>
      </trkpt>
      <trkpt lat="50.44912" lon="3.0607">
        <ele>34</ele>
        <time>2012-02-05T08:53:30Z</time>
      </trkpt>
      <trkpt lat="50.44917" lon="3.06081">
        <ele>34</ele>
        <time>2012-02-05T08:53:32Z</time>
      </trkpt>
      <trkpt lat="50.44924" lon="3.06096">
        <ele>34</ele>
        <time>2012-02-05T08:53:35Z</time>
      </trkpt>
      <trkpt lat="50.44931" lon="3.06109">
        <ele>34</ele>
        <time>2012-02-05T08:53:38Z</time>
      </trkpt>
      <trkpt lat="50.44932" lon="3.06124">
        <ele>34</ele>
        <time>2012-02-05T08:53:42Z</time>
      </trkpt>
      <trkpt lat="50.44928" lon="3.06112">
        <ele>34</ele>
        <time>2012-02-05T08:54:08Z</time>
      </trkpt>
      <trkpt lat="50.44915" lon="3.06111">
        <ele>34</ele>
        <time>2012-02-05T08:54:11Z</time>
      </trkpt>
      <trkpt lat="50.44904" lon="3.06112">
        <ele>34</ele>
        <time>2012-02-05T08:54:13Z</time>
      </trkpt>
      <trkpt lat="50.44895" lon="3.06118">
        <ele>34</ele>
        <time>2012-02-05T08:54:15Z</time>
      </trkpt>
      <trkpt lat="50.44887" lon="3.06135">
        <ele>34</ele>
        <time>2012-02-05T08:54:18Z</time>
      </trkpt>
      <trkpt lat="50.44883" lon="3.06149">
        <ele>34</ele>
        <time>2012-02-05T08:54:20Z</time>
      </trkpt>
      <trkpt lat="50.44876" lon="3.06159">
        <ele>34</ele>
        <time>2012-02-05T08:54:22Z</time>
      </trkpt>
      <trkpt lat="50.44866" lon="3.06167">
        <ele>34</ele>
        <time>2012-02-05T08:54:24Z</time>
      </trkpt>
      <trkpt lat="50.44856" lon="3.06168">
        <ele>34</ele>
        <time>2012-02-05T08:54:26Z</time>
      </trkpt>
      <trkpt lat="50.44846" lon="3.06166">
        <ele>34</ele>
        <time>2012-02-05T08:54:28Z</time>
      </trkpt>
      <trkpt lat="50.44837" lon="3.06171">
        <ele>34</ele>
        <time>2012-02-05T08:54:30Z</time>
      </trkpt>
      <trkpt lat="50.44834" lon="3.06185">
        <ele>34</ele>
        <time>2012-02-05T08:54:32Z</time>
      </trkpt>
      <trkpt lat="50.4483" lon="3.062">
        <ele>34</ele>
        <time>2012-02-05T08:54:34Z</time>
      </trkpt>
      <trkpt lat="50.44826" lon="3.06214">
        <ele>34</ele>
        <time>2012-02-05T08:54:36Z</time>
      </trkpt>
      <trkpt lat="50.44823" lon="3.06229">
        <ele>34</ele>
        <time>2012-02-05T08:54:38Z</time>
      </trkpt>
      <trkpt lat="50.44824" lon="3.06246">
        <ele>34</ele>
        <time>2012-02-05T08:54:41Z</time>
      </trkpt>
      <trkpt lat="50.44831" lon="3.06255">
        <ele>34</ele>
        <time>2012-02-05T08:54:46Z</time>
      </trkpt>
      <trkpt lat="50.44838" lon="3.06265">
        <ele>34</ele>
        <time>2012-02-05T08:54:53Z</time>
      </trkpt>
      <trkpt lat="50.44845" lon="3.06275">
        <ele>34</ele>
        <time>2012-02-05T08:54:59Z</time>
      </trkpt>
      <trkpt lat="50.44853" lon="3.06282">
        <ele>34</ele>
        <time>2012-02-05T08:55:04Z</time>
      </trkpt>
      <trkpt lat="50.44862" lon="3.06286">
        <ele>40</ele>
        <time>2012-02-05T08:55:16Z</time>
      </trkpt>
      <trkpt lat="50.44872" lon="3.06282">
        <ele>40</ele>
        <time>2012-02-05T08:55:21Z</time>
      </trkpt>
      <trkpt lat="50.44882" lon="3.06278">
        <ele>40</ele>
        <time>2012-02-05T08:55:24Z</time>
      </trkpt>
      <trkpt lat="50.44893" lon="3.06277">
        <ele>40</ele>
        <time>2012-02-05T08:55:27Z</time>
      </trkpt>
      <trkpt lat="50.44902" lon="3.06273">
        <ele>40</ele>
        <time>2012-02-05T08:55:30Z</time>
      </trkpt>
      <trkpt lat="50.44913" lon="3.06266">
        <ele>40</ele>
        <time>2012-02-05T08:55:33Z</time>
      </trkpt>
      <trkpt lat="50.44925" lon="3.06267">
        <ele>40</ele>
        <time>2012-02-05T08:55:36Z</time>
      </trkpt>
      <trkpt lat="50.44935" lon="3.06271">
        <ele>40</ele>
        <time>2012-02-05T08:55:38Z</time>
      </trkpt>
      <trkpt lat="50.44944" lon="3.06276">
        <ele>40</ele>
        <time>2012-02-05T08:55:40Z</time>
      </trkpt>
      <trkpt lat="50.44953" lon="3.06282">
        <ele>40</ele>
        <time>2012-02-05T08:55:42Z</time>
      </trkpt>
      <trkpt lat="50.44961" lon="3.0629">
        <ele>40</ele>
        <time>2012-02-05T08:55:44Z</time>
      </trkpt>
      <trkpt lat="50.44968" lon="3.06298">
        <ele>40</ele>
        <time>2012-02-05T08:55:46Z</time>
      </trkpt>
      <trkpt lat="50.44976" lon="3.06307">
        <ele>40</ele>
        <time>2012-02-05T08:55:48Z</time>
      </trkpt>
      <trkpt lat="50.44984" lon="3.06317">
        <ele>40</ele>
        <time>2012-02-05T08:55:50Z</time>
      </trkpt>
      <trkpt lat="50.44991" lon="3.06328">
        <ele>40</ele>
        <time>2012-02-05T08:55:52Z</time>
      </trkpt>
      <trkpt lat="50.44997" lon="3.06339">
        <ele>40</ele>
        <time>2012-02-05T08:55:54Z</time>
      </trkpt>
      <trkpt lat="50.45" lon="3.06353">
        <ele>40</ele>
        <time>2012-02-05T08:55:56Z</time>
      </trkpt>
      <trkpt lat="50.45003" lon="3.06367">
        <ele>40</ele>
        <time>2012-02-05T08:55:58Z</time>
      </trkpt>
      <trkpt lat="50.45006" lon="3.0638">
        <ele>40</ele>
        <time>2012-02-05T08:56:00Z</time>
      </trkpt>
      <trkpt lat="50.45007" lon="3.06395">
        <ele>40</ele>
        <time>2012-02-05T08:56:02Z</time>
      </trkpt>
      <trkpt lat="50.45007" lon="3.06409">
        <ele>40</ele>
        <time>2012-02-05T08:56:04Z</time>
      </trkpt>
      <trkpt lat="50.45005" lon="3.06429">
        <ele>40</ele>
        <time>2012-02-05T08:56:07Z</time>
      </trkpt>
      <trkpt lat="50.45" lon="3.06448">
        <ele>40</ele>
        <time>2012-02-05T08:56:10Z</time>
      </trkpt>
      <trkpt lat="50.44995" lon="3.0646">
        <ele>40</ele>
        <time>2012-02-05T08:56:12Z</time>
      </trkpt>
      <trkpt lat="50.4499" lon="3.06475">
        <ele>46</ele>
        <time>2012-02-05T08:56:14Z</time>
      </trkpt>
      <trkpt lat="50.44983" lon="3.06488">
        <ele>46</ele>
        <time>2012-02-05T08:56:16Z</time>
      </trkpt>
      <trkpt lat="50.44976" lon="3.06499">
        <ele>46</ele>
        <time>2012-02-05T08:56:18Z</time>
      </trkpt>
      <trkpt lat="50.44968" lon="3.06509">
        <ele>46</ele>
        <time>2012-02-05T08:56:20Z</time>
      </trkpt>
      <trkpt lat="50.4496" lon="3.06519">
        <ele>46</ele>
        <time>2012-02-05T08:56:22Z</time>
      </trkpt>
      <trkpt lat="50.44951" lon="3.06525">
        <ele>46</ele>
        <time>2012-02-05T08:56:24Z</time>
      </trkpt>
      <trkpt lat="50.44941" lon="3.0653">
        <ele>46</ele>
        <time>2012-02-05T08:56:26Z</time>
      </trkpt>
      <trkpt lat="50.44932" lon="3.06531">
        <ele>46</ele>
        <time>2012-02-05T08:56:28Z</time>
      </trkpt>
      <trkpt lat="50.44919" lon="3.06532">
        <ele>46</ele>
        <time>2012-02-05T08:56:31Z</time>
      </trkpt>
      <trkpt lat="50.44907" lon="3.06533">
        <ele>46</ele>
        <time>2012-02-05T08:56:34Z</time>
      </trkpt>
      <trkpt lat="50.44897" lon="3.06529">
        <ele>46</ele>
        <time>2012-02-05T08:56:36Z</time>
      </trkpt>
      <trkpt lat="50.44889" lon="3.06525">
        <ele>46</ele>
        <time>2012-02-05T08:56:38Z</time>
      </trkpt>
      <trkpt lat="50.4488" lon="3.0652">
        <ele>46</ele>
        <time>2012-02-05T08:56:40Z</time>
      </trkpt>
      <trkpt lat="50.44871" lon="3.06506">
        <ele>46</ele>
        <time>2012-02-05T08:56:42Z</time>
      </trkpt>
      <trkpt lat="50.44863" lon="3.06494">
        <ele>46</ele>
        <time>2012-02-05T08:56:44Z</time>
      </trkpt>
      <trkpt lat="50.44855" lon="3.06479">
        <ele>46</ele>
        <time>2012-02-05T08:56:47Z</time>
      </trkpt>
      <trkpt lat="50.44851" lon="3.06462">
        <ele>46</ele>
        <time>2012-02-05T08:56:50Z</time>
      </trkpt>
      <trkpt lat="50.44846" lon="3.06447">
        <ele>46</ele>
        <time>2012-02-05T08:56:53Z</time>
      </trkpt>
      <trkpt lat="50.44841" lon="3.06429">
        <ele>46</ele>
        <time>2012-02-05T08:56:56Z</time>
      </trkpt>
      <trkpt lat="50.44839" lon="3.06414">
        <ele>46</ele>
        <time>2012-02-05T08:56:58Z</time>
      </trkpt>
      <trkpt lat="50.44839" lon="3.06396">
        <ele>46</ele>
        <time>2012-02-05T08:57:01Z</time>
      </trkpt>
      <trkpt lat="50.44837" lon="3.06379">
        <ele>46</ele>
        <time>2012-02-05T08:57:04Z</time>
      </trkpt>
      <trkpt lat="50.44839" lon="3.06364">
        <ele>46</ele>
        <time>2012-02-05T08:57:06Z</time>
      </trkpt>
      <trkpt lat="50.44842" lon="3.0635">
        <ele>40</ele>
        <time>2012-02-05T08:57:08Z</time>
      </trkpt>
      <trkpt lat="50.44843" lon="3.06332">
        <ele>40</ele>
        <time>2012-02-05T08:57:10Z</time>
      </trkpt>
      <trkpt lat="50.4484" lon="3.06314">
        <ele>40</ele>
        <time>2012-02-05T08:57:12Z</time>
      </trkpt>
      <trkpt lat="50.44833" lon="3.06299">
        <ele>35</ele>
        <time>2012-02-05T08:57:14Z</time>
      </trkpt>
      <trkpt lat="50.44823" lon="3.06281">
        <ele>35</ele>
        <time>2012-02-05T08:57:16Z</time>
      </trkpt>
      <trkpt lat="50.44812" lon="3.06261">
        <ele>35</ele>
        <time>2012-02-05T08:57:18Z</time>
      </trkpt>
      <trkpt lat="50.44802" lon="3.0624">
        <ele>35</ele>
        <time>2012-02-05T08:57:20Z</time>
      </trkpt>
      <trkpt lat="50.44791" lon="3.06223">
        <ele>35</ele>
        <time>2012-02-05T08:57:22Z</time>
      </trkpt>
      <trkpt lat="50.4478" lon="3.06205">
        <ele>35</ele>
        <time>2012-02-05T08:57:24Z</time>
      </trkpt>
      <trkpt lat="50.44772" lon="3.06185">
        <ele>35</ele>
        <time>2012-02-05T08:57:26Z</time>
      </trkpt>
      <trkpt lat="50.44771" lon="3.06163">
        <ele>30</ele>
        <time>2012-02-05T08:57:28Z</time>
      </trkpt>
      <trkpt lat="50.44775" lon="3.06142">
        <ele>30</ele>
        <time>2012-02-05T08:57:30Z</time>
      </trkpt>
      <trkpt lat="50.44777" lon="3.06122">
        <ele>30</ele>
        <time>2012-02-05T08:57:32Z</time>
      </trkpt>
      <trkpt lat="50.44779" lon="3.06103">
        <ele>30</ele>
        <time>2012-02-05T08:57:34Z</time>
      </trkpt>
      <trkpt lat="50.44779" lon="3.06085">
        <ele>30</ele>
        <time>2012-02-05T08:57:36Z</time>
      </trkpt>
      <trkpt lat="50.44773" lon="3.0607">
        <ele>30</ele>
        <time>2012-02-05T08:57:38Z</time>
      </trkpt>
      <trkpt lat="50.44763" lon="3.0606">
        <ele>30</ele>
        <time>2012-02-05T08:57:40Z</time>
      </trkpt>
      <trkpt lat="50.44751" lon="3.06053">
        <ele>30</ele>
        <time>2012-02-05T08:57:42Z</time>
      </trkpt>
      <trkpt lat="50.44738" lon="3.06055">
        <ele>30</ele>
        <time>2012-02-05T08:57:44Z</time>
      </trkpt>
      <trkpt lat="50.44728" lon="3.06063">
        <ele>30</ele>
        <time>2012-02-05T08:57:46Z</time>
      </trkpt>
      <trkpt lat="50.44719" lon="3.0607">
        <ele>30</ele>
        <time>2012-02-05T08:57:48Z</time>
      </trkpt>
      <trkpt lat="50.44709" lon="3.06079">
        <ele>30</ele>
        <time>2012-02-05T08:57:50Z</time>
      </trkpt>
      <trkpt lat="50.44698" lon="3.06088">
        <ele>35</ele>
        <time>2012-02-05T08:57:52Z</time>
      </trkpt>
      <trkpt lat="50.44686" lon="3.06095">
        <ele>35</ele>
        <time>2012-02-05T08:57:54Z</time>
      </trkpt>
      <trkpt lat="50.44674" lon="3.06096">
        <ele>35</ele>
        <time>2012-02-05T08:57:56Z</time>
      </trkpt>
      <trkpt lat="50.44664" lon="3.06096">
        <ele>35</ele>
        <time>2012-02-05T08:57:58Z</time>
      </trkpt>
      <trkpt lat="50.44656" lon="3.06092">
        <ele>35</ele>
        <time>2012-02-05T08:58:00Z</time>
      </trkpt>
      <trkpt lat="50.44647" lon="3.06087">
        <ele>35</ele>
        <time>2012-02-05T08:58:02Z</time>
      </trkpt>
      <trkpt lat="50.44639" lon="3.06081">
        <ele>35</ele>
        <time>2012-02-05T08:58:04Z</time>
      </trkpt>
      <trkpt lat="50.44628" lon="3.06072">
        <ele>35</ele>
        <time>2012-02-05T08:58:07Z</time>
      </trkpt>
      <trkpt lat="50.44617" lon="3.06066">
        <ele>35</ele>
        <time>2012-02-05T08:58:10Z</time>
      </trkpt>
      <trkpt lat="50.44609" lon="3.0606">
        <ele>35</ele>
        <time>2012-02-05T08:58:13Z</time>
      </trkpt>
      <trkpt lat="50.44599" lon="3.06052">
        <ele>35</ele>
        <time>2012-02-05T08:58:17Z</time>
      </trkpt>
      <trkpt lat="50.44591" lon="3.06043">
        <ele>35</ele>
        <time>2012-02-05T08:58:34Z</time>
      </trkpt>
      <trkpt lat="50.44583" lon="3.06031">
        <ele>35</ele>
        <time>2012-02-05T08:58:37Z</time>
      </trkpt>
      <trkpt lat="50.44576" lon="3.06019">
        <ele>35</ele>
        <time>2012-02-05T08:58:39Z</time>
      </trkpt>
      <trkpt lat="50.44567" lon="3.06007">
        <ele>35</ele>
        <time>2012-02-05T08:58:41Z</time>
      </trkpt>
      <trkpt lat="50.44557" lon="3.05996">
        <ele>35</ele>
        <time>2012-02-05T08:58:43Z</time>
      </trkpt>
      <trkpt lat="50.44548" lon="3.05985">
        <ele>35</ele>
        <time>2012-02-05T08:58:45Z</time>
      </trkpt>
      <trkpt lat="50.44539" lon="3.05974">
        <ele>35</ele>
        <time>2012-02-05T08:58:47Z</time>
      </trkpt>
      <trkpt lat="50.4453" lon="3.05964">
        <ele>35</ele>
        <time>2012-02-05T08:58:49Z</time>
      </trkpt>
      <trkpt lat="50.4452" lon="3.05954">
        <ele>35</ele>
        <time>2012-02-05T08:58:51Z</time>
      </trkpt>
      <trkpt lat="50.44511" lon="3.05944">
        <ele>35</ele>
        <time>2012-02-05T08:58:53Z</time>
      </trkpt>
      <trkpt lat="50.44502" lon="3.05936">
        <ele>35</ele>
        <time>2012-02-05T08:58:55Z</time>
      </trkpt>
      <trkpt lat="50.44492" lon="3.05928">
        <ele>35</ele>
        <time>2012-02-05T08:58:57Z</time>
      </trkpt>
      <trkpt lat="50.44483" lon="3.05921">
        <ele>35</ele>
        <time>2012-02-05T08:58:59Z</time>
      </trkpt>
      <trkpt lat="50.44472" lon="3.05913">
        <ele>29</ele>
        <time>2012-02-05T08:59:02Z</time>
      </trkpt>
      <trkpt lat="50.44461" lon="3.05912">
        <ele>29</ele>
        <time>2012-02-05T08:59:05Z</time>
      </trkpt>
      <trkpt lat="50.44455" lon="3.05924">
        <ele>29</ele>
        <time>2012-02-05T08:59:07Z</time>
      </trkpt>
      <trkpt lat="50.44449" lon="3.0594">
        <ele>29</ele>
        <time>2012-02-05T08:59:09Z</time>
      </trkpt>
      <trkpt lat="50.44442" lon="3.05956">
        <ele>29</ele>
        <time>2012-02-05T08:59:11Z</time>
      </trkpt>
      <trkpt lat="50.44437" lon="3.05973">
        <ele>29</ele>
        <time>2012-02-05T08:59:13Z</time>
      </trkpt>
      <trkpt lat="50.44433" lon="3.0599">
        <ele>29</ele>
        <time>2012-02-05T08:59:15Z</time>
      </trkpt>
      <trkpt lat="50.44435" lon="3.06006">
        <ele>29</ele>
        <time>2012-02-05T08:59:17Z</time>
      </trkpt>
      <trkpt lat="50.44431" lon="3.06025">
        <ele>29</ele>
        <time>2012-02-05T08:59:20Z</time>
      </trkpt>
      <trkpt lat="50.44425" lon="3.06037">
        <ele>29</ele>
        <time>2012-02-05T08:59:22Z</time>
      </trkpt>
      <trkpt lat="50.44418" lon="3.06052">
        <ele>29</ele>
        <time>2012-02-05T08:59:24Z</time>
      </trkpt>
      <trkpt lat="50.44411" lon="3.06069">
        <ele>29</ele>
        <time>2012-02-05T08:59:26Z</time>
      </trkpt>
      <trkpt lat="50.44405" lon="3.06085">
        <ele>29</ele>
        <time>2012-02-05T08:59:28Z</time>
      </trkpt>
      <trkpt lat="50.44397" lon="3.061">
        <ele>29</ele>
        <time>2012-02-05T08:59:30Z</time>
      </trkpt>
      <trkpt lat="50.4439" lon="3.06116">
        <ele>29</ele>
        <time>2012-02-05T08:59:32Z</time>
      </trkpt>
      <trkpt lat="50.44384" lon="3.06131">
        <ele>29</ele>
        <time>2012-02-05T08:59:34Z</time>
      </trkpt>
      <trkpt lat="50.44378" lon="3.06144">
        <ele>29</ele>
        <time>2012-02-05T08:59:36Z</time>
      </trkpt>
      <trkpt lat="50.44372" lon="3.06158">
        <ele>29</ele>
        <time>2012-02-05T08:59:38Z</time>
      </trkpt>
      <trkpt lat="50.44366" lon="3.0617">
        <ele>29</ele>
        <time>2012-02-05T08:59:40Z</time>
      </trkpt>
      <trkpt lat="50.44356" lon="3.0617">
        <ele>29</ele>
        <time>2012-02-05T08:59:42Z</time>
      </trkpt>
      <trkpt lat="50.44347" lon="3.06156">
        <ele>29</ele>
        <time>2012-02-05T08:59:44Z</time>
      </trkpt>
      <trkpt lat="50.44341" lon="3.0614">
        <ele>29</ele>
        <time>2012-02-05T08:59:46Z</time>
      </trkpt>
      <trkpt lat="50.44333" lon="3.06132">
        <ele>29</ele>
        <time>2012-02-05T08:59:48Z</time>
      </trkpt>
      <trkpt lat="50.44322" lon="3.06137">
        <ele>29</ele>
        <time>2012-02-05T08:59:52Z</time>
      </trkpt>
      <trkpt lat="50.44316" lon="3.06148">
        <ele>29</ele>
        <time>2012-02-05T08:59:54Z</time>
      </trkpt>
      <trkpt lat="50.4431" lon="3.06162">
        <ele>29</ele>
        <time>2012-02-05T08:59:56Z</time>
      </trkpt>
      <trkpt lat="50.44305" lon="3.06178">
        <ele>29</ele>
        <time>2012-02-05T08:59:58Z</time>
      </trkpt>
      <trkpt lat="50.44299" lon="3.06194">
        <ele>29</ele>
        <time>2012-02-05T09:00:00Z</time>
      </trkpt>
      <trkpt lat="50.44292" lon="3.06211">
        <ele>29</ele>
        <time>2012-02-05T09:00:02Z</time>
      </trkpt>
      <trkpt lat="50.44286" lon="3.06227">
        <ele>29</ele>
        <time>2012-02-05T09:00:04Z</time>
      </trkpt>
      <trkpt lat="50.44279" lon="3.06243">
        <ele>29</ele>
        <time>2012-02-05T09:00:06Z</time>
      </trkpt>
      <trkpt lat="50.44273" lon="3.06259">
        <ele>29</ele>
        <time>2012-02-05T09:00:08Z</time>
      </trkpt>
      <trkpt lat="50.44267" lon="3.06276">
        <ele>29</ele>
        <time>2012-02-05T09:00:10Z</time>
      </trkpt>
      <trkpt lat="50.44262" lon="3.06294">
        <ele>29</ele>
        <time>2012-02-05T09:00:12Z</time>
      </trkpt>
      <trkpt lat="50.44256" lon="3.06312">
        <ele>29</ele>
        <time>2012-02-05T09:00:14Z</time>
      </trkpt>
      <trkpt lat="50.4425" lon="3.06331">
        <ele>29</ele>
        <time>2012-02-05T09:00:16Z</time>
      </trkpt>
      <trkpt lat="50.44243" lon="3.06349">
        <ele>29</ele>
        <time>2012-02-05T09:00:18Z</time>
      </trkpt>
      <trkpt lat="50.44237" lon="3.06367">
        <ele>29</ele>
        <time>2012-02-05T09:00:20Z</time>
      </trkpt>
      <trkpt lat="50.44229" lon="3.06383">
        <ele>29</ele>
        <time>2012-02-05T09:00:22Z</time>
      </trkpt>
      <trkpt lat="50.44222" lon="3.064">
        <ele>29</ele>
        <time>2012-02-05T09:00:24Z</time>
      </trkpt>
      <trkpt lat="50.44215" lon="3.06417">
        <ele>29</ele>
        <time>2012-02-05T09:00:26Z</time>
      </trkpt>
      <trkpt lat="50.44208" lon="3.06435">
        <ele>29</ele>
        <time>2012-02-05T09:00:28Z</time>
      </trkpt>
      <trkpt lat="50.44201" lon="3.06453">
        <ele>29</ele>
        <time>2012-02-05T09:00:30Z</time>
      </trkpt>
      <trkpt lat="50.44193" lon="3.06472">
        <ele>29</ele>
        <time>2012-02-05T09:00:32Z</time>
      </trkpt>
      <trkpt lat="50.44187" lon="3.06491">
        <ele>29</ele>
        <time>2012-02-05T09:00:34Z</time>
      </trkpt>
      <trkpt lat="50.44179" lon="3.06509">
        <ele>29</ele>
        <time>2012-02-05T09:00:36Z</time>
      </trkpt>
      <trkpt lat="50.44171" lon="3.06529">
        <ele>29</ele>
        <time>2012-02-05T09:00:38Z</time>
      </trkpt>
      <trkpt lat="50.44164" lon="3.06547">
        <ele>29</ele>
        <time>2012-02-05T09:00:40Z</time>
      </trkpt>
      <trkpt lat="50.44157" lon="3.06567">
        <ele>29</ele>
        <time>2012-02-05T09:00:42Z</time>
      </trkpt>
      <trkpt lat="50.44149" lon="3.06586">
        <ele>29</ele>
        <time>2012-02-05T09:00:44Z</time>
      </trkpt>
      <trkpt lat="50.44141" lon="3.06605">
        <ele>29</ele>
        <time>2012-02-05T09:00:46Z</time>
      </trkpt>
      <trkpt lat="50.44134" lon="3.06624">
        <ele>29</ele>
        <time>2012-02-05T09:00:48Z</time>
      </trkpt>
      <trkpt lat="50.44126" lon="3.06643">
        <ele>29</ele>
        <time>2012-02-05T09:00:50Z</time>
      </trkpt>
      <trkpt lat="50.44117" lon="3.06662">
        <ele>29</ele>
        <time>2012-02-05T09:00:52Z</time>
      </trkpt>
      <trkpt lat="50.44109" lon="3.06681">
        <ele>29</ele>
        <time>2012-02-05T09:00:54Z</time>
      </trkpt>
      <trkpt lat="50.44102" lon="3.067">
        <ele>29</ele>
        <time>2012-02-05T09:00:56Z</time>
      </trkpt>
      <trkpt lat="50.44094" lon="3.06718">
        <ele>29</ele>
        <time>2012-02-05T09:00:58Z</time>
      </trkpt>
      <trkpt lat="50.44087" lon="3.06737">
        <ele>29</ele>
        <time>2012-02-05T09:01:00Z</time>
      </trkpt>
      <trkpt lat="50.44078" lon="3.06754">
        <ele>29</ele>
        <time>2012-02-05T09:01:02Z</time>
      </trkpt>
      <trkpt lat="50.4407" lon="3.0677">
        <ele>29</ele>
        <time>2012-02-05T09:01:04Z</time>
      </trkpt>
      <trkpt lat="50.4406" lon="3.06786">
        <ele>29</ele>
        <time>2012-02-05T09:01:06Z</time>
      </trkpt>
      <trkpt lat="50.44051" lon="3.06801">
        <ele>29</ele>
        <time>2012-02-05T09:01:08Z</time>
      </trkpt>
      <trkpt lat="50.4404" lon="3.06815">
        <ele>29</ele>
        <time>2012-02-05T09:01:10Z</time>
      </trkpt>
      <trkpt lat="50.44029" lon="3.06828">
        <ele>29</ele>
        <time>2012-02-05T09:01:12Z</time>
      </trkpt>
      <trkpt lat="50.44018" lon="3.0684">
        <ele>29</ele>
        <time>2012-02-05T09:01:14Z</time>
      </trkpt>
      <trkpt lat="50.44006" lon="3.06851">
        <ele>29</ele>
        <time>2012-02-05T09:01:16Z</time>
      </trkpt>
      <trkpt lat="50.43993" lon="3.0686">
        <ele>29</ele>
        <time>2012-02-05T09:01:18Z</time>
      </trkpt>
      <trkpt lat="50.43981" lon="3.06868">
        <ele>29</ele>
        <time>2012-02-05T09:01:20Z</time>
      </trkpt>
      <trkpt lat="50.43969" lon="3.06875">
        <ele>29</ele>
        <time>2012-02-05T09:01:22Z</time>
      </trkpt>
      <trkpt lat="50.43957" lon="3.06883">
        <ele>29</ele>
        <time>2012-02-05T09:01:24Z</time>
      </trkpt>
      <trkpt lat="50.43946" lon="3.06887">
        <ele>29</ele>
        <time>2012-02-05T09:01:26Z</time>
      </trkpt>
      <trkpt lat="50.43936" lon="3.06889">
        <ele>29</ele>
        <time>2012-02-05T09:01:28Z</time>
      </trkpt>
      <trkpt lat="50.43924" lon="3.06889">
        <ele>29</ele>
        <time>2012-02-05T09:01:31Z</time>
      </trkpt>
      <trkpt lat="50.43914" lon="3.06887">
        <ele>29</ele>
        <time>2012-02-05T09:01:33Z</time>
      </trkpt>
      <trkpt lat="50.43904" lon="3.06886">
        <ele>29</ele>
        <time>2012-02-05T09:01:35Z</time>
      </trkpt>
      <trkpt lat="50.43893" lon="3.06885">
        <ele>29</ele>
        <time>2012-02-05T09:01:37Z</time>
      </trkpt>
      <trkpt lat="50.43883" lon="3.06883">
        <ele>29</ele>
        <time>2012-02-05T09:01:39Z</time>
      </trkpt>
      <trkpt lat="50.43872" lon="3.06883">
        <ele>29</ele>
        <time>2012-02-05T09:01:41Z</time>
      </trkpt>
      <trkpt lat="50.4386" lon="3.06882">
        <ele>29</ele>
        <time>2012-02-05T09:01:43Z</time>
      </trkpt>
      <trkpt lat="50.43848" lon="3.06881">
        <ele>29</ele>
        <time>2012-02-05T09:01:45Z</time>
      </trkpt>
      <trkpt lat="50.43836" lon="3.06879">
        <ele>29</ele>
        <time>2012-02-05T09:01:47Z</time>
      </trkpt>
      <trkpt lat="50.43823" lon="3.06878">
        <ele>29</ele>
        <time>2012-02-05T09:01:49Z</time>
      </trkpt>
      <trkpt lat="50.4381" lon="3.06877">
        <ele>29</ele>
        <time>2012-02-05T09:01:51Z</time>
      </trkpt>
      <trkpt lat="50.43797" lon="3.06876">
        <ele>29</ele>
        <time>2012-02-05T09:01:53Z</time>
      </trkpt>
      <trkpt lat="50.43784" lon="3.06876">
        <ele>29</ele>
        <time>2012-02-05T09:01:55Z</time>
      </trkpt>
      <trkpt lat="50.43771" lon="3.06875">
        <ele>29</ele>
        <time>2012-02-05T09:01:57Z</time>
      </trkpt>
      <trkpt lat="50.43757" lon="3.06874">
        <ele>29</ele>
        <time>2012-02-05T09:01:59Z</time>
      </trkpt>
      <trkpt lat="50.43744" lon="3.06873">
        <ele>29</ele>
        <time>2012-02-05T09:02:01Z</time>
      </trkpt>
      <trkpt lat="50.43731" lon="3.06872">
        <ele>29</ele>
        <time>2012-02-05T09:02:03Z</time>
      </trkpt>
      <trkpt lat="50.43717" lon="3.06872">
        <ele>29</ele>
        <time>2012-02-05T09:02:05Z</time>
      </trkpt>
      <trkpt lat="50.43703" lon="3.06872">
        <ele>29</ele>
        <time>2012-02-05T09:02:07Z</time>
      </trkpt>
      <trkpt lat="50.43689" lon="3.06871">
        <ele>29</ele>
        <time>2012-02-05T09:02:09Z</time>
      </trkpt>
      <trkpt lat="50.43675" lon="3.0687">
        <ele>29</ele>
        <time>2012-02-05T09:02:11Z</time>
      </trkpt>
      <trkpt lat="50.43661" lon="3.0687">
        <ele>29</ele>
        <time>2012-02-05T09:02:13Z</time>
      </trkpt>
      <trkpt lat="50.43647" lon="3.0687">
        <ele>24</ele>
        <time>2012-02-05T09:02:15Z</time>
      </trkpt>
      <trkpt lat="50.43633" lon="3.06869">
        <ele>24</ele>
        <time>2012-02-05T09:02:17Z</time>
      </trkpt>
      <trkpt lat="50.43619" lon="3.06869">
        <ele>24</ele>
        <time>2012-02-05T09:02:19Z</time>
      </trkpt>
      <trkpt lat="50.43605" lon="3.06867">
        <ele>24</ele>
        <time>2012-02-05T09:02:21Z</time>
      </trkpt>
      <trkpt lat="50.43592" lon="3.06866">
        <ele>24</ele>
        <time>2012-02-05T09:02:23Z</time>
      </trkpt>
      <trkpt lat="50.43578" lon="3.06864">
        <ele>24</ele>
        <time>2012-02-05T09:02:25Z</time>
      </trkpt>
      <trkpt lat="50.43564" lon="3.06859">
        <ele>24</ele>
        <time>2012-02-05T09:02:27Z</time>
      </trkpt>
      <trkpt lat="50.43551" lon="3.06854">
        <ele>24</ele>
        <time>2012-02-05T09:02:29Z</time>
      </trkpt>
      <trkpt lat="50.43538" lon="3.06847">
        <ele>24</ele>
        <time>2012-02-05T09:02:31Z</time>
      </trkpt>
      <trkpt lat="50.43526" lon="3.06839">
        <ele>24</ele>
        <time>2012-02-05T09:02:33Z</time>
      </trkpt>
      <trkpt lat="50.43514" lon="3.0683">
        <ele>24</ele>
        <time>2012-02-05T09:02:35Z</time>
      </trkpt>
      <trkpt lat="50.43502" lon="3.0682">
        <ele>24</ele>
        <time>2012-02-05T09:02:37Z</time>
      </trkpt>
      <trkpt lat="50.43491" lon="3.06809">
        <ele>24</ele>
        <time>2012-02-05T09:02:39Z</time>
      </trkpt>
      <trkpt lat="50.43479" lon="3.06798">
        <ele>24</ele>
        <time>2012-02-05T09:02:41Z</time>
      </trkpt>
      <trkpt lat="50.43468" lon="3.06786">
        <ele>24</ele>
        <time>2012-02-05T09:02:43Z</time>
      </trkpt>
      <trkpt lat="50.43456" lon="3.06777">
        <ele>24</ele>
        <time>2012-02-05T09:02:45Z</time>
      </trkpt>
      <trkpt lat="50.43444" lon="3.06765">
        <ele>24</ele>
        <time>2012-02-05T09:02:47Z</time>
      </trkpt>
      <trkpt lat="50.43433" lon="3.06753">
        <ele>24</ele>
        <time>2012-02-05T09:02:49Z</time>
      </trkpt>
      <trkpt lat="50.43421" lon="3.06742">
        <ele>24</ele>
        <time>2012-02-05T09:02:51Z</time>
      </trkpt>
      <trkpt lat="50.4341" lon="3.06732">
        <ele>24</ele>
        <time>2012-02-05T09:02:53Z</time>
      </trkpt>
      <trkpt lat="50.43398" lon="3.06721">
        <ele>24</ele>
        <time>2012-02-05T09:02:55Z</time>
      </trkpt>
      <trkpt lat="50.43386" lon="3.06709">
        <ele>24</ele>
        <time>2012-02-05T09:02:57Z</time>
      </trkpt>
      <trkpt lat="50.43375" lon="3.06697">
        <ele>24</ele>
        <time>2012-02-05T09:02:59Z</time>
      </trkpt>
      <trkpt lat="50.43363" lon="3.06686">
        <ele>24</ele>
        <time>2012-02-05T09:03:01Z</time>
      </trkpt>
      <trkpt lat="50.43351" lon="3.06672">
        <ele>24</ele>
        <time>2012-02-05T09:03:03Z</time>
      </trkpt>
      <trkpt lat="50.43339" lon="3.06661">
        <ele>24</ele>
        <time>2012-02-05T09:03:05Z</time>
      </trkpt>
      <trkpt lat="50.43327" lon="3.0665">
        <ele>24</ele>
        <time>2012-02-05T09:03:07Z</time>
      </trkpt>
      <trkpt lat="50.43316" lon="3.06639">
        <ele>24</ele>
        <time>2012-02-05T09:03:09Z</time>
      </trkpt>
      <trkpt lat="50.43305" lon="3.06628">
        <ele>24</ele>
        <time>2012-02-05T09:03:11Z</time>
      </trkpt>
      <trkpt lat="50.43294" lon="3.06618">
        <ele>24</ele>
        <time>2012-02-05T09:03:13Z</time>
      </trkpt>
      <trkpt lat="50.43284" lon="3.06608">
        <ele>24</ele>
        <time>2012-02-05T09:03:15Z</time>
      </trkpt>
      <trkpt lat="50.43274" lon="3.06597">
        <ele>24</ele>
        <time>2012-02-05T09:03:17Z</time>
      </trkpt>
      <trkpt lat="50.43264" lon="3.06586">
        <ele>24</ele>
        <time>2012-02-05T09:03:19Z</time>
      </trkpt>
      <trkpt lat="50.43254" lon="3.06575">
        <ele>24</ele>
        <time>2012-02-05T09:03:21Z</time>
      </trkpt>
      <trkpt lat="50.43244" lon="3.06565">
        <ele>24</ele>
        <time>2012-02-05T09:03:23Z</time>
      </trkpt>
      <trkpt lat="50.43235" lon="3.06555">
        <ele>24</ele>
        <time>2012-02-05T09:03:25Z</time>
      </trkpt>
      <trkpt lat="50.43225" lon="3.06545">
        <ele>24</ele>
        <time>2012-02-05T09:03:27Z</time>
      </trkpt>
      <trkpt lat="50.43215" lon="3.06535">
        <ele>24</ele>
        <time>2012-02-05T09:03:29Z</time>
      </trkpt>
      <trkpt lat="50.43204" lon="3.06529">
        <ele>24</ele>
        <time>2012-02-05T09:03:31Z</time>
      </trkpt>
      <trkpt lat="50.43193" lon="3.06527">
        <ele>24</ele>
        <time>2012-02-05T09:03:33Z</time>
      </trkpt>
      <trkpt lat="50.43181" lon="3.06526">
        <ele>24</ele>
        <time>2012-02-05T09:03:35Z</time>
      </trkpt>
      <trkpt lat="50.4317" lon="3.06525">
        <ele>24</ele>
        <time>2012-02-05T09:03:37Z</time>
      </trkpt>
      <trkpt lat="50.43158" lon="3.06526">
        <ele>24</ele>
        <time>2012-02-05T09:03:39Z</time>
      </trkpt>
      <trkpt lat="50.43146" lon="3.06527">
        <ele>24</ele>
        <time>2012-02-05T09:03:41Z</time>
      </trkpt>
      <trkpt lat="50.43135" lon="3.06527">
        <ele>24</ele>
        <time>2012-02-05T09:03:43Z</time>
      </trkpt>
      <trkpt lat="50.43125" lon="3.06528">
        <ele>24</ele>
        <time>2012-02-05T09:03:45Z</time>
      </trkpt>
      <trkpt lat="50.43115" lon="3.06529">
        <ele>24</ele>
        <time>2012-02-05T09:03:47Z</time>
      </trkpt>
      <trkpt lat="50.43106" lon="3.06529">
        <ele>24</ele>
        <time>2012-02-05T09:03:49Z</time>
      </trkpt>
      <trkpt lat="50.43096" lon="3.06531">
        <ele>24</ele>
        <time>2012-02-05T09:03:51Z</time>
      </trkpt>
      <trkpt lat="50.43087" lon="3.06534">
        <ele>24</ele>
        <time>2012-02-05T09:03:53Z</time>
      </trkpt>
      <trkpt lat="50.4308" lon="3.06544">
        <ele>24</ele>
        <time>2012-02-05T09:03:55Z</time>
      </trkpt>
      <trkpt lat="50.43075" lon="3.06557">
        <ele>24</ele>
        <time>2012-02-05T09:03:57Z</time>
      </trkpt>
      <trkpt lat="50.43071" lon="3.06571">
        <ele>24</ele>
        <time>2012-02-05T09:03:59Z</time>
      </trkpt>
      <trkpt lat="50.43066" lon="3.06582">
        <ele>24</ele>
        <time>2012-02-05T09:04:01Z</time>
      </trkpt>
      <trkpt lat="50.43058" lon="3.06599">
        <ele>24</ele>
        <time>2012-02-05T09:04:04Z</time>
      </trkpt>
      <trkpt lat="50.43052" lon="3.06613">
        <ele>24</ele>
        <time>2012-02-05T09:04:07Z</time>
      </trkpt>
      <trkpt lat="50.43043" lon="3.06611">
        <ele>24</ele>
        <time>2012-02-05T09:04:21Z</time>
      </trkpt>
      <trkpt lat="50.43034" lon="3.06603">
        <ele>24</ele>
        <time>2012-02-05T09:04:24Z</time>
      </trkpt>
      <trkpt lat="50.43026" lon="3.06596">
        <ele>24</ele>
        <time>2012-02-05T09:04:26Z</time>
      </trkpt>
      <trkpt lat="50.43018" lon="3.06586">
        <ele>24</ele>
        <time>2012-02-05T09:04:28Z</time>
      </trkpt>
      <trkpt lat="50.43009" lon="3.06575">
        <ele>24</ele>
        <time>2012-02-05T09:04:30Z</time>
      </trkpt>
      <trkpt lat="50.42998" lon="3.06574">
        <ele>24</ele>
        <time>2012-02-05T09:04:32Z</time>
      </trkpt>
      <trkpt lat="50.42987" lon="3.06582">
        <ele>24</ele>
        <time>2012-02-05T09:04:34Z</time>
      </trkpt>
      <trkpt lat="50.42978" lon="3.06595">
        <ele>24</ele>
        <time>2012-02-05T09:04:36Z</time>
      </trkpt>
      <trkpt lat="50.42971" lon="3.06611">
        <ele>24</ele>
        <time>2012-02-05T09:04:38Z</time>
      </trkpt>
      <trkpt lat="50.42965" lon="3.06627">
        <ele>24</ele>
        <time>2012-02-05T09:04:40Z</time>
      </trkpt>
      <trkpt lat="50.42958" lon="3.06643">
        <ele>24</ele>
        <time>2012-02-05T09:04:42Z</time>
      </trkpt>
      <trkpt lat="50.4295" lon="3.06654">
        <ele>24</ele>
        <time>2012-02-05T09:04:44Z</time>
      </trkpt>
      <trkpt lat="50.42943" lon="3.06666">
        <ele>24</ele>
        <time>2012-02-05T09:04:46Z</time>
      </trkpt>
      <trkpt lat="50.4294" lon="3.06684">
        <ele>24</ele>
        <time>2012-02-05T09:04:49Z</time>
      </trkpt>
      <trkpt lat="50.42946" lon="3.067">
        <ele>24</ele>
        <time>2012-02-05T09:04:53Z</time>
      </trkpt>
      <trkpt lat="50.42954" lon="3.06711">
        <ele>24</ele>
        <time>2012-02-05T09:04:58Z</time>
      </trkpt>
      <trkpt lat="50.42963" lon="3.06716">
        <ele>24</ele>
        <time>2012-02-05T09:05:03Z</time>
      </trkpt>
      <trkpt lat="50.42971" lon="3.06706">
        <ele>24</ele>
        <time>2012-02-05T09:05:07Z</time>
      </trkpt>
      <trkpt lat="50.42978" lon="3.06697">
        <ele>24</ele>
        <time>2012-02-05T09:05:10Z</time>
      </trkpt>
      <trkpt lat="50.42985" lon="3.06684">
        <ele>24</ele>
        <time>2012-02-05T09:05:13Z</time>
      </trkpt>
      <trkpt lat="50.42992" lon="3.06674">
        <ele>24</ele>
        <time>2012-02-05T09:05:16Z</time>
      </trkpt>
      <trkpt lat="50.42999" lon="3.06664">
        <ele>24</ele>
        <time>2012-02-05T09:05:19Z</time>
      </trkpt>
      <trkpt lat="50.43007" lon="3.06653">
        <ele>24</ele>
        <time>2012-02-05T09:05:22Z</time>
      </trkpt>
      <trkpt lat="50.43016" lon="3.06645">
        <ele>24</ele>
        <time>2012-02-05T09:05:26Z</time>
      </trkpt>
      <trkpt lat="50.43006" lon="3.06653">
        <ele>24</ele>
        <time>2012-02-05T09:05:43Z</time>
      </trkpt>
      <trkpt lat="50.42999" lon="3.06664">
        <ele>24</ele>
        <time>2012-02-05T09:05:46Z</time>
      </trkpt>
      <trkpt lat="50.4299" lon="3.06677">
        <ele>24</ele>
        <time>2012-02-05T09:05:49Z</time>
      </trkpt>
      <trkpt lat="50.42982" lon="3.0669">
        <ele>24</ele>
        <time>2012-02-05T09:05:52Z</time>
      </trkpt>
      <trkpt lat="50.42974" lon="3.06704">
        <ele>24</ele>
        <time>2012-02-05T09:05:55Z</time>
      </trkpt>
      <trkpt lat="50.42966" lon="3.06713">
        <ele>24</ele>
        <time>2012-02-05T09:05:58Z</time>
      </trkpt>
      <trkpt lat="50.42961" lon="3.06724">
        <ele>24</ele>
        <time>2012-02-05T09:06:01Z</time>
      </trkpt>
      <trkpt lat="50.42953" lon="3.06739">
        <ele>24</ele>
        <time>2012-02-05T09:06:04Z</time>
      </trkpt>
      <trkpt lat="50.42947" lon="3.06749">
        <ele>24</ele>
        <time>2012-02-05T09:06:06Z</time>
      </trkpt>
      <trkpt lat="50.42935" lon="3.06756">
        <ele>24</ele>
        <time>2012-02-05T09:06:09Z</time>
      </trkpt>
      <trkpt lat="50.42923" lon="3.06768">
        <ele>24</ele>
        <time>2012-02-05T09:06:12Z</time>
      </trkpt>
      <trkpt lat="50.42911" lon="3.06774">
        <ele>24</ele>
        <time>2012-02-05T09:06:14Z</time>
      </trkpt>
      <trkpt lat="50.42901" lon="3.06769">
        <ele>24</ele>
        <time>2012-02-05T09:06:16Z</time>
      </trkpt>
      <trkpt lat="50.4289" lon="3.06757">
        <ele>24</ele>
        <time>2012-02-05T09:06:18Z</time>
      </trkpt>
      <trkpt lat="50.4288" lon="3.06739">
        <ele>24</ele>
        <time>2012-02-05T09:06:20Z</time>
      </trkpt>
      <trkpt lat="50.42869" lon="3.0672">
        <ele>24</ele>
        <time>2012-02-05T09:06:22Z</time>
      </trkpt>
      <trkpt lat="50.42858" lon="3.06706">
        <ele>19</ele>
        <time>2012-02-05T09:06:24Z</time>
      </trkpt>
      <trkpt lat="50.4285" lon="3.06692">
        <ele>19</ele>
        <time>2012-02-05T09:06:26Z</time>
      </trkpt>
      <trkpt lat="50.42847" lon="3.06674">
        <ele>19</ele>
        <time>2012-02-05T09:06:28Z</time>
      </trkpt>
      <trkpt lat="50.42847" lon="3.06656">
        <ele>19</ele>
        <time>2012-02-05T09:06:30Z</time>
      </trkpt>
      <trkpt lat="50.42849" lon="3.06638">
        <ele>19</ele>
        <time>2012-02-05T09:06:32Z</time>
      </trkpt>
      <trkpt lat="50.42847" lon="3.06623">
        <ele>19</ele>
        <time>2012-02-05T09:06:34Z</time>
      </trkpt>
      <trkpt lat="50.42842" lon="3.06612">
        <ele>19</ele>
        <time>2012-02-05T09:06:36Z</time>
      </trkpt>
      <trkpt lat="50.42835" lon="3.06601">
        <ele>19</ele>
        <time>2012-02-05T09:06:38Z</time>
      </trkpt>
      <trkpt lat="50.42829" lon="3.0659">
        <ele>19</ele>
        <time>2012-02-05T09:06:40Z</time>
      </trkpt>
      <trkpt lat="50.42821" lon="3.06577">
        <ele>19</ele>
        <time>2012-02-05T09:06:42Z</time>
      </trkpt>
      <trkpt lat="50.42814" lon="3.06565">
        <ele>19</ele>
        <time>2012-02-05T09:06:44Z</time>
      </trkpt>
      <trkpt lat="50.42808" lon="3.06549">
        <ele>19</ele>
        <time>2012-02-05T09:06:46Z</time>
      </trkpt>
      <trkpt lat="50.42803" lon="3.06533">
        <ele>19</ele>
        <time>2012-02-05T09:06:48Z</time>
      </trkpt>
      <trkpt lat="50.42795" lon="3.06519">
        <ele>19</ele>
        <time>2012-02-05T09:06:50Z</time>
      </trkpt>
      <trkpt lat="50.42788" lon="3.06507">
        <ele>19</ele>
        <time>2012-02-05T09:06:52Z</time>
      </trkpt>
      <trkpt lat="50.4278" lon="3.06494">
        <ele>19</ele>
        <time>2012-02-05T09:06:55Z</time>
      </trkpt>
      <trkpt lat="50.42774" lon="3.06483">
        <ele>19</ele>
        <time>2012-02-05T09:06:58Z</time>
      </trkpt>
      <trkpt lat="50.42765" lon="3.06467">
        <ele>19</ele>
        <time>2012-02-05T09:07:01Z</time>
      </trkpt>
      <trkpt lat="50.42759" lon="3.06455">
        <ele>19</ele>
        <time>2012-02-05T09:07:03Z</time>
      </trkpt>
      <trkpt lat="50.42752" lon="3.06441">
        <ele>19</ele>
        <time>2012-02-05T09:07:05Z</time>
      </trkpt>
      <trkpt lat="50.42745" lon="3.06426">
        <ele>19</ele>
        <time>2012-02-05T09:07:07Z</time>
      </trkpt>
      <trkpt lat="50.4274" lon="3.06411">
        <ele>19</ele>
        <time>2012-02-05T09:07:09Z</time>
      </trkpt>
      <trkpt lat="50.42734" lon="3.06397">
        <ele>19</ele>
        <time>2012-02-05T09:07:11Z</time>
      </trkpt>
      <trkpt lat="50.42728" lon="3.06384">
        <ele>19</ele>
        <time>2012-02-05T09:07:13Z</time>
      </trkpt>
      <trkpt lat="50.42722" lon="3.06371">
        <ele>19</ele>
        <time>2012-02-05T09:07:15Z</time>
      </trkpt>
      <trkpt lat="50.42716" lon="3.06359">
        <ele>19</ele>
        <time>2012-02-05T09:07:18Z</time>
      </trkpt>
      <trkpt lat="50.42707" lon="3.06345">
        <ele>19</ele>
        <time>2012-02-05T09:07:21Z</time>
      </trkpt>
      <trkpt lat="50.427" lon="3.06335">
        <ele>19</ele>
        <time>2012-02-05T09:07:23Z</time>
      </trkpt>
      <trkpt lat="50.42693" lon="3.06324">
        <ele>19</ele>
        <time>2012-02-05T09:07:25Z</time>
      </trkpt>
      <trkpt lat="50.42685" lon="3.06313">
        <ele>19</ele>
        <time>2012-02-05T09:07:27Z</time>
      </trkpt>
      <trkpt lat="50.42677" lon="3.06302">
        <ele>19</ele>
        <time>2012-02-05T09:07:29Z</time>
      </trkpt>
      <trkpt lat="50.42671" lon="3.06289">
        <ele>19</ele>
        <time>2012-02-05T09:07:31Z</time>
      </trkpt>
      <trkpt lat="50.4267" lon="3.06273">
        <ele>19</ele>
        <time>2012-02-05T09:07:33Z</time>
      </trkpt>
      <trkpt lat="50.42675" lon="3.06258">
        <ele>19</ele>
        <time>2012-02-05T09:07:35Z</time>
      </trkpt>
      <trkpt lat="50.42683" lon="3.06247">
        <ele>19</ele>
        <time>2012-02-05T09:07:37Z</time>
      </trkpt>
      <trkpt lat="50.4269" lon="3.06234">
        <ele>19</ele>
        <time>2012-02-05T09:07:39Z</time>
      </trkpt>
      <trkpt lat="50.42696" lon="3.0622">
        <ele>19</ele>
        <time>2012-02-05T09:07:41Z</time>
      </trkpt>
      <trkpt lat="50.42701" lon="3.06207">
        <ele>19</ele>
        <time>2012-02-05T09:07:43Z</time>
      </trkpt>
      <trkpt lat="50.42705" lon="3.06193">
        <ele>19</ele>
        <time>2012-02-05T09:07:45Z</time>
      </trkpt>
      <trkpt lat="50.42711" lon="3.06179">
        <ele>19</ele>
        <time>2012-02-05T09:07:47Z</time>
      </trkpt>
      <trkpt lat="50.42719" lon="3.0617">
        <ele>19</ele>
        <time>2012-02-05T09:07:49Z</time>
      </trkpt>
      <trkpt lat="50.42729" lon="3.06164">
        <ele>19</ele>
        <time>2012-02-05T09:07:51Z</time>
      </trkpt>
      <trkpt lat="50.42738" lon="3.06155">
        <ele>19</ele>
        <time>2012-02-05T09:07:53Z</time>
      </trkpt>
      <trkpt lat="50.42742" lon="3.06141">
        <ele>19</ele>
        <time>2012-02-05T09:07:55Z</time>
      </trkpt>
      <trkpt lat="50.42745" lon="3.06126">
        <ele>19</ele>
        <time>2012-02-05T09:07:57Z</time>
      </trkpt>
      <trkpt lat="50.42744" lon="3.06111">
        <ele>19</ele>
        <time>2012-02-05T09:07:59Z</time>
      </trkpt>
      <trkpt lat="50.42741" lon="3.06096">
        <ele>19</ele>
        <time>2012-02-05T09:08:01Z</time>
      </trkpt>
      <trkpt lat="50.42741" lon="3.06079">
        <ele>19</ele>
        <time>2012-02-05T09:08:03Z</time>
      </trkpt>
      <trkpt lat="50.42744" lon="3.06065">
        <ele>19</ele>
        <time>2012-02-05T09:08:05Z</time>
      </trkpt>
      <trkpt lat="50.42749" lon="3.06053">
        <ele>19</ele>
        <time>2012-02-05T09:08:07Z</time>
      </trkpt>
      <trkpt lat="50.42755" lon="3.06043">
        <ele>19</ele>
        <time>2012-02-05T09:08:09Z</time>
      </trkpt>
      <trkpt lat="50.42761" lon="3.06031">
        <ele>19</ele>
        <time>2012-02-05T09:08:11Z</time>
      </trkpt>
      <trkpt lat="50.42768" lon="3.06017">
        <ele>19</ele>
        <time>2012-02-05T09:08:13Z</time>
      </trkpt>
      <trkpt lat="50.42775" lon="3.06004">
        <ele>19</ele>
        <time>2012-02-05T09:08:15Z</time>
      </trkpt>
      <trkpt lat="50.42783" lon="3.05991">
        <ele>19</ele>
        <time>2012-02-05T09:08:17Z</time>
      </trkpt>
      <trkpt lat="50.4279" lon="3.05981">
        <ele>19</ele>
        <time>2012-02-05T09:08:19Z</time>
      </trkpt>
      <trkpt lat="50.42798" lon="3.05969">
        <ele>19</ele>
        <time>2012-02-05T09:08:21Z</time>
      </trkpt>
      <trkpt lat="50.42804" lon="3.05957">
        <ele>19</ele>
        <time>2012-02-05T09:08:23Z</time>
      </trkpt>
      <trkpt lat="50.42811" lon="3.05946">
        <ele>19</ele>
        <time>2012-02-05T09:08:25Z</time>
      </trkpt>
      <trkpt lat="50.42817" lon="3.05934">
        <ele>19</ele>
        <time>2012-02-05T09:08:27Z</time>
      </trkpt>
      <trkpt lat="50.42817" lon="3.05916">
        <ele>19</ele>
        <time>2012-02-05T09:08:30Z</time>
      </trkpt>
      <trkpt lat="50.4281" lon="3.05899">
        <ele>19</ele>
        <time>2012-02-05T09:08:33Z</time>
      </trkpt>
      <trkpt lat="50.428" lon="3.05886">
        <ele>19</ele>
        <time>2012-02-05T09:08:36Z</time>
      </trkpt>
      <trkpt lat="50.42792" lon="3.05878">
        <ele>19</ele>
        <time>2012-02-05T09:08:38Z</time>
      </trkpt>
      <trkpt lat="50.42783" lon="3.05875">
        <ele>19</ele>
        <time>2012-02-05T09:08:40Z</time>
      </trkpt>
      <trkpt lat="50.42771" lon="3.05877">
        <ele>19</ele>
        <time>2012-02-05T09:08:43Z</time>
      </trkpt>
      <trkpt lat="50.42759" lon="3.05884">
        <ele>19</ele>
        <time>2012-02-05T09:08:46Z</time>
      </trkpt>
      <trkpt lat="50.42751" lon="3.0589">
        <ele>19</ele>
        <time>2012-02-05T09:08:48Z</time>
      </trkpt>
      <trkpt lat="50.42741" lon="3.05896">
        <ele>19</ele>
        <time>2012-02-05T09:08:50Z</time>
      </trkpt>
      <trkpt lat="50.42731" lon="3.05902">
        <ele>19</ele>
        <time>2012-02-05T09:08:52Z</time>
      </trkpt>
      <trkpt lat="50.42722" lon="3.05909">
        <ele>19</ele>
        <time>2012-02-05T09:08:54Z</time>
      </trkpt>
      <trkpt lat="50.42713" lon="3.05914">
        <ele>19</ele>
        <time>2012-02-05T09:08:56Z</time>
      </trkpt>
      <trkpt lat="50.42704" lon="3.05919">
        <ele>19</ele>
        <time>2012-02-05T09:08:58Z</time>
      </trkpt>
      <trkpt lat="50.42695" lon="3.05923">
        <ele>19</ele>
        <time>2012-02-05T09:09:00Z</time>
      </trkpt>
      <trkpt lat="50.42686" lon="3.05926">
        <ele>24</ele>
        <time>2012-02-05T09:09:02Z</time>
      </trkpt>
      <trkpt lat="50.42675" lon="3.05927">
        <ele>24</ele>
        <time>2012-02-05T09:09:04Z</time>
      </trkpt>
      <trkpt lat="50.42666" lon="3.05929">
        <ele>24</ele>
        <time>2012-02-05T09:09:06Z</time>
      </trkpt>
      <trkpt lat="50.42655" lon="3.0593">
        <ele>24</ele>
        <time>2012-02-05T09:09:08Z</time>
      </trkpt>
      <trkpt lat="50.42645" lon="3.05933">
        <ele>24</ele>
        <time>2012-02-05T09:09:10Z</time>
      </trkpt>
      <trkpt lat="50.42634" lon="3.05937">
        <ele>24</ele>
        <time>2012-02-05T09:09:12Z</time>
      </trkpt>
      <trkpt lat="50.42624" lon="3.05943">
        <ele>24</ele>
        <time>2012-02-05T09:09:14Z</time>
      </trkpt>
      <trkpt lat="50.42615" lon="3.05951">
        <ele>24</ele>
        <time>2012-02-05T09:09:16Z</time>
      </trkpt>
      <trkpt lat="50.42606" lon="3.05958">
        <ele>24</ele>
        <time>2012-02-05T09:09:18Z</time>
      </trkpt>
      <trkpt lat="50.42597" lon="3.05965">
        <ele>24</ele>
        <time>2012-02-05T09:09:20Z</time>
      </trkpt>
      <trkpt lat="50.42588" lon="3.05973">
        <ele>24</ele>
        <time>2012-02-05T09:09:22Z</time>
      </trkpt>
      <trkpt lat="50.42578" lon="3.05981">
        <ele>24</ele>
        <time>2012-02-05T09:09:24Z</time>
      </trkpt>
      <trkpt lat="50.42569" lon="3.05989">
        <ele>24</ele>
        <time>2012-02-05T09:09:26Z</time>
      </trkpt>
      <trkpt lat="50.42558" lon="3.05997">
        <ele>24</ele>
        <time>2012-02-05T09:09:28Z</time>
      </trkpt>
      <trkpt lat="50.42549" lon="3.06004">
        <ele>24</ele>
        <time>2012-02-05T09:09:30Z</time>
      </trkpt>
      <trkpt lat="50.42539" lon="3.06013">
        <ele>24</ele>
        <time>2012-02-05T09:09:32Z</time>
      </trkpt>
      <trkpt lat="50.42529" lon="3.06021">
        <ele>24</ele>
        <time>2012-02-05T09:09:34Z</time>
      </trkpt>
      <trkpt lat="50.42519" lon="3.06029">
        <ele>24</ele>
        <time>2012-02-05T09:09:36Z</time>
      </trkpt>
      <trkpt lat="50.42509" lon="3.06038">
        <ele>24</ele>
        <time>2012-02-05T09:09:38Z</time>
      </trkpt>
      <trkpt lat="50.42498" lon="3.06046">
        <ele>24</ele>
        <time>2012-02-05T09:09:40Z</time>
      </trkpt>
      <trkpt lat="50.42487" lon="3.06054">
        <ele>24</ele>
        <time>2012-02-05T09:09:42Z</time>
      </trkpt>
      <trkpt lat="50.42477" lon="3.06062">
        <ele>24</ele>
        <time>2012-02-05T09:09:44Z</time>
      </trkpt>
      <trkpt lat="50.42466" lon="3.06071">
        <ele>24</ele>
        <time>2012-02-05T09:09:46Z</time>
      </trkpt>
      <trkpt lat="50.42455" lon="3.06079">
        <ele>24</ele>
        <time>2012-02-05T09:09:48Z</time>
      </trkpt>
      <trkpt lat="50.42443" lon="3.06088">
        <ele>24</ele>
        <time>2012-02-05T09:09:50Z</time>
      </trkpt>
      <trkpt lat="50.42432" lon="3.06096">
        <ele>24</ele>
        <time>2012-02-05T09:09:52Z</time>
      </trkpt>
      <trkpt lat="50.42421" lon="3.06105">
        <ele>24</ele>
        <time>2012-02-05T09:09:54Z</time>
      </trkpt>
      <trkpt lat="50.4241" lon="3.06114">
        <ele>24</ele>
        <time>2012-02-05T09:09:56Z</time>
      </trkpt>
      <trkpt lat="50.42399" lon="3.06123">
        <ele>24</ele>
        <time>2012-02-05T09:09:58Z</time>
      </trkpt>
      <trkpt lat="50.42388" lon="3.06131">
        <ele>24</ele>
        <time>2012-02-05T09:10:00Z</time>
      </trkpt>
      <trkpt lat="50.42376" lon="3.0614">
        <ele>24</ele>
        <time>2012-02-05T09:10:02Z</time>
      </trkpt>
      <trkpt lat="50.42365" lon="3.06148">
        <ele>24</ele>
        <time>2012-02-05T09:10:04Z</time>
      </trkpt>
      <trkpt lat="50.42355" lon="3.06156">
        <ele>24</ele>
        <time>2012-02-05T09:10:06Z</time>
      </trkpt>
      <trkpt lat="50.42344" lon="3.06165">
        <ele>24</ele>
        <time>2012-02-05T09:10:08Z</time>
      </trkpt>
      <trkpt lat="50.42333" lon="3.06172">
        <ele>24</ele>
        <time>2012-02-05T09:10:10Z</time>
      </trkpt>
      <trkpt lat="50.42322" lon="3.0618">
        <ele>24</ele>
        <time>2012-02-05T09:10:12Z</time>
      </trkpt>
      <trkpt lat="50.42313" lon="3.06187">
        <ele>24</ele>
        <time>2012-02-05T09:10:14Z</time>
      </trkpt>
      <trkpt lat="50.42303" lon="3.06194">
        <ele>24</ele>
        <time>2012-02-05T09:10:16Z</time>
      </trkpt>
      <trkpt lat="50.42293" lon="3.06202">
        <ele>24</ele>
        <time>2012-02-05T09:10:18Z</time>
      </trkpt>
      <trkpt lat="50.42283" lon="3.06209">
        <ele>24</ele>
        <time>2012-02-05T09:10:20Z</time>
      </trkpt>
      <trkpt lat="50.42274" lon="3.06216">
        <ele>24</ele>
        <time>2012-02-05T09:10:22Z</time>
      </trkpt>
      <trkpt lat="50.42264" lon="3.06223">
        <ele>24</ele>
        <time>2012-02-05T09:10:24Z</time>
      </trkpt>
      <trkpt lat="50.42255" lon="3.0623">
        <ele>24</ele>
        <time>2012-02-05T09:10:26Z</time>
      </trkpt>
      <trkpt lat="50.42245" lon="3.06239">
        <ele>24</ele>
        <time>2012-02-05T09:10:28Z</time>
      </trkpt>
      <trkpt lat="50.42235" lon="3.06247">
        <ele>24</ele>
        <time>2012-02-05T09:10:30Z</time>
      </trkpt>
      <trkpt lat="50.42226" lon="3.06257">
        <ele>24</ele>
        <time>2012-02-05T09:10:32Z</time>
      </trkpt>
      <trkpt lat="50.42217" lon="3.06267">
        <ele>24</ele>
        <time>2012-02-05T09:10:34Z</time>
      </trkpt>
      <trkpt lat="50.42207" lon="3.06278">
        <ele>24</ele>
        <time>2012-02-05T09:10:36Z</time>
      </trkpt>
      <trkpt lat="50.42197" lon="3.06289">
        <ele>24</ele>
        <time>2012-02-05T09:10:38Z</time>
      </trkpt>
      <trkpt lat="50.42188" lon="3.063">
        <ele>24</ele>
        <time>2012-02-05T09:10:40Z</time>
      </trkpt>
      <trkpt lat="50.42178" lon="3.0631">
        <ele>24</ele>
        <time>2012-02-05T09:10:42Z</time>
      </trkpt>
      <trkpt lat="50.42168" lon="3.0632">
        <ele>24</ele>
        <time>2012-02-05T09:10:44Z</time>
      </trkpt>
      <trkpt lat="50.42158" lon="3.06331">
        <ele>24</ele>
        <time>2012-02-05T09:10:46Z</time>
      </trkpt>
      <trkpt lat="50.42149" lon="3.06342">
        <ele>24</ele>
        <time>2012-02-05T09:10:48Z</time>
      </trkpt>
      <trkpt lat="50.4214" lon="3.06353">
        <ele>24</ele>
        <time>2012-02-05T09:10:50Z</time>
      </trkpt>
      <trkpt lat="50.42131" lon="3.06363">
        <ele>24</ele>
        <time>2012-02-05T09:10:52Z</time>
      </trkpt>
      <trkpt lat="50.42122" lon="3.06375">
        <ele>24</ele>
        <time>2012-02-05T09:10:54Z</time>
      </trkpt>
      <trkpt lat="50.42113" lon="3.06388">
        <ele>24</ele>
        <time>2012-02-05T09:10:56Z</time>
      </trkpt>
      <trkpt lat="50.42104" lon="3.06402">
        <ele>24</ele>
        <time>2012-02-05T09:10:58Z</time>
      </trkpt>
      <trkpt lat="50.42096" lon="3.06414">
        <ele>24</ele>
        <time>2012-02-05T09:11:00Z</time>
      </trkpt>
      <trkpt lat="50.42087" lon="3.06428">
        <ele>24</ele>
        <time>2012-02-05T09:11:02Z</time>
      </trkpt>
      <trkpt lat="50.42077" lon="3.06441">
        <ele>24</ele>
        <time>2012-02-05T09:11:04Z</time>
      </trkpt>
      <trkpt lat="50.42069" lon="3.06454">
        <ele>24</ele>
        <time>2012-02-05T09:11:06Z</time>
      </trkpt>
      <trkpt lat="50.42061" lon="3.06467">
        <ele>24</ele>
        <time>2012-02-05T09:11:08Z</time>
      </trkpt>
      <trkpt lat="50.42053" lon="3.06481">
        <ele>24</ele>
        <time>2012-02-05T09:11:10Z</time>
      </trkpt>
      <trkpt lat="50.42045" lon="3.06494">
        <ele>24</ele>
        <time>2012-02-05T09:11:12Z</time>
      </trkpt>
      <trkpt lat="50.42035" lon="3.06504">
        <ele>24</ele>
        <time>2012-02-05T09:11:14Z</time>
      </trkpt>
      <trkpt lat="50.42025" lon="3.06508">
        <ele>24</ele>
        <time>2012-02-05T09:11:16Z</time>
      </trkpt>
      <trkpt lat="50.42012" lon="3.06503">
        <ele>24</ele>
        <time>2012-02-05T09:11:18Z</time>
      </trkpt>
      <trkpt lat="50.41999" lon="3.06499">
        <ele>24</ele>
        <time>2012-02-05T09:11:20Z</time>
      </trkpt>
      <trkpt lat="50.41987" lon="3.06497">
        <ele>24</ele>
        <time>2012-02-05T09:11:22Z</time>
      </trkpt>
      <trkpt lat="50.41976" lon="3.06497">
        <ele>24</ele>
        <time>2012-02-05T09:11:24Z</time>
      </trkpt>
      <trkpt lat="50.41967" lon="3.06495">
        <ele>24</ele>
        <time>2012-02-05T09:11:26Z</time>
      </trkpt>
      <trkpt lat="50.41959" lon="3.06485">
        <ele>24</ele>
        <time>2012-02-05T09:11:29Z</time>
      </trkpt>
      <trkpt lat="50.41961" lon="3.06463">
        <ele>24</ele>
        <time>2012-02-05T09:11:32Z</time>
      </trkpt>
      <trkpt lat="50.41964" lon="3.06445">
        <ele>24</ele>
        <time>2012-02-05T09:11:34Z</time>
      </trkpt>
      <trkpt lat="50.41968" lon="3.06426">
        <ele>24</ele>
        <time>2012-02-05T09:11:36Z</time>
      </trkpt>
      <trkpt lat="50.4197" lon="3.06407">
        <ele>24</ele>
        <time>2012-02-05T09:11:38Z</time>
      </trkpt>
      <trkpt lat="50.41973" lon="3.06388">
        <ele>24</ele>
        <time>2012-02-05T09:11:40Z</time>
      </trkpt>
      <trkpt lat="50.41978" lon="3.0637">
        <ele>24</ele>
        <time>2012-02-05T09:11:42Z</time>
      </trkpt>
      <trkpt lat="50.41983" lon="3.06352">
        <ele>24</ele>
        <time>2012-02-05T09:11:44Z</time>
      </trkpt>
      <trkpt lat="50.41988" lon="3.06333">
        <ele>24</ele>
        <time>2012-02-05T09:11:46Z</time>
      </trkpt>
      <trkpt lat="50.41989" lon="3.06315">
        <ele>24</ele>
        <time>2012-02-05T09:11:48Z</time>
      </trkpt>
      <trkpt lat="50.41985" lon="3.06299">
        <ele>24</ele>
        <time>2012-02-05T09:11:50Z</time>
      </trkpt>
      <trkpt lat="50.41976" lon="3.06291">
        <ele>24</ele>
        <time>2012-02-05T09:11:52Z</time>
      </trkpt>
      <trkpt lat="50.41964" lon="3.0629">
        <ele>24</ele>
        <time>2012-02-05T09:11:54Z</time>
      </trkpt>
      <trkpt lat="50.41952" lon="3.06287">
        <ele>24</ele>
        <time>2012-02-05T09:11:56Z</time>
      </trkpt>
      <trkpt lat="50.4194" lon="3.06282">
        <ele>24</ele>
        <time>2012-02-05T09:11:58Z</time>
      </trkpt>
      <trkpt lat="50.41928" lon="3.06276">
        <ele>24</ele>
        <time>2012-02-05T09:12:00Z</time>
      </trkpt>
      <trkpt lat="50.41918" lon="3.06269">
        <ele>24</ele>
        <time>2012-02-05T09:12:02Z</time>
      </trkpt>
      <trkpt lat="50.41908" lon="3.0626">
        <ele>24</ele>
        <time>2012-02-05T09:12:04Z</time>
      </trkpt>
      <trkpt lat="50.41899" lon="3.06251">
        <ele>24</ele>
        <time>2012-02-05T09:12:06Z</time>
      </trkpt>
      <trkpt lat="50.4189" lon="3.06241">
        <ele>24</ele>
        <time>2012-02-05T09:12:08Z</time>
      </trkpt>
      <trkpt lat="50.41882" lon="3.0623">
        <ele>24</ele>
        <time>2012-02-05T09:12:10Z</time>
      </trkpt>
      <trkpt lat="50.41874" lon="3.06219">
        <ele>24</ele>
        <time>2012-02-05T09:12:12Z</time>
      </trkpt>
      <trkpt lat="50.41867" lon="3.06204">
        <ele>24</ele>
        <time>2012-02-05T09:12:14Z</time>
      </trkpt>
      <trkpt lat="50.41862" lon="3.06189">
        <ele>24</ele>
        <time>2012-02-05T09:12:16Z</time>
      </trkpt>
      <trkpt lat="50.41857" lon="3.06173">
        <ele>24</ele>
        <time>2012-02-05T09:12:18Z</time>
      </trkpt>
      <trkpt lat="50.41854" lon="3.06156">
        <ele>24</ele>
        <time>2012-02-05T09:12:20Z</time>
      </trkpt>
      <trkpt lat="50.41851" lon="3.06139">
        <ele>24</ele>
        <time>2012-02-05T09:12:22Z</time>
      </trkpt>
      <trkpt lat="50.41851" lon="3.06122">
        <ele>24</ele>
        <time>2012-02-05T09:12:24Z</time>
      </trkpt>
      <trkpt lat="50.41851" lon="3.06105">
        <ele>24</ele>
        <time>2012-02-05T09:12:26Z</time>
      </trkpt>
      <trkpt lat="50.41853" lon="3.06088">
        <ele>24</ele>
        <time>2012-02-05T09:12:28Z</time>
      </trkpt>
      <trkpt lat="50.41855" lon="3.06073">
        <ele>24</ele>
        <time>2012-02-05T09:12:30Z</time>
      </trkpt>
      <trkpt lat="50.41858" lon="3.06058">
        <ele>24</ele>
        <time>2012-02-05T09:12:32Z</time>
      </trkpt>
      <trkpt lat="50.41862" lon="3.06038">
        <ele>24</ele>
        <time>2012-02-05T09:12:35Z</time>
      </trkpt>
      <trkpt lat="50.41866" lon="3.06024">
        <ele>24</ele>
        <time>2012-02-05T09:12:37Z</time>
      </trkpt>
      <trkpt lat="50.4187" lon="3.06008">
        <ele>24</ele>
        <time>2012-02-05T09:12:39Z</time>
      </trkpt>
      <trkpt lat="50.41873" lon="3.0599">
        <ele>24</ele>
        <time>2012-02-05T09:12:41Z</time>
      </trkpt>
      <trkpt lat="50.41876" lon="3.05972">
        <ele>24</ele>
        <time>2012-02-05T09:12:43Z</time>
      </trkpt>
      <trkpt lat="50.41876" lon="3.05954">
        <ele>24</ele>
        <time>2012-02-05T09:12:45Z</time>
      </trkpt>
      <trkpt lat="50.41875" lon="3.05936">
        <ele>24</ele>
        <time>2012-02-05T09:12:47Z</time>
      </trkpt>
      <trkpt lat="50.41874" lon="3.05917">
        <ele>24</ele>
        <time>2012-02-05T09:12:49Z</time>
      </trkpt>
      <trkpt lat="50.41874" lon="3.05897">
        <ele>24</ele>
        <time>2012-02-05T09:12:51Z</time>
      </trkpt>
      <trkpt lat="50.41875" lon="3.05878">
        <ele>24</ele>
        <time>2012-02-05T09:12:53Z</time>
      </trkpt>
      <trkpt lat="50.41877" lon="3.05859">
        <ele>24</ele>
        <time>2012-02-05T09:12:55Z</time>
      </trkpt>
      <trkpt lat="50.41879" lon="3.05841">
        <ele>24</ele>
        <time>2012-02-05T09:12:57Z</time>
      </trkpt>
      <trkpt lat="50.41881" lon="3.05823">
        <ele>24</ele>
        <time>2012-02-05T09:12:59Z</time>
      </trkpt>
      <trkpt lat="50.41884" lon="3.05805">
        <ele>24</ele>
        <time>2012-02-05T09:13:01Z</time>
      </trkpt>
      <trkpt lat="50.41887" lon="3.05787">
        <ele>24</ele>
        <time>2012-02-05T09:13:03Z</time>
      </trkpt>
      <trkpt lat="50.41892" lon="3.0577">
        <ele>24</ele>
        <time>2012-02-05T09:13:05Z</time>
      </trkpt>
      <trkpt lat="50.41897" lon="3.05754">
        <ele>24</ele>
        <time>2012-02-05T09:13:07Z</time>
      </trkpt>
      <trkpt lat="50.41902" lon="3.05738">
        <ele>24</ele>
        <time>2012-02-05T09:13:09Z</time>
      </trkpt>
      <trkpt lat="50.41906" lon="3.05723">
        <ele>24</ele>
        <time>2012-02-05T09:13:11Z</time>
      </trkpt>
      <trkpt lat="50.41911" lon="3.05708">
        <ele>24</ele>
        <time>2012-02-05T09:13:13Z</time>
      </trkpt>
      <trkpt lat="50.41916" lon="3.05692">
        <ele>19</ele>
        <time>2012-02-05T09:13:15Z</time>
      </trkpt>
      <trkpt lat="50.41921" lon="3.05677">
        <ele>19</ele>
        <time>2012-02-05T09:13:17Z</time>
      </trkpt>
      <trkpt lat="50.41927" lon="3.05661">
        <ele>19</ele>
        <time>2012-02-05T09:13:19Z</time>
      </trkpt>
      <trkpt lat="50.41932" lon="3.05645">
        <ele>19</ele>
        <time>2012-02-05T09:13:21Z</time>
      </trkpt>
      <trkpt lat="50.41937" lon="3.05627">
        <ele>19</ele>
        <time>2012-02-05T09:13:23Z</time>
      </trkpt>
      <trkpt lat="50.41942" lon="3.05609">
        <ele>19</ele>
        <time>2012-02-05T09:13:25Z</time>
      </trkpt>
      <trkpt lat="50.41946" lon="3.05591">
        <ele>19</ele>
        <time>2012-02-05T09:13:27Z</time>
      </trkpt>
      <trkpt lat="50.41951" lon="3.05574">
        <ele>19</ele>
        <time>2012-02-05T09:13:29Z</time>
      </trkpt>
      <trkpt lat="50.41955" lon="3.05557">
        <ele>19</ele>
        <time>2012-02-05T09:13:31Z</time>
      </trkpt>
      <trkpt lat="50.41959" lon="3.0554">
        <ele>19</ele>
        <time>2012-02-05T09:13:33Z</time>
      </trkpt>
      <trkpt lat="50.41963" lon="3.05526">
        <ele>19</ele>
        <time>2012-02-05T09:13:35Z</time>
      </trkpt>
      <trkpt lat="50.41963" lon="3.05509">
        <ele>19</ele>
        <time>2012-02-05T09:13:39Z</time>
      </trkpt>
      <trkpt lat="50.4196" lon="3.05495">
        <ele>19</ele>
        <time>2012-02-05T09:13:43Z</time>
      </trkpt>
      <trkpt lat="50.41968" lon="3.05478">
        <ele>19</ele>
        <time>2012-02-05T09:13:46Z</time>
      </trkpt>
      <trkpt lat="50.41973" lon="3.05464">
        <ele>19</ele>
        <time>2012-02-05T09:13:48Z</time>
      </trkpt>
      <trkpt lat="50.41979" lon="3.05448">
        <ele>19</ele>
        <time>2012-02-05T09:13:50Z</time>
      </trkpt>
      <trkpt lat="50.41986" lon="3.0543">
        <ele>19</ele>
        <time>2012-02-05T09:13:52Z</time>
      </trkpt>
      <trkpt lat="50.41992" lon="3.05412">
        <ele>19</ele>
        <time>2012-02-05T09:13:54Z</time>
      </trkpt>
      <trkpt lat="50.41998" lon="3.05395">
        <ele>19</ele>
        <time>2012-02-05T09:13:56Z</time>
      </trkpt>
      <trkpt lat="50.42004" lon="3.05377">
        <ele>19</ele>
        <time>2012-02-05T09:13:58Z</time>
      </trkpt>
      <trkpt lat="50.42011" lon="3.0536">
        <ele>19</ele>
        <time>2012-02-05T09:14:00Z</time>
      </trkpt>
      <trkpt lat="50.42016" lon="3.05344">
        <ele>19</ele>
        <time>2012-02-05T09:14:02Z</time>
      </trkpt>
      <trkpt lat="50.4202" lon="3.05328">
        <ele>19</ele>
        <time>2012-02-05T09:14:04Z</time>
      </trkpt>
      <trkpt lat="50.42025" lon="3.05314">
        <ele>19</ele>
        <time>2012-02-05T09:14:06Z</time>
      </trkpt>
      <trkpt lat="50.42033" lon="3.05306">
        <ele>19</ele>
        <time>2012-02-05T09:14:08Z</time>
      </trkpt>
      <trkpt lat="50.42042" lon="3.05301">
        <ele>19</ele>
        <time>2012-02-05T09:14:10Z</time>
      </trkpt>
      <trkpt lat="50.42053" lon="3.053">
        <ele>19</ele>
        <time>2012-02-05T09:14:12Z</time>
      </trkpt>
      <trkpt lat="50.42065" lon="3.053">
        <ele>19</ele>
        <time>2012-02-05T09:14:14Z</time>
      </trkpt>
      <trkpt lat="50.42077" lon="3.05302">
        <ele>19</ele>
        <time>2012-02-05T09:14:16Z</time>
      </trkpt>
      <trkpt lat="50.4209" lon="3.05303">
        <ele>19</ele>
        <time>2012-02-05T09:14:18Z</time>
      </trkpt>
      <trkpt lat="50.42103" lon="3.05302">
        <ele>19</ele>
        <time>2012-02-05T09:14:20Z</time>
      </trkpt>
      <trkpt lat="50.42116" lon="3.053">
        <ele>19</ele>
        <time>2012-02-05T09:14:22Z</time>
      </trkpt>
      <trkpt lat="50.42128" lon="3.05298">
        <ele>19</ele>
        <time>2012-02-05T09:14:24Z</time>
      </trkpt>
      <trkpt lat="50.42141" lon="3.05299">
        <ele>19</ele>
        <time>2012-02-05T09:14:26Z</time>
      </trkpt>
      <trkpt lat="50.42153" lon="3.053">
        <ele>19</ele>
        <time>2012-02-05T09:14:28Z</time>
      </trkpt>
      <trkpt lat="50.42166" lon="3.05302">
        <ele>19</ele>
        <time>2012-02-05T09:14:30Z</time>
      </trkpt>
      <trkpt lat="50.42178" lon="3.05303">
        <ele>19</ele>
        <time>2012-02-05T09:14:32Z</time>
      </trkpt>
      <trkpt lat="50.42192" lon="3.05305">
        <ele>19</ele>
        <time>2012-02-05T09:14:34Z</time>
      </trkpt>
      <trkpt lat="50.42205" lon="3.05308">
        <ele>19</ele>
        <time>2012-02-05T09:14:36Z</time>
      </trkpt>
      <trkpt lat="50.42218" lon="3.0531">
        <ele>19</ele>
        <time>2012-02-05T09:14:38Z</time>
      </trkpt>
      <trkpt lat="50.42232" lon="3.05311">
        <ele>19</ele>
        <time>2012-02-05T09:14:40Z</time>
      </trkpt>
      <trkpt lat="50.42245" lon="3.05314">
        <ele>19</ele>
        <time>2012-02-05T09:14:42Z</time>
      </trkpt>
      <trkpt lat="50.42259" lon="3.05316">
        <ele>19</ele>
        <time>2012-02-05T09:14:44Z</time>
      </trkpt>
      <trkpt lat="50.42272" lon="3.05319">
        <ele>19</ele>
        <time>2012-02-05T09:14:46Z</time>
      </trkpt>
      <trkpt lat="50.42286" lon="3.05322">
        <ele>19</ele>
        <time>2012-02-05T09:14:48Z</time>
      </trkpt>
      <trkpt lat="50.42299" lon="3.05326">
        <ele>19</ele>
        <time>2012-02-05T09:14:50Z</time>
      </trkpt>
      <trkpt lat="50.42312" lon="3.05328">
        <ele>19</ele>
        <time>2012-02-05T09:14:52Z</time>
      </trkpt>
      <trkpt lat="50.42325" lon="3.05332">
        <ele>19</ele>
        <time>2012-02-05T09:14:54Z</time>
      </trkpt>
      <trkpt lat="50.42338" lon="3.05336">
        <ele>19</ele>
        <time>2012-02-05T09:14:56Z</time>
      </trkpt>
      <trkpt lat="50.42351" lon="3.05339">
        <ele>19</ele>
        <time>2012-02-05T09:14:58Z</time>
      </trkpt>
      <trkpt lat="50.42364" lon="3.05344">
        <ele>14</ele>
        <time>2012-02-05T09:15:00Z</time>
      </trkpt>
      <trkpt lat="50.42376" lon="3.05348">
        <ele>14</ele>
        <time>2012-02-05T09:15:02Z</time>
      </trkpt>
      <trkpt lat="50.42389" lon="3.05353">
        <ele>14</ele>
        <time>2012-02-05T09:15:04Z</time>
      </trkpt>
      <trkpt lat="50.42402" lon="3.05356">
        <ele>14</ele>
        <time>2012-02-05T09:15:06Z</time>
      </trkpt>
      <trkpt lat="50.42415" lon="3.0536">
        <ele>14</ele>
        <time>2012-02-05T09:15:08Z</time>
      </trkpt>
      <trkpt lat="50.42428" lon="3.05364">
        <ele>14</ele>
        <time>2012-02-05T09:15:10Z</time>
      </trkpt>
      <trkpt lat="50.42441" lon="3.05368">
        <ele>14</ele>
        <time>2012-02-05T09:15:12Z</time>
      </trkpt>
      <trkpt lat="50.42454" lon="3.05372">
        <ele>14</ele>
        <time>2012-02-05T09:15:14Z</time>
      </trkpt>
      <trkpt lat="50.42468" lon="3.05376">
        <ele>14</ele>
        <time>2012-02-05T09:15:16Z</time>
      </trkpt>
      <trkpt lat="50.4248" lon="3.05381">
        <ele>14</ele>
        <time>2012-02-05T09:15:18Z</time>
      </trkpt>
      <trkpt lat="50.42491" lon="3.05386">
        <ele>14</ele>
        <time>2012-02-05T09:15:20Z</time>
      </trkpt>
      <trkpt lat="50.42504" lon="3.05392">
        <ele>14</ele>
        <time>2012-02-05T09:15:22Z</time>
      </trkpt>
      <trkpt lat="50.42516" lon="3.05396">
        <ele>14</ele>
        <time>2012-02-05T09:15:24Z</time>
      </trkpt>
      <trkpt lat="50.42529" lon="3.054">
        <ele>14</ele>
        <time>2012-02-05T09:15:26Z</time>
      </trkpt>
      <trkpt lat="50.42541" lon="3.05405">
        <ele>14</ele>
        <time>2012-02-05T09:15:28Z</time>
      </trkpt>
      <trkpt lat="50.42552" lon="3.05408">
        <ele>14</ele>
        <time>2012-02-05T09:15:30Z</time>
      </trkpt>
      <trkpt lat="50.42563" lon="3.05412">
        <ele>14</ele>
        <time>2012-02-05T09:15:32Z</time>
      </trkpt>
      <trkpt lat="50.42574" lon="3.05416">
        <ele>14</ele>
        <time>2012-02-05T09:15:34Z</time>
      </trkpt>
      <trkpt lat="50.42585" lon="3.05419">
        <ele>14</ele>
        <time>2012-02-05T09:15:36Z</time>
      </trkpt>
      <trkpt lat="50.42596" lon="3.05423">
        <ele>19</ele>
        <time>2012-02-05T09:15:38Z</time>
      </trkpt>
      <trkpt lat="50.42608" lon="3.05427">
        <ele>19</ele>
        <time>2012-02-05T09:15:40Z</time>
      </trkpt>
      <trkpt lat="50.42619" lon="3.05429">
        <ele>19</ele>
        <time>2012-02-05T09:15:42Z</time>
      </trkpt>
      <trkpt lat="50.42631" lon="3.0543">
        <ele>19</ele>
        <time>2012-02-05T09:15:44Z</time>
      </trkpt>
      <trkpt lat="50.42641" lon="3.05429">
        <ele>19</ele>
        <time>2012-02-05T09:15:46Z</time>
      </trkpt>
      <trkpt lat="50.42652" lon="3.05425">
        <ele>19</ele>
        <time>2012-02-05T09:15:48Z</time>
      </trkpt>
      <trkpt lat="50.4266" lon="3.05413">
        <ele>19</ele>
        <time>2012-02-05T09:15:50Z</time>
      </trkpt>
      <trkpt lat="50.42664" lon="3.05395">
        <ele>19</ele>
        <time>2012-02-05T09:15:52Z</time>
      </trkpt>
      <trkpt lat="50.42667" lon="3.05375">
        <ele>19</ele>
        <time>2012-02-05T09:15:54Z</time>
      </trkpt>
      <trkpt lat="50.4267" lon="3.05355">
        <ele>19</ele>
        <time>2012-02-05T09:15:56Z</time>
      </trkpt>
      <trkpt lat="50.42672" lon="3.05335">
        <ele>19</ele>
        <time>2012-02-05T09:15:58Z</time>
      </trkpt>
      <trkpt lat="50.42675" lon="3.05315">
        <ele>19</ele>
        <time>2012-02-05T09:16:00Z</time>
      </trkpt>
      <trkpt lat="50.42679" lon="3.05295">
        <ele>19</ele>
        <time>2012-02-05T09:16:02Z</time>
      </trkpt>
      <trkpt lat="50.42683" lon="3.05276">
        <ele>19</ele>
        <time>2012-02-05T09:16:04Z</time>
      </trkpt>
      <trkpt lat="50.42686" lon="3.05258">
        <ele>19</ele>
        <time>2012-02-05T09:16:06Z</time>
      </trkpt>
      <trkpt lat="50.42686" lon="3.05244">
        <ele>19</ele>
        <time>2012-02-05T09:16:09Z</time>
      </trkpt>
      <trkpt lat="50.42686" lon="3.0523">
        <ele>19</ele>
        <time>2012-02-05T09:16:12Z</time>
      </trkpt>
      <trkpt lat="50.42685" lon="3.05213">
        <ele>19</ele>
        <time>2012-02-05T09:16:15Z</time>
      </trkpt>
      <trkpt lat="50.42685" lon="3.05195">
        <ele>19</ele>
        <time>2012-02-05T09:16:18Z</time>
      </trkpt>
      <trkpt lat="50.42683" lon="3.05181">
        <ele>19</ele>
        <time>2012-02-05T09:16:21Z</time>
      </trkpt>
      <trkpt lat="50.42684" lon="3.05165">
        <ele>19</ele>
        <time>2012-02-05T09:16:24Z</time>
      </trkpt>
      <trkpt lat="50.42683" lon="3.05148">
        <ele>19</ele>
        <time>2012-02-05T09:16:26Z</time>
      </trkpt>
      <trkpt lat="50.42682" lon="3.0513">
        <ele>19</ele>
        <time>2012-02-05T09:16:28Z</time>
      </trkpt>
      <trkpt lat="50.4268" lon="3.05111">
        <ele>19</ele>
        <time>2012-02-05T09:16:30Z</time>
      </trkpt>
      <trkpt lat="50.42675" lon="3.05093">
        <ele>19</ele>
        <time>2012-02-05T09:16:32Z</time>
      </trkpt>
      <trkpt lat="50.42668" lon="3.05078">
        <ele>19</ele>
        <time>2012-02-05T09:16:34Z</time>
      </trkpt>
      <trkpt lat="50.4266" lon="3.05062">
        <ele>19</ele>
        <time>2012-02-05T09:16:36Z</time>
      </trkpt>
      <trkpt lat="50.42653" lon="3.05046">
        <ele>19</ele>
        <time>2012-02-05T09:16:38Z</time>
      </trkpt>
      <trkpt lat="50.42645" lon="3.05031">
        <ele>19</ele>
        <time>2012-02-05T09:16:40Z</time>
      </trkpt>
      <trkpt lat="50.42637" lon="3.05015">
        <ele>19</ele>
        <time>2012-02-05T09:16:42Z</time>
      </trkpt>
      <trkpt lat="50.4263" lon="3.04998">
        <ele>19</ele>
        <time>2012-02-05T09:16:44Z</time>
      </trkpt>
      <trkpt lat="50.42623" lon="3.04981">
        <ele>19</ele>
        <time>2012-02-05T09:16:46Z</time>
      </trkpt>
      <trkpt lat="50.42615" lon="3.04964">
        <ele>19</ele>
        <time>2012-02-05T09:16:48Z</time>
      </trkpt>
      <trkpt lat="50.42608" lon="3.04947">
        <ele>19</ele>
        <time>2012-02-05T09:16:50Z</time>
      </trkpt>
      <trkpt lat="50.426" lon="3.0493">
        <ele>19</ele>
        <time>2012-02-05T09:16:52Z</time>
      </trkpt>
      <trkpt lat="50.42592" lon="3.04914">
        <ele>19</ele>
        <time>2012-02-05T09:16:54Z</time>
      </trkpt>
      <trkpt lat="50.42583" lon="3.04899">
        <ele>19</ele>
        <time>2012-02-05T09:16:56Z</time>
      </trkpt>
      <trkpt lat="50.42574" lon="3.04885">
        <ele>19</ele>
        <time>2012-02-05T09:16:58Z</time>
      </trkpt>
      <trkpt lat="50.42566" lon="3.04869">
        <ele>19</ele>
        <time>2012-02-05T09:17:00Z</time>
      </trkpt>
      <trkpt lat="50.42558" lon="3.04855">
        <ele>19</ele>
        <time>2012-02-05T09:17:02Z</time>
      </trkpt>
      <trkpt lat="50.4255" lon="3.04842">
        <ele>19</ele>
        <time>2012-02-05T09:17:04Z</time>
      </trkpt>
      <trkpt lat="50.42543" lon="3.04829">
        <ele>19</ele>
        <time>2012-02-05T09:17:06Z</time>
      </trkpt>
      <trkpt lat="50.42535" lon="3.04815">
        <ele>19</ele>
        <time>2012-02-05T09:17:08Z</time>
      </trkpt>
      <trkpt lat="50.42526" lon="3.04803">
        <ele>19</ele>
        <time>2012-02-05T09:17:10Z</time>
      </trkpt>
      <trkpt lat="50.42518" lon="3.04791">
        <ele>19</ele>
        <time>2012-02-05T09:17:12Z</time>
      </trkpt>
      <trkpt lat="50.42508" lon="3.04778">
        <ele>19</ele>
        <time>2012-02-05T09:17:14Z</time>
      </trkpt>
      <trkpt lat="50.425" lon="3.04766">
        <ele>19</ele>
        <time>2012-02-05T09:17:16Z</time>
      </trkpt>
      <trkpt lat="50.42492" lon="3.04755">
        <ele>19</ele>
        <time>2012-02-05T09:17:18Z</time>
      </trkpt>
      <trkpt lat="50.42485" lon="3.04744">
        <ele>19</ele>
        <time>2012-02-05T09:17:20Z</time>
      </trkpt>
      <trkpt lat="50.42477" lon="3.0473">
        <ele>19</ele>
        <time>2012-02-05T09:17:22Z</time>
      </trkpt>
      <trkpt lat="50.42468" lon="3.04718">
        <ele>19</ele>
        <time>2012-02-05T09:17:24Z</time>
      </trkpt>
      <trkpt lat="50.4246" lon="3.04706">
        <ele>19</ele>
        <time>2012-02-05T09:17:26Z</time>
      </trkpt>
      <trkpt lat="50.42452" lon="3.04694">
        <ele>19</ele>
        <time>2012-02-05T09:17:28Z</time>
      </trkpt>
      <trkpt lat="50.42443" lon="3.04683">
        <ele>19</ele>
        <time>2012-02-05T09:17:30Z</time>
      </trkpt>
      <trkpt lat="50.42435" lon="3.04672">
        <ele>19</ele>
        <time>2012-02-05T09:17:32Z</time>
      </trkpt>
      <trkpt lat="50.42427" lon="3.04662">
        <ele>19</ele>
        <time>2012-02-05T09:17:34Z</time>
      </trkpt>
      <trkpt lat="50.42419" lon="3.0465">
        <ele>19</ele>
        <time>2012-02-05T09:17:36Z</time>
      </trkpt>
      <trkpt lat="50.4241" lon="3.04639">
        <ele>19</ele>
        <time>2012-02-05T09:17:38Z</time>
      </trkpt>
      <trkpt lat="50.42402" lon="3.04626">
        <ele>19</ele>
        <time>2012-02-05T09:17:40Z</time>
      </trkpt>
      <trkpt lat="50.42393" lon="3.04613">
        <ele>19</ele>
        <time>2012-02-05T09:17:42Z</time>
      </trkpt>
      <trkpt lat="50.42384" lon="3.04601">
        <ele>19</ele>
        <time>2012-02-05T09:17:44Z</time>
      </trkpt>
      <trkpt lat="50.42376" lon="3.04589">
        <ele>19</ele>
        <time>2012-02-05T09:17:46Z</time>
      </trkpt>
      <trkpt lat="50.42367" lon="3.04577">
        <ele>24</ele>
        <time>2012-02-05T09:17:48Z</time>
      </trkpt>
      <trkpt lat="50.42358" lon="3.04564">
        <ele>24</ele>
        <time>2012-02-05T09:17:50Z</time>
      </trkpt>
      <trkpt lat="50.42349" lon="3.04551">
        <ele>24</ele>
        <time>2012-02-05T09:17:52Z</time>
      </trkpt>
      <trkpt lat="50.42341" lon="3.04539">
        <ele>24</ele>
        <time>2012-02-05T09:17:54Z</time>
      </trkpt>
      <trkpt lat="50.42333" lon="3.04526">
        <ele>24</ele>
        <time>2012-02-05T09:17:56Z</time>
      </trkpt>
      <trkpt lat="50.42325" lon="3.04513">
        <ele>24</ele>
        <time>2012-02-05T09:17:58Z</time>
      </trkpt>
      <trkpt lat="50.42317" lon="3.04498">
        <ele>24</ele>
        <time>2012-02-05T09:18:00Z</time>
      </trkpt>
      <trkpt lat="50.42307" lon="3.04485">
        <ele>24</ele>
        <time>2012-02-05T09:18:02Z</time>
      </trkpt>
      <trkpt lat="50.423" lon="3.04471">
        <ele>24</ele>
        <time>2012-02-05T09:18:04Z</time>
      </trkpt>
      <trkpt lat="50.42293" lon="3.04459">
        <ele>24</ele>
        <time>2012-02-05T09:18:06Z</time>
      </trkpt>
      <trkpt lat="50.42285" lon="3.04448">
        <ele>24</ele>
        <time>2012-02-05T09:18:08Z</time>
      </trkpt>
      <trkpt lat="50.42275" lon="3.04437">
        <ele>24</ele>
        <time>2012-02-05T09:18:11Z</time>
      </trkpt>
      <trkpt lat="50.42279" lon="3.04418">
        <ele>24</ele>
        <time>2012-02-05T09:18:14Z</time>
      </trkpt>
      <trkpt lat="50.42283" lon="3.04403">
        <ele>24</ele>
        <time>2012-02-05T09:18:16Z</time>
      </trkpt>
      <trkpt lat="50.42287" lon="3.04387">
        <ele>24</ele>
        <time>2012-02-05T09:18:18Z</time>
      </trkpt>
      <trkpt lat="50.42292" lon="3.04369">
        <ele>24</ele>
        <time>2012-02-05T09:18:20Z</time>
      </trkpt>
      <trkpt lat="50.42297" lon="3.04352">
        <ele>24</ele>
        <time>2012-02-05T09:18:22Z</time>
      </trkpt>
      <trkpt lat="50.42301" lon="3.04334">
        <ele>24</ele>
        <time>2012-02-05T09:18:24Z</time>
      </trkpt>
      <trkpt lat="50.42306" lon="3.04316">
        <ele>24</ele>
        <time>2012-02-05T09:18:26Z</time>
      </trkpt>
      <trkpt lat="50.4231" lon="3.04298">
        <ele>24</ele>
        <time>2012-02-05T09:18:28Z</time>
      </trkpt>
      <trkpt lat="50.42314" lon="3.04279">
        <ele>24</ele>
        <time>2012-02-05T09:18:30Z</time>
      </trkpt>
      <trkpt lat="50.42318" lon="3.0426">
        <ele>24</ele>
        <time>2012-02-05T09:18:32Z</time>
      </trkpt>
      <trkpt lat="50.42322" lon="3.04242">
        <ele>24</ele>
        <time>2012-02-05T09:18:34Z</time>
      </trkpt>
      <trkpt lat="50.42325" lon="3.04224">
        <ele>24</ele>
        <time>2012-02-05T09:18:36Z</time>
      </trkpt>
      <trkpt lat="50.42329" lon="3.04205">
        <ele>24</ele>
        <time>2012-02-05T09:18:38Z</time>
      </trkpt>
      <trkpt lat="50.42332" lon="3.04186">
        <ele>24</ele>
        <time>2012-02-05T09:18:40Z</time>
      </trkpt>
      <trkpt lat="50.42334" lon="3.04167">
        <ele>24</ele>
        <time>2012-02-05T09:18:42Z</time>
      </trkpt>
      <trkpt lat="50.42337" lon="3.04148">
        <ele>24</ele>
        <time>2012-02-05T09:18:44Z</time>
      </trkpt>
      <trkpt lat="50.4234" lon="3.04128">
        <ele>24</ele>
        <time>2012-02-05T09:18:46Z</time>
      </trkpt>
      <trkpt lat="50.42342" lon="3.04109">
        <ele>24</ele>
        <time>2012-02-05T09:18:48Z</time>
      </trkpt>
      <trkpt lat="50.42344" lon="3.0409">
        <ele>24</ele>
        <time>2012-02-05T09:18:50Z</time>
      </trkpt>
      <trkpt lat="50.42346" lon="3.0407">
        <ele>24</ele>
        <time>2012-02-05T09:18:52Z</time>
      </trkpt>
      <trkpt lat="50.42348" lon="3.0405">
        <ele>24</ele>
        <time>2012-02-05T09:18:54Z</time>
      </trkpt>
      <trkpt lat="50.4235" lon="3.0403">
        <ele>24</ele>
        <time>2012-02-05T09:18:56Z</time>
      </trkpt>
      <trkpt lat="50.42352" lon="3.0401">
        <ele>24</ele>
        <time>2012-02-05T09:18:58Z</time>
      </trkpt>
      <trkpt lat="50.42354" lon="3.0399">
        <ele>24</ele>
        <time>2012-02-05T09:19:00Z</time>
      </trkpt>
      <trkpt lat="50.42355" lon="3.0397">
        <ele>24</ele>
        <time>2012-02-05T09:19:02Z</time>
      </trkpt>
      <trkpt lat="50.42357" lon="3.03952">
        <ele>24</ele>
        <time>2012-02-05T09:19:04Z</time>
      </trkpt>
      <trkpt lat="50.42359" lon="3.03934">
        <ele>24</ele>
        <time>2012-02-05T09:19:06Z</time>
      </trkpt>
      <trkpt lat="50.42361" lon="3.03916">
        <ele>24</ele>
        <time>2012-02-05T09:19:08Z</time>
      </trkpt>
      <trkpt lat="50.42362" lon="3.03897">
        <ele>24</ele>
        <time>2012-02-05T09:19:10Z</time>
      </trkpt>
      <trkpt lat="50.42364" lon="3.03879">
        <ele>24</ele>
        <time>2012-02-05T09:19:12Z</time>
      </trkpt>
      <trkpt lat="50.42367" lon="3.03859">
        <ele>24</ele>
        <time>2012-02-05T09:19:14Z</time>
      </trkpt>
      <trkpt lat="50.42369" lon="3.0384">
        <ele>24</ele>
        <time>2012-02-05T09:19:16Z</time>
      </trkpt>
      <trkpt lat="50.42372" lon="3.03821">
        <ele>24</ele>
        <time>2012-02-05T09:19:18Z</time>
      </trkpt>
      <trkpt lat="50.42375" lon="3.03801">
        <ele>24</ele>
        <time>2012-02-05T09:19:20Z</time>
      </trkpt>
      <trkpt lat="50.42377" lon="3.03782">
        <ele>24</ele>
        <time>2012-02-05T09:19:22Z</time>
      </trkpt>
      <trkpt lat="50.4238" lon="3.03762">
        <ele>24</ele>
        <time>2012-02-05T09:19:24Z</time>
      </trkpt>
      <trkpt lat="50.42383" lon="3.03742">
        <ele>24</ele>
        <time>2012-02-05T09:19:26Z</time>
      </trkpt>
      <trkpt lat="50.42386" lon="3.03723">
        <ele>24</ele>
        <time>2012-02-05T09:19:28Z</time>
      </trkpt>
      <trkpt lat="50.4239" lon="3.03704">
        <ele>24</ele>
        <time>2012-02-05T09:19:30Z</time>
      </trkpt>
      <trkpt lat="50.42393" lon="3.03685">
        <ele>24</ele>
        <time>2012-02-05T09:19:32Z</time>
      </trkpt>
      <trkpt lat="50.42396" lon="3.03666">
        <ele>24</ele>
        <time>2012-02-05T09:19:34Z</time>
      </trkpt>
      <trkpt lat="50.424" lon="3.03646">
        <ele>24</ele>
        <time>2012-02-05T09:19:36Z</time>
      </trkpt>
      <trkpt lat="50.42405" lon="3.03627">
        <ele>24</ele>
        <time>2012-02-05T09:19:38Z</time>
      </trkpt>
      <trkpt lat="50.42409" lon="3.03608">
        <ele>24</ele>
        <time>2012-02-05T09:19:40Z</time>
      </trkpt>
      <trkpt lat="50.42414" lon="3.0359">
        <ele>24</ele>
        <time>2012-02-05T09:19:42Z</time>
      </trkpt>
      <trkpt lat="50.42419" lon="3.03571">
        <ele>24</ele>
        <time>2012-02-05T09:19:44Z</time>
      </trkpt>
      <trkpt lat="50.42423" lon="3.03552">
        <ele>24</ele>
        <time>2012-02-05T09:19:46Z</time>
      </trkpt>
      <trkpt lat="50.42429" lon="3.03534">
        <ele>24</ele>
        <time>2012-02-05T09:19:48Z</time>
      </trkpt>
      <trkpt lat="50.42434" lon="3.03516">
        <ele>24</ele>
        <time>2012-02-05T09:19:50Z</time>
      </trkpt>
      <trkpt lat="50.42439" lon="3.03498">
        <ele>24</ele>
        <time>2012-02-05T09:19:52Z</time>
      </trkpt>
      <trkpt lat="50.42445" lon="3.0348">
        <ele>24</ele>
        <time>2012-02-05T09:19:54Z</time>
      </trkpt>
      <trkpt lat="50.4245" lon="3.03463">
        <ele>24</ele>
        <time>2012-02-05T09:19:56Z</time>
      </trkpt>
      <trkpt lat="50.42456" lon="3.03445">
        <ele>24</ele>
        <time>2012-02-05T09:19:58Z</time>
      </trkpt>
      <trkpt lat="50.42462" lon="3.03428">
        <ele>24</ele>
        <time>2012-02-05T09:20:00Z</time>
      </trkpt>
      <trkpt lat="50.42468" lon="3.0341">
        <ele>24</ele>
        <time>2012-02-05T09:20:02Z</time>
      </trkpt>
      <trkpt lat="50.42474" lon="3.03392">
        <ele>24</ele>
        <time>2012-02-05T09:20:04Z</time>
      </trkpt>
      <trkpt lat="50.42481" lon="3.03374">
        <ele>24</ele>
        <time>2012-02-05T09:20:06Z</time>
      </trkpt>
      <trkpt lat="50.42488" lon="3.03357">
        <ele>24</ele>
        <time>2012-02-05T09:20:08Z</time>
      </trkpt>
      <trkpt lat="50.42495" lon="3.0334">
        <ele>24</ele>
        <time>2012-02-05T09:20:10Z</time>
      </trkpt>
      <trkpt lat="50.42503" lon="3.03322">
        <ele>24</ele>
        <time>2012-02-05T09:20:12Z</time>
      </trkpt>
      <trkpt lat="50.4251" lon="3.03304">
        <ele>24</ele>
        <time>2012-02-05T09:20:14Z</time>
      </trkpt>
      <trkpt lat="50.42518" lon="3.03286">
        <ele>24</ele>
        <time>2012-02-05T09:20:16Z</time>
      </trkpt>
      <trkpt lat="50.42526" lon="3.03267">
        <ele>24</ele>
        <time>2012-02-05T09:20:18Z</time>
      </trkpt>
      <trkpt lat="50.42533" lon="3.03248">
        <ele>24</ele>
        <time>2012-02-05T09:20:20Z</time>
      </trkpt>
      <trkpt lat="50.42541" lon="3.03229">
        <ele>24</ele>
        <time>2012-02-05T09:20:22Z</time>
      </trkpt>
      <trkpt lat="50.42549" lon="3.0321">
        <ele>24</ele>
        <time>2012-02-05T09:20:24Z</time>
      </trkpt>
      <trkpt lat="50.42556" lon="3.03191">
        <ele>24</ele>
        <time>2012-02-05T09:20:26Z</time>
      </trkpt>
      <trkpt lat="50.42564" lon="3.03172">
        <ele>24</ele>
        <time>2012-02-05T09:20:28Z</time>
      </trkpt>
      <trkpt lat="50.42571" lon="3.03155">
        <ele>19</ele>
        <time>2012-02-05T09:20:30Z</time>
      </trkpt>
      <trkpt lat="50.42579" lon="3.03136">
        <ele>19</ele>
        <time>2012-02-05T09:20:32Z</time>
      </trkpt>
      <trkpt lat="50.42587" lon="3.03117">
        <ele>19</ele>
        <time>2012-02-05T09:20:34Z</time>
      </trkpt>
      <trkpt lat="50.42594" lon="3.03098">
        <ele>19</ele>
        <time>2012-02-05T09:20:36Z</time>
      </trkpt>
      <trkpt lat="50.42602" lon="3.03079">
        <ele>19</ele>
        <time>2012-02-05T09:20:38Z</time>
      </trkpt>
      <trkpt lat="50.4261" lon="3.03059">
        <ele>19</ele>
        <time>2012-02-05T09:20:40Z</time>
      </trkpt>
      <trkpt lat="50.42619" lon="3.0304">
        <ele>19</ele>
        <time>2012-02-05T09:20:42Z</time>
      </trkpt>
      <trkpt lat="50.42627" lon="3.03021">
        <ele>19</ele>
        <time>2012-02-05T09:20:44Z</time>
      </trkpt>
      <trkpt lat="50.42635" lon="3.03001">
        <ele>19</ele>
        <time>2012-02-05T09:20:46Z</time>
      </trkpt>
      <trkpt lat="50.42643" lon="3.02981">
        <ele>19</ele>
        <time>2012-02-05T09:20:48Z</time>
      </trkpt>
      <trkpt lat="50.42651" lon="3.02961">
        <ele>19</ele>
        <time>2012-02-05T09:20:50Z</time>
      </trkpt>
      <trkpt lat="50.42659" lon="3.02942">
        <ele>19</ele>
        <time>2012-02-05T09:20:52Z</time>
      </trkpt>
      <trkpt lat="50.42667" lon="3.02922">
        <ele>19</ele>
        <time>2012-02-05T09:20:54Z</time>
      </trkpt>
      <trkpt lat="50.42676" lon="3.02902">
        <ele>19</ele>
        <time>2012-02-05T09:20:56Z</time>
      </trkpt>
      <trkpt lat="50.42684" lon="3.02881">
        <ele>19</ele>
        <time>2012-02-05T09:20:58Z</time>
      </trkpt>
      <trkpt lat="50.42693" lon="3.0286">
        <ele>19</ele>
        <time>2012-02-05T09:21:00Z</time>
      </trkpt>
      <trkpt lat="50.42701" lon="3.02839">
        <ele>19</ele>
        <time>2012-02-05T09:21:02Z</time>
      </trkpt>
      <trkpt lat="50.4271" lon="3.02818">
        <ele>19</ele>
        <time>2012-02-05T09:21:04Z</time>
      </trkpt>
      <trkpt lat="50.42718" lon="3.02796">
        <ele>19</ele>
        <time>2012-02-05T09:21:06Z</time>
      </trkpt>
      <trkpt lat="50.42727" lon="3.02775">
        <ele>19</ele>
        <time>2012-02-05T09:21:08Z</time>
      </trkpt>
      <trkpt lat="50.42735" lon="3.02755">
        <ele>19</ele>
        <time>2012-02-05T09:21:10Z</time>
      </trkpt>
      <trkpt lat="50.42744" lon="3.02733">
        <ele>19</ele>
        <time>2012-02-05T09:21:12Z</time>
      </trkpt>
      <trkpt lat="50.42752" lon="3.02713">
        <ele>19</ele>
        <time>2012-02-05T09:21:14Z</time>
      </trkpt>
      <trkpt lat="50.42761" lon="3.02692">
        <ele>19</ele>
        <time>2012-02-05T09:21:16Z</time>
      </trkpt>
      <trkpt lat="50.42769" lon="3.02671">
        <ele>19</ele>
        <time>2012-02-05T09:21:18Z</time>
      </trkpt>
      <trkpt lat="50.42777" lon="3.02651">
        <ele>19</ele>
        <time>2012-02-05T09:21:20Z</time>
      </trkpt>
      <trkpt lat="50.42786" lon="3.02629">
        <ele>19</ele>
        <time>2012-02-05T09:21:22Z</time>
      </trkpt>
      <trkpt lat="50.42793" lon="3.02608">
        <ele>19</ele>
        <time>2012-02-05T09:21:24Z</time>
      </trkpt>
      <trkpt lat="50.42801" lon="3.02588">
        <ele>19</ele>
        <time>2012-02-05T09:21:26Z</time>
      </trkpt>
      <trkpt lat="50.42808" lon="3.02567">
        <ele>19</ele>
        <time>2012-02-05T09:21:28Z</time>
      </trkpt>
      <trkpt lat="50.42816" lon="3.02546">
        <ele>19</ele>
        <time>2012-02-05T09:21:30Z</time>
      </trkpt>
      <trkpt lat="50.42824" lon="3.02527">
        <ele>19</ele>
        <time>2012-02-05T09:21:32Z</time>
      </trkpt>
      <trkpt lat="50.42831" lon="3.02506">
        <ele>19</ele>
        <time>2012-02-05T09:21:34Z</time>
      </trkpt>
      <trkpt lat="50.42838" lon="3.02485">
        <ele>19</ele>
        <time>2012-02-05T09:21:36Z</time>
      </trkpt>
      <trkpt lat="50.42846" lon="3.02465">
        <ele>19</ele>
        <time>2012-02-05T09:21:38Z</time>
      </trkpt>
      <trkpt lat="50.42854" lon="3.02445">
        <ele>19</ele>
        <time>2012-02-05T09:21:40Z</time>
      </trkpt>
      <trkpt lat="50.42861" lon="3.02425">
        <ele>19</ele>
        <time>2012-02-05T09:21:42Z</time>
      </trkpt>
      <trkpt lat="50.42868" lon="3.02405">
        <ele>19</ele>
        <time>2012-02-05T09:21:44Z</time>
      </trkpt>
      <trkpt lat="50.42876" lon="3.02386">
        <ele>19</ele>
        <time>2012-02-05T09:21:46Z</time>
      </trkpt>
      <trkpt lat="50.42883" lon="3.02367">
        <ele>19</ele>
        <time>2012-02-05T09:21:48Z</time>
      </trkpt>
      <trkpt lat="50.42889" lon="3.02348">
        <ele>19</ele>
        <time>2012-02-05T09:21:50Z</time>
      </trkpt>
      <trkpt lat="50.42894" lon="3.02329">
        <ele>19</ele>
        <time>2012-02-05T09:21:52Z</time>
      </trkpt>
      <trkpt lat="50.42897" lon="3.02308">
        <ele>19</ele>
        <time>2012-02-05T09:21:54Z</time>
      </trkpt>
      <trkpt lat="50.42901" lon="3.02289">
        <ele>19</ele>
        <time>2012-02-05T09:21:56Z</time>
      </trkpt>
      <trkpt lat="50.42908" lon="3.02273">
        <ele>19</ele>
        <time>2012-02-05T09:21:58Z</time>
      </trkpt>
      <trkpt lat="50.42917" lon="3.02264">
        <ele>19</ele>
        <time>2012-02-05T09:22:00Z</time>
      </trkpt>
      <trkpt lat="50.42928" lon="3.02258">
        <ele>19</ele>
        <time>2012-02-05T09:22:02Z</time>
      </trkpt>
      <trkpt lat="50.42935" lon="3.0225">
        <ele>19</ele>
        <time>2012-02-05T09:22:04Z</time>
      </trkpt>
      <trkpt lat="50.42946" lon="3.02242">
        <ele>19</ele>
        <time>2012-02-05T09:22:07Z</time>
      </trkpt>
      <trkpt lat="50.42952" lon="3.02253">
        <ele>19</ele>
        <time>2012-02-05T09:22:10Z</time>
      </trkpt>
      <trkpt lat="50.42953" lon="3.02267">
        <ele>19</ele>
        <time>2012-02-05T09:22:13Z</time>
      </trkpt>
      <trkpt lat="50.42954" lon="3.02284">
        <ele>19</ele>
        <time>2012-02-05T09:22:17Z</time>
      </trkpt>
      <trkpt lat="50.42954" lon="3.02301">
        <ele>19</ele>
        <time>2012-02-05T09:22:21Z</time>
      </trkpt>
      <trkpt lat="50.42954" lon="3.02315">
        <ele>19</ele>
        <time>2012-02-05T09:22:26Z</time>
      </trkpt>
      <trkpt lat="50.42946" lon="3.02319">
        <ele>27</ele>
        <time>2012-02-05T09:28:50Z</time>
      </trkpt>
      <trkpt lat="50.42955" lon="3.02316">
        <ele>27</ele>
        <time>2012-02-05T09:29:51Z</time>
      </trkpt>
      <trkpt lat="50.42963" lon="3.02327">
        <ele>27</ele>
        <time>2012-02-05T09:29:57Z</time>
      </trkpt>
      <trkpt lat="50.4297" lon="3.02339">
        <ele>27</ele>
        <time>2012-02-05T09:30:01Z</time>
      </trkpt>
      <trkpt lat="50.42978" lon="3.02349">
        <ele>27</ele>
        <time>2012-02-05T09:30:06Z</time>
      </trkpt>
      <trkpt lat="50.42989" lon="3.02344">
        <ele>27</ele>
        <time>2012-02-05T09:30:10Z</time>
      </trkpt>
      <trkpt lat="50.42979" lon="3.02348">
        <ele>27</ele>
        <time>2012-02-05T09:30:30Z</time>
      </trkpt>
      <trkpt lat="50.42969" lon="3.0234">
        <ele>27</ele>
        <time>2012-02-05T09:30:33Z</time>
      </trkpt>
      <trkpt lat="50.42962" lon="3.02325">
        <ele>27</ele>
        <time>2012-02-05T09:30:36Z</time>
      </trkpt>
      <trkpt lat="50.42954" lon="3.02315">
        <ele>27</ele>
        <time>2012-02-05T09:30:39Z</time>
      </trkpt>
      <trkpt lat="50.42963" lon="3.02325">
        <ele>27</ele>
        <time>2012-02-05T09:32:01Z</time>
      </trkpt>
      <trkpt lat="50.4297" lon="3.02338">
        <ele>27</ele>
        <time>2012-02-05T09:32:04Z</time>
      </trkpt>
      <trkpt lat="50.42978" lon="3.02345">
        <ele>27</ele>
        <time>2012-02-05T09:32:07Z</time>
      </trkpt>
      <trkpt lat="50.42989" lon="3.02345">
        <ele>27</ele>
        <time>2012-02-05T09:32:10Z</time>
      </trkpt>
      <trkpt lat="50.42999" lon="3.02342">
        <ele>27</ele>
        <time>2012-02-05T09:32:13Z</time>
      </trkpt>
      <trkpt lat="50.43008" lon="3.02335">
        <ele>27</ele>
        <time>2012-02-05T09:32:16Z</time>
      </trkpt>
      <trkpt lat="50.43017" lon="3.02329">
        <ele>27</ele>
        <time>2012-02-05T09:32:19Z</time>
      </trkpt>
      <trkpt lat="50.43027" lon="3.02321">
        <ele>27</ele>
        <time>2012-02-05T09:32:22Z</time>
      </trkpt>
      <trkpt lat="50.43037" lon="3.02314">
        <ele>27</ele>
        <time>2012-02-05T09:32:25Z</time>
      </trkpt>
      <trkpt lat="50.43048" lon="3.02313">
        <ele>27</ele>
        <time>2012-02-05T09:32:28Z</time>
      </trkpt>
      <trkpt lat="50.43059" lon="3.02316">
        <ele>27</ele>
        <time>2012-02-05T09:32:31Z</time>
      </trkpt>
      <trkpt lat="50.43069" lon="3.02319">
        <ele>27</ele>
        <time>2012-02-05T09:32:34Z</time>
      </trkpt>
      <trkpt lat="50.43079" lon="3.02313">
        <ele>27</ele>
        <time>2012-02-05T09:32:37Z</time>
      </trkpt>
      <trkpt lat="50.43086" lon="3.02302">
        <ele>27</ele>
        <time>2012-02-05T09:32:40Z</time>
      </trkpt>
      <trkpt lat="50.43094" lon="3.02289">
        <ele>27</ele>
        <time>2012-02-05T09:32:44Z</time>
      </trkpt>
      <trkpt lat="50.43103" lon="3.0228">
        <ele>27</ele>
        <time>2012-02-05T09:32:47Z</time>
      </trkpt>
      <trkpt lat="50.43113" lon="3.02273">
        <ele>27</ele>
        <time>2012-02-05T09:32:49Z</time>
      </trkpt>
      <trkpt lat="50.43122" lon="3.02268">
        <ele>27</ele>
        <time>2012-02-05T09:32:54Z</time>
      </trkpt>
      <trkpt lat="50.43131" lon="3.02262">
        <ele>27</ele>
        <time>2012-02-05T09:33:00Z</time>
      </trkpt>
      <trkpt lat="50.4314" lon="3.02255">
        <ele>32</ele>
        <time>2012-02-05T09:33:06Z</time>
      </trkpt>
      <trkpt lat="50.43149" lon="3.02249">
        <ele>32</ele>
        <time>2012-02-05T09:33:14Z</time>
      </trkpt>
      <trkpt lat="50.43158" lon="3.02244">
        <ele>32</ele>
        <time>2012-02-05T09:33:22Z</time>
      </trkpt>
      <trkpt lat="50.43167" lon="3.02237">
        <ele>40</ele>
        <time>2012-02-05T09:33:31Z</time>
      </trkpt>
      <trkpt lat="50.43175" lon="3.02233">
        <ele>40</ele>
        <time>2012-02-05T09:33:39Z</time>
      </trkpt>
      <trkpt lat="50.43184" lon="3.02234">
        <ele>40</ele>
        <time>2012-02-05T09:33:45Z</time>
      </trkpt>
      <trkpt lat="50.43195" lon="3.02236">
        <ele>40</ele>
        <time>2012-02-05T09:33:51Z</time>
      </trkpt>
      <trkpt lat="50.43205" lon="3.0224">
        <ele>40</ele>
        <time>2012-02-05T09:33:55Z</time>
      </trkpt>
      <trkpt lat="50.43215" lon="3.02244">
        <ele>40</ele>
        <time>2012-02-05T09:33:58Z</time>
      </trkpt>
      <trkpt lat="50.43226" lon="3.02249">
        <ele>40</ele>
        <time>2012-02-05T09:34:01Z</time>
      </trkpt>
      <trkpt lat="50.43237" lon="3.02258">
        <ele>40</ele>
        <time>2012-02-05T09:34:04Z</time>
      </trkpt>
      <trkpt lat="50.43247" lon="3.02267">
        <ele>40</ele>
        <time>2012-02-05T09:34:07Z</time>
      </trkpt>
      <trkpt lat="50.43257" lon="3.02275">
        <ele>40</ele>
        <time>2012-02-05T09:34:10Z</time>
      </trkpt>
      <trkpt lat="50.43267" lon="3.02284">
        <ele>40</ele>
        <time>2012-02-05T09:34:13Z</time>
      </trkpt>
      <trkpt lat="50.43278" lon="3.02293">
        <ele>40</ele>
        <time>2012-02-05T09:34:16Z</time>
      </trkpt>
      <trkpt lat="50.43289" lon="3.02303">
        <ele>40</ele>
        <time>2012-02-05T09:34:19Z</time>
      </trkpt>
      <trkpt lat="50.433" lon="3.02313">
        <ele>40</ele>
        <time>2012-02-05T09:34:22Z</time>
      </trkpt>
      <trkpt lat="50.4331" lon="3.02323">
        <ele>40</ele>
        <time>2012-02-05T09:34:25Z</time>
      </trkpt>
      <trkpt lat="50.43321" lon="3.02333">
        <ele>40</ele>
        <time>2012-02-05T09:34:28Z</time>
      </trkpt>
      <trkpt lat="50.43329" lon="3.02342">
        <ele>40</ele>
        <time>2012-02-05T09:34:30Z</time>
      </trkpt>
      <trkpt lat="50.4334" lon="3.02354">
        <ele>40</ele>
        <time>2012-02-05T09:34:33Z</time>
      </trkpt>
      <trkpt lat="50.4335" lon="3.02367">
        <ele>40</ele>
        <time>2012-02-05T09:34:36Z</time>
      </trkpt>
      <trkpt lat="50.4336" lon="3.02379">
        <ele>40</ele>
        <time>2012-02-05T09:34:39Z</time>
      </trkpt>
      <trkpt lat="50.43369" lon="3.02388">
        <ele>40</ele>
        <time>2012-02-05T09:34:42Z</time>
      </trkpt>
      <trkpt lat="50.43378" lon="3.02383">
        <ele>40</ele>
        <time>2012-02-05T09:34:45Z</time>
      </trkpt>
      <trkpt lat="50.4338" lon="3.02368">
        <ele>45</ele>
        <time>2012-02-05T09:34:49Z</time>
      </trkpt>
      <trkpt lat="50.43378" lon="3.02353">
        <ele>45</ele>
        <time>2012-02-05T09:34:53Z</time>
      </trkpt>
      <trkpt lat="50.43374" lon="3.02341">
        <ele>45</ele>
        <time>2012-02-05T09:34:56Z</time>
      </trkpt>
      <trkpt lat="50.43371" lon="3.02327">
        <ele>45</ele>
        <time>2012-02-05T09:34:59Z</time>
      </trkpt>
      <trkpt lat="50.43373" lon="3.02311">
        <ele>51</ele>
        <time>2012-02-05T09:35:03Z</time>
      </trkpt>
      <trkpt lat="50.43375" lon="3.02298">
        <ele>51</ele>
        <time>2012-02-05T09:35:06Z</time>
      </trkpt>
      <trkpt lat="50.43375" lon="3.0228">
        <ele>51</ele>
        <time>2012-02-05T09:35:10Z</time>
      </trkpt>
      <trkpt lat="50.43376" lon="3.02264">
        <ele>51</ele>
        <time>2012-02-05T09:35:13Z</time>
      </trkpt>
      <trkpt lat="50.43375" lon="3.02247">
        <ele>51</ele>
        <time>2012-02-05T09:35:16Z</time>
      </trkpt>
      <trkpt lat="50.43374" lon="3.02227">
        <ele>51</ele>
        <time>2012-02-05T09:35:19Z</time>
      </trkpt>
      <trkpt lat="50.43373" lon="3.02213">
        <ele>51</ele>
        <time>2012-02-05T09:35:21Z</time>
      </trkpt>
      <trkpt lat="50.43374" lon="3.02198">
        <ele>51</ele>
        <time>2012-02-05T09:35:23Z</time>
      </trkpt>
      <trkpt lat="50.43376" lon="3.02183">
        <ele>51</ele>
        <time>2012-02-05T09:35:25Z</time>
      </trkpt>
      <trkpt lat="50.43379" lon="3.02168">
        <ele>51</ele>
        <time>2012-02-05T09:35:27Z</time>
      </trkpt>
      <trkpt lat="50.43385" lon="3.02155">
        <ele>51</ele>
        <time>2012-02-05T09:35:29Z</time>
      </trkpt>
      <trkpt lat="50.43391" lon="3.02143">
        <ele>51</ele>
        <time>2012-02-05T09:35:31Z</time>
      </trkpt>
      <trkpt lat="50.43398" lon="3.02132">
        <ele>51</ele>
        <time>2012-02-05T09:35:33Z</time>
      </trkpt>
      <trkpt lat="50.4341" lon="3.02122">
        <ele>51</ele>
        <time>2012-02-05T09:35:36Z</time>
      </trkpt>
      <trkpt lat="50.43423" lon="3.02121">
        <ele>51</ele>
        <time>2012-02-05T09:35:38Z</time>
      </trkpt>
      <trkpt lat="50.43439" lon="3.02118">
        <ele>51</ele>
        <time>2012-02-05T09:35:40Z</time>
      </trkpt>
      <trkpt lat="50.43455" lon="3.02115">
        <ele>51</ele>
        <time>2012-02-05T09:35:42Z</time>
      </trkpt>
      <trkpt lat="50.43472" lon="3.02112">
        <ele>51</ele>
        <time>2012-02-05T09:35:44Z</time>
      </trkpt>
      <trkpt lat="50.43488" lon="3.02108">
        <ele>51</ele>
        <time>2012-02-05T09:35:46Z</time>
      </trkpt>
      <trkpt lat="50.43504" lon="3.02108">
        <ele>51</ele>
        <time>2012-02-05T09:35:48Z</time>
      </trkpt>
      <trkpt lat="50.43521" lon="3.02109">
        <ele>51</ele>
        <time>2012-02-05T09:35:50Z</time>
      </trkpt>
      <trkpt lat="50.43535" lon="3.02112">
        <ele>51</ele>
        <time>2012-02-05T09:35:52Z</time>
      </trkpt>
      <trkpt lat="50.43548" lon="3.02113">
        <ele>46</ele>
        <time>2012-02-05T09:35:54Z</time>
      </trkpt>
      <trkpt lat="50.43559" lon="3.02119">
        <ele>46</ele>
        <time>2012-02-05T09:35:56Z</time>
      </trkpt>
      <trkpt lat="50.43568" lon="3.02133">
        <ele>46</ele>
        <time>2012-02-05T09:35:58Z</time>
      </trkpt>
      <trkpt lat="50.43578" lon="3.02147">
        <ele>46</ele>
        <time>2012-02-05T09:36:00Z</time>
      </trkpt>
      <trkpt lat="50.43587" lon="3.0216">
        <ele>46</ele>
        <time>2012-02-05T09:36:02Z</time>
      </trkpt>
      <trkpt lat="50.43596" lon="3.02168">
        <ele>46</ele>
        <time>2012-02-05T09:36:04Z</time>
      </trkpt>
      <trkpt lat="50.43607" lon="3.02173">
        <ele>46</ele>
        <time>2012-02-05T09:36:06Z</time>
      </trkpt>
      <trkpt lat="50.43619" lon="3.02178">
        <ele>46</ele>
        <time>2012-02-05T09:36:08Z</time>
      </trkpt>
      <trkpt lat="50.43633" lon="3.02183">
        <ele>46</ele>
        <time>2012-02-05T09:36:10Z</time>
      </trkpt>
      <trkpt lat="50.43647" lon="3.02189">
        <ele>39</ele>
        <time>2012-02-05T09:36:12Z</time>
      </trkpt>
      <trkpt lat="50.43659" lon="3.022">
        <ele>39</ele>
        <time>2012-02-05T09:36:14Z</time>
      </trkpt>
      <trkpt lat="50.4367" lon="3.02215">
        <ele>39</ele>
        <time>2012-02-05T09:36:16Z</time>
      </trkpt>
      <trkpt lat="50.43682" lon="3.02229">
        <ele>39</ele>
        <time>2012-02-05T09:36:18Z</time>
      </trkpt>
      <trkpt lat="50.43693" lon="3.02245">
        <ele>39</ele>
        <time>2012-02-05T09:36:20Z</time>
      </trkpt>
      <trkpt lat="50.43704" lon="3.02259">
        <ele>33</ele>
        <time>2012-02-05T09:36:22Z</time>
      </trkpt>
      <trkpt lat="50.43716" lon="3.02275">
        <ele>33</ele>
        <time>2012-02-05T09:36:24Z</time>
      </trkpt>
      <trkpt lat="50.43728" lon="3.0229">
        <ele>33</ele>
        <time>2012-02-05T09:36:26Z</time>
      </trkpt>
      <trkpt lat="50.43739" lon="3.02306">
        <ele>33</ele>
        <time>2012-02-05T09:36:28Z</time>
      </trkpt>
      <trkpt lat="50.43751" lon="3.02321">
        <ele>33</ele>
        <time>2012-02-05T09:36:30Z</time>
      </trkpt>
      <trkpt lat="50.43763" lon="3.02335">
        <ele>33</ele>
        <time>2012-02-05T09:36:32Z</time>
      </trkpt>
      <trkpt lat="50.43773" lon="3.02349">
        <ele>33</ele>
        <time>2012-02-05T09:36:34Z</time>
      </trkpt>
      <trkpt lat="50.43783" lon="3.02361">
        <ele>33</ele>
        <time>2012-02-05T09:36:36Z</time>
      </trkpt>
      <trkpt lat="50.43793" lon="3.02375">
        <ele>33</ele>
        <time>2012-02-05T09:36:38Z</time>
      </trkpt>
      <trkpt lat="50.43802" lon="3.02386">
        <ele>33</ele>
        <time>2012-02-05T09:36:40Z</time>
      </trkpt>
      <trkpt lat="50.43809" lon="3.02398">
        <ele>33</ele>
        <time>2012-02-05T09:36:42Z</time>
      </trkpt>
      <trkpt lat="50.43816" lon="3.0241">
        <ele>33</ele>
        <time>2012-02-05T09:36:45Z</time>
      </trkpt>
      <trkpt lat="50.4381" lon="3.02427">
        <ele>33</ele>
        <time>2012-02-05T09:36:48Z</time>
      </trkpt>
      <trkpt lat="50.43806" lon="3.02439">
        <ele>28</ele>
        <time>2012-02-05T09:36:50Z</time>
      </trkpt>
      <trkpt lat="50.43808" lon="3.02453">
        <ele>28</ele>
        <time>2012-02-05T09:36:53Z</time>
      </trkpt>
      <trkpt lat="50.43818" lon="3.02453">
        <ele>28</ele>
        <time>2012-02-05T09:36:56Z</time>
      </trkpt>
      <trkpt lat="50.43831" lon="3.02451">
        <ele>28</ele>
        <time>2012-02-05T09:36:59Z</time>
      </trkpt>
      <trkpt lat="50.4384" lon="3.02449">
        <ele>28</ele>
        <time>2012-02-05T09:37:01Z</time>
      </trkpt>
      <trkpt lat="50.4385" lon="3.02448">
        <ele>28</ele>
        <time>2012-02-05T09:37:03Z</time>
      </trkpt>
      <trkpt lat="50.43859" lon="3.02447">
        <ele>28</ele>
        <time>2012-02-05T09:37:05Z</time>
      </trkpt>
      <trkpt lat="50.43872" lon="3.02446">
        <ele>28</ele>
        <time>2012-02-05T09:37:08Z</time>
      </trkpt>
      <trkpt lat="50.43883" lon="3.02446">
        <ele>28</ele>
        <time>2012-02-05T09:37:10Z</time>
      </trkpt>
      <trkpt lat="50.43894" lon="3.0245">
        <ele>28</ele>
        <time>2012-02-05T09:37:12Z</time>
      </trkpt>
      <trkpt lat="50.43905" lon="3.02458">
        <ele>28</ele>
        <time>2012-02-05T09:37:14Z</time>
      </trkpt>
      <trkpt lat="50.43914" lon="3.02466">
        <ele>28</ele>
        <time>2012-02-05T09:37:16Z</time>
      </trkpt>
      <trkpt lat="50.43921" lon="3.02476">
        <ele>28</ele>
        <time>2012-02-05T09:37:18Z</time>
      </trkpt>
      <trkpt lat="50.43928" lon="3.02485">
        <ele>28</ele>
        <time>2012-02-05T09:37:20Z</time>
      </trkpt>
      <trkpt lat="50.43936" lon="3.02493">
        <ele>28</ele>
        <time>2012-02-05T09:37:22Z</time>
      </trkpt>
      <trkpt lat="50.43946" lon="3.02496">
        <ele>28</ele>
        <time>2012-02-05T09:37:25Z</time>
      </trkpt>
      <trkpt lat="50.43953" lon="3.02483">
        <ele>28</ele>
        <time>2012-02-05T09:37:28Z</time>
      </trkpt>
      <trkpt lat="50.43957" lon="3.0247">
        <ele>28</ele>
        <time>2012-02-05T09:37:30Z</time>
      </trkpt>
      <trkpt lat="50.4396" lon="3.02457">
        <ele>28</ele>
        <time>2012-02-05T09:37:32Z</time>
      </trkpt>
      <trkpt lat="50.43963" lon="3.02442">
        <ele>28</ele>
        <time>2012-02-05T09:37:34Z</time>
      </trkpt>
      <trkpt lat="50.43966" lon="3.02428">
        <ele>28</ele>
        <time>2012-02-05T09:37:36Z</time>
      </trkpt>
      <trkpt lat="50.43969" lon="3.02413">
        <ele>28</ele>
        <time>2012-02-05T09:37:38Z</time>
      </trkpt>
      <trkpt lat="50.43973" lon="3.02397">
        <ele>28</ele>
        <time>2012-02-05T09:37:40Z</time>
      </trkpt>
      <trkpt lat="50.43976" lon="3.02382">
        <ele>28</ele>
        <time>2012-02-05T09:37:42Z</time>
      </trkpt>
      <trkpt lat="50.43979" lon="3.02368">
        <ele>28</ele>
        <time>2012-02-05T09:37:44Z</time>
      </trkpt>
      <trkpt lat="50.43982" lon="3.02353">
        <ele>28</ele>
        <time>2012-02-05T09:37:46Z</time>
      </trkpt>
      <trkpt lat="50.43986" lon="3.02339">
        <ele>28</ele>
        <time>2012-02-05T09:37:48Z</time>
      </trkpt>
      <trkpt lat="50.4399" lon="3.02324">
        <ele>28</ele>
        <time>2012-02-05T09:37:50Z</time>
      </trkpt>
      <trkpt lat="50.43994" lon="3.02307">
        <ele>28</ele>
        <time>2012-02-05T09:37:52Z</time>
      </trkpt>
      <trkpt lat="50.43997" lon="3.02291">
        <ele>28</ele>
        <time>2012-02-05T09:37:54Z</time>
      </trkpt>
      <trkpt lat="50.44001" lon="3.02274">
        <ele>28</ele>
        <time>2012-02-05T09:37:56Z</time>
      </trkpt>
      <trkpt lat="50.44005" lon="3.02258">
        <ele>28</ele>
        <time>2012-02-05T09:37:58Z</time>
      </trkpt>
      <trkpt lat="50.44009" lon="3.02242">
        <ele>28</ele>
        <time>2012-02-05T09:38:00Z</time>
      </trkpt>
      <trkpt lat="50.44013" lon="3.02226">
        <ele>28</ele>
        <time>2012-02-05T09:38:02Z</time>
      </trkpt>
      <trkpt lat="50.44017" lon="3.02209">
        <ele>28</ele>
        <time>2012-02-05T09:38:04Z</time>
      </trkpt>
      <trkpt lat="50.44021" lon="3.02192">
        <ele>28</ele>
        <time>2012-02-05T09:38:06Z</time>
      </trkpt>
      <trkpt lat="50.44025" lon="3.02175">
        <ele>28</ele>
        <time>2012-02-05T09:38:08Z</time>
      </trkpt>
      <trkpt lat="50.44028" lon="3.0216">
        <ele>28</ele>
        <time>2012-02-05T09:38:10Z</time>
      </trkpt>
      <trkpt lat="50.44021" lon="3.02143">
        <ele>28</ele>
        <time>2012-02-05T09:38:13Z</time>
      </trkpt>
      <trkpt lat="50.44012" lon="3.02137">
        <ele>28</ele>
        <time>2012-02-05T09:38:15Z</time>
      </trkpt>
      <trkpt lat="50.44003" lon="3.0213">
        <ele>28</ele>
        <time>2012-02-05T09:38:17Z</time>
      </trkpt>
      <trkpt lat="50.43994" lon="3.02122">
        <ele>28</ele>
        <time>2012-02-05T09:38:19Z</time>
      </trkpt>
      <trkpt lat="50.43986" lon="3.02115">
        <ele>28</ele>
        <time>2012-02-05T09:38:21Z</time>
      </trkpt>
      <trkpt lat="50.43977" lon="3.02106">
        <ele>28</ele>
        <time>2012-02-05T09:38:23Z</time>
      </trkpt>
      <trkpt lat="50.43968" lon="3.02097">
        <ele>28</ele>
        <time>2012-02-05T09:38:25Z</time>
      </trkpt>
      <trkpt lat="50.43958" lon="3.02088">
        <ele>28</ele>
        <time>2012-02-05T09:38:27Z</time>
      </trkpt>
      <trkpt lat="50.43949" lon="3.02078">
        <ele>28</ele>
        <time>2012-02-05T09:38:29Z</time>
      </trkpt>
      <trkpt lat="50.43938" lon="3.02068">
        <ele>28</ele>
        <time>2012-02-05T09:38:31Z</time>
      </trkpt>
      <trkpt lat="50.43928" lon="3.02058">
        <ele>28</ele>
        <time>2012-02-05T09:38:33Z</time>
      </trkpt>
      <trkpt lat="50.43917" lon="3.02048">
        <ele>28</ele>
        <time>2012-02-05T09:38:35Z</time>
      </trkpt>
      <trkpt lat="50.43907" lon="3.02037">
        <ele>28</ele>
        <time>2012-02-05T09:38:37Z</time>
      </trkpt>
      <trkpt lat="50.43896" lon="3.02027">
        <ele>28</ele>
        <time>2012-02-05T09:38:39Z</time>
      </trkpt>
      <trkpt lat="50.43885" lon="3.02017">
        <ele>28</ele>
        <time>2012-02-05T09:38:41Z</time>
      </trkpt>
      <trkpt lat="50.43875" lon="3.02007">
        <ele>28</ele>
        <time>2012-02-05T09:38:43Z</time>
      </trkpt>
      <trkpt lat="50.43864" lon="3.01997">
        <ele>28</ele>
        <time>2012-02-05T09:38:45Z</time>
      </trkpt>
      <trkpt lat="50.43853" lon="3.01988">
        <ele>28</ele>
        <time>2012-02-05T09:38:47Z</time>
      </trkpt>
      <trkpt lat="50.43843" lon="3.01978">
        <ele>28</ele>
        <time>2012-02-05T09:38:49Z</time>
      </trkpt>
      <trkpt lat="50.43833" lon="3.01967">
        <ele>28</ele>
        <time>2012-02-05T09:38:51Z</time>
      </trkpt>
      <trkpt lat="50.43822" lon="3.01958">
        <ele>28</ele>
        <time>2012-02-05T09:38:53Z</time>
      </trkpt>
      <trkpt lat="50.43811" lon="3.0195">
        <ele>28</ele>
        <time>2012-02-05T09:38:55Z</time>
      </trkpt>
      <trkpt lat="50.43799" lon="3.01946">
        <ele>22</ele>
        <time>2012-02-05T09:38:57Z</time>
      </trkpt>
      <trkpt lat="50.43787" lon="3.01947">
        <ele>22</ele>
        <time>2012-02-05T09:38:59Z</time>
      </trkpt>
      <trkpt lat="50.43775" lon="3.01949">
        <ele>22</ele>
        <time>2012-02-05T09:39:01Z</time>
      </trkpt>
      <trkpt lat="50.43762" lon="3.01951">
        <ele>22</ele>
        <time>2012-02-05T09:39:03Z</time>
      </trkpt>
      <trkpt lat="50.4375" lon="3.0195">
        <ele>22</ele>
        <time>2012-02-05T09:39:05Z</time>
      </trkpt>
      <trkpt lat="50.43739" lon="3.0194">
        <ele>22</ele>
        <time>2012-02-05T09:39:07Z</time>
      </trkpt>
      <trkpt lat="50.43732" lon="3.01924">
        <ele>22</ele>
        <time>2012-02-05T09:39:09Z</time>
      </trkpt>
      <trkpt lat="50.43727" lon="3.01905">
        <ele>22</ele>
        <time>2012-02-05T09:39:11Z</time>
      </trkpt>
      <trkpt lat="50.43722" lon="3.01885">
        <ele>22</ele>
        <time>2012-02-05T09:39:13Z</time>
      </trkpt>
      <trkpt lat="50.43719" lon="3.01865">
        <ele>22</ele>
        <time>2012-02-05T09:39:15Z</time>
      </trkpt>
      <trkpt lat="50.43716" lon="3.01845">
        <ele>22</ele>
        <time>2012-02-05T09:39:17Z</time>
      </trkpt>
      <trkpt lat="50.43714" lon="3.01824">
        <ele>22</ele>
        <time>2012-02-05T09:39:19Z</time>
      </trkpt>
      <trkpt lat="50.43712" lon="3.01803">
        <ele>22</ele>
        <time>2012-02-05T09:39:21Z</time>
      </trkpt>
      <trkpt lat="50.4371" lon="3.01783">
        <ele>22</ele>
        <time>2012-02-05T09:39:23Z</time>
      </trkpt>
      <trkpt lat="50.43704" lon="3.01767">
        <ele>22</ele>
        <time>2012-02-05T09:39:25Z</time>
      </trkpt>
      <trkpt lat="50.43692" lon="3.01759">
        <ele>22</ele>
        <time>2012-02-05T09:39:27Z</time>
      </trkpt>
      <trkpt lat="50.43677" lon="3.01757">
        <ele>22</ele>
        <time>2012-02-05T09:39:29Z</time>
      </trkpt>
      <trkpt lat="50.43663" lon="3.01757">
        <ele>22</ele>
        <time>2012-02-05T09:39:31Z</time>
      </trkpt>
      <trkpt lat="50.43649" lon="3.01756">
        <ele>22</ele>
        <time>2012-02-05T09:39:33Z</time>
      </trkpt>
      <trkpt lat="50.43635" lon="3.0175">
        <ele>22</ele>
        <time>2012-02-05T09:39:35Z</time>
      </trkpt>
      <trkpt lat="50.43624" lon="3.01736">
        <ele>22</ele>
        <time>2012-02-05T09:39:37Z</time>
      </trkpt>
      <trkpt lat="50.43617" lon="3.01717">
        <ele>22</ele>
        <time>2012-02-05T09:39:39Z</time>
      </trkpt>
      <trkpt lat="50.43612" lon="3.01697">
        <ele>22</ele>
        <time>2012-02-05T09:39:41Z</time>
      </trkpt>
      <trkpt lat="50.43608" lon="3.01679">
        <ele>22</ele>
        <time>2012-02-05T09:39:43Z</time>
      </trkpt>
      <trkpt lat="50.43603" lon="3.0166">
        <ele>22</ele>
        <time>2012-02-05T09:39:45Z</time>
      </trkpt>
      <trkpt lat="50.436" lon="3.01639">
        <ele>22</ele>
        <time>2012-02-05T09:39:47Z</time>
      </trkpt>
      <trkpt lat="50.43598" lon="3.01619">
        <ele>22</ele>
        <time>2012-02-05T09:39:49Z</time>
      </trkpt>
      <trkpt lat="50.43595" lon="3.016">
        <ele>22</ele>
        <time>2012-02-05T09:39:51Z</time>
      </trkpt>
      <trkpt lat="50.43591" lon="3.01582">
        <ele>22</ele>
        <time>2012-02-05T09:39:53Z</time>
      </trkpt>
      <trkpt lat="50.43588" lon="3.01563">
        <ele>22</ele>
        <time>2012-02-05T09:39:55Z</time>
      </trkpt>
      <trkpt lat="50.43586" lon="3.01545">
        <ele>22</ele>
        <time>2012-02-05T09:39:57Z</time>
      </trkpt>
      <trkpt lat="50.43583" lon="3.01527">
        <ele>22</ele>
        <time>2012-02-05T09:39:59Z</time>
      </trkpt>
      <trkpt lat="50.4358" lon="3.01508">
        <ele>22</ele>
        <time>2012-02-05T09:40:01Z</time>
      </trkpt>
      <trkpt lat="50.43577" lon="3.01489">
        <ele>22</ele>
        <time>2012-02-05T09:40:03Z</time>
      </trkpt>
      <trkpt lat="50.43573" lon="3.01469">
        <ele>22</ele>
        <time>2012-02-05T09:40:05Z</time>
      </trkpt>
      <trkpt lat="50.43571" lon="3.0145">
        <ele>22</ele>
        <time>2012-02-05T09:40:07Z</time>
      </trkpt>
      <trkpt lat="50.43568" lon="3.01432">
        <ele>22</ele>
        <time>2012-02-05T09:40:09Z</time>
      </trkpt>
      <trkpt lat="50.43566" lon="3.01413">
        <ele>22</ele>
        <time>2012-02-05T09:40:11Z</time>
      </trkpt>
      <trkpt lat="50.43564" lon="3.01393">
        <ele>22</ele>
        <time>2012-02-05T09:40:13Z</time>
      </trkpt>
      <trkpt lat="50.43563" lon="3.01373">
        <ele>22</ele>
        <time>2012-02-05T09:40:15Z</time>
      </trkpt>
      <trkpt lat="50.43562" lon="3.01354">
        <ele>22</ele>
        <time>2012-02-05T09:40:17Z</time>
      </trkpt>
      <trkpt lat="50.43562" lon="3.01334">
        <ele>22</ele>
        <time>2012-02-05T09:40:19Z</time>
      </trkpt>
      <trkpt lat="50.43568" lon="3.01315">
        <ele>22</ele>
        <time>2012-02-05T09:40:21Z</time>
      </trkpt>
      <trkpt lat="50.43576" lon="3.01299">
        <ele>22</ele>
        <time>2012-02-05T09:40:23Z</time>
      </trkpt>
      <trkpt lat="50.43583" lon="3.01283">
        <ele>22</ele>
        <time>2012-02-05T09:40:25Z</time>
      </trkpt>
      <trkpt lat="50.43589" lon="3.01267">
        <ele>22</ele>
        <time>2012-02-05T09:40:27Z</time>
      </trkpt>
      <trkpt lat="50.43595" lon="3.01251">
        <ele>22</ele>
        <time>2012-02-05T09:40:29Z</time>
      </trkpt>
      <trkpt lat="50.436" lon="3.01235">
        <ele>22</ele>
        <time>2012-02-05T09:40:31Z</time>
      </trkpt>
      <trkpt lat="50.43604" lon="3.01217">
        <ele>22</ele>
        <time>2012-02-05T09:40:33Z</time>
      </trkpt>
      <trkpt lat="50.43607" lon="3.01199">
        <ele>22</ele>
        <time>2012-02-05T09:40:35Z</time>
      </trkpt>
      <trkpt lat="50.43609" lon="3.01179">
        <ele>22</ele>
        <time>2012-02-05T09:40:37Z</time>
      </trkpt>
      <trkpt lat="50.4361" lon="3.01159">
        <ele>22</ele>
        <time>2012-02-05T09:40:39Z</time>
      </trkpt>
      <trkpt lat="50.43611" lon="3.0114">
        <ele>22</ele>
        <time>2012-02-05T09:40:41Z</time>
      </trkpt>
      <trkpt lat="50.43612" lon="3.01121">
        <ele>22</ele>
        <time>2012-02-05T09:40:43Z</time>
      </trkpt>
      <trkpt lat="50.43612" lon="3.01101">
        <ele>22</ele>
        <time>2012-02-05T09:40:45Z</time>
      </trkpt>
      <trkpt lat="50.43613" lon="3.01081">
        <ele>22</ele>
        <time>2012-02-05T09:40:47Z</time>
      </trkpt>
      <trkpt lat="50.43613" lon="3.01061">
        <ele>22</ele>
        <time>2012-02-05T09:40:49Z</time>
      </trkpt>
      <trkpt lat="50.43615" lon="3.01043">
        <ele>22</ele>
        <time>2012-02-05T09:40:51Z</time>
      </trkpt>
      <trkpt lat="50.43615" lon="3.01023">
        <ele>22</ele>
        <time>2012-02-05T09:40:53Z</time>
      </trkpt>
      <trkpt lat="50.43616" lon="3.01003">
        <ele>22</ele>
        <time>2012-02-05T09:40:55Z</time>
      </trkpt>
      <trkpt lat="50.43616" lon="3.00983">
        <ele>22</ele>
        <time>2012-02-05T09:40:57Z</time>
      </trkpt>
      <trkpt lat="50.43616" lon="3.00964">
        <ele>22</ele>
        <time>2012-02-05T09:40:59Z</time>
      </trkpt>
      <trkpt lat="50.43616" lon="3.00944">
        <ele>22</ele>
        <time>2012-02-05T09:41:01Z</time>
      </trkpt>
      <trkpt lat="50.43616" lon="3.00924">
        <ele>22</ele>
        <time>2012-02-05T09:41:03Z</time>
      </trkpt>
      <trkpt lat="50.43617" lon="3.00904">
        <ele>22</ele>
        <time>2012-02-05T09:41:05Z</time>
      </trkpt>
      <trkpt lat="50.43617" lon="3.00885">
        <ele>22</ele>
        <time>2012-02-05T09:41:07Z</time>
      </trkpt>
      <trkpt lat="50.43619" lon="3.00866">
        <ele>22</ele>
        <time>2012-02-05T09:41:09Z</time>
      </trkpt>
      <trkpt lat="50.43619" lon="3.00848">
        <ele>22</ele>
        <time>2012-02-05T09:41:11Z</time>
      </trkpt>
      <trkpt lat="50.43619" lon="3.00829">
        <ele>22</ele>
        <time>2012-02-05T09:41:13Z</time>
      </trkpt>
      <trkpt lat="50.43619" lon="3.00809">
        <ele>22</ele>
        <time>2012-02-05T09:41:15Z</time>
      </trkpt>
      <trkpt lat="50.4362" lon="3.0079">
        <ele>22</ele>
        <time>2012-02-05T09:41:17Z</time>
      </trkpt>
      <trkpt lat="50.4362" lon="3.0077">
        <ele>22</ele>
        <time>2012-02-05T09:41:19Z</time>
      </trkpt>
      <trkpt lat="50.43621" lon="3.00751">
        <ele>22</ele>
        <time>2012-02-05T09:41:21Z</time>
      </trkpt>
      <trkpt lat="50.43622" lon="3.00731">
        <ele>22</ele>
        <time>2012-02-05T09:41:23Z</time>
      </trkpt>
      <trkpt lat="50.43622" lon="3.00711">
        <ele>22</ele>
        <time>2012-02-05T09:41:25Z</time>
      </trkpt>
      <trkpt lat="50.43622" lon="3.00691">
        <ele>22</ele>
        <time>2012-02-05T09:41:27Z</time>
      </trkpt>
      <trkpt lat="50.43623" lon="3.00672">
        <ele>22</ele>
        <time>2012-02-05T09:41:29Z</time>
      </trkpt>
      <trkpt lat="50.43623" lon="3.00654">
        <ele>22</ele>
        <time>2012-02-05T09:41:31Z</time>
      </trkpt>
      <trkpt lat="50.43622" lon="3.00637">
        <ele>22</ele>
        <time>2012-02-05T09:41:33Z</time>
      </trkpt>
      <trkpt lat="50.4362" lon="3.00619">
        <ele>22</ele>
        <time>2012-02-05T09:41:35Z</time>
      </trkpt>
      <trkpt lat="50.43619" lon="3.00599">
        <ele>22</ele>
        <time>2012-02-05T09:41:37Z</time>
      </trkpt>
      <trkpt lat="50.43623" lon="3.00581">
        <ele>22</ele>
        <time>2012-02-05T09:41:39Z</time>
      </trkpt>
      <trkpt lat="50.43626" lon="3.00562">
        <ele>22</ele>
        <time>2012-02-05T09:41:41Z</time>
      </trkpt>
      <trkpt lat="50.43628" lon="3.00543">
        <ele>22</ele>
        <time>2012-02-05T09:41:43Z</time>
      </trkpt>
      <trkpt lat="50.43628" lon="3.00524">
        <ele>22</ele>
        <time>2012-02-05T09:41:45Z</time>
      </trkpt>
      <trkpt lat="50.43628" lon="3.00505">
        <ele>22</ele>
        <time>2012-02-05T09:41:47Z</time>
      </trkpt>
      <trkpt lat="50.43628" lon="3.00487">
        <ele>22</ele>
        <time>2012-02-05T09:41:49Z</time>
      </trkpt>
      <trkpt lat="50.43628" lon="3.00468">
        <ele>22</ele>
        <time>2012-02-05T09:41:51Z</time>
      </trkpt>
      <trkpt lat="50.43629" lon="3.00449">
        <ele>22</ele>
        <time>2012-02-05T09:41:53Z</time>
      </trkpt>
      <trkpt lat="50.4363" lon="3.0043">
        <ele>22</ele>
        <time>2012-02-05T09:41:55Z</time>
      </trkpt>
      <trkpt lat="50.4363" lon="3.00411">
        <ele>22</ele>
        <time>2012-02-05T09:41:57Z</time>
      </trkpt>
      <trkpt lat="50.4363" lon="3.00392">
        <ele>22</ele>
        <time>2012-02-05T09:41:59Z</time>
      </trkpt>
      <trkpt lat="50.43631" lon="3.00373">
        <ele>22</ele>
        <time>2012-02-05T09:42:01Z</time>
      </trkpt>
      <trkpt lat="50.43631" lon="3.00354">
        <ele>22</ele>
        <time>2012-02-05T09:42:03Z</time>
      </trkpt>
      <trkpt lat="50.4363" lon="3.00336">
        <ele>22</ele>
        <time>2012-02-05T09:42:05Z</time>
      </trkpt>
      <trkpt lat="50.43631" lon="3.00317">
        <ele>22</ele>
        <time>2012-02-05T09:42:07Z</time>
      </trkpt>
      <trkpt lat="50.43632" lon="3.00297">
        <ele>22</ele>
        <time>2012-02-05T09:42:09Z</time>
      </trkpt>
      <trkpt lat="50.43634" lon="3.00277">
        <ele>22</ele>
        <time>2012-02-05T09:42:11Z</time>
      </trkpt>
      <trkpt lat="50.43635" lon="3.00257">
        <ele>22</ele>
        <time>2012-02-05T09:42:13Z</time>
      </trkpt>
      <trkpt lat="50.43638" lon="3.00237">
        <ele>22</ele>
        <time>2012-02-05T09:42:15Z</time>
      </trkpt>
      <trkpt lat="50.4364" lon="3.00218">
        <ele>22</ele>
        <time>2012-02-05T09:42:17Z</time>
      </trkpt>
      <trkpt lat="50.43644" lon="3.00198">
        <ele>22</ele>
        <time>2012-02-05T09:42:19Z</time>
      </trkpt>
      <trkpt lat="50.43648" lon="3.00179">
        <ele>22</ele>
        <time>2012-02-05T09:42:21Z</time>
      </trkpt>
      <trkpt lat="50.43651" lon="3.00159">
        <ele>22</ele>
        <time>2012-02-05T09:42:23Z</time>
      </trkpt>
      <trkpt lat="50.43656" lon="3.0014">
        <ele>22</ele>
        <time>2012-02-05T09:42:25Z</time>
      </trkpt>
      <trkpt lat="50.43661" lon="3.00122">
        <ele>22</ele>
        <time>2012-02-05T09:42:27Z</time>
      </trkpt>
      <trkpt lat="50.43666" lon="3.00104">
        <ele>22</ele>
        <time>2012-02-05T09:42:29Z</time>
      </trkpt>
      <trkpt lat="50.43671" lon="3.00088">
        <ele>22</ele>
        <time>2012-02-05T09:42:31Z</time>
      </trkpt>
      <trkpt lat="50.43677" lon="3.00072">
        <ele>22</ele>
        <time>2012-02-05T09:42:33Z</time>
      </trkpt>
      <trkpt lat="50.43682" lon="3.00057">
        <ele>22</ele>
        <time>2012-02-05T09:42:35Z</time>
      </trkpt>
      <trkpt lat="50.43687" lon="3.00042">
        <ele>22</ele>
        <time>2012-02-05T09:42:37Z</time>
      </trkpt>
      <trkpt lat="50.43694" lon="3.00027">
        <ele>22</ele>
        <time>2012-02-05T09:42:39Z</time>
      </trkpt>
      <trkpt lat="50.437" lon="3.00014">
        <ele>22</ele>
        <time>2012-02-05T09:42:41Z</time>
      </trkpt>
      <trkpt lat="50.43706" lon="3.00001">
        <ele>22</ele>
        <time>2012-02-05T09:42:43Z</time>
      </trkpt>
      <trkpt lat="50.43711" lon="2.9999">
        <ele>22</ele>
        <time>2012-02-05T09:42:45Z</time>
      </trkpt>
      <trkpt lat="50.43716" lon="2.99977">
        <ele>22</ele>
        <time>2012-02-05T09:42:47Z</time>
      </trkpt>
      <trkpt lat="50.43721" lon="2.99965">
        <ele>22</ele>
        <time>2012-02-05T09:42:49Z</time>
      </trkpt>
      <trkpt lat="50.43727" lon="2.99954">
        <ele>22</ele>
        <time>2012-02-05T09:42:51Z</time>
      </trkpt>
      <trkpt lat="50.43735" lon="2.99938">
        <ele>22</ele>
        <time>2012-02-05T09:42:54Z</time>
      </trkpt>
      <trkpt lat="50.43742" lon="2.99923">
        <ele>22</ele>
        <time>2012-02-05T09:42:57Z</time>
      </trkpt>
      <trkpt lat="50.43748" lon="2.99912">
        <ele>22</ele>
        <time>2012-02-05T09:43:00Z</time>
      </trkpt>
      <trkpt lat="50.43759" lon="2.99921">
        <ele>22</ele>
        <time>2012-02-05T09:44:03Z</time>
      </trkpt>
      <trkpt lat="50.43765" lon="2.99934">
        <ele>22</ele>
        <time>2012-02-05T09:44:05Z</time>
      </trkpt>
      <trkpt lat="50.43772" lon="2.9995">
        <ele>22</ele>
        <time>2012-02-05T09:44:07Z</time>
      </trkpt>
      <trkpt lat="50.43778" lon="2.99967">
        <ele>22</ele>
        <time>2012-02-05T09:44:09Z</time>
      </trkpt>
      <trkpt lat="50.43783" lon="2.99983">
        <ele>22</ele>
        <time>2012-02-05T09:44:11Z</time>
      </trkpt>
      <trkpt lat="50.4379" lon="3.00001">
        <ele>28</ele>
        <time>2012-02-05T09:44:13Z</time>
      </trkpt>
      <trkpt lat="50.43796" lon="3.00018">
        <ele>28</ele>
        <time>2012-02-05T09:44:15Z</time>
      </trkpt>
      <trkpt lat="50.43803" lon="3.00034">
        <ele>28</ele>
        <time>2012-02-05T09:44:17Z</time>
      </trkpt>
      <trkpt lat="50.4381" lon="3.00051">
        <ele>28</ele>
        <time>2012-02-05T09:44:19Z</time>
      </trkpt>
      <trkpt lat="50.43817" lon="3.00067">
        <ele>28</ele>
        <time>2012-02-05T09:44:21Z</time>
      </trkpt>
      <trkpt lat="50.43824" lon="3.00085">
        <ele>28</ele>
        <time>2012-02-05T09:44:23Z</time>
      </trkpt>
      <trkpt lat="50.43831" lon="3.00101">
        <ele>28</ele>
        <time>2012-02-05T09:44:25Z</time>
      </trkpt>
      <trkpt lat="50.43839" lon="3.00119">
        <ele>28</ele>
        <time>2012-02-05T09:44:27Z</time>
      </trkpt>
      <trkpt lat="50.43846" lon="3.00136">
        <ele>28</ele>
        <time>2012-02-05T09:44:29Z</time>
      </trkpt>
      <trkpt lat="50.43854" lon="3.00153">
        <ele>28</ele>
        <time>2012-02-05T09:44:31Z</time>
      </trkpt>
      <trkpt lat="50.43862" lon="3.0017">
        <ele>28</ele>
        <time>2012-02-05T09:44:33Z</time>
      </trkpt>
      <trkpt lat="50.43869" lon="3.00189">
        <ele>28</ele>
        <time>2012-02-05T09:44:35Z</time>
      </trkpt>
      <trkpt lat="50.43877" lon="3.00207">
        <ele>28</ele>
        <time>2012-02-05T09:44:37Z</time>
      </trkpt>
      <trkpt lat="50.43885" lon="3.00224">
        <ele>28</ele>
        <time>2012-02-05T09:44:39Z</time>
      </trkpt>
      <trkpt lat="50.43893" lon="3.00242">
        <ele>28</ele>
        <time>2012-02-05T09:44:41Z</time>
      </trkpt>
      <trkpt lat="50.43901" lon="3.0026">
        <ele>28</ele>
        <time>2012-02-05T09:44:43Z</time>
      </trkpt>
      <trkpt lat="50.43909" lon="3.00278">
        <ele>28</ele>
        <time>2012-02-05T09:44:45Z</time>
      </trkpt>
      <trkpt lat="50.43916" lon="3.00296">
        <ele>28</ele>
        <time>2012-02-05T09:44:47Z</time>
      </trkpt>
      <trkpt lat="50.43924" lon="3.00314">
        <ele>28</ele>
        <time>2012-02-05T09:44:49Z</time>
      </trkpt>
      <trkpt lat="50.43932" lon="3.00331">
        <ele>28</ele>
        <time>2012-02-05T09:44:51Z</time>
      </trkpt>
      <trkpt lat="50.4394" lon="3.00349">
        <ele>28</ele>
        <time>2012-02-05T09:44:53Z</time>
      </trkpt>
      <trkpt lat="50.43948" lon="3.00366">
        <ele>28</ele>
        <time>2012-02-05T09:44:55Z</time>
      </trkpt>
      <trkpt lat="50.43955" lon="3.00383">
        <ele>28</ele>
        <time>2012-02-05T09:44:57Z</time>
      </trkpt>
      <trkpt lat="50.43962" lon="3.00399">
        <ele>28</ele>
        <time>2012-02-05T09:44:59Z</time>
      </trkpt>
      <trkpt lat="50.43969" lon="3.00416">
        <ele>28</ele>
        <time>2012-02-05T09:45:01Z</time>
      </trkpt>
      <trkpt lat="50.43976" lon="3.00431">
        <ele>28</ele>
        <time>2012-02-05T09:45:03Z</time>
      </trkpt>
      <trkpt lat="50.43984" lon="3.00447">
        <ele>28</ele>
        <time>2012-02-05T09:45:05Z</time>
      </trkpt>
      <trkpt lat="50.4399" lon="3.00462">
        <ele>28</ele>
        <time>2012-02-05T09:45:07Z</time>
      </trkpt>
      <trkpt lat="50.43998" lon="3.00478">
        <ele>28</ele>
        <time>2012-02-05T09:45:09Z</time>
      </trkpt>
      <trkpt lat="50.44005" lon="3.00495">
        <ele>28</ele>
        <time>2012-02-05T09:45:11Z</time>
      </trkpt>
      <trkpt lat="50.44012" lon="3.00513">
        <ele>28</ele>
        <time>2012-02-05T09:45:13Z</time>
      </trkpt>
      <trkpt lat="50.4402" lon="3.00529">
        <ele>28</ele>
        <time>2012-02-05T09:45:15Z</time>
      </trkpt>
      <trkpt lat="50.44027" lon="3.00545">
        <ele>28</ele>
        <time>2012-02-05T09:45:17Z</time>
      </trkpt>
      <trkpt lat="50.44034" lon="3.00562">
        <ele>28</ele>
        <time>2012-02-05T09:45:19Z</time>
      </trkpt>
      <trkpt lat="50.4404" lon="3.00579">
        <ele>28</ele>
        <time>2012-02-05T09:45:21Z</time>
      </trkpt>
      <trkpt lat="50.44047" lon="3.00595">
        <ele>28</ele>
        <time>2012-02-05T09:45:23Z</time>
      </trkpt>
      <trkpt lat="50.44054" lon="3.0061">
        <ele>28</ele>
        <time>2012-02-05T09:45:25Z</time>
      </trkpt>
      <trkpt lat="50.44061" lon="3.00625">
        <ele>28</ele>
        <time>2012-02-05T09:45:27Z</time>
      </trkpt>
      <trkpt lat="50.44068" lon="3.0064">
        <ele>28</ele>
        <time>2012-02-05T09:45:29Z</time>
      </trkpt>
      <trkpt lat="50.44076" lon="3.00654">
        <ele>28</ele>
        <time>2012-02-05T09:45:31Z</time>
      </trkpt>
      <trkpt lat="50.44083" lon="3.00671">
        <ele>28</ele>
        <time>2012-02-05T09:45:33Z</time>
      </trkpt>
      <trkpt lat="50.4409" lon="3.00686">
        <ele>28</ele>
        <time>2012-02-05T09:45:35Z</time>
      </trkpt>
      <trkpt lat="50.44097" lon="3.00701">
        <ele>28</ele>
        <time>2012-02-05T09:45:37Z</time>
      </trkpt>
      <trkpt lat="50.44104" lon="3.00717">
        <ele>28</ele>
        <time>2012-02-05T09:45:39Z</time>
      </trkpt>
      <trkpt lat="50.44111" lon="3.00733">
        <ele>28</ele>
        <time>2012-02-05T09:45:41Z</time>
      </trkpt>
      <trkpt lat="50.44118" lon="3.00749">
        <ele>28</ele>
        <time>2012-02-05T09:45:43Z</time>
      </trkpt>
      <trkpt lat="50.44125" lon="3.00764">
        <ele>28</ele>
        <time>2012-02-05T09:45:45Z</time>
      </trkpt>
      <trkpt lat="50.44132" lon="3.0078">
        <ele>28</ele>
        <time>2012-02-05T09:45:47Z</time>
      </trkpt>
      <trkpt lat="50.44139" lon="3.00797">
        <ele>28</ele>
        <time>2012-02-05T09:45:49Z</time>
      </trkpt>
      <trkpt lat="50.44146" lon="3.00813">
        <ele>28</ele>
        <time>2012-02-05T09:45:51Z</time>
      </trkpt>
      <trkpt lat="50.44153" lon="3.00831">
        <ele>28</ele>
        <time>2012-02-05T09:45:53Z</time>
      </trkpt>
      <trkpt lat="50.44161" lon="3.00848">
        <ele>28</ele>
        <time>2012-02-05T09:45:55Z</time>
      </trkpt>
      <trkpt lat="50.44168" lon="3.00864">
        <ele>28</ele>
        <time>2012-02-05T09:45:57Z</time>
      </trkpt>
      <trkpt lat="50.44176" lon="3.00881">
        <ele>28</ele>
        <time>2012-02-05T09:45:59Z</time>
      </trkpt>
      <trkpt lat="50.44183" lon="3.00898">
        <ele>28</ele>
        <time>2012-02-05T09:46:01Z</time>
      </trkpt>
      <trkpt lat="50.44191" lon="3.00914">
        <ele>28</ele>
        <time>2012-02-05T09:46:03Z</time>
      </trkpt>
      <trkpt lat="50.44198" lon="3.0093">
        <ele>28</ele>
        <time>2012-02-05T09:46:05Z</time>
      </trkpt>
      <trkpt lat="50.44206" lon="3.00947">
        <ele>28</ele>
        <time>2012-02-05T09:46:07Z</time>
      </trkpt>
      <trkpt lat="50.44213" lon="3.00964">
        <ele>28</ele>
        <time>2012-02-05T09:46:09Z</time>
      </trkpt>
      <trkpt lat="50.4422" lon="3.00982">
        <ele>28</ele>
        <time>2012-02-05T09:46:11Z</time>
      </trkpt>
      <trkpt lat="50.44228" lon="3.00999">
        <ele>28</ele>
        <time>2012-02-05T09:46:13Z</time>
      </trkpt>
      <trkpt lat="50.44235" lon="3.01015">
        <ele>28</ele>
        <time>2012-02-05T09:46:15Z</time>
      </trkpt>
      <trkpt lat="50.44242" lon="3.0103">
        <ele>28</ele>
        <time>2012-02-05T09:46:17Z</time>
      </trkpt>
      <trkpt lat="50.44249" lon="3.01045">
        <ele>28</ele>
        <time>2012-02-05T09:46:19Z</time>
      </trkpt>
      <trkpt lat="50.44256" lon="3.01061">
        <ele>28</ele>
        <time>2012-02-05T09:46:21Z</time>
      </trkpt>
      <trkpt lat="50.44263" lon="3.01078">
        <ele>28</ele>
        <time>2012-02-05T09:46:23Z</time>
      </trkpt>
      <trkpt lat="50.44269" lon="3.01094">
        <ele>28</ele>
        <time>2012-02-05T09:46:25Z</time>
      </trkpt>
      <trkpt lat="50.44274" lon="3.01109">
        <ele>28</ele>
        <time>2012-02-05T09:46:27Z</time>
      </trkpt>
      <trkpt lat="50.44278" lon="3.01126">
        <ele>28</ele>
        <time>2012-02-05T09:46:29Z</time>
      </trkpt>
      <trkpt lat="50.44281" lon="3.01143">
        <ele>28</ele>
        <time>2012-02-05T09:46:31Z</time>
      </trkpt>
      <trkpt lat="50.44284" lon="3.01159">
        <ele>28</ele>
        <time>2012-02-05T09:46:33Z</time>
      </trkpt>
      <trkpt lat="50.4429" lon="3.01174">
        <ele>28</ele>
        <time>2012-02-05T09:46:36Z</time>
      </trkpt>
      <trkpt lat="50.443" lon="3.01167">
        <ele>28</ele>
        <time>2012-02-05T09:46:39Z</time>
      </trkpt>
      <trkpt lat="50.44308" lon="3.01151">
        <ele>28</ele>
        <time>2012-02-05T09:46:42Z</time>
      </trkpt>
      <trkpt lat="50.44318" lon="3.01149">
        <ele>28</ele>
        <time>2012-02-05T09:46:45Z</time>
      </trkpt>
      <trkpt lat="50.44325" lon="3.01166">
        <ele>28</ele>
        <time>2012-02-05T09:46:48Z</time>
      </trkpt>
      <trkpt lat="50.4433" lon="3.01181">
        <ele>28</ele>
        <time>2012-02-05T09:46:50Z</time>
      </trkpt>
      <trkpt lat="50.44336" lon="3.01195">
        <ele>28</ele>
        <time>2012-02-05T09:46:52Z</time>
      </trkpt>
      <trkpt lat="50.44342" lon="3.01211">
        <ele>28</ele>
        <time>2012-02-05T09:46:54Z</time>
      </trkpt>
      <trkpt lat="50.44349" lon="3.01226">
        <ele>28</ele>
        <time>2012-02-05T09:46:56Z</time>
      </trkpt>
      <trkpt lat="50.44356" lon="3.01241">
        <ele>28</ele>
        <time>2012-02-05T09:46:58Z</time>
      </trkpt>
      <trkpt lat="50.44363" lon="3.01257">
        <ele>28</ele>
        <time>2012-02-05T09:47:00Z</time>
      </trkpt>
      <trkpt lat="50.4437" lon="3.01273">
        <ele>28</ele>
        <time>2012-02-05T09:47:02Z</time>
      </trkpt>
      <trkpt lat="50.44376" lon="3.01289">
        <ele>28</ele>
        <time>2012-02-05T09:47:04Z</time>
      </trkpt>
      <trkpt lat="50.44384" lon="3.01306">
        <ele>28</ele>
        <time>2012-02-05T09:47:06Z</time>
      </trkpt>
      <trkpt lat="50.44391" lon="3.01323">
        <ele>28</ele>
        <time>2012-02-05T09:47:08Z</time>
      </trkpt>
      <trkpt lat="50.44399" lon="3.0134">
        <ele>28</ele>
        <time>2012-02-05T09:47:10Z</time>
      </trkpt>
      <trkpt lat="50.44406" lon="3.01357">
        <ele>28</ele>
        <time>2012-02-05T09:47:12Z</time>
      </trkpt>
      <trkpt lat="50.44414" lon="3.01375">
        <ele>28</ele>
        <time>2012-02-05T09:47:14Z</time>
      </trkpt>
      <trkpt lat="50.44422" lon="3.01392">
        <ele>28</ele>
        <time>2012-02-05T09:47:16Z</time>
      </trkpt>
      <trkpt lat="50.4443" lon="3.01411">
        <ele>28</ele>
        <time>2012-02-05T09:47:18Z</time>
      </trkpt>
      <trkpt lat="50.44437" lon="3.01429">
        <ele>28</ele>
        <time>2012-02-05T09:47:20Z</time>
      </trkpt>
      <trkpt lat="50.44446" lon="3.01448">
        <ele>28</ele>
        <time>2012-02-05T09:47:22Z</time>
      </trkpt>
      <trkpt lat="50.44454" lon="3.01467">
        <ele>28</ele>
        <time>2012-02-05T09:47:24Z</time>
      </trkpt>
      <trkpt lat="50.44462" lon="3.01485">
        <ele>28</ele>
        <time>2012-02-05T09:47:26Z</time>
      </trkpt>
      <trkpt lat="50.4447" lon="3.01503">
        <ele>28</ele>
        <time>2012-02-05T09:47:28Z</time>
      </trkpt>
      <trkpt lat="50.44478" lon="3.01521">
        <ele>28</ele>
        <time>2012-02-05T09:47:30Z</time>
      </trkpt>
      <trkpt lat="50.44486" lon="3.01539">
        <ele>28</ele>
        <time>2012-02-05T09:47:32Z</time>
      </trkpt>
      <trkpt lat="50.44494" lon="3.01558">
        <ele>28</ele>
        <time>2012-02-05T09:47:34Z</time>
      </trkpt>
      <trkpt lat="50.44502" lon="3.01576">
        <ele>28</ele>
        <time>2012-02-05T09:47:36Z</time>
      </trkpt>
      <trkpt lat="50.4451" lon="3.01594">
        <ele>28</ele>
        <time>2012-02-05T09:47:38Z</time>
      </trkpt>
      <trkpt lat="50.44518" lon="3.01612">
        <ele>28</ele>
        <time>2012-02-05T09:47:40Z</time>
      </trkpt>
      <trkpt lat="50.44526" lon="3.01631">
        <ele>28</ele>
        <time>2012-02-05T09:47:42Z</time>
      </trkpt>
      <trkpt lat="50.44533" lon="3.01649">
        <ele>28</ele>
        <time>2012-02-05T09:47:44Z</time>
      </trkpt>
      <trkpt lat="50.44541" lon="3.01667">
        <ele>28</ele>
        <time>2012-02-05T09:47:46Z</time>
      </trkpt>
      <trkpt lat="50.44549" lon="3.01685">
        <ele>28</ele>
        <time>2012-02-05T09:47:48Z</time>
      </trkpt>
      <trkpt lat="50.44557" lon="3.01701">
        <ele>28</ele>
        <time>2012-02-05T09:47:50Z</time>
      </trkpt>
      <trkpt lat="50.4457" lon="3.01713">
        <ele>28</ele>
        <time>2012-02-05T09:47:52Z</time>
      </trkpt>
      <trkpt lat="50.44584" lon="3.0172">
        <ele>28</ele>
        <time>2012-02-05T09:47:54Z</time>
      </trkpt>
      <trkpt lat="50.44597" lon="3.01727">
        <ele>28</ele>
        <time>2012-02-05T09:47:56Z</time>
      </trkpt>
      <trkpt lat="50.4461" lon="3.01733">
        <ele>28</ele>
        <time>2012-02-05T09:47:58Z</time>
      </trkpt>
      <trkpt lat="50.44624" lon="3.0174">
        <ele>28</ele>
        <time>2012-02-05T09:48:00Z</time>
      </trkpt>
      <trkpt lat="50.44636" lon="3.01745">
        <ele>28</ele>
        <time>2012-02-05T09:48:02Z</time>
      </trkpt>
      <trkpt lat="50.44649" lon="3.0175">
        <ele>28</ele>
        <time>2012-02-05T09:48:04Z</time>
      </trkpt>
      <trkpt lat="50.44662" lon="3.01754">
        <ele>28</ele>
        <time>2012-02-05T09:48:06Z</time>
      </trkpt>
      <trkpt lat="50.44675" lon="3.01758">
        <ele>28</ele>
        <time>2012-02-05T09:48:08Z</time>
      </trkpt>
      <trkpt lat="50.44689" lon="3.01763">
        <ele>28</ele>
        <time>2012-02-05T09:48:10Z</time>
      </trkpt>
      <trkpt lat="50.44702" lon="3.01768">
        <ele>28</ele>
        <time>2012-02-05T09:48:12Z</time>
      </trkpt>
      <trkpt lat="50.44715" lon="3.01772">
        <ele>28</ele>
        <time>2012-02-05T09:48:14Z</time>
      </trkpt>
      <trkpt lat="50.44728" lon="3.01778">
        <ele>28</ele>
        <time>2012-02-05T09:48:16Z</time>
      </trkpt>
      <trkpt lat="50.44741" lon="3.01785">
        <ele>28</ele>
        <time>2012-02-05T09:48:18Z</time>
      </trkpt>
      <trkpt lat="50.44754" lon="3.01793">
        <ele>28</ele>
        <time>2012-02-05T09:48:20Z</time>
      </trkpt>
      <trkpt lat="50.44767" lon="3.01801">
        <ele>28</ele>
        <time>2012-02-05T09:48:22Z</time>
      </trkpt>
      <trkpt lat="50.44778" lon="3.01811">
        <ele>28</ele>
        <time>2012-02-05T09:48:24Z</time>
      </trkpt>
      <trkpt lat="50.44789" lon="3.01821">
        <ele>28</ele>
        <time>2012-02-05T09:48:26Z</time>
      </trkpt>
      <trkpt lat="50.44798" lon="3.01833">
        <ele>28</ele>
        <time>2012-02-05T09:48:28Z</time>
      </trkpt>
      <trkpt lat="50.44806" lon="3.01845">
        <ele>28</ele>
        <time>2012-02-05T09:48:30Z</time>
      </trkpt>
      <trkpt lat="50.44815" lon="3.01858">
        <ele>28</ele>
        <time>2012-02-05T09:48:32Z</time>
      </trkpt>
      <trkpt lat="50.44824" lon="3.01872">
        <ele>28</ele>
        <time>2012-02-05T09:48:34Z</time>
      </trkpt>
      <trkpt lat="50.44834" lon="3.01883">
        <ele>28</ele>
        <time>2012-02-05T09:48:36Z</time>
      </trkpt>
      <trkpt lat="50.44843" lon="3.01894">
        <ele>28</ele>
        <time>2012-02-05T09:48:38Z</time>
      </trkpt>
      <trkpt lat="50.44852" lon="3.01906">
        <ele>28</ele>
        <time>2012-02-05T09:48:40Z</time>
      </trkpt>
      <trkpt lat="50.44861" lon="3.01916">
        <ele>28</ele>
        <time>2012-02-05T09:48:42Z</time>
      </trkpt>
      <trkpt lat="50.44869" lon="3.01926">
        <ele>28</ele>
        <time>2012-02-05T09:48:44Z</time>
      </trkpt>
      <trkpt lat="50.44876" lon="3.01936">
        <ele>28</ele>
        <time>2012-02-05T09:48:46Z</time>
      </trkpt>
      <trkpt lat="50.44884" lon="3.01948">
        <ele>28</ele>
        <time>2012-02-05T09:48:48Z</time>
      </trkpt>
      <trkpt lat="50.4489" lon="3.01959">
        <ele>28</ele>
        <time>2012-02-05T09:48:50Z</time>
      </trkpt>
      <trkpt lat="50.44897" lon="3.01971">
        <ele>28</ele>
        <time>2012-02-05T09:48:52Z</time>
      </trkpt>
      <trkpt lat="50.44904" lon="3.01981">
        <ele>28</ele>
        <time>2012-02-05T09:48:54Z</time>
      </trkpt>
      <trkpt lat="50.44911" lon="3.01993">
        <ele>28</ele>
        <time>2012-02-05T09:48:56Z</time>
      </trkpt>
      <trkpt lat="50.44917" lon="3.02006">
        <ele>28</ele>
        <time>2012-02-05T09:48:58Z</time>
      </trkpt>
      <trkpt lat="50.44925" lon="3.02017">
        <ele>28</ele>
        <time>2012-02-05T09:49:00Z</time>
      </trkpt>
      <trkpt lat="50.44933" lon="3.02029">
        <ele>28</ele>
        <time>2012-02-05T09:49:02Z</time>
      </trkpt>
      <trkpt lat="50.44942" lon="3.02041">
        <ele>28</ele>
        <time>2012-02-05T09:49:04Z</time>
      </trkpt>
      <trkpt lat="50.4495" lon="3.02052">
        <ele>28</ele>
        <time>2012-02-05T09:49:06Z</time>
      </trkpt>
      <trkpt lat="50.44958" lon="3.02064">
        <ele>28</ele>
        <time>2012-02-05T09:49:08Z</time>
      </trkpt>
      <trkpt lat="50.44967" lon="3.02076">
        <ele>28</ele>
        <time>2012-02-05T09:49:10Z</time>
      </trkpt>
      <trkpt lat="50.44976" lon="3.02086">
        <ele>28</ele>
        <time>2012-02-05T09:49:12Z</time>
      </trkpt>
      <trkpt lat="50.44984" lon="3.02096">
        <ele>28</ele>
        <time>2012-02-05T09:49:14Z</time>
      </trkpt>
      <trkpt lat="50.44993" lon="3.02107">
        <ele>28</ele>
        <time>2012-02-05T09:49:16Z</time>
      </trkpt>
      <trkpt lat="50.45001" lon="3.02115">
        <ele>28</ele>
        <time>2012-02-05T09:49:18Z</time>
      </trkpt>
      <trkpt lat="50.45011" lon="3.02121">
        <ele>28</ele>
        <time>2012-02-05T09:49:20Z</time>
      </trkpt>
      <trkpt lat="50.45021" lon="3.02122">
        <ele>28</ele>
        <time>2012-02-05T09:49:22Z</time>
      </trkpt>
      <trkpt lat="50.45032" lon="3.02124">
        <ele>28</ele>
        <time>2012-02-05T09:49:24Z</time>
      </trkpt>
      <trkpt lat="50.45042" lon="3.02126">
        <ele>28</ele>
        <time>2012-02-05T09:49:26Z</time>
      </trkpt>
      <trkpt lat="50.45053" lon="3.02129">
        <ele>28</ele>
        <time>2012-02-05T09:49:28Z</time>
      </trkpt>
      <trkpt lat="50.45064" lon="3.0213">
        <ele>28</ele>
        <time>2012-02-05T09:49:30Z</time>
      </trkpt>
      <trkpt lat="50.45075" lon="3.0213">
        <ele>28</ele>
        <time>2012-02-05T09:49:32Z</time>
      </trkpt>
      <trkpt lat="50.45086" lon="3.0213">
        <ele>28</ele>
        <time>2012-02-05T09:49:34Z</time>
      </trkpt>
      <trkpt lat="50.45098" lon="3.02126">
        <ele>28</ele>
        <time>2012-02-05T09:49:36Z</time>
      </trkpt>
      <trkpt lat="50.45108" lon="3.02123">
        <ele>28</ele>
        <time>2012-02-05T09:49:38Z</time>
      </trkpt>
      <trkpt lat="50.45119" lon="3.0212">
        <ele>28</ele>
        <time>2012-02-05T09:49:40Z</time>
      </trkpt>
      <trkpt lat="50.45128" lon="3.02115">
        <ele>28</ele>
        <time>2012-02-05T09:49:42Z</time>
      </trkpt>
      <trkpt lat="50.45139" lon="3.0211">
        <ele>28</ele>
        <time>2012-02-05T09:49:44Z</time>
      </trkpt>
      <trkpt lat="50.45149" lon="3.02106">
        <ele>28</ele>
        <time>2012-02-05T09:49:46Z</time>
      </trkpt>
      <trkpt lat="50.45159" lon="3.02101">
        <ele>28</ele>
        <time>2012-02-05T09:49:48Z</time>
      </trkpt>
      <trkpt lat="50.4517" lon="3.02094">
        <ele>28</ele>
        <time>2012-02-05T09:49:50Z</time>
      </trkpt>
      <trkpt lat="50.45182" lon="3.02087">
        <ele>28</ele>
        <time>2012-02-05T09:49:52Z</time>
      </trkpt>
      <trkpt lat="50.45193" lon="3.02081">
        <ele>28</ele>
        <time>2012-02-05T09:49:54Z</time>
      </trkpt>
      <trkpt lat="50.45205" lon="3.02074">
        <ele>28</ele>
        <time>2012-02-05T09:49:56Z</time>
      </trkpt>
      <trkpt lat="50.45217" lon="3.02066">
        <ele>28</ele>
        <time>2012-02-05T09:49:58Z</time>
      </trkpt>
      <trkpt lat="50.45229" lon="3.02057">
        <ele>28</ele>
        <time>2012-02-05T09:50:00Z</time>
      </trkpt>
      <trkpt lat="50.4524" lon="3.02045">
        <ele>28</ele>
        <time>2012-02-05T09:50:02Z</time>
      </trkpt>
      <trkpt lat="50.45251" lon="3.02035">
        <ele>28</ele>
        <time>2012-02-05T09:50:04Z</time>
      </trkpt>
      <trkpt lat="50.45262" lon="3.02025">
        <ele>28</ele>
        <time>2012-02-05T09:50:06Z</time>
      </trkpt>
      <trkpt lat="50.45272" lon="3.02015">
        <ele>28</ele>
        <time>2012-02-05T09:50:08Z</time>
      </trkpt>
      <trkpt lat="50.45281" lon="3.02005">
        <ele>28</ele>
        <time>2012-02-05T09:50:10Z</time>
      </trkpt>
      <trkpt lat="50.45289" lon="3.01996">
        <ele>28</ele>
        <time>2012-02-05T09:50:12Z</time>
      </trkpt>
      <trkpt lat="50.45298" lon="3.0199">
        <ele>28</ele>
        <time>2012-02-05T09:50:14Z</time>
      </trkpt>
      <trkpt lat="50.45309" lon="3.01995">
        <ele>28</ele>
        <time>2012-02-05T09:50:17Z</time>
      </trkpt>
      <trkpt lat="50.45317" lon="3.02003">
        <ele>28</ele>
        <time>2012-02-05T09:50:19Z</time>
      </trkpt>
      <trkpt lat="50.45325" lon="3.02012">
        <ele>28</ele>
        <time>2012-02-05T09:50:21Z</time>
      </trkpt>
      <trkpt lat="50.45334" lon="3.02022">
        <ele>28</ele>
        <time>2012-02-05T09:50:23Z</time>
      </trkpt>
      <trkpt lat="50.45344" lon="3.02032">
        <ele>28</ele>
        <time>2012-02-05T09:50:25Z</time>
      </trkpt>
      <trkpt lat="50.45354" lon="3.02041">
        <ele>28</ele>
        <time>2012-02-05T09:50:27Z</time>
      </trkpt>
      <trkpt lat="50.45364" lon="3.02052">
        <ele>28</ele>
        <time>2012-02-05T09:50:29Z</time>
      </trkpt>
      <trkpt lat="50.45373" lon="3.02065">
        <ele>28</ele>
        <time>2012-02-05T09:50:31Z</time>
      </trkpt>
      <trkpt lat="50.45382" lon="3.02078">
        <ele>28</ele>
        <time>2012-02-05T09:50:33Z</time>
      </trkpt>
      <trkpt lat="50.45391" lon="3.02091">
        <ele>28</ele>
        <time>2012-02-05T09:50:35Z</time>
      </trkpt>
      <trkpt lat="50.454" lon="3.02104">
        <ele>28</ele>
        <time>2012-02-05T09:50:37Z</time>
      </trkpt>
      <trkpt lat="50.45409" lon="3.02118">
        <ele>28</ele>
        <time>2012-02-05T09:50:39Z</time>
      </trkpt>
      <trkpt lat="50.45419" lon="3.02131">
        <ele>28</ele>
        <time>2012-02-05T09:50:41Z</time>
      </trkpt>
      <trkpt lat="50.45428" lon="3.02142">
        <ele>28</ele>
        <time>2012-02-05T09:50:43Z</time>
      </trkpt>
      <trkpt lat="50.45439" lon="3.0215">
        <ele>28</ele>
        <time>2012-02-05T09:50:45Z</time>
      </trkpt>
      <trkpt lat="50.4545" lon="3.02157">
        <ele>28</ele>
        <time>2012-02-05T09:50:47Z</time>
      </trkpt>
      <trkpt lat="50.45462" lon="3.02163">
        <ele>28</ele>
        <time>2012-02-05T09:50:49Z</time>
      </trkpt>
      <trkpt lat="50.45473" lon="3.02169">
        <ele>28</ele>
        <time>2012-02-05T09:50:51Z</time>
      </trkpt>
      <trkpt lat="50.45485" lon="3.02175">
        <ele>28</ele>
        <time>2012-02-05T09:50:53Z</time>
      </trkpt>
      <trkpt lat="50.45496" lon="3.02183">
        <ele>28</ele>
        <time>2012-02-05T09:50:55Z</time>
      </trkpt>
      <trkpt lat="50.45505" lon="3.02193">
        <ele>28</ele>
        <time>2012-02-05T09:50:57Z</time>
      </trkpt>
      <trkpt lat="50.45513" lon="3.02203">
        <ele>28</ele>
        <time>2012-02-05T09:50:59Z</time>
      </trkpt>
      <trkpt lat="50.45524" lon="3.02207">
        <ele>28</ele>
        <time>2012-02-05T09:51:02Z</time>
      </trkpt>
      <trkpt lat="50.45532" lon="3.02199">
        <ele>28</ele>
        <time>2012-02-05T09:51:06Z</time>
      </trkpt>
      <trkpt lat="50.45539" lon="3.02189">
        <ele>28</ele>
        <time>2012-02-05T09:51:09Z</time>
      </trkpt>
      <trkpt lat="50.45545" lon="3.02178">
        <ele>28</ele>
        <time>2012-02-05T09:51:12Z</time>
      </trkpt>
      <trkpt lat="50.45552" lon="3.02164">
        <ele>28</ele>
        <time>2012-02-05T09:51:15Z</time>
      </trkpt>
      <trkpt lat="50.4556" lon="3.02147">
        <ele>28</ele>
        <time>2012-02-05T09:51:18Z</time>
      </trkpt>
      <trkpt lat="50.45566" lon="3.02137">
        <ele>28</ele>
        <time>2012-02-05T09:51:20Z</time>
      </trkpt>
      <trkpt lat="50.45572" lon="3.02126">
        <ele>28</ele>
        <time>2012-02-05T09:51:22Z</time>
      </trkpt>
      <trkpt lat="50.45578" lon="3.02115">
        <ele>28</ele>
        <time>2012-02-05T09:51:24Z</time>
      </trkpt>
      <trkpt lat="50.45584" lon="3.02104">
        <ele>28</ele>
        <time>2012-02-05T09:51:26Z</time>
      </trkpt>
      <trkpt lat="50.45591" lon="3.02093">
        <ele>28</ele>
        <time>2012-02-05T09:51:28Z</time>
      </trkpt>
      <trkpt lat="50.45597" lon="3.02082">
        <ele>28</ele>
        <time>2012-02-05T09:51:30Z</time>
      </trkpt>
      <trkpt lat="50.45604" lon="3.0207">
        <ele>28</ele>
        <time>2012-02-05T09:51:32Z</time>
      </trkpt>
      <trkpt lat="50.45611" lon="3.02059">
        <ele>28</ele>
        <time>2012-02-05T09:51:34Z</time>
      </trkpt>
      <trkpt lat="50.45617" lon="3.02046">
        <ele>28</ele>
        <time>2012-02-05T09:51:36Z</time>
      </trkpt>
      <trkpt lat="50.45623" lon="3.02034">
        <ele>28</ele>
        <time>2012-02-05T09:51:38Z</time>
      </trkpt>
      <trkpt lat="50.4563" lon="3.02021">
        <ele>28</ele>
        <time>2012-02-05T09:51:40Z</time>
      </trkpt>
      <trkpt lat="50.45636" lon="3.02008">
        <ele>28</ele>
        <time>2012-02-05T09:51:42Z</time>
      </trkpt>
      <trkpt lat="50.45642" lon="3.01996">
        <ele>28</ele>
        <time>2012-02-05T09:51:44Z</time>
      </trkpt>
      <trkpt lat="50.45648" lon="3.01983">
        <ele>28</ele>
        <time>2012-02-05T09:51:46Z</time>
      </trkpt>
      <trkpt lat="50.45653" lon="3.0197">
        <ele>28</ele>
        <time>2012-02-05T09:51:48Z</time>
      </trkpt>
      <trkpt lat="50.4566" lon="3.01956">
        <ele>28</ele>
        <time>2012-02-05T09:51:50Z</time>
      </trkpt>
      <trkpt lat="50.45666" lon="3.01942">
        <ele>28</ele>
        <time>2012-02-05T09:51:52Z</time>
      </trkpt>
      <trkpt lat="50.45673" lon="3.01928">
        <ele>28</ele>
        <time>2012-02-05T09:51:54Z</time>
      </trkpt>
      <trkpt lat="50.4568" lon="3.01914">
        <ele>28</ele>
        <time>2012-02-05T09:51:56Z</time>
      </trkpt>
      <trkpt lat="50.45687" lon="3.019">
        <ele>28</ele>
        <time>2012-02-05T09:51:58Z</time>
      </trkpt>
      <trkpt lat="50.45693" lon="3.01884">
        <ele>28</ele>
        <time>2012-02-05T09:52:00Z</time>
      </trkpt>
      <trkpt lat="50.457" lon="3.0187">
        <ele>28</ele>
        <time>2012-02-05T09:52:02Z</time>
      </trkpt>
      <trkpt lat="50.45708" lon="3.01856">
        <ele>28</ele>
        <time>2012-02-05T09:52:04Z</time>
      </trkpt>
      <trkpt lat="50.45715" lon="3.01841">
        <ele>28</ele>
        <time>2012-02-05T09:52:06Z</time>
      </trkpt>
      <trkpt lat="50.45721" lon="3.01828">
        <ele>28</ele>
        <time>2012-02-05T09:52:08Z</time>
      </trkpt>
      <trkpt lat="50.4573" lon="3.01814">
        <ele>28</ele>
        <time>2012-02-05T09:52:10Z</time>
      </trkpt>
      <trkpt lat="50.45738" lon="3.01802">
        <ele>28</ele>
        <time>2012-02-05T09:52:12Z</time>
      </trkpt>
      <trkpt lat="50.45746" lon="3.01789">
        <ele>28</ele>
        <time>2012-02-05T09:52:14Z</time>
      </trkpt>
      <trkpt lat="50.45755" lon="3.01778">
        <ele>28</ele>
        <time>2012-02-05T09:52:16Z</time>
      </trkpt>
      <trkpt lat="50.45764" lon="3.01767">
        <ele>28</ele>
        <time>2012-02-05T09:52:18Z</time>
      </trkpt>
      <trkpt lat="50.45773" lon="3.01757">
        <ele>28</ele>
        <time>2012-02-05T09:52:20Z</time>
      </trkpt>
      <trkpt lat="50.45782" lon="3.01746">
        <ele>28</ele>
        <time>2012-02-05T09:52:22Z</time>
      </trkpt>
      <trkpt lat="50.45792" lon="3.01736">
        <ele>28</ele>
        <time>2012-02-05T09:52:24Z</time>
      </trkpt>
      <trkpt lat="50.45802" lon="3.01725">
        <ele>33</ele>
        <time>2012-02-05T09:52:26Z</time>
      </trkpt>
      <trkpt lat="50.45812" lon="3.01715">
        <ele>33</ele>
        <time>2012-02-05T09:52:28Z</time>
      </trkpt>
      <trkpt lat="50.45821" lon="3.01704">
        <ele>33</ele>
        <time>2012-02-05T09:52:30Z</time>
      </trkpt>
      <trkpt lat="50.45832" lon="3.01692">
        <ele>33</ele>
        <time>2012-02-05T09:52:32Z</time>
      </trkpt>
      <trkpt lat="50.45842" lon="3.01681">
        <ele>33</ele>
        <time>2012-02-05T09:52:34Z</time>
      </trkpt>
      <trkpt lat="50.45852" lon="3.0167">
        <ele>33</ele>
        <time>2012-02-05T09:52:36Z</time>
      </trkpt>
      <trkpt lat="50.45862" lon="3.01659">
        <ele>33</ele>
        <time>2012-02-05T09:52:38Z</time>
      </trkpt>
      <trkpt lat="50.45872" lon="3.01648">
        <ele>33</ele>
        <time>2012-02-05T09:52:40Z</time>
      </trkpt>
      <trkpt lat="50.45881" lon="3.01637">
        <ele>33</ele>
        <time>2012-02-05T09:52:42Z</time>
      </trkpt>
      <trkpt lat="50.4589" lon="3.01626">
        <ele>33</ele>
        <time>2012-02-05T09:52:44Z</time>
      </trkpt>
      <trkpt lat="50.45898" lon="3.01617">
        <ele>33</ele>
        <time>2012-02-05T09:52:46Z</time>
      </trkpt>
      <trkpt lat="50.45907" lon="3.01606">
        <ele>33</ele>
        <time>2012-02-05T09:52:48Z</time>
      </trkpt>
      <trkpt lat="50.45915" lon="3.01595">
        <ele>33</ele>
        <time>2012-02-05T09:52:50Z</time>
      </trkpt>
      <trkpt lat="50.45924" lon="3.01583">
        <ele>33</ele>
        <time>2012-02-05T09:52:52Z</time>
      </trkpt>
      <trkpt lat="50.45932" lon="3.0157">
        <ele>33</ele>
        <time>2012-02-05T09:52:54Z</time>
      </trkpt>
      <trkpt lat="50.45941" lon="3.01556">
        <ele>33</ele>
        <time>2012-02-05T09:52:56Z</time>
      </trkpt>
      <trkpt lat="50.45949" lon="3.01543">
        <ele>33</ele>
        <time>2012-02-05T09:52:58Z</time>
      </trkpt>
      <trkpt lat="50.45956" lon="3.01529">
        <ele>33</ele>
        <time>2012-02-05T09:53:00Z</time>
      </trkpt>
      <trkpt lat="50.45963" lon="3.01514">
        <ele>33</ele>
        <time>2012-02-05T09:53:02Z</time>
      </trkpt>
      <trkpt lat="50.45969" lon="3.01497">
        <ele>33</ele>
        <time>2012-02-05T09:53:04Z</time>
      </trkpt>
      <trkpt lat="50.45974" lon="3.01479">
        <ele>33</ele>
        <time>2012-02-05T09:53:06Z</time>
      </trkpt>
      <trkpt lat="50.45978" lon="3.01462">
        <ele>33</ele>
        <time>2012-02-05T09:53:08Z</time>
      </trkpt>
      <trkpt lat="50.45983" lon="3.01445">
        <ele>33</ele>
        <time>2012-02-05T09:53:10Z</time>
      </trkpt>
      <trkpt lat="50.45986" lon="3.01428">
        <ele>33</ele>
        <time>2012-02-05T09:53:12Z</time>
      </trkpt>
      <trkpt lat="50.4599" lon="3.01411">
        <ele>33</ele>
        <time>2012-02-05T09:53:14Z</time>
      </trkpt>
      <trkpt lat="50.45993" lon="3.01396">
        <ele>33</ele>
        <time>2012-02-05T09:53:16Z</time>
      </trkpt>
      <trkpt lat="50.45997" lon="3.01379">
        <ele>33</ele>
        <time>2012-02-05T09:53:18Z</time>
      </trkpt>
      <trkpt lat="50.45998" lon="3.01364">
        <ele>33</ele>
        <time>2012-02-05T09:53:20Z</time>
      </trkpt>
      <trkpt lat="50.45992" lon="3.01353">
        <ele>33</ele>
        <time>2012-02-05T09:53:22Z</time>
      </trkpt>
      <trkpt lat="50.45983" lon="3.01352">
        <ele>33</ele>
        <time>2012-02-05T09:53:24Z</time>
      </trkpt>
      <trkpt lat="50.45973" lon="3.01351">
        <ele>33</ele>
        <time>2012-02-05T09:53:26Z</time>
      </trkpt>
      <trkpt lat="50.45961" lon="3.0135">
        <ele>33</ele>
        <time>2012-02-05T09:53:28Z</time>
      </trkpt>
      <trkpt lat="50.4595" lon="3.01348">
        <ele>28</ele>
        <time>2012-02-05T09:53:30Z</time>
      </trkpt>
      <trkpt lat="50.45938" lon="3.01346">
        <ele>28</ele>
        <time>2012-02-05T09:53:32Z</time>
      </trkpt>
      <trkpt lat="50.45926" lon="3.01345">
        <ele>28</ele>
        <time>2012-02-05T09:53:34Z</time>
      </trkpt>
      <trkpt lat="50.45914" lon="3.01344">
        <ele>28</ele>
        <time>2012-02-05T09:53:36Z</time>
      </trkpt>
      <trkpt lat="50.45902" lon="3.01344">
        <ele>28</ele>
        <time>2012-02-05T09:53:38Z</time>
      </trkpt>
      <trkpt lat="50.4589" lon="3.01342">
        <ele>28</ele>
        <time>2012-02-05T09:53:40Z</time>
      </trkpt>
      <trkpt lat="50.45877" lon="3.01342">
        <ele>28</ele>
        <time>2012-02-05T09:53:42Z</time>
      </trkpt>
      <trkpt lat="50.45865" lon="3.01341">
        <ele>28</ele>
        <time>2012-02-05T09:53:44Z</time>
      </trkpt>
      <trkpt lat="50.45853" lon="3.0134">
        <ele>28</ele>
        <time>2012-02-05T09:53:46Z</time>
      </trkpt>
      <trkpt lat="50.4584" lon="3.01339">
        <ele>28</ele>
        <time>2012-02-05T09:53:48Z</time>
      </trkpt>
      <trkpt lat="50.45828" lon="3.01339">
        <ele>28</ele>
        <time>2012-02-05T09:53:50Z</time>
      </trkpt>
      <trkpt lat="50.45816" lon="3.01339">
        <ele>28</ele>
        <time>2012-02-05T09:53:52Z</time>
      </trkpt>
      <trkpt lat="50.45804" lon="3.01337">
        <ele>28</ele>
        <time>2012-02-05T09:53:54Z</time>
      </trkpt>
      <trkpt lat="50.45793" lon="3.01333">
        <ele>28</ele>
        <time>2012-02-05T09:53:56Z</time>
      </trkpt>
      <trkpt lat="50.45782" lon="3.01326">
        <ele>28</ele>
        <time>2012-02-05T09:53:58Z</time>
      </trkpt>
      <trkpt lat="50.45772" lon="3.01317">
        <ele>28</ele>
        <time>2012-02-05T09:54:00Z</time>
      </trkpt>
      <trkpt lat="50.45762" lon="3.01307">
        <ele>28</ele>
        <time>2012-02-05T09:54:02Z</time>
      </trkpt>
      <trkpt lat="50.45754" lon="3.01293">
        <ele>28</ele>
        <time>2012-02-05T09:54:04Z</time>
      </trkpt>
      <trkpt lat="50.45752" lon="3.01276">
        <ele>28</ele>
        <time>2012-02-05T09:54:06Z</time>
      </trkpt>
      <trkpt lat="50.45756" lon="3.01258">
        <ele>28</ele>
        <time>2012-02-05T09:54:08Z</time>
      </trkpt>
      <trkpt lat="50.45764" lon="3.01241">
        <ele>28</ele>
        <time>2012-02-05T09:54:10Z</time>
      </trkpt>
      <trkpt lat="50.45773" lon="3.01225">
        <ele>28</ele>
        <time>2012-02-05T09:54:12Z</time>
      </trkpt>
      <trkpt lat="50.4578" lon="3.0121">
        <ele>28</ele>
        <time>2012-02-05T09:54:14Z</time>
      </trkpt>
      <trkpt lat="50.45787" lon="3.01193">
        <ele>28</ele>
        <time>2012-02-05T09:54:16Z</time>
      </trkpt>
      <trkpt lat="50.45795" lon="3.01179">
        <ele>28</ele>
        <time>2012-02-05T09:54:18Z</time>
      </trkpt>
      <trkpt lat="50.45805" lon="3.01166">
        <ele>28</ele>
        <time>2012-02-05T09:54:20Z</time>
      </trkpt>
      <trkpt lat="50.45814" lon="3.01154">
        <ele>28</ele>
        <time>2012-02-05T09:54:22Z</time>
      </trkpt>
      <trkpt lat="50.45823" lon="3.01144">
        <ele>28</ele>
        <time>2012-02-05T09:54:24Z</time>
      </trkpt>
      <trkpt lat="50.45833" lon="3.01134">
        <ele>28</ele>
        <time>2012-02-05T09:54:26Z</time>
      </trkpt>
      <trkpt lat="50.45842" lon="3.01124">
        <ele>28</ele>
        <time>2012-02-05T09:54:28Z</time>
      </trkpt>
      <trkpt lat="50.45853" lon="3.01115">
        <ele>28</ele>
        <time>2012-02-05T09:54:30Z</time>
      </trkpt>
      <trkpt lat="50.45863" lon="3.01105">
        <ele>28</ele>
        <time>2012-02-05T09:54:32Z</time>
      </trkpt>
      <trkpt lat="50.45873" lon="3.01096">
        <ele>28</ele>
        <time>2012-02-05T09:54:34Z</time>
      </trkpt>
      <trkpt lat="50.45884" lon="3.01084">
        <ele>28</ele>
        <time>2012-02-05T09:54:36Z</time>
      </trkpt>
      <trkpt lat="50.45893" lon="3.0107">
        <ele>28</ele>
        <time>2012-02-05T09:54:38Z</time>
      </trkpt>
      <trkpt lat="50.45902" lon="3.01053">
        <ele>28</ele>
        <time>2012-02-05T09:54:40Z</time>
      </trkpt>
      <trkpt lat="50.45908" lon="3.01036">
        <ele>28</ele>
        <time>2012-02-05T09:54:42Z</time>
      </trkpt>
      <trkpt lat="50.45915" lon="3.01018">
        <ele>28</ele>
        <time>2012-02-05T09:54:44Z</time>
      </trkpt>
      <trkpt lat="50.45919" lon="3.00999">
        <ele>28</ele>
        <time>2012-02-05T09:54:46Z</time>
      </trkpt>
      <trkpt lat="50.45922" lon="3.00981">
        <ele>28</ele>
        <time>2012-02-05T09:54:48Z</time>
      </trkpt>
      <trkpt lat="50.45922" lon="3.00962">
        <ele>28</ele>
        <time>2012-02-05T09:54:50Z</time>
      </trkpt>
      <trkpt lat="50.45922" lon="3.00942">
        <ele>28</ele>
        <time>2012-02-05T09:54:52Z</time>
      </trkpt>
      <trkpt lat="50.4592" lon="3.00923">
        <ele>28</ele>
        <time>2012-02-05T09:54:54Z</time>
      </trkpt>
      <trkpt lat="50.45918" lon="3.00905">
        <ele>28</ele>
        <time>2012-02-05T09:54:56Z</time>
      </trkpt>
      <trkpt lat="50.45915" lon="3.00887">
        <ele>28</ele>
        <time>2012-02-05T09:54:58Z</time>
      </trkpt>
      <trkpt lat="50.45914" lon="3.00868">
        <ele>28</ele>
        <time>2012-02-05T09:55:00Z</time>
      </trkpt>
      <trkpt lat="50.45916" lon="3.00851">
        <ele>28</ele>
        <time>2012-02-05T09:55:02Z</time>
      </trkpt>
      <trkpt lat="50.45918" lon="3.00835">
        <ele>28</ele>
        <time>2012-02-05T09:55:04Z</time>
      </trkpt>
      <trkpt lat="50.45918" lon="3.00819">
        <ele>28</ele>
        <time>2012-02-05T09:55:06Z</time>
      </trkpt>
      <trkpt lat="50.45912" lon="3.00805">
        <ele>28</ele>
        <time>2012-02-05T09:55:08Z</time>
      </trkpt>
      <trkpt lat="50.45903" lon="3.00798">
        <ele>28</ele>
        <time>2012-02-05T09:55:10Z</time>
      </trkpt>
      <trkpt lat="50.45893" lon="3.00796">
        <ele>28</ele>
        <time>2012-02-05T09:55:12Z</time>
      </trkpt>
      <trkpt lat="50.45884" lon="3.00791">
        <ele>28</ele>
        <time>2012-02-05T09:55:14Z</time>
      </trkpt>
      <trkpt lat="50.45873" lon="3.00784">
        <ele>28</ele>
        <time>2012-02-05T09:55:17Z</time>
      </trkpt>
      <trkpt lat="50.45864" lon="3.00775">
        <ele>28</ele>
        <time>2012-02-05T09:55:21Z</time>
      </trkpt>
      <trkpt lat="50.45859" lon="3.00761">
        <ele>28</ele>
        <time>2012-02-05T09:55:26Z</time>
      </trkpt>
      <trkpt lat="50.45849" lon="3.00757">
        <ele>28</ele>
        <time>2012-02-05T09:55:30Z</time>
      </trkpt>
      <trkpt lat="50.45841" lon="3.00753">
        <ele>28</ele>
        <time>2012-02-05T09:55:33Z</time>
      </trkpt>
      <trkpt lat="50.4583" lon="3.00751">
        <ele>28</ele>
        <time>2012-02-05T09:55:37Z</time>
      </trkpt>
      <trkpt lat="50.45819" lon="3.00749">
        <ele>28</ele>
        <time>2012-02-05T09:55:41Z</time>
      </trkpt>
      <trkpt lat="50.45809" lon="3.00746">
        <ele>28</ele>
        <time>2012-02-05T09:55:45Z</time>
      </trkpt>
      <trkpt lat="50.458" lon="3.00745">
        <ele>28</ele>
        <time>2012-02-05T09:55:49Z</time>
      </trkpt>
      <trkpt lat="50.45789" lon="3.00745">
        <ele>28</ele>
        <time>2012-02-05T09:55:54Z</time>
      </trkpt>
      <trkpt lat="50.45779" lon="3.00748">
        <ele>28</ele>
        <time>2012-02-05T09:55:58Z</time>
      </trkpt>
      <trkpt lat="50.4577" lon="3.00754">
        <ele>28</ele>
        <time>2012-02-05T09:56:02Z</time>
      </trkpt>
      <trkpt lat="50.45762" lon="3.0076">
        <ele>28</ele>
        <time>2012-02-05T09:56:06Z</time>
      </trkpt>
      <trkpt lat="50.45753" lon="3.00768">
        <ele>28</ele>
        <time>2012-02-05T09:56:10Z</time>
      </trkpt>
      <trkpt lat="50.45744" lon="3.00778">
        <ele>28</ele>
        <time>2012-02-05T09:56:14Z</time>
      </trkpt>
      <trkpt lat="50.45736" lon="3.0079">
        <ele>28</ele>
        <time>2012-02-05T09:56:18Z</time>
      </trkpt>
      <trkpt lat="50.4573" lon="3.008">
        <ele>28</ele>
        <time>2012-02-05T09:56:21Z</time>
      </trkpt>
      <trkpt lat="50.45723" lon="3.00811">
        <ele>28</ele>
        <time>2012-02-05T09:56:24Z</time>
      </trkpt>
      <trkpt lat="50.45716" lon="3.00821">
        <ele>28</ele>
        <time>2012-02-05T09:56:27Z</time>
      </trkpt>
      <trkpt lat="50.45709" lon="3.00831">
        <ele>28</ele>
        <time>2012-02-05T09:56:30Z</time>
      </trkpt>
      <trkpt lat="50.45702" lon="3.0084">
        <ele>28</ele>
        <time>2012-02-05T09:56:33Z</time>
      </trkpt>
      <trkpt lat="50.45695" lon="3.00849">
        <ele>28</ele>
        <time>2012-02-05T09:56:36Z</time>
      </trkpt>
      <trkpt lat="50.45687" lon="3.00858">
        <ele>28</ele>
        <time>2012-02-05T09:56:39Z</time>
      </trkpt>
      <trkpt lat="50.45677" lon="3.00866">
        <ele>28</ele>
        <time>2012-02-05T09:56:43Z</time>
      </trkpt>
      <trkpt lat="50.45666" lon="3.0087">
        <ele>28</ele>
        <time>2012-02-05T09:56:47Z</time>
      </trkpt>
      <trkpt lat="50.45656" lon="3.00872">
        <ele>28</ele>
        <time>2012-02-05T09:56:51Z</time>
      </trkpt>
      <trkpt lat="50.45646" lon="3.00871">
        <ele>28</ele>
        <time>2012-02-05T09:56:55Z</time>
      </trkpt>
      <trkpt lat="50.45636" lon="3.00869">
        <ele>28</ele>
        <time>2012-02-05T09:57:00Z</time>
      </trkpt>
      <trkpt lat="50.45627" lon="3.00866">
        <ele>28</ele>
        <time>2012-02-05T09:57:04Z</time>
      </trkpt>
      <trkpt lat="50.45617" lon="3.00861">
        <ele>28</ele>
        <time>2012-02-05T09:57:09Z</time>
      </trkpt>
      <trkpt lat="50.45609" lon="3.00854">
        <ele>28</ele>
        <time>2012-02-05T09:57:13Z</time>
      </trkpt>
      <trkpt lat="50.456" lon="3.00845">
        <ele>28</ele>
        <time>2012-02-05T09:57:17Z</time>
      </trkpt>
      <trkpt lat="50.45592" lon="3.00832">
        <ele>28</ele>
        <time>2012-02-05T09:57:21Z</time>
      </trkpt>
      <trkpt lat="50.45586" lon="3.00819">
        <ele>28</ele>
        <time>2012-02-05T09:57:25Z</time>
      </trkpt>
      <trkpt lat="50.4558" lon="3.00804">
        <ele>28</ele>
        <time>2012-02-05T09:57:29Z</time>
      </trkpt>
      <trkpt lat="50.45575" lon="3.00791">
        <ele>28</ele>
        <time>2012-02-05T09:57:34Z</time>
      </trkpt>
      <trkpt lat="50.45571" lon="3.00775">
        <ele>28</ele>
        <time>2012-02-05T09:57:39Z</time>
      </trkpt>
      <trkpt lat="50.45567" lon="3.00761">
        <ele>28</ele>
        <time>2012-02-05T09:57:43Z</time>
      </trkpt>
      <trkpt lat="50.45561" lon="3.00747">
        <ele>28</ele>
        <time>2012-02-05T09:57:47Z</time>
      </trkpt>
      <trkpt lat="50.45556" lon="3.00733">
        <ele>28</ele>
        <time>2012-02-05T09:57:51Z</time>
      </trkpt>
      <trkpt lat="50.45551" lon="3.00718">
        <ele>28</ele>
        <time>2012-02-05T09:57:55Z</time>
      </trkpt>
      <trkpt lat="50.45545" lon="3.00707">
        <ele>28</ele>
        <time>2012-02-05T09:57:59Z</time>
      </trkpt>
      <trkpt lat="50.45541" lon="3.00692">
        <ele>28</ele>
        <time>2012-02-05T09:58:03Z</time>
      </trkpt>
      <trkpt lat="50.45535" lon="3.00677">
        <ele>28</ele>
        <time>2012-02-05T09:58:07Z</time>
      </trkpt>
      <trkpt lat="50.4553" lon="3.00664">
        <ele>28</ele>
        <time>2012-02-05T09:58:10Z</time>
      </trkpt>
      <trkpt lat="50.45525" lon="3.00652">
        <ele>28</ele>
        <time>2012-02-05T09:58:13Z</time>
      </trkpt>
      <trkpt lat="50.45521" lon="3.00639">
        <ele>28</ele>
        <time>2012-02-05T09:58:16Z</time>
      </trkpt>
      <trkpt lat="50.45514" lon="3.00624">
        <ele>28</ele>
        <time>2012-02-05T09:58:20Z</time>
      </trkpt>
      <trkpt lat="50.4551" lon="3.0061">
        <ele>28</ele>
        <time>2012-02-05T09:58:24Z</time>
      </trkpt>
      <trkpt lat="50.45505" lon="3.00594">
        <ele>28</ele>
        <time>2012-02-05T09:58:28Z</time>
      </trkpt>
      <trkpt lat="50.455" lon="3.00582">
        <ele>28</ele>
        <time>2012-02-05T09:58:32Z</time>
      </trkpt>
      <trkpt lat="50.45495" lon="3.00567">
        <ele>28</ele>
        <time>2012-02-05T09:58:37Z</time>
      </trkpt>
      <trkpt lat="50.4549" lon="3.00553">
        <ele>28</ele>
        <time>2012-02-05T09:58:42Z</time>
      </trkpt>
      <trkpt lat="50.45485" lon="3.0054">
        <ele>28</ele>
        <time>2012-02-05T09:58:46Z</time>
      </trkpt>
      <trkpt lat="50.4548" lon="3.00526">
        <ele>28</ele>
        <time>2012-02-05T09:58:50Z</time>
      </trkpt>
      <trkpt lat="50.45475" lon="3.00513">
        <ele>28</ele>
        <time>2012-02-05T09:58:54Z</time>
      </trkpt>
      <trkpt lat="50.4547" lon="3.005">
        <ele>28</ele>
        <time>2012-02-05T09:58:58Z</time>
      </trkpt>
      <trkpt lat="50.45466" lon="3.00487">
        <ele>28</ele>
        <time>2012-02-05T09:59:02Z</time>
      </trkpt>
      <trkpt lat="50.45461" lon="3.00474">
        <ele>28</ele>
        <time>2012-02-05T09:59:06Z</time>
      </trkpt>
      <trkpt lat="50.45456" lon="3.0046">
        <ele>28</ele>
        <time>2012-02-05T09:59:10Z</time>
      </trkpt>
      <trkpt lat="50.45452" lon="3.00448">
        <ele>28</ele>
        <time>2012-02-05T09:59:14Z</time>
      </trkpt>
      <trkpt lat="50.45447" lon="3.00434">
        <ele>28</ele>
        <time>2012-02-05T09:59:18Z</time>
      </trkpt>
      <trkpt lat="50.45442" lon="3.0042">
        <ele>28</ele>
        <time>2012-02-05T09:59:22Z</time>
      </trkpt>
      <trkpt lat="50.45436" lon="3.00406">
        <ele>28</ele>
        <time>2012-02-05T09:59:26Z</time>
      </trkpt>
      <trkpt lat="50.45432" lon="3.00392">
        <ele>28</ele>
        <time>2012-02-05T09:59:30Z</time>
      </trkpt>
      <trkpt lat="50.45426" lon="3.00379">
        <ele>28</ele>
        <time>2012-02-05T09:59:37Z</time>
      </trkpt>
      <trkpt lat="50.45422" lon="3.00366">
        <ele>28</ele>
        <time>2012-02-05T09:59:42Z</time>
      </trkpt>
      <trkpt lat="50.45417" lon="3.00352">
        <ele>28</ele>
        <time>2012-02-05T09:59:47Z</time>
      </trkpt>
      <trkpt lat="50.45412" lon="3.00337">
        <ele>28</ele>
        <time>2012-02-05T09:59:51Z</time>
      </trkpt>
      <trkpt lat="50.45408" lon="3.00324">
        <ele>28</ele>
        <time>2012-02-05T09:59:55Z</time>
      </trkpt>
      <trkpt lat="50.45402" lon="3.0031">
        <ele>28</ele>
        <time>2012-02-05T09:59:59Z</time>
      </trkpt>
      <trkpt lat="50.45397" lon="3.00296">
        <ele>28</ele>
        <time>2012-02-05T10:00:03Z</time>
      </trkpt>
      <trkpt lat="50.45393" lon="3.00283">
        <ele>28</ele>
        <time>2012-02-05T10:00:07Z</time>
      </trkpt>
      <trkpt lat="50.45387" lon="3.00269">
        <ele>28</ele>
        <time>2012-02-05T10:00:12Z</time>
      </trkpt>
      <trkpt lat="50.45383" lon="3.00256">
        <ele>28</ele>
        <time>2012-02-05T10:00:16Z</time>
      </trkpt>
      <trkpt lat="50.45377" lon="3.00242">
        <ele>28</ele>
        <time>2012-02-05T10:00:20Z</time>
      </trkpt>
      <trkpt lat="50.45373" lon="3.00228">
        <ele>28</ele>
        <time>2012-02-05T10:00:24Z</time>
      </trkpt>
      <trkpt lat="50.45368" lon="3.00212">
        <ele>28</ele>
        <time>2012-02-05T10:00:29Z</time>
      </trkpt>
      <trkpt lat="50.45364" lon="3.00196">
        <ele>28</ele>
        <time>2012-02-05T10:00:33Z</time>
      </trkpt>
      <trkpt lat="50.45357" lon="3.00182">
        <ele>28</ele>
        <time>2012-02-05T10:00:37Z</time>
      </trkpt>
      <trkpt lat="50.45352" lon="3.00168">
        <ele>28</ele>
        <time>2012-02-05T10:00:42Z</time>
      </trkpt>
      <trkpt lat="50.45346" lon="3.00154">
        <ele>28</ele>
        <time>2012-02-05T10:00:46Z</time>
      </trkpt>
      <trkpt lat="50.45341" lon="3.00142">
        <ele>28</ele>
        <time>2012-02-05T10:00:50Z</time>
      </trkpt>
      <trkpt lat="50.45336" lon="3.00128">
        <ele>28</ele>
        <time>2012-02-05T10:00:54Z</time>
      </trkpt>
      <trkpt lat="50.45331" lon="3.00116">
        <ele>28</ele>
        <time>2012-02-05T10:00:58Z</time>
      </trkpt>
      <trkpt lat="50.45326" lon="3.00103">
        <ele>28</ele>
        <time>2012-02-05T10:01:02Z</time>
      </trkpt>
      <trkpt lat="50.45321" lon="3.00089">
        <ele>28</ele>
        <time>2012-02-05T10:01:06Z</time>
      </trkpt>
      <trkpt lat="50.45316" lon="3.00076">
        <ele>28</ele>
        <time>2012-02-05T10:01:10Z</time>
      </trkpt>
      <trkpt lat="50.4531" lon="3.00063">
        <ele>28</ele>
        <time>2012-02-05T10:01:16Z</time>
      </trkpt>
      <trkpt lat="50.45306" lon="3.0005">
        <ele>28</ele>
        <time>2012-02-05T10:01:21Z</time>
      </trkpt>
      <trkpt lat="50.45301" lon="3.00037">
        <ele>28</ele>
        <time>2012-02-05T10:01:26Z</time>
      </trkpt>
      <trkpt lat="50.45297" lon="3.00025">
        <ele>28</ele>
        <time>2012-02-05T10:01:30Z</time>
      </trkpt>
      <trkpt lat="50.45292" lon="3.00012">
        <ele>28</ele>
        <time>2012-02-05T10:01:34Z</time>
      </trkpt>
      <trkpt lat="50.45287" lon="2.99999">
        <ele>28</ele>
        <time>2012-02-05T10:01:39Z</time>
      </trkpt>
      <trkpt lat="50.45283" lon="2.99983">
        <ele>28</ele>
        <time>2012-02-05T10:01:44Z</time>
      </trkpt>
      <trkpt lat="50.4528" lon="2.9997">
        <ele>28</ele>
        <time>2012-02-05T10:01:48Z</time>
      </trkpt>
      <trkpt lat="50.45278" lon="2.99957">
        <ele>28</ele>
        <time>2012-02-05T10:01:52Z</time>
      </trkpt>
      <trkpt lat="50.45275" lon="2.99943">
        <ele>28</ele>
        <time>2012-02-05T10:01:56Z</time>
      </trkpt>
      <trkpt lat="50.45274" lon="2.99929">
        <ele>28</ele>
        <time>2012-02-05T10:02:00Z</time>
      </trkpt>
      <trkpt lat="50.45273" lon="2.99913">
        <ele>28</ele>
        <time>2012-02-05T10:02:06Z</time>
      </trkpt>
      <trkpt lat="50.45273" lon="2.99898">
        <ele>22</ele>
        <time>2012-02-05T10:02:12Z</time>
      </trkpt>
      <trkpt lat="50.45276" lon="2.99884">
        <ele>22</ele>
        <time>2012-02-05T10:02:17Z</time>
      </trkpt>
      <trkpt lat="50.45283" lon="2.99874">
        <ele>28</ele>
        <time>2012-02-05T10:03:52Z</time>
      </trkpt>
      <trkpt lat="50.45291" lon="2.99864">
        <ele>28</ele>
        <time>2012-02-05T10:03:58Z</time>
      </trkpt>
      <trkpt lat="50.45298" lon="2.99852">
        <ele>28</ele>
        <time>2012-02-05T10:04:09Z</time>
      </trkpt>
      <trkpt lat="50.45306" lon="2.99842">
        <ele>28</ele>
        <time>2012-02-05T10:04:12Z</time>
      </trkpt>
      <trkpt lat="50.45312" lon="2.99832">
        <ele>28</ele>
        <time>2012-02-05T10:04:14Z</time>
      </trkpt>
      <trkpt lat="50.45319" lon="2.99821">
        <ele>28</ele>
        <time>2012-02-05T10:04:16Z</time>
      </trkpt>
      <trkpt lat="50.45325" lon="2.9981">
        <ele>28</ele>
        <time>2012-02-05T10:04:18Z</time>
      </trkpt>
      <trkpt lat="50.45333" lon="2.99798">
        <ele>28</ele>
        <time>2012-02-05T10:04:20Z</time>
      </trkpt>
      <trkpt lat="50.4534" lon="2.99787">
        <ele>28</ele>
        <time>2012-02-05T10:04:22Z</time>
      </trkpt>
      <trkpt lat="50.45348" lon="2.99775">
        <ele>28</ele>
        <time>2012-02-05T10:04:24Z</time>
      </trkpt>
      <trkpt lat="50.45356" lon="2.99763">
        <ele>28</ele>
        <time>2012-02-05T10:04:26Z</time>
      </trkpt>
      <trkpt lat="50.45364" lon="2.99753">
        <ele>28</ele>
        <time>2012-02-05T10:04:28Z</time>
      </trkpt>
      <trkpt lat="50.45372" lon="2.99742">
        <ele>28</ele>
        <time>2012-02-05T10:04:30Z</time>
      </trkpt>
      <trkpt lat="50.4538" lon="2.99731">
        <ele>28</ele>
        <time>2012-02-05T10:04:32Z</time>
      </trkpt>
      <trkpt lat="50.45388" lon="2.99722">
        <ele>28</ele>
        <time>2012-02-05T10:04:34Z</time>
      </trkpt>
      <trkpt lat="50.454" lon="2.99711">
        <ele>28</ele>
        <time>2012-02-05T10:04:37Z</time>
      </trkpt>
      <trkpt lat="50.4541" lon="2.997">
        <ele>28</ele>
        <time>2012-02-05T10:04:40Z</time>
      </trkpt>
      <trkpt lat="50.4542" lon="2.99691">
        <ele>28</ele>
        <time>2012-02-05T10:04:43Z</time>
      </trkpt>
      <trkpt lat="50.4543" lon="2.99683">
        <ele>28</ele>
        <time>2012-02-05T10:04:46Z</time>
      </trkpt>
      <trkpt lat="50.45439" lon="2.99677">
        <ele>28</ele>
        <time>2012-02-05T10:04:49Z</time>
      </trkpt>
      <trkpt lat="50.45449" lon="2.9967">
        <ele>28</ele>
        <time>2012-02-05T10:04:52Z</time>
      </trkpt>
      <trkpt lat="50.45459" lon="2.99665">
        <ele>28</ele>
        <time>2012-02-05T10:04:55Z</time>
      </trkpt>
      <trkpt lat="50.45469" lon="2.99659">
        <ele>28</ele>
        <time>2012-02-05T10:04:58Z</time>
      </trkpt>
      <trkpt lat="50.45478" lon="2.99655">
        <ele>28</ele>
        <time>2012-02-05T10:05:01Z</time>
      </trkpt>
      <trkpt lat="50.45491" lon="2.99649">
        <ele>28</ele>
        <time>2012-02-05T10:05:04Z</time>
      </trkpt>
      <trkpt lat="50.455" lon="2.99645">
        <ele>28</ele>
        <time>2012-02-05T10:05:06Z</time>
      </trkpt>
      <trkpt lat="50.45509" lon="2.99642">
        <ele>28</ele>
        <time>2012-02-05T10:05:08Z</time>
      </trkpt>
      <trkpt lat="50.45518" lon="2.99639">
        <ele>28</ele>
        <time>2012-02-05T10:05:10Z</time>
      </trkpt>
      <trkpt lat="50.45528" lon="2.99638">
        <ele>28</ele>
        <time>2012-02-05T10:05:12Z</time>
      </trkpt>
      <trkpt lat="50.45537" lon="2.99638">
        <ele>28</ele>
        <time>2012-02-05T10:05:14Z</time>
      </trkpt>
      <trkpt lat="50.45548" lon="2.99636">
        <ele>28</ele>
        <time>2012-02-05T10:05:16Z</time>
      </trkpt>
      <trkpt lat="50.45559" lon="2.99635">
        <ele>28</ele>
        <time>2012-02-05T10:05:18Z</time>
      </trkpt>
      <trkpt lat="50.4557" lon="2.99636">
        <ele>28</ele>
        <time>2012-02-05T10:05:20Z</time>
      </trkpt>
      <trkpt lat="50.4558" lon="2.99638">
        <ele>28</ele>
        <time>2012-02-05T10:05:22Z</time>
      </trkpt>
      <trkpt lat="50.45592" lon="2.99639">
        <ele>28</ele>
        <time>2012-02-05T10:05:24Z</time>
      </trkpt>
      <trkpt lat="50.45603" lon="2.99641">
        <ele>28</ele>
        <time>2012-02-05T10:05:26Z</time>
      </trkpt>
      <trkpt lat="50.45615" lon="2.99643">
        <ele>28</ele>
        <time>2012-02-05T10:05:28Z</time>
      </trkpt>
      <trkpt lat="50.45627" lon="2.99646">
        <ele>28</ele>
        <time>2012-02-05T10:05:30Z</time>
      </trkpt>
      <trkpt lat="50.45639" lon="2.99649">
        <ele>28</ele>
        <time>2012-02-05T10:05:32Z</time>
      </trkpt>
      <trkpt lat="50.45652" lon="2.99652">
        <ele>28</ele>
        <time>2012-02-05T10:05:34Z</time>
      </trkpt>
      <trkpt lat="50.45664" lon="2.99656">
        <ele>28</ele>
        <time>2012-02-05T10:05:36Z</time>
      </trkpt>
      <trkpt lat="50.45676" lon="2.99656">
        <ele>28</ele>
        <time>2012-02-05T10:05:38Z</time>
      </trkpt>
      <trkpt lat="50.45688" lon="2.99658">
        <ele>28</ele>
        <time>2012-02-05T10:05:40Z</time>
      </trkpt>
      <trkpt lat="50.45699" lon="2.99661">
        <ele>28</ele>
        <time>2012-02-05T10:05:42Z</time>
      </trkpt>
      <trkpt lat="50.45709" lon="2.99661">
        <ele>28</ele>
        <time>2012-02-05T10:05:44Z</time>
      </trkpt>
      <trkpt lat="50.4572" lon="2.99652">
        <ele>28</ele>
        <time>2012-02-05T10:05:47Z</time>
      </trkpt>
      <trkpt lat="50.45729" lon="2.99652">
        <ele>28</ele>
        <time>2012-02-05T10:05:49Z</time>
      </trkpt>
      <trkpt lat="50.4574" lon="2.99655">
        <ele>28</ele>
        <time>2012-02-05T10:05:52Z</time>
      </trkpt>
      <trkpt lat="50.4575" lon="2.99656">
        <ele>28</ele>
        <time>2012-02-05T10:05:54Z</time>
      </trkpt>
      <trkpt lat="50.4576" lon="2.99656">
        <ele>28</ele>
        <time>2012-02-05T10:05:56Z</time>
      </trkpt>
      <trkpt lat="50.45772" lon="2.99652">
        <ele>28</ele>
        <time>2012-02-05T10:05:58Z</time>
      </trkpt>
      <trkpt lat="50.45781" lon="2.99639">
        <ele>28</ele>
        <time>2012-02-05T10:06:00Z</time>
      </trkpt>
      <trkpt lat="50.45786" lon="2.99621">
        <ele>28</ele>
        <time>2012-02-05T10:06:02Z</time>
      </trkpt>
      <trkpt lat="50.4579" lon="2.99603">
        <ele>28</ele>
        <time>2012-02-05T10:06:04Z</time>
      </trkpt>
      <trkpt lat="50.45793" lon="2.99585">
        <ele>28</ele>
        <time>2012-02-05T10:06:06Z</time>
      </trkpt>
      <trkpt lat="50.45794" lon="2.99567">
        <ele>28</ele>
        <time>2012-02-05T10:06:08Z</time>
      </trkpt>
      <trkpt lat="50.45785" lon="2.99551">
        <ele>28</ele>
        <time>2012-02-05T10:06:11Z</time>
      </trkpt>
      <trkpt lat="50.45774" lon="2.9955">
        <ele>28</ele>
        <time>2012-02-05T10:06:13Z</time>
      </trkpt>
      <trkpt lat="50.45762" lon="2.99548">
        <ele>28</ele>
        <time>2012-02-05T10:06:15Z</time>
      </trkpt>
      <trkpt lat="50.45751" lon="2.99546">
        <ele>28</ele>
        <time>2012-02-05T10:06:17Z</time>
      </trkpt>
      <trkpt lat="50.4574" lon="2.99545">
        <ele>28</ele>
        <time>2012-02-05T10:06:19Z</time>
      </trkpt>
      <trkpt lat="50.45729" lon="2.99545">
        <ele>28</ele>
        <time>2012-02-05T10:06:21Z</time>
      </trkpt>
      <trkpt lat="50.4572" lon="2.99546">
        <ele>28</ele>
        <time>2012-02-05T10:06:23Z</time>
      </trkpt>
      <trkpt lat="50.4571" lon="2.9955">
        <ele>28</ele>
        <time>2012-02-05T10:06:27Z</time>
      </trkpt>
      <trkpt lat="50.457" lon="2.99547">
        <ele>28</ele>
        <time>2012-02-05T10:06:39Z</time>
      </trkpt>
      <trkpt lat="50.45689" lon="2.9955">
        <ele>28</ele>
        <time>2012-02-05T10:06:42Z</time>
      </trkpt>
      <trkpt lat="50.45676" lon="2.9955">
        <ele>28</ele>
        <time>2012-02-05T10:06:45Z</time>
      </trkpt>
      <trkpt lat="50.45666" lon="2.9955">
        <ele>28</ele>
        <time>2012-02-05T10:06:47Z</time>
      </trkpt>
      <trkpt lat="50.45657" lon="2.9955">
        <ele>28</ele>
        <time>2012-02-05T10:06:49Z</time>
      </trkpt>
      <trkpt lat="50.45647" lon="2.9955">
        <ele>28</ele>
        <time>2012-02-05T10:06:51Z</time>
      </trkpt>
      <trkpt lat="50.45637" lon="2.9955">
        <ele>28</ele>
        <time>2012-02-05T10:06:53Z</time>
      </trkpt>
      <trkpt lat="50.45627" lon="2.9955">
        <ele>28</ele>
        <time>2012-02-05T10:06:55Z</time>
      </trkpt>
      <trkpt lat="50.45616" lon="2.9955">
        <ele>28</ele>
        <time>2012-02-05T10:06:57Z</time>
      </trkpt>
      <trkpt lat="50.45604" lon="2.9955">
        <ele>28</ele>
        <time>2012-02-05T10:06:59Z</time>
      </trkpt>
      <trkpt lat="50.45594" lon="2.99547">
        <ele>28</ele>
        <time>2012-02-05T10:07:01Z</time>
      </trkpt>
      <trkpt lat="50.45582" lon="2.99544">
        <ele>28</ele>
        <time>2012-02-05T10:07:03Z</time>
      </trkpt>
      <trkpt lat="50.45571" lon="2.9954">
        <ele>28</ele>
        <time>2012-02-05T10:07:05Z</time>
      </trkpt>
      <trkpt lat="50.45562" lon="2.99531">
        <ele>28</ele>
        <time>2012-02-05T10:07:07Z</time>
      </trkpt>
      <trkpt lat="50.45554" lon="2.99518">
        <ele>28</ele>
        <time>2012-02-05T10:07:09Z</time>
      </trkpt>
      <trkpt lat="50.45547" lon="2.99505">
        <ele>28</ele>
        <time>2012-02-05T10:07:11Z</time>
      </trkpt>
      <trkpt lat="50.45539" lon="2.99491">
        <ele>28</ele>
        <time>2012-02-05T10:07:13Z</time>
      </trkpt>
      <trkpt lat="50.45531" lon="2.99477">
        <ele>28</ele>
        <time>2012-02-05T10:07:15Z</time>
      </trkpt>
      <trkpt lat="50.45525" lon="2.99462">
        <ele>28</ele>
        <time>2012-02-05T10:07:17Z</time>
      </trkpt>
      <trkpt lat="50.45521" lon="2.99444">
        <ele>28</ele>
        <time>2012-02-05T10:07:19Z</time>
      </trkpt>
      <trkpt lat="50.4552" lon="2.99427">
        <ele>28</ele>
        <time>2012-02-05T10:07:21Z</time>
      </trkpt>
      <trkpt lat="50.45518" lon="2.99408">
        <ele>28</ele>
        <time>2012-02-05T10:07:23Z</time>
      </trkpt>
      <trkpt lat="50.45518" lon="2.99389">
        <ele>28</ele>
        <time>2012-02-05T10:07:25Z</time>
      </trkpt>
      <trkpt lat="50.45518" lon="2.99371">
        <ele>28</ele>
        <time>2012-02-05T10:07:27Z</time>
      </trkpt>
      <trkpt lat="50.4552" lon="2.99353">
        <ele>28</ele>
        <time>2012-02-05T10:07:29Z</time>
      </trkpt>
      <trkpt lat="50.4552" lon="2.99336">
        <ele>28</ele>
        <time>2012-02-05T10:07:31Z</time>
      </trkpt>
      <trkpt lat="50.45516" lon="2.99321">
        <ele>28</ele>
        <time>2012-02-05T10:07:33Z</time>
      </trkpt>
      <trkpt lat="50.45508" lon="2.99311">
        <ele>28</ele>
        <time>2012-02-05T10:07:35Z</time>
      </trkpt>
      <trkpt lat="50.455" lon="2.99302">
        <ele>28</ele>
        <time>2012-02-05T10:07:37Z</time>
      </trkpt>
      <trkpt lat="50.45492" lon="2.99293">
        <ele>28</ele>
        <time>2012-02-05T10:07:39Z</time>
      </trkpt>
      <trkpt lat="50.45484" lon="2.99284">
        <ele>28</ele>
        <time>2012-02-05T10:07:41Z</time>
      </trkpt>
      <trkpt lat="50.45476" lon="2.99277">
        <ele>28</ele>
        <time>2012-02-05T10:07:43Z</time>
      </trkpt>
      <trkpt lat="50.45465" lon="2.99285">
        <ele>28</ele>
        <time>2012-02-05T10:07:46Z</time>
      </trkpt>
      <trkpt lat="50.4546" lon="2.99296">
        <ele>28</ele>
        <time>2012-02-05T10:07:48Z</time>
      </trkpt>
      <trkpt lat="50.45453" lon="2.99305">
        <ele>28</ele>
        <time>2012-02-05T10:07:50Z</time>
      </trkpt>
      <trkpt lat="50.45444" lon="2.99313">
        <ele>28</ele>
        <time>2012-02-05T10:07:52Z</time>
      </trkpt>
      <trkpt lat="50.45436" lon="2.9932">
        <ele>28</ele>
        <time>2012-02-05T10:07:54Z</time>
      </trkpt>
      <trkpt lat="50.45427" lon="2.99326">
        <ele>28</ele>
        <time>2012-02-05T10:07:56Z</time>
      </trkpt>
      <trkpt lat="50.45418" lon="2.99331">
        <ele>28</ele>
        <time>2012-02-05T10:07:58Z</time>
      </trkpt>
      <trkpt lat="50.45408" lon="2.99336">
        <ele>28</ele>
        <time>2012-02-05T10:08:00Z</time>
      </trkpt>
      <trkpt lat="50.45399" lon="2.99338">
        <ele>28</ele>
        <time>2012-02-05T10:08:02Z</time>
      </trkpt>
      <trkpt lat="50.45388" lon="2.99336">
        <ele>28</ele>
        <time>2012-02-05T10:08:05Z</time>
      </trkpt>
      <trkpt lat="50.45378" lon="2.99329">
        <ele>28</ele>
        <time>2012-02-05T10:08:09Z</time>
      </trkpt>
      <trkpt lat="50.45369" lon="2.99321">
        <ele>34</ele>
        <time>2012-02-05T10:08:13Z</time>
      </trkpt>
      <trkpt lat="50.45361" lon="2.99312">
        <ele>34</ele>
        <time>2012-02-05T10:08:17Z</time>
      </trkpt>
      <trkpt lat="50.45355" lon="2.99302">
        <ele>34</ele>
        <time>2012-02-05T10:08:21Z</time>
      </trkpt>
      <trkpt lat="50.45349" lon="2.99291">
        <ele>34</ele>
        <time>2012-02-05T10:08:25Z</time>
      </trkpt>
      <trkpt lat="50.45341" lon="2.99283">
        <ele>34</ele>
        <time>2012-02-05T10:08:29Z</time>
      </trkpt>
      <trkpt lat="50.45333" lon="2.99275">
        <ele>34</ele>
        <time>2012-02-05T10:08:33Z</time>
      </trkpt>
      <trkpt lat="50.45323" lon="2.99269">
        <ele>39</ele>
        <time>2012-02-05T10:08:37Z</time>
      </trkpt>
      <trkpt lat="50.45313" lon="2.99269">
        <ele>39</ele>
        <time>2012-02-05T10:08:41Z</time>
      </trkpt>
      <trkpt lat="50.45301" lon="2.99272">
        <ele>39</ele>
        <time>2012-02-05T10:08:45Z</time>
      </trkpt>
      <trkpt lat="50.4529" lon="2.99273">
        <ele>39</ele>
        <time>2012-02-05T10:08:49Z</time>
      </trkpt>
      <trkpt lat="50.45279" lon="2.99272">
        <ele>39</ele>
        <time>2012-02-05T10:08:53Z</time>
      </trkpt>
      <trkpt lat="50.45268" lon="2.99275">
        <ele>39</ele>
        <time>2012-02-05T10:08:57Z</time>
      </trkpt>
      <trkpt lat="50.45258" lon="2.99282">
        <ele>39</ele>
        <time>2012-02-05T10:09:01Z</time>
      </trkpt>
      <trkpt lat="50.45249" lon="2.99289">
        <ele>39</ele>
        <time>2012-02-05T10:09:04Z</time>
      </trkpt>
      <trkpt lat="50.45241" lon="2.99297">
        <ele>39</ele>
        <time>2012-02-05T10:09:07Z</time>
      </trkpt>
      <trkpt lat="50.45232" lon="2.99306">
        <ele>39</ele>
        <time>2012-02-05T10:09:10Z</time>
      </trkpt>
      <trkpt lat="50.45224" lon="2.99315">
        <ele>44</ele>
        <time>2012-02-05T10:09:13Z</time>
      </trkpt>
      <trkpt lat="50.45216" lon="2.99325">
        <ele>44</ele>
        <time>2012-02-05T10:09:16Z</time>
      </trkpt>
      <trkpt lat="50.45209" lon="2.99334">
        <ele>44</ele>
        <time>2012-02-05T10:09:19Z</time>
      </trkpt>
      <trkpt lat="50.45202" lon="2.99343">
        <ele>44</ele>
        <time>2012-02-05T10:09:22Z</time>
      </trkpt>
      <trkpt lat="50.45194" lon="2.99353">
        <ele>44</ele>
        <time>2012-02-05T10:09:25Z</time>
      </trkpt>
      <trkpt lat="50.45187" lon="2.99362">
        <ele>44</ele>
        <time>2012-02-05T10:09:28Z</time>
      </trkpt>
      <trkpt lat="50.45178" lon="2.99373">
        <ele>44</ele>
        <time>2012-02-05T10:09:32Z</time>
      </trkpt>
      <trkpt lat="50.4517" lon="2.99382">
        <ele>44</ele>
        <time>2012-02-05T10:09:35Z</time>
      </trkpt>
      <trkpt lat="50.45162" lon="2.99395">
        <ele>44</ele>
        <time>2012-02-05T10:09:39Z</time>
      </trkpt>
      <trkpt lat="50.45157" lon="2.99411">
        <ele>44</ele>
        <time>2012-02-05T10:09:43Z</time>
      </trkpt>
      <trkpt lat="50.45158" lon="2.99429">
        <ele>44</ele>
        <time>2012-02-05T10:09:46Z</time>
      </trkpt>
      <trkpt lat="50.45166" lon="2.99444">
        <ele>44</ele>
        <time>2012-02-05T10:09:49Z</time>
      </trkpt>
      <trkpt lat="50.45174" lon="2.99453">
        <ele>44</ele>
        <time>2012-02-05T10:09:51Z</time>
      </trkpt>
      <trkpt lat="50.45184" lon="2.99463">
        <ele>44</ele>
        <time>2012-02-05T10:09:53Z</time>
      </trkpt>
      <trkpt lat="50.45191" lon="2.99479">
        <ele>44</ele>
        <time>2012-02-05T10:09:55Z</time>
      </trkpt>
      <trkpt lat="50.45195" lon="2.99499">
        <ele>44</ele>
        <time>2012-02-05T10:09:57Z</time>
      </trkpt>
      <trkpt lat="50.45193" lon="2.99521">
        <ele>44</ele>
        <time>2012-02-05T10:09:59Z</time>
      </trkpt>
      <trkpt lat="50.4519" lon="2.99542">
        <ele>38</ele>
        <time>2012-02-05T10:10:01Z</time>
      </trkpt>
      <trkpt lat="50.45187" lon="2.99566">
        <ele>38</ele>
        <time>2012-02-05T10:10:03Z</time>
      </trkpt>
      <trkpt lat="50.45184" lon="2.99592">
        <ele>38</ele>
        <time>2012-02-05T10:10:05Z</time>
      </trkpt>
      <trkpt lat="50.45183" lon="2.99606">
        <ele>33</ele>
        <time>2012-02-05T10:10:06Z</time>
      </trkpt>
      <trkpt lat="50.45182" lon="2.99621">
        <ele>33</ele>
        <time>2012-02-05T10:10:07Z</time>
      </trkpt>
      <trkpt lat="50.45182" lon="2.99636">
        <ele>33</ele>
        <time>2012-02-05T10:10:08Z</time>
      </trkpt>
      <trkpt lat="50.45182" lon="2.99651">
        <ele>33</ele>
        <time>2012-02-05T10:10:09Z</time>
      </trkpt>
      <trkpt lat="50.45181" lon="2.99665">
        <ele>33</ele>
        <time>2012-02-05T10:10:10Z</time>
      </trkpt>
      <trkpt lat="50.45179" lon="2.99679">
        <ele>28</ele>
        <time>2012-02-05T10:10:11Z</time>
      </trkpt>
      <trkpt lat="50.45176" lon="2.99692">
        <ele>28</ele>
        <time>2012-02-05T10:10:12Z</time>
      </trkpt>
      <trkpt lat="50.45171" lon="2.99705">
        <ele>28</ele>
        <time>2012-02-05T10:10:13Z</time>
      </trkpt>
      <trkpt lat="50.45166" lon="2.99717">
        <ele>28</ele>
        <time>2012-02-05T10:10:14Z</time>
      </trkpt>
      <trkpt lat="50.45154" lon="2.99735">
        <ele>28</ele>
        <time>2012-02-05T10:10:16Z</time>
      </trkpt>
      <trkpt lat="50.45142" lon="2.99747">
        <ele>28</ele>
        <time>2012-02-05T10:10:18Z</time>
      </trkpt>
      <trkpt lat="50.4513" lon="2.99756">
        <ele>28</ele>
        <time>2012-02-05T10:10:20Z</time>
      </trkpt>
      <trkpt lat="50.45118" lon="2.99762">
        <ele>28</ele>
        <time>2012-02-05T10:10:22Z</time>
      </trkpt>
      <trkpt lat="50.45103" lon="2.9976">
        <ele>28</ele>
        <time>2012-02-05T10:10:24Z</time>
      </trkpt>
      <trkpt lat="50.4509" lon="2.99761">
        <ele>28</ele>
        <time>2012-02-05T10:10:26Z</time>
      </trkpt>
      <trkpt lat="50.45077" lon="2.99762">
        <ele>28</ele>
        <time>2012-02-05T10:10:28Z</time>
      </trkpt>
      <trkpt lat="50.45065" lon="2.99763">
        <ele>28</ele>
        <time>2012-02-05T10:10:30Z</time>
      </trkpt>
      <trkpt lat="50.45053" lon="2.99765">
        <ele>28</ele>
        <time>2012-02-05T10:10:32Z</time>
      </trkpt>
      <trkpt lat="50.45042" lon="2.99766">
        <ele>28</ele>
        <time>2012-02-05T10:10:34Z</time>
      </trkpt>
      <trkpt lat="50.4503" lon="2.99767">
        <ele>28</ele>
        <time>2012-02-05T10:10:36Z</time>
      </trkpt>
      <trkpt lat="50.45018" lon="2.99768">
        <ele>28</ele>
        <time>2012-02-05T10:10:38Z</time>
      </trkpt>
      <trkpt lat="50.45006" lon="2.99767">
        <ele>28</ele>
        <time>2012-02-05T10:10:40Z</time>
      </trkpt>
      <trkpt lat="50.44994" lon="2.99763">
        <ele>28</ele>
        <time>2012-02-05T10:10:42Z</time>
      </trkpt>
      <trkpt lat="50.44982" lon="2.99759">
        <ele>28</ele>
        <time>2012-02-05T10:10:44Z</time>
      </trkpt>
      <trkpt lat="50.4497" lon="2.99754">
        <ele>28</ele>
        <time>2012-02-05T10:10:46Z</time>
      </trkpt>
      <trkpt lat="50.44959" lon="2.99749">
        <ele>28</ele>
        <time>2012-02-05T10:10:48Z</time>
      </trkpt>
      <trkpt lat="50.44947" lon="2.99743">
        <ele>28</ele>
        <time>2012-02-05T10:10:50Z</time>
      </trkpt>
      <trkpt lat="50.44936" lon="2.99735">
        <ele>28</ele>
        <time>2012-02-05T10:10:52Z</time>
      </trkpt>
      <trkpt lat="50.44925" lon="2.99726">
        <ele>28</ele>
        <time>2012-02-05T10:10:54Z</time>
      </trkpt>
      <trkpt lat="50.44915" lon="2.99717">
        <ele>28</ele>
        <time>2012-02-05T10:10:56Z</time>
      </trkpt>
      <trkpt lat="50.44907" lon="2.99706">
        <ele>28</ele>
        <time>2012-02-05T10:10:58Z</time>
      </trkpt>
      <trkpt lat="50.44902" lon="2.99692">
        <ele>28</ele>
        <time>2012-02-05T10:11:00Z</time>
      </trkpt>
      <trkpt lat="50.44908" lon="2.99675">
        <ele>28</ele>
        <time>2012-02-05T10:11:03Z</time>
      </trkpt>
      <trkpt lat="50.44915" lon="2.99661">
        <ele>28</ele>
        <time>2012-02-05T10:11:06Z</time>
      </trkpt>
      <trkpt lat="50.44921" lon="2.99649">
        <ele>28</ele>
        <time>2012-02-05T10:11:09Z</time>
      </trkpt>
      <trkpt lat="50.44927" lon="2.99636">
        <ele>28</ele>
        <time>2012-02-05T10:11:13Z</time>
      </trkpt>
      <trkpt lat="50.44929" lon="2.9962">
        <ele>28</ele>
        <time>2012-02-05T10:11:17Z</time>
      </trkpt>
      <trkpt lat="50.44931" lon="2.99603">
        <ele>34</ele>
        <time>2012-02-05T10:11:21Z</time>
      </trkpt>
      <trkpt lat="50.44932" lon="2.99587">
        <ele>34</ele>
        <time>2012-02-05T10:11:25Z</time>
      </trkpt>
      <trkpt lat="50.44933" lon="2.9957">
        <ele>34</ele>
        <time>2012-02-05T10:11:29Z</time>
      </trkpt>
      <trkpt lat="50.44931" lon="2.99557">
        <ele>34</ele>
        <time>2012-02-05T10:11:32Z</time>
      </trkpt>
      <trkpt lat="50.44925" lon="2.99546">
        <ele>34</ele>
        <time>2012-02-05T10:11:34Z</time>
      </trkpt>
      <trkpt lat="50.44916" lon="2.99533">
        <ele>34</ele>
        <time>2012-02-05T10:11:36Z</time>
      </trkpt>
      <trkpt lat="50.44905" lon="2.99518">
        <ele>34</ele>
        <time>2012-02-05T10:11:38Z</time>
      </trkpt>
      <trkpt lat="50.44894" lon="2.99501">
        <ele>34</ele>
        <time>2012-02-05T10:11:40Z</time>
      </trkpt>
      <trkpt lat="50.44887" lon="2.99482">
        <ele>34</ele>
        <time>2012-02-05T10:11:42Z</time>
      </trkpt>
      <trkpt lat="50.44882" lon="2.99464">
        <ele>34</ele>
        <time>2012-02-05T10:11:44Z</time>
      </trkpt>
      <trkpt lat="50.44878" lon="2.99447">
        <ele>34</ele>
        <time>2012-02-05T10:11:46Z</time>
      </trkpt>
      <trkpt lat="50.44874" lon="2.99432">
        <ele>34</ele>
        <time>2012-02-05T10:11:48Z</time>
      </trkpt>
      <trkpt lat="50.44871" lon="2.99417">
        <ele>34</ele>
        <time>2012-02-05T10:11:50Z</time>
      </trkpt>
      <trkpt lat="50.44868" lon="2.99401">
        <ele>34</ele>
        <time>2012-02-05T10:11:52Z</time>
      </trkpt>
      <trkpt lat="50.44865" lon="2.99388">
        <ele>34</ele>
        <time>2012-02-05T10:11:54Z</time>
      </trkpt>
      <trkpt lat="50.4486" lon="2.9937">
        <ele>34</ele>
        <time>2012-02-05T10:11:57Z</time>
      </trkpt>
      <trkpt lat="50.44855" lon="2.99351">
        <ele>34</ele>
        <time>2012-02-05T10:12:00Z</time>
      </trkpt>
      <trkpt lat="50.44849" lon="2.99334">
        <ele>34</ele>
        <time>2012-02-05T10:12:03Z</time>
      </trkpt>
      <trkpt lat="50.44842" lon="2.99325">
        <ele>34</ele>
        <time>2012-02-05T10:12:05Z</time>
      </trkpt>
      <trkpt lat="50.44831" lon="2.99314">
        <ele>34</ele>
        <time>2012-02-05T10:12:08Z</time>
      </trkpt>
      <trkpt lat="50.44824" lon="2.99305">
        <ele>34</ele>
        <time>2012-02-05T10:12:10Z</time>
      </trkpt>
      <trkpt lat="50.4482" lon="2.99291">
        <ele>34</ele>
        <time>2012-02-05T10:12:13Z</time>
      </trkpt>
      <trkpt lat="50.44821" lon="2.99276">
        <ele>34</ele>
        <time>2012-02-05T10:12:17Z</time>
      </trkpt>
      <trkpt lat="50.44826" lon="2.99259">
        <ele>34</ele>
        <time>2012-02-05T10:12:21Z</time>
      </trkpt>
      <trkpt lat="50.44831" lon="2.99243">
        <ele>34</ele>
        <time>2012-02-05T10:12:25Z</time>
      </trkpt>
      <trkpt lat="50.44835" lon="2.99227">
        <ele>34</ele>
        <time>2012-02-05T10:12:29Z</time>
      </trkpt>
      <trkpt lat="50.44839" lon="2.9921">
        <ele>34</ele>
        <time>2012-02-05T10:12:33Z</time>
      </trkpt>
      <trkpt lat="50.44842" lon="2.99196">
        <ele>34</ele>
        <time>2012-02-05T10:12:37Z</time>
      </trkpt>
      <trkpt lat="50.44843" lon="2.99179">
        <ele>34</ele>
        <time>2012-02-05T10:12:42Z</time>
      </trkpt>
      <trkpt lat="50.44844" lon="2.99164">
        <ele>34</ele>
        <time>2012-02-05T10:12:45Z</time>
      </trkpt>
      <trkpt lat="50.44846" lon="2.99147">
        <ele>34</ele>
        <time>2012-02-05T10:12:48Z</time>
      </trkpt>
      <trkpt lat="50.44847" lon="2.9913">
        <ele>34</ele>
        <time>2012-02-05T10:12:51Z</time>
      </trkpt>
      <trkpt lat="50.44849" lon="2.99113">
        <ele>34</ele>
        <time>2012-02-05T10:12:54Z</time>
      </trkpt>
      <trkpt lat="50.44854" lon="2.99097">
        <ele>34</ele>
        <time>2012-02-05T10:12:57Z</time>
      </trkpt>
      <trkpt lat="50.44859" lon="2.99083">
        <ele>34</ele>
        <time>2012-02-05T10:13:00Z</time>
      </trkpt>
      <trkpt lat="50.44866" lon="2.99069">
        <ele>34</ele>
        <time>2012-02-05T10:13:03Z</time>
      </trkpt>
      <trkpt lat="50.4487" lon="2.99055">
        <ele>34</ele>
        <time>2012-02-05T10:13:06Z</time>
      </trkpt>
      <trkpt lat="50.44876" lon="2.9904">
        <ele>34</ele>
        <time>2012-02-05T10:13:10Z</time>
      </trkpt>
      <trkpt lat="50.44881" lon="2.99028">
        <ele>34</ele>
        <time>2012-02-05T10:13:14Z</time>
      </trkpt>
      <trkpt lat="50.44885" lon="2.99011">
        <ele>34</ele>
        <time>2012-02-05T10:13:19Z</time>
      </trkpt>
      <trkpt lat="50.44882" lon="2.98998">
        <ele>43</ele>
        <time>2012-02-05T10:18:32Z</time>
      </trkpt>
      <trkpt lat="50.44891" lon="2.99002">
        <ele>43</ele>
        <time>2012-02-05T10:22:42Z</time>
      </trkpt>
      <trkpt lat="50.44898" lon="2.98991">
        <ele>43</ele>
        <time>2012-02-05T10:22:45Z</time>
      </trkpt>
      <trkpt lat="50.44907" lon="2.98975">
        <ele>43</ele>
        <time>2012-02-05T10:22:48Z</time>
      </trkpt>
      <trkpt lat="50.44913" lon="2.98962">
        <ele>43</ele>
        <time>2012-02-05T10:22:50Z</time>
      </trkpt>
      <trkpt lat="50.44919" lon="2.98949">
        <ele>43</ele>
        <time>2012-02-05T10:22:52Z</time>
      </trkpt>
      <trkpt lat="50.44925" lon="2.98933">
        <ele>43</ele>
        <time>2012-02-05T10:22:54Z</time>
      </trkpt>
      <trkpt lat="50.44931" lon="2.98917">
        <ele>43</ele>
        <time>2012-02-05T10:22:56Z</time>
      </trkpt>
      <trkpt lat="50.44938" lon="2.98902">
        <ele>43</ele>
        <time>2012-02-05T10:22:58Z</time>
      </trkpt>
      <trkpt lat="50.44946" lon="2.98887">
        <ele>43</ele>
        <time>2012-02-05T10:23:00Z</time>
      </trkpt>
      <trkpt lat="50.44954" lon="2.98872">
        <ele>43</ele>
        <time>2012-02-05T10:23:02Z</time>
      </trkpt>
      <trkpt lat="50.44961" lon="2.98857">
        <ele>43</ele>
        <time>2012-02-05T10:23:04Z</time>
      </trkpt>
      <trkpt lat="50.44968" lon="2.98843">
        <ele>43</ele>
        <time>2012-02-05T10:23:06Z</time>
      </trkpt>
      <trkpt lat="50.44977" lon="2.98829">
        <ele>43</ele>
        <time>2012-02-05T10:23:08Z</time>
      </trkpt>
      <trkpt lat="50.44986" lon="2.98814">
        <ele>43</ele>
        <time>2012-02-05T10:23:10Z</time>
      </trkpt>
      <trkpt lat="50.44996" lon="2.988">
        <ele>43</ele>
        <time>2012-02-05T10:23:12Z</time>
      </trkpt>
      <trkpt lat="50.45006" lon="2.98786">
        <ele>43</ele>
        <time>2012-02-05T10:23:14Z</time>
      </trkpt>
      <trkpt lat="50.45016" lon="2.98773">
        <ele>43</ele>
        <time>2012-02-05T10:23:16Z</time>
      </trkpt>
      <trkpt lat="50.45027" lon="2.98761">
        <ele>43</ele>
        <time>2012-02-05T10:23:18Z</time>
      </trkpt>
      <trkpt lat="50.45037" lon="2.98747">
        <ele>43</ele>
        <time>2012-02-05T10:23:20Z</time>
      </trkpt>
      <trkpt lat="50.45047" lon="2.98734">
        <ele>43</ele>
        <time>2012-02-05T10:23:22Z</time>
      </trkpt>
      <trkpt lat="50.45057" lon="2.9872">
        <ele>43</ele>
        <time>2012-02-05T10:23:24Z</time>
      </trkpt>
      <trkpt lat="50.45067" lon="2.98708">
        <ele>43</ele>
        <time>2012-02-05T10:23:26Z</time>
      </trkpt>
      <trkpt lat="50.45077" lon="2.98696">
        <ele>43</ele>
        <time>2012-02-05T10:23:28Z</time>
      </trkpt>
      <trkpt lat="50.45088" lon="2.98686">
        <ele>43</ele>
        <time>2012-02-05T10:23:30Z</time>
      </trkpt>
      <trkpt lat="50.45098" lon="2.98677">
        <ele>43</ele>
        <time>2012-02-05T10:23:32Z</time>
      </trkpt>
      <trkpt lat="50.45109" lon="2.98667">
        <ele>43</ele>
        <time>2012-02-05T10:23:34Z</time>
      </trkpt>
      <trkpt lat="50.45119" lon="2.98655">
        <ele>43</ele>
        <time>2012-02-05T10:23:36Z</time>
      </trkpt>
      <trkpt lat="50.4513" lon="2.98642">
        <ele>43</ele>
        <time>2012-02-05T10:23:38Z</time>
      </trkpt>
      <trkpt lat="50.45139" lon="2.98628">
        <ele>43</ele>
        <time>2012-02-05T10:23:40Z</time>
      </trkpt>
      <trkpt lat="50.45147" lon="2.98613">
        <ele>43</ele>
        <time>2012-02-05T10:23:42Z</time>
      </trkpt>
      <trkpt lat="50.45156" lon="2.98597">
        <ele>43</ele>
        <time>2012-02-05T10:23:44Z</time>
      </trkpt>
      <trkpt lat="50.45163" lon="2.98582">
        <ele>43</ele>
        <time>2012-02-05T10:23:46Z</time>
      </trkpt>
      <trkpt lat="50.4517" lon="2.98566">
        <ele>43</ele>
        <time>2012-02-05T10:23:48Z</time>
      </trkpt>
      <trkpt lat="50.45178" lon="2.98551">
        <ele>43</ele>
        <time>2012-02-05T10:23:50Z</time>
      </trkpt>
      <trkpt lat="50.45184" lon="2.98534">
        <ele>43</ele>
        <time>2012-02-05T10:23:52Z</time>
      </trkpt>
      <trkpt lat="50.45192" lon="2.98517">
        <ele>43</ele>
        <time>2012-02-05T10:23:54Z</time>
      </trkpt>
      <trkpt lat="50.45198" lon="2.985">
        <ele>43</ele>
        <time>2012-02-05T10:23:56Z</time>
      </trkpt>
      <trkpt lat="50.45205" lon="2.98482">
        <ele>43</ele>
        <time>2012-02-05T10:23:58Z</time>
      </trkpt>
      <trkpt lat="50.45211" lon="2.98464">
        <ele>43</ele>
        <time>2012-02-05T10:24:00Z</time>
      </trkpt>
      <trkpt lat="50.45218" lon="2.98447">
        <ele>43</ele>
        <time>2012-02-05T10:24:02Z</time>
      </trkpt>
      <trkpt lat="50.45227" lon="2.9843">
        <ele>43</ele>
        <time>2012-02-05T10:24:04Z</time>
      </trkpt>
      <trkpt lat="50.45236" lon="2.98415">
        <ele>43</ele>
        <time>2012-02-05T10:24:06Z</time>
      </trkpt>
      <trkpt lat="50.45248" lon="2.98402">
        <ele>43</ele>
        <time>2012-02-05T10:24:08Z</time>
      </trkpt>
      <trkpt lat="50.45261" lon="2.98392">
        <ele>43</ele>
        <time>2012-02-05T10:24:10Z</time>
      </trkpt>
      <trkpt lat="50.45275" lon="2.98383">
        <ele>43</ele>
        <time>2012-02-05T10:24:12Z</time>
      </trkpt>
      <trkpt lat="50.4529" lon="2.98377">
        <ele>43</ele>
        <time>2012-02-05T10:24:14Z</time>
      </trkpt>
      <trkpt lat="50.45305" lon="2.98376">
        <ele>43</ele>
        <time>2012-02-05T10:24:16Z</time>
      </trkpt>
      <trkpt lat="50.45319" lon="2.98379">
        <ele>43</ele>
        <time>2012-02-05T10:24:18Z</time>
      </trkpt>
      <trkpt lat="50.45335" lon="2.98387">
        <ele>43</ele>
        <time>2012-02-05T10:24:20Z</time>
      </trkpt>
      <trkpt lat="50.4535" lon="2.98394">
        <ele>43</ele>
        <time>2012-02-05T10:24:22Z</time>
      </trkpt>
      <trkpt lat="50.45365" lon="2.98401">
        <ele>43</ele>
        <time>2012-02-05T10:24:24Z</time>
      </trkpt>
      <trkpt lat="50.45379" lon="2.98411">
        <ele>43</ele>
        <time>2012-02-05T10:24:26Z</time>
      </trkpt>
      <trkpt lat="50.45392" lon="2.98422">
        <ele>43</ele>
        <time>2012-02-05T10:24:28Z</time>
      </trkpt>
      <trkpt lat="50.45402" lon="2.98437">
        <ele>43</ele>
        <time>2012-02-05T10:24:30Z</time>
      </trkpt>
      <trkpt lat="50.4541" lon="2.98455">
        <ele>43</ele>
        <time>2012-02-05T10:24:32Z</time>
      </trkpt>
      <trkpt lat="50.45412" lon="2.98477">
        <ele>43</ele>
        <time>2012-02-05T10:24:34Z</time>
      </trkpt>
      <trkpt lat="50.45414" lon="2.98499">
        <ele>43</ele>
        <time>2012-02-05T10:24:36Z</time>
      </trkpt>
      <trkpt lat="50.45416" lon="2.98522">
        <ele>43</ele>
        <time>2012-02-05T10:24:38Z</time>
      </trkpt>
      <trkpt lat="50.4542" lon="2.98543">
        <ele>43</ele>
        <time>2012-02-05T10:24:40Z</time>
      </trkpt>
      <trkpt lat="50.45424" lon="2.98565">
        <ele>43</ele>
        <time>2012-02-05T10:24:42Z</time>
      </trkpt>
      <trkpt lat="50.45428" lon="2.98587">
        <ele>43</ele>
        <time>2012-02-05T10:24:44Z</time>
      </trkpt>
      <trkpt lat="50.45433" lon="2.98608">
        <ele>43</ele>
        <time>2012-02-05T10:24:46Z</time>
      </trkpt>
      <trkpt lat="50.45438" lon="2.98629">
        <ele>38</ele>
        <time>2012-02-05T10:24:48Z</time>
      </trkpt>
      <trkpt lat="50.45443" lon="2.98649">
        <ele>38</ele>
        <time>2012-02-05T10:24:50Z</time>
      </trkpt>
      <trkpt lat="50.45447" lon="2.9867">
        <ele>38</ele>
        <time>2012-02-05T10:24:52Z</time>
      </trkpt>
      <trkpt lat="50.45454" lon="2.98687">
        <ele>38</ele>
        <time>2012-02-05T10:24:54Z</time>
      </trkpt>
      <trkpt lat="50.45462" lon="2.98697">
        <ele>38</ele>
        <time>2012-02-05T10:24:56Z</time>
      </trkpt>
      <trkpt lat="50.45474" lon="2.98699">
        <ele>38</ele>
        <time>2012-02-05T10:24:58Z</time>
      </trkpt>
      <trkpt lat="50.45487" lon="2.987">
        <ele>38</ele>
        <time>2012-02-05T10:25:00Z</time>
      </trkpt>
      <trkpt lat="50.45501" lon="2.98704">
        <ele>32</ele>
        <time>2012-02-05T10:25:02Z</time>
      </trkpt>
      <trkpt lat="50.45513" lon="2.98714">
        <ele>32</ele>
        <time>2012-02-05T10:25:04Z</time>
      </trkpt>
      <trkpt lat="50.4552" lon="2.9873">
        <ele>32</ele>
        <time>2012-02-05T10:25:06Z</time>
      </trkpt>
      <trkpt lat="50.45523" lon="2.98748">
        <ele>32</ele>
        <time>2012-02-05T10:25:08Z</time>
      </trkpt>
      <trkpt lat="50.45527" lon="2.98765">
        <ele>32</ele>
        <time>2012-02-05T10:25:10Z</time>
      </trkpt>
      <trkpt lat="50.45534" lon="2.9878">
        <ele>32</ele>
        <time>2012-02-05T10:25:12Z</time>
      </trkpt>
      <trkpt lat="50.45544" lon="2.98786">
        <ele>32</ele>
        <time>2012-02-05T10:25:14Z</time>
      </trkpt>
      <trkpt lat="50.45554" lon="2.9879">
        <ele>32</ele>
        <time>2012-02-05T10:25:16Z</time>
      </trkpt>
      <trkpt lat="50.45565" lon="2.98801">
        <ele>32</ele>
        <time>2012-02-05T10:25:19Z</time>
      </trkpt>
      <trkpt lat="50.4557" lon="2.98819">
        <ele>27</ele>
        <time>2012-02-05T10:25:21Z</time>
      </trkpt>
      <trkpt lat="50.45574" lon="2.98841">
        <ele>27</ele>
        <time>2012-02-05T10:25:23Z</time>
      </trkpt>
      <trkpt lat="50.45577" lon="2.98862">
        <ele>27</ele>
        <time>2012-02-05T10:25:25Z</time>
      </trkpt>
      <trkpt lat="50.45581" lon="2.98884">
        <ele>27</ele>
        <time>2012-02-05T10:25:27Z</time>
      </trkpt>
      <trkpt lat="50.45588" lon="2.98903">
        <ele>27</ele>
        <time>2012-02-05T10:25:29Z</time>
      </trkpt>
      <trkpt lat="50.456" lon="2.98919">
        <ele>27</ele>
        <time>2012-02-05T10:25:31Z</time>
      </trkpt>
      <trkpt lat="50.45611" lon="2.98936">
        <ele>27</ele>
        <time>2012-02-05T10:25:33Z</time>
      </trkpt>
      <trkpt lat="50.45622" lon="2.98954">
        <ele>27</ele>
        <time>2012-02-05T10:25:35Z</time>
      </trkpt>
      <trkpt lat="50.45632" lon="2.98972">
        <ele>27</ele>
        <time>2012-02-05T10:25:37Z</time>
      </trkpt>
      <trkpt lat="50.45638" lon="2.98991">
        <ele>27</ele>
        <time>2012-02-05T10:25:39Z</time>
      </trkpt>
      <trkpt lat="50.45637" lon="2.9901">
        <ele>27</ele>
        <time>2012-02-05T10:25:41Z</time>
      </trkpt>
      <trkpt lat="50.45629" lon="2.9902">
        <ele>27</ele>
        <time>2012-02-05T10:25:43Z</time>
      </trkpt>
      <trkpt lat="50.45622" lon="2.9903">
        <ele>27</ele>
        <time>2012-02-05T10:25:45Z</time>
      </trkpt>
      <trkpt lat="50.45622" lon="2.99052">
        <ele>27</ele>
        <time>2012-02-05T10:25:48Z</time>
      </trkpt>
      <trkpt lat="50.45624" lon="2.99068">
        <ele>27</ele>
        <time>2012-02-05T10:25:50Z</time>
      </trkpt>
      <trkpt lat="50.45625" lon="2.99085">
        <ele>27</ele>
        <time>2012-02-05T10:25:52Z</time>
      </trkpt>
      <trkpt lat="50.45625" lon="2.99102">
        <ele>27</ele>
        <time>2012-02-05T10:25:54Z</time>
      </trkpt>
      <trkpt lat="50.45625" lon="2.99119">
        <ele>27</ele>
        <time>2012-02-05T10:25:56Z</time>
      </trkpt>
      <trkpt lat="50.45624" lon="2.99136">
        <ele>27</ele>
        <time>2012-02-05T10:25:58Z</time>
      </trkpt>
      <trkpt lat="50.45624" lon="2.99154">
        <ele>27</ele>
        <time>2012-02-05T10:26:00Z</time>
      </trkpt>
      <trkpt lat="50.45625" lon="2.99174">
        <ele>27</ele>
        <time>2012-02-05T10:26:02Z</time>
      </trkpt>
      <trkpt lat="50.45626" lon="2.99195">
        <ele>27</ele>
        <time>2012-02-05T10:26:04Z</time>
      </trkpt>
      <trkpt lat="50.45627" lon="2.99214">
        <ele>27</ele>
        <time>2012-02-05T10:26:06Z</time>
      </trkpt>
      <trkpt lat="50.45628" lon="2.99233">
        <ele>27</ele>
        <time>2012-02-05T10:26:08Z</time>
      </trkpt>
      <trkpt lat="50.45629" lon="2.9925">
        <ele>27</ele>
        <time>2012-02-05T10:26:10Z</time>
      </trkpt>
      <trkpt lat="50.45631" lon="2.99264">
        <ele>27</ele>
        <time>2012-02-05T10:26:12Z</time>
      </trkpt>
      <trkpt lat="50.45634" lon="2.99279">
        <ele>27</ele>
        <time>2012-02-05T10:26:15Z</time>
      </trkpt>
      <trkpt lat="50.45641" lon="2.99292">
        <ele>27</ele>
        <time>2012-02-05T10:26:24Z</time>
      </trkpt>
      <trkpt lat="50.45649" lon="2.99303">
        <ele>27</ele>
        <time>2012-02-05T10:26:27Z</time>
      </trkpt>
      <trkpt lat="50.45656" lon="2.99315">
        <ele>27</ele>
        <time>2012-02-05T10:26:29Z</time>
      </trkpt>
      <trkpt lat="50.45664" lon="2.99328">
        <ele>27</ele>
        <time>2012-02-05T10:26:31Z</time>
      </trkpt>
      <trkpt lat="50.45672" lon="2.99341">
        <ele>27</ele>
        <time>2012-02-05T10:26:33Z</time>
      </trkpt>
      <trkpt lat="50.45678" lon="2.99356">
        <ele>27</ele>
        <time>2012-02-05T10:26:35Z</time>
      </trkpt>
      <trkpt lat="50.45686" lon="2.99372">
        <ele>27</ele>
        <time>2012-02-05T10:26:37Z</time>
      </trkpt>
      <trkpt lat="50.45695" lon="2.99385">
        <ele>27</ele>
        <time>2012-02-05T10:26:39Z</time>
      </trkpt>
      <trkpt lat="50.45704" lon="2.99399">
        <ele>27</ele>
        <time>2012-02-05T10:26:41Z</time>
      </trkpt>
      <trkpt lat="50.45713" lon="2.99413">
        <ele>27</ele>
        <time>2012-02-05T10:26:43Z</time>
      </trkpt>
      <trkpt lat="50.45724" lon="2.99427">
        <ele>27</ele>
        <time>2012-02-05T10:26:45Z</time>
      </trkpt>
      <trkpt lat="50.45734" lon="2.9944">
        <ele>27</ele>
        <time>2012-02-05T10:26:47Z</time>
      </trkpt>
      <trkpt lat="50.45743" lon="2.99455">
        <ele>27</ele>
        <time>2012-02-05T10:26:49Z</time>
      </trkpt>
      <trkpt lat="50.45752" lon="2.9947">
        <ele>27</ele>
        <time>2012-02-05T10:26:51Z</time>
      </trkpt>
      <trkpt lat="50.45761" lon="2.99485">
        <ele>27</ele>
        <time>2012-02-05T10:26:53Z</time>
      </trkpt>
      <trkpt lat="50.45771" lon="2.99497">
        <ele>27</ele>
        <time>2012-02-05T10:26:55Z</time>
      </trkpt>
      <trkpt lat="50.4578" lon="2.99513">
        <ele>27</ele>
        <time>2012-02-05T10:26:57Z</time>
      </trkpt>
      <trkpt lat="50.45788" lon="2.99529">
        <ele>27</ele>
        <time>2012-02-05T10:26:59Z</time>
      </trkpt>
      <trkpt lat="50.45798" lon="2.99541">
        <ele>27</ele>
        <time>2012-02-05T10:27:01Z</time>
      </trkpt>
      <trkpt lat="50.45807" lon="2.99555">
        <ele>27</ele>
        <time>2012-02-05T10:27:03Z</time>
      </trkpt>
      <trkpt lat="50.45814" lon="2.99571">
        <ele>27</ele>
        <time>2012-02-05T10:27:05Z</time>
      </trkpt>
      <trkpt lat="50.45821" lon="2.99586">
        <ele>27</ele>
        <time>2012-02-05T10:27:07Z</time>
      </trkpt>
      <trkpt lat="50.45832" lon="2.99599">
        <ele>27</ele>
        <time>2012-02-05T10:27:09Z</time>
      </trkpt>
      <trkpt lat="50.45841" lon="2.99612">
        <ele>27</ele>
        <time>2012-02-05T10:27:11Z</time>
      </trkpt>
      <trkpt lat="50.45851" lon="2.99625">
        <ele>27</ele>
        <time>2012-02-05T10:27:13Z</time>
      </trkpt>
      <trkpt lat="50.45861" lon="2.99638">
        <ele>27</ele>
        <time>2012-02-05T10:27:15Z</time>
      </trkpt>
      <trkpt lat="50.45872" lon="2.9965">
        <ele>27</ele>
        <time>2012-02-05T10:27:17Z</time>
      </trkpt>
      <trkpt lat="50.45881" lon="2.99663">
        <ele>27</ele>
        <time>2012-02-05T10:27:19Z</time>
      </trkpt>
      <trkpt lat="50.45892" lon="2.99673">
        <ele>27</ele>
        <time>2012-02-05T10:27:21Z</time>
      </trkpt>
      <trkpt lat="50.45902" lon="2.99685">
        <ele>27</ele>
        <time>2012-02-05T10:27:23Z</time>
      </trkpt>
      <trkpt lat="50.4591" lon="2.997">
        <ele>27</ele>
        <time>2012-02-05T10:27:25Z</time>
      </trkpt>
      <trkpt lat="50.45919" lon="2.99715">
        <ele>27</ele>
        <time>2012-02-05T10:27:27Z</time>
      </trkpt>
      <trkpt lat="50.45927" lon="2.99729">
        <ele>27</ele>
        <time>2012-02-05T10:27:29Z</time>
      </trkpt>
      <trkpt lat="50.45934" lon="2.99745">
        <ele>27</ele>
        <time>2012-02-05T10:27:31Z</time>
      </trkpt>
      <trkpt lat="50.45941" lon="2.9976">
        <ele>27</ele>
        <time>2012-02-05T10:27:33Z</time>
      </trkpt>
      <trkpt lat="50.4595" lon="2.99773">
        <ele>27</ele>
        <time>2012-02-05T10:27:35Z</time>
      </trkpt>
      <trkpt lat="50.45959" lon="2.99788">
        <ele>27</ele>
        <time>2012-02-05T10:27:37Z</time>
      </trkpt>
      <trkpt lat="50.4597" lon="2.99802">
        <ele>27</ele>
        <time>2012-02-05T10:27:39Z</time>
      </trkpt>
      <trkpt lat="50.45981" lon="2.99815">
        <ele>27</ele>
        <time>2012-02-05T10:27:41Z</time>
      </trkpt>
      <trkpt lat="50.45992" lon="2.99827">
        <ele>27</ele>
        <time>2012-02-05T10:27:43Z</time>
      </trkpt>
      <trkpt lat="50.46003" lon="2.99837">
        <ele>27</ele>
        <time>2012-02-05T10:27:45Z</time>
      </trkpt>
      <trkpt lat="50.46014" lon="2.99847">
        <ele>27</ele>
        <time>2012-02-05T10:27:47Z</time>
      </trkpt>
      <trkpt lat="50.46024" lon="2.99857">
        <ele>27</ele>
        <time>2012-02-05T10:27:49Z</time>
      </trkpt>
      <trkpt lat="50.46032" lon="2.99871">
        <ele>27</ele>
        <time>2012-02-05T10:27:51Z</time>
      </trkpt>
      <trkpt lat="50.4604" lon="2.99882">
        <ele>27</ele>
        <time>2012-02-05T10:27:53Z</time>
      </trkpt>
      <trkpt lat="50.4605" lon="2.99887">
        <ele>27</ele>
        <time>2012-02-05T10:27:55Z</time>
      </trkpt>
      <trkpt lat="50.46062" lon="2.99887">
        <ele>27</ele>
        <time>2012-02-05T10:27:58Z</time>
      </trkpt>
      <trkpt lat="50.46072" lon="2.99893">
        <ele>27</ele>
        <time>2012-02-05T10:28:01Z</time>
      </trkpt>
      <trkpt lat="50.4608" lon="2.99899">
        <ele>27</ele>
        <time>2012-02-05T10:28:03Z</time>
      </trkpt>
      <trkpt lat="50.4609" lon="2.99906">
        <ele>27</ele>
        <time>2012-02-05T10:28:05Z</time>
      </trkpt>
      <trkpt lat="50.46099" lon="2.99914">
        <ele>27</ele>
        <time>2012-02-05T10:28:07Z</time>
      </trkpt>
      <trkpt lat="50.46108" lon="2.99923">
        <ele>27</ele>
        <time>2012-02-05T10:28:09Z</time>
      </trkpt>
      <trkpt lat="50.46118" lon="2.99932">
        <ele>27</ele>
        <time>2012-02-05T10:28:11Z</time>
      </trkpt>
      <trkpt lat="50.46128" lon="2.9994">
        <ele>27</ele>
        <time>2012-02-05T10:28:13Z</time>
      </trkpt>
      <trkpt lat="50.46138" lon="2.99948">
        <ele>27</ele>
        <time>2012-02-05T10:28:15Z</time>
      </trkpt>
      <trkpt lat="50.46148" lon="2.99957">
        <ele>27</ele>
        <time>2012-02-05T10:28:17Z</time>
      </trkpt>
      <trkpt lat="50.46158" lon="2.99965">
        <ele>27</ele>
        <time>2012-02-05T10:28:19Z</time>
      </trkpt>
      <trkpt lat="50.46169" lon="2.99974">
        <ele>27</ele>
        <time>2012-02-05T10:28:21Z</time>
      </trkpt>
      <trkpt lat="50.46181" lon="2.99983">
        <ele>27</ele>
        <time>2012-02-05T10:28:23Z</time>
      </trkpt>
      <trkpt lat="50.46192" lon="2.99992">
        <ele>27</ele>
        <time>2012-02-05T10:28:25Z</time>
      </trkpt>
      <trkpt lat="50.46203" lon="3.00001">
        <ele>27</ele>
        <time>2012-02-05T10:28:27Z</time>
      </trkpt>
      <trkpt lat="50.46215" lon="3.0001">
        <ele>27</ele>
        <time>2012-02-05T10:28:29Z</time>
      </trkpt>
      <trkpt lat="50.46226" lon="3.00018">
        <ele>27</ele>
        <time>2012-02-05T10:28:31Z</time>
      </trkpt>
      <trkpt lat="50.46238" lon="3.00027">
        <ele>27</ele>
        <time>2012-02-05T10:28:33Z</time>
      </trkpt>
      <trkpt lat="50.4625" lon="3.00036">
        <ele>27</ele>
        <time>2012-02-05T10:28:35Z</time>
      </trkpt>
      <trkpt lat="50.46261" lon="3.00045">
        <ele>27</ele>
        <time>2012-02-05T10:28:37Z</time>
      </trkpt>
      <trkpt lat="50.46272" lon="3.00054">
        <ele>27</ele>
        <time>2012-02-05T10:28:39Z</time>
      </trkpt>
      <trkpt lat="50.46283" lon="3.00063">
        <ele>27</ele>
        <time>2012-02-05T10:28:41Z</time>
      </trkpt>
      <trkpt lat="50.46294" lon="3.00072">
        <ele>27</ele>
        <time>2012-02-05T10:28:43Z</time>
      </trkpt>
      <trkpt lat="50.46304" lon="3.00081">
        <ele>27</ele>
        <time>2012-02-05T10:28:45Z</time>
      </trkpt>
      <trkpt lat="50.46315" lon="3.0009">
        <ele>27</ele>
        <time>2012-02-05T10:28:47Z</time>
      </trkpt>
      <trkpt lat="50.46325" lon="3.00099">
        <ele>27</ele>
        <time>2012-02-05T10:28:49Z</time>
      </trkpt>
      <trkpt lat="50.46336" lon="3.00107">
        <ele>27</ele>
        <time>2012-02-05T10:28:51Z</time>
      </trkpt>
      <trkpt lat="50.46347" lon="3.00116">
        <ele>27</ele>
        <time>2012-02-05T10:28:53Z</time>
      </trkpt>
      <trkpt lat="50.46357" lon="3.00124">
        <ele>27</ele>
        <time>2012-02-05T10:28:55Z</time>
      </trkpt>
      <trkpt lat="50.46368" lon="3.00133">
        <ele>27</ele>
        <time>2012-02-05T10:28:57Z</time>
      </trkpt>
      <trkpt lat="50.46378" lon="3.00142">
        <ele>27</ele>
        <time>2012-02-05T10:28:59Z</time>
      </trkpt>
      <trkpt lat="50.46388" lon="3.00151">
        <ele>27</ele>
        <time>2012-02-05T10:29:01Z</time>
      </trkpt>
      <trkpt lat="50.46399" lon="3.0016">
        <ele>27</ele>
        <time>2012-02-05T10:29:03Z</time>
      </trkpt>
      <trkpt lat="50.46409" lon="3.00168">
        <ele>27</ele>
        <time>2012-02-05T10:29:05Z</time>
      </trkpt>
      <trkpt lat="50.4642" lon="3.00177">
        <ele>27</ele>
        <time>2012-02-05T10:29:07Z</time>
      </trkpt>
      <trkpt lat="50.46431" lon="3.00186">
        <ele>27</ele>
        <time>2012-02-05T10:29:09Z</time>
      </trkpt>
      <trkpt lat="50.46442" lon="3.00195">
        <ele>27</ele>
        <time>2012-02-05T10:29:11Z</time>
      </trkpt>
      <trkpt lat="50.46453" lon="3.00204">
        <ele>27</ele>
        <time>2012-02-05T10:29:13Z</time>
      </trkpt>
      <trkpt lat="50.46465" lon="3.00213">
        <ele>27</ele>
        <time>2012-02-05T10:29:15Z</time>
      </trkpt>
      <trkpt lat="50.46475" lon="3.00222">
        <ele>27</ele>
        <time>2012-02-05T10:29:17Z</time>
      </trkpt>
      <trkpt lat="50.46486" lon="3.0023">
        <ele>27</ele>
        <time>2012-02-05T10:29:19Z</time>
      </trkpt>
      <trkpt lat="50.46497" lon="3.00239">
        <ele>27</ele>
        <time>2012-02-05T10:29:21Z</time>
      </trkpt>
      <trkpt lat="50.46508" lon="3.00248">
        <ele>27</ele>
        <time>2012-02-05T10:29:23Z</time>
      </trkpt>
      <trkpt lat="50.46519" lon="3.00257">
        <ele>27</ele>
        <time>2012-02-05T10:29:25Z</time>
      </trkpt>
      <trkpt lat="50.46529" lon="3.00266">
        <ele>27</ele>
        <time>2012-02-05T10:29:27Z</time>
      </trkpt>
      <trkpt lat="50.4654" lon="3.00275">
        <ele>27</ele>
        <time>2012-02-05T10:29:29Z</time>
      </trkpt>
      <trkpt lat="50.46551" lon="3.00283">
        <ele>27</ele>
        <time>2012-02-05T10:29:31Z</time>
      </trkpt>
      <trkpt lat="50.46561" lon="3.0029">
        <ele>27</ele>
        <time>2012-02-05T10:29:33Z</time>
      </trkpt>
      <trkpt lat="50.46571" lon="3.00292">
        <ele>27</ele>
        <time>2012-02-05T10:29:35Z</time>
      </trkpt>
      <trkpt lat="50.4658" lon="3.00279">
        <ele>27</ele>
        <time>2012-02-05T10:29:38Z</time>
      </trkpt>
      <trkpt lat="50.46583" lon="3.0026">
        <ele>27</ele>
        <time>2012-02-05T10:29:41Z</time>
      </trkpt>
      <trkpt lat="50.46586" lon="3.00247">
        <ele>27</ele>
        <time>2012-02-05T10:29:43Z</time>
      </trkpt>
      <trkpt lat="50.4659" lon="3.00232">
        <ele>27</ele>
        <time>2012-02-05T10:29:45Z</time>
      </trkpt>
      <trkpt lat="50.46593" lon="3.00219">
        <ele>27</ele>
        <time>2012-02-05T10:29:47Z</time>
      </trkpt>
      <trkpt lat="50.46597" lon="3.00204">
        <ele>27</ele>
        <time>2012-02-05T10:29:49Z</time>
      </trkpt>
      <trkpt lat="50.466" lon="3.00189">
        <ele>27</ele>
        <time>2012-02-05T10:29:51Z</time>
      </trkpt>
      <trkpt lat="50.46605" lon="3.00174">
        <ele>27</ele>
        <time>2012-02-05T10:29:53Z</time>
      </trkpt>
      <trkpt lat="50.4661" lon="3.0016">
        <ele>27</ele>
        <time>2012-02-05T10:29:55Z</time>
      </trkpt>
      <trkpt lat="50.46617" lon="3.00144">
        <ele>27</ele>
        <time>2012-02-05T10:29:57Z</time>
      </trkpt>
      <trkpt lat="50.46623" lon="3.0013">
        <ele>27</ele>
        <time>2012-02-05T10:29:59Z</time>
      </trkpt>
      <trkpt lat="50.4663" lon="3.00116">
        <ele>27</ele>
        <time>2012-02-05T10:30:01Z</time>
      </trkpt>
      <trkpt lat="50.46637" lon="3.00103">
        <ele>27</ele>
        <time>2012-02-05T10:30:03Z</time>
      </trkpt>
      <trkpt lat="50.46645" lon="3.0009">
        <ele>27</ele>
        <time>2012-02-05T10:30:05Z</time>
      </trkpt>
      <trkpt lat="50.46652" lon="3.00077">
        <ele>27</ele>
        <time>2012-02-05T10:30:07Z</time>
      </trkpt>
      <trkpt lat="50.4666" lon="3.00064">
        <ele>27</ele>
        <time>2012-02-05T10:30:09Z</time>
      </trkpt>
      <trkpt lat="50.46668" lon="3.00051">
        <ele>27</ele>
        <time>2012-02-05T10:30:11Z</time>
      </trkpt>
      <trkpt lat="50.46676" lon="3.00037">
        <ele>27</ele>
        <time>2012-02-05T10:30:13Z</time>
      </trkpt>
      <trkpt lat="50.46683" lon="3.00025">
        <ele>27</ele>
        <time>2012-02-05T10:30:15Z</time>
      </trkpt>
      <trkpt lat="50.46691" lon="3.00012">
        <ele>27</ele>
        <time>2012-02-05T10:30:17Z</time>
      </trkpt>
      <trkpt lat="50.46698" lon="2.99998">
        <ele>27</ele>
        <time>2012-02-05T10:30:19Z</time>
      </trkpt>
      <trkpt lat="50.46705" lon="2.99984">
        <ele>27</ele>
        <time>2012-02-05T10:30:21Z</time>
      </trkpt>
      <trkpt lat="50.46714" lon="2.99971">
        <ele>27</ele>
        <time>2012-02-05T10:30:23Z</time>
      </trkpt>
      <trkpt lat="50.46721" lon="2.99957">
        <ele>27</ele>
        <time>2012-02-05T10:30:25Z</time>
      </trkpt>
      <trkpt lat="50.46728" lon="2.99943">
        <ele>27</ele>
        <time>2012-02-05T10:30:27Z</time>
      </trkpt>
      <trkpt lat="50.46735" lon="2.9993">
        <ele>27</ele>
        <time>2012-02-05T10:30:29Z</time>
      </trkpt>
      <trkpt lat="50.46743" lon="2.99915">
        <ele>27</ele>
        <time>2012-02-05T10:30:31Z</time>
      </trkpt>
      <trkpt lat="50.4675" lon="2.99902">
        <ele>27</ele>
        <time>2012-02-05T10:30:33Z</time>
      </trkpt>
      <trkpt lat="50.46757" lon="2.99888">
        <ele>27</ele>
        <time>2012-02-05T10:30:35Z</time>
      </trkpt>
      <trkpt lat="50.46763" lon="2.99876">
        <ele>27</ele>
        <time>2012-02-05T10:30:37Z</time>
      </trkpt>
      <trkpt lat="50.46769" lon="2.99861">
        <ele>27</ele>
        <time>2012-02-05T10:30:39Z</time>
      </trkpt>
      <trkpt lat="50.46775" lon="2.99849">
        <ele>27</ele>
        <time>2012-02-05T10:30:41Z</time>
      </trkpt>
      <trkpt lat="50.4678" lon="2.99837">
        <ele>27</ele>
        <time>2012-02-05T10:30:43Z</time>
      </trkpt>
      <trkpt lat="50.46785" lon="2.99825">
        <ele>27</ele>
        <time>2012-02-05T10:30:45Z</time>
      </trkpt>
      <trkpt lat="50.46788" lon="2.99808">
        <ele>27</ele>
        <time>2012-02-05T10:30:48Z</time>
      </trkpt>
      <trkpt lat="50.46781" lon="2.99792">
        <ele>27</ele>
        <time>2012-02-05T10:30:51Z</time>
      </trkpt>
      <trkpt lat="50.46774" lon="2.99783">
        <ele>27</ele>
        <time>2012-02-05T10:30:53Z</time>
      </trkpt>
      <trkpt lat="50.46766" lon="2.99774">
        <ele>27</ele>
        <time>2012-02-05T10:30:55Z</time>
      </trkpt>
      <trkpt lat="50.46758" lon="2.99766">
        <ele>27</ele>
        <time>2012-02-05T10:30:57Z</time>
      </trkpt>
      <trkpt lat="50.46749" lon="2.99757">
        <ele>27</ele>
        <time>2012-02-05T10:30:59Z</time>
      </trkpt>
      <trkpt lat="50.4674" lon="2.99749">
        <ele>27</ele>
        <time>2012-02-05T10:31:01Z</time>
      </trkpt>
      <trkpt lat="50.46732" lon="2.9974">
        <ele>27</ele>
        <time>2012-02-05T10:31:03Z</time>
      </trkpt>
      <trkpt lat="50.46723" lon="2.99731">
        <ele>27</ele>
        <time>2012-02-05T10:31:05Z</time>
      </trkpt>
      <trkpt lat="50.46714" lon="2.99722">
        <ele>27</ele>
        <time>2012-02-05T10:31:07Z</time>
      </trkpt>
      <trkpt lat="50.46704" lon="2.99713">
        <ele>27</ele>
        <time>2012-02-05T10:31:09Z</time>
      </trkpt>
      <trkpt lat="50.46694" lon="2.99704">
        <ele>27</ele>
        <time>2012-02-05T10:31:11Z</time>
      </trkpt>
      <trkpt lat="50.46684" lon="2.99695">
        <ele>27</ele>
        <time>2012-02-05T10:31:13Z</time>
      </trkpt>
      <trkpt lat="50.46675" lon="2.99685">
        <ele>27</ele>
        <time>2012-02-05T10:31:15Z</time>
      </trkpt>
      <trkpt lat="50.46665" lon="2.99674">
        <ele>27</ele>
        <time>2012-02-05T10:31:17Z</time>
      </trkpt>
      <trkpt lat="50.46657" lon="2.99664">
        <ele>27</ele>
        <time>2012-02-05T10:31:19Z</time>
      </trkpt>
      <trkpt lat="50.46648" lon="2.99654">
        <ele>27</ele>
        <time>2012-02-05T10:31:21Z</time>
      </trkpt>
      <trkpt lat="50.46641" lon="2.99644">
        <ele>27</ele>
        <time>2012-02-05T10:31:23Z</time>
      </trkpt>
      <trkpt lat="50.46634" lon="2.99633">
        <ele>32</ele>
        <time>2012-02-05T10:31:25Z</time>
      </trkpt>
      <trkpt lat="50.46627" lon="2.99621">
        <ele>32</ele>
        <time>2012-02-05T10:31:27Z</time>
      </trkpt>
      <trkpt lat="50.46621" lon="2.99611">
        <ele>32</ele>
        <time>2012-02-05T10:31:29Z</time>
      </trkpt>
      <trkpt lat="50.46612" lon="2.99602">
        <ele>32</ele>
        <time>2012-02-05T10:31:31Z</time>
      </trkpt>
      <trkpt lat="50.46605" lon="2.99592">
        <ele>32</ele>
        <time>2012-02-05T10:31:33Z</time>
      </trkpt>
      <trkpt lat="50.46598" lon="2.9958">
        <ele>32</ele>
        <time>2012-02-05T10:31:35Z</time>
      </trkpt>
      <trkpt lat="50.46591" lon="2.99568">
        <ele>32</ele>
        <time>2012-02-05T10:31:37Z</time>
      </trkpt>
      <trkpt lat="50.46583" lon="2.99557">
        <ele>32</ele>
        <time>2012-02-05T10:31:39Z</time>
      </trkpt>
      <trkpt lat="50.46576" lon="2.99546">
        <ele>32</ele>
        <time>2012-02-05T10:31:41Z</time>
      </trkpt>
      <trkpt lat="50.4657" lon="2.99534">
        <ele>32</ele>
        <time>2012-02-05T10:31:43Z</time>
      </trkpt>
      <trkpt lat="50.46562" lon="2.99524">
        <ele>32</ele>
        <time>2012-02-05T10:31:45Z</time>
      </trkpt>
      <trkpt lat="50.46552" lon="2.99511">
        <ele>32</ele>
        <time>2012-02-05T10:31:48Z</time>
      </trkpt>
      <trkpt lat="50.46544" lon="2.99497">
        <ele>32</ele>
        <time>2012-02-05T10:31:51Z</time>
      </trkpt>
      <trkpt lat="50.46536" lon="2.99488">
        <ele>32</ele>
        <time>2012-02-05T10:31:54Z</time>
      </trkpt>
      <trkpt lat="50.46525" lon="2.99491">
        <ele>32</ele>
        <time>2012-02-05T10:31:59Z</time>
      </trkpt>
      <trkpt lat="50.46518" lon="2.99503">
        <ele>32</ele>
        <time>2012-02-05T10:32:03Z</time>
      </trkpt>
      <trkpt lat="50.46512" lon="2.99514">
        <ele>32</ele>
        <time>2012-02-05T10:32:06Z</time>
      </trkpt>
      <trkpt lat="50.46505" lon="2.99526">
        <ele>32</ele>
        <time>2012-02-05T10:32:10Z</time>
      </trkpt>
      <trkpt lat="50.46497" lon="2.99537">
        <ele>32</ele>
        <time>2012-02-05T10:32:14Z</time>
      </trkpt>
      <trkpt lat="50.4649" lon="2.99548">
        <ele>32</ele>
        <time>2012-02-05T10:32:18Z</time>
      </trkpt>
      <trkpt lat="50.4649" lon="2.99562">
        <ele>32</ele>
        <time>2012-02-05T10:33:01Z</time>
      </trkpt>
      <trkpt lat="50.46491" lon="2.99577">
        <ele>32</ele>
        <time>2012-02-05T10:39:37Z</time>
      </trkpt>
      <trkpt lat="50.4649" lon="2.99591">
        <ele>37</ele>
        <time>2012-02-05T10:40:08Z</time>
      </trkpt>
      <trkpt lat="50.46492" lon="2.99605">
        <ele>44</ele>
        <time>2012-02-05T10:40:17Z</time>
      </trkpt>
      <trkpt lat="50.46485" lon="2.99616">
        <ele>52</ele>
        <time>2012-02-05T10:40:32Z</time>
      </trkpt>
      <trkpt lat="50.46489" lon="2.99603">
        <ele>37</ele>
        <time>2012-02-05T10:41:10Z</time>
      </trkpt>
      <trkpt lat="50.46484" lon="2.99592">
        <ele>37</ele>
        <time>2012-02-05T10:42:03Z</time>
      </trkpt>
      <trkpt lat="50.46485" lon="2.99606">
        <ele>37</ele>
        <time>2012-02-05T10:44:03Z</time>
      </trkpt>
      <trkpt lat="50.4649" lon="2.99592">
        <ele>71</ele>
        <time>2012-02-05T10:44:53Z</time>
      </trkpt>
      <trkpt lat="50.46483" lon="2.99601">
        <ele>61</ele>
        <time>2012-02-05T10:46:04Z</time>
      </trkpt>
      <trkpt lat="50.4649" lon="2.99593">
        <ele>43</ele>
        <time>2012-02-05T10:46:43Z</time>
      </trkpt>
      <trkpt lat="50.46494" lon="2.9958">
        <ele>43</ele>
        <time>2012-02-05T10:46:55Z</time>
      </trkpt>
      <trkpt lat="50.46498" lon="2.99594">
        <ele>32</ele>
        <time>2012-02-05T10:47:20Z</time>
      </trkpt>
      <trkpt lat="50.4649" lon="2.99602">
        <ele>21</ele>
        <time>2012-02-05T10:48:08Z</time>
      </trkpt>
      <trkpt lat="50.46483" lon="2.99611">
        <ele>28</ele>
        <time>2012-02-05T10:48:43Z</time>
      </trkpt>
      <trkpt lat="50.46477" lon="2.99601">
        <ele>48</ele>
        <time>2012-02-05T10:49:38Z</time>
      </trkpt>
      <trkpt lat="50.46468" lon="2.99596">
        <ele>48</ele>
        <time>2012-02-05T10:50:16Z</time>
      </trkpt>
      <trkpt lat="50.4646" lon="2.99588">
        <ele>58</ele>
        <time>2012-02-05T10:50:32Z</time>
      </trkpt>
      <trkpt lat="50.46456" lon="2.99574">
        <ele>68</ele>
        <time>2012-02-05T10:50:46Z</time>
      </trkpt>
      <trkpt lat="50.46461" lon="2.99562">
        <ele>54</ele>
        <time>2012-02-05T10:51:23Z</time>
      </trkpt>
      <trkpt lat="50.46469" lon="2.99553">
        <ele>43</ele>
        <time>2012-02-05T10:51:34Z</time>
      </trkpt>
      <trkpt lat="50.46477" lon="2.99559">
        <ele>36</ele>
        <time>2012-02-05T10:51:49Z</time>
      </trkpt>
      <trkpt lat="50.46485" lon="2.99568">
        <ele>27</ele>
        <time>2012-02-05T10:52:05Z</time>
      </trkpt>
      <trkpt lat="50.4649" lon="2.9958">
        <ele>27</ele>
        <time>2012-02-05T10:52:21Z</time>
      </trkpt>
      <trkpt lat="50.46481" lon="2.99585">
        <ele>9</ele>
        <time>2012-02-05T10:52:59Z</time>
      </trkpt>
      <trkpt lat="50.46474" lon="2.99576">
        <ele>34</ele>
        <time>2012-02-05T10:53:16Z</time>
      </trkpt>
      <trkpt lat="50.46482" lon="2.99585">
        <ele>48</ele>
        <time>2012-02-05T10:54:01Z</time>
      </trkpt>
      <trkpt lat="50.46492" lon="2.99584">
        <ele>36</ele>
        <time>2012-02-05T10:54:08Z</time>
      </trkpt>
      <trkpt lat="50.46501" lon="2.99586">
        <ele>25</ele>
        <time>2012-02-05T10:54:27Z</time>
      </trkpt>
    </trkseg>
  </trk>
</gpx>